﻿<?xml version="1.0" encoding="utf-8"?><gpx creator="Garmin Desktop App" version="1.1" xsi:schemaLocation="http://www.topografix.com/GPX/1/1 http://www.topografix.com/GPX/1/1/gpx.xsd http://www.garmin.com/xmlschemas/WaypointExtension/v1 http://www8.garmin.com/xmlschemas/WaypointExtensionv1.xsd http://www.garmin.com/xmlschemas/TrackPointExtension/v1 http://www.garmin.com/xmlschemas/TrackPointExtensionv1.xsd http://www.garmin.com/xmlschemas/GpxExtensions/v3 http://www8.garmin.com/xmlschemas/GpxExtensionsv3.xsd http://www.garmin.com/xmlschemas/ActivityExtension/v1 http://www8.garmin.com/xmlschemas/ActivityExtensionv1.xsd http://www.garmin.com/xmlschemas/AdventuresExtensions/v1 http://www8.garmin.com/xmlschemas/AdventuresExtensionv1.xsd http://www.garmin.com/xmlschemas/PressureExtension/v1 http://www.garmin.com/xmlschemas/PressureExtensionv1.xsd http://www.garmin.com/xmlschemas/TripExtensions/v1 http://www.garmin.com/xmlschemas/TripExtensionsv1.xsd http://www.garmin.com/xmlschemas/TripMetaDataExtensions/v1 http://www.garmin.com/xmlschemas/TripMetaDataExtensionsv1.xsd http://www.garmin.com/xmlschemas/ViaPointTransportationModeExtensions/v1 http://www.garmin.com/xmlschemas/ViaPointTransportationModeExtensionsv1.xsd http://www.garmin.com/xmlschemas/CreationTimeExtension/v1 http://www.garmin.com/xmlschemas/CreationTimeExtensionsv1.xsd http://www.garmin.com/xmlschemas/AccelerationExtension/v1 http://www.garmin.com/xmlschemas/AccelerationExtensionv1.xsd http://www.garmin.com/xmlschemas/PowerExtension/v1 http://www.garmin.com/xmlschemas/PowerExtensionv1.xsd http://www.garmin.com/xmlschemas/VideoExtension/v1 http://www.garmin.com/xmlschemas/VideoExtensionv1.xsd" xmlns="http://www.topografix.com/GPX/1/1" xmlns:xsi="http://www.w3.org/2001/XMLSchema-instance" xmlns:wptx1="http://www.garmin.com/xmlschemas/WaypointExtension/v1" xmlns:gpxtrx="http://www.garmin.com/xmlschemas/GpxExtensions/v3" xmlns:gpxtpx="http://www.garmin.com/xmlschemas/TrackPointExtension/v1" xmlns:gpxx="http://www.garmin.com/xmlschemas/GpxExtensions/v3" xmlns:trp="http://www.garmin.com/xmlschemas/TripExtensions/v1" xmlns:adv="http://www.garmin.com/xmlschemas/AdventuresExtensions/v1" xmlns:prs="http://www.garmin.com/xmlschemas/PressureExtension/v1" xmlns:tmd="http://www.garmin.com/xmlschemas/TripMetaDataExtensions/v1" xmlns:vptm="http://www.garmin.com/xmlschemas/ViaPointTransportationModeExtensions/v1" xmlns:ctx="http://www.garmin.com/xmlschemas/CreationTimeExtension/v1" xmlns:gpxacc="http://www.garmin.com/xmlschemas/AccelerationExtension/v1" xmlns:gpxpx="http://www.garmin.com/xmlschemas/PowerExtension/v1" xmlns:vidx1="http://www.garmin.com/xmlschemas/VideoExtension/v1">

  <metadata>
    <link href="http://www.garmin.com">
      <text>Garmin International</text>
    </link>
    <time>2017-06-17T19:26:12Z</time>
    <bounds maxlat="58.166881995275617" maxlon="10.19398296251893" minlat="50.065470999106765" minlon="7.982309013605118" />
  </metadata>

  <trk>
    <name>Track vom: 17 JUN 2017 04:14</name>
    <extensions>
      <gpxx:TrackExtension>
        <gpxx:DisplayColor>DarkGray</gpxx:DisplayColor>
      </gpxx:TrackExtension>
    </extensions>
    <trkseg>
      <trkpt lat="50.068461997434497" lon="8.478071009740233">
        <ele>118.86</ele>
        <time>2017-06-17T02:14:18Z</time>
      </trkpt>
      <trkpt lat="50.068488987162709" lon="8.478131024166942">
        <ele>126.06999999999999</ele>
        <time>2017-06-17T02:15:39Z</time>
      </trkpt>
      <trkpt lat="50.068488987162709" lon="8.478134041652083">
        <ele>125.59</ele>
        <time>2017-06-17T02:16:55Z</time>
      </trkpt>
      <trkpt lat="50.068496027961373" lon="8.478136975318193">
        <ele>126.06999999999999</ele>
        <time>2017-06-17T02:18:06Z</time>
      </trkpt>
      <trkpt lat="50.068498961627483" lon="8.478138986974955">
        <ele>126.55</ele>
        <time>2017-06-17T02:19:43Z</time>
      </trkpt>
      <trkpt lat="50.068498961627483" lon="8.478139992803335">
        <ele>126.55</ele>
        <time>2017-06-17T02:19:46Z</time>
      </trkpt>
      <trkpt lat="50.068529974669218" lon="8.478302014991641">
        <ele>125.59</ele>
        <time>2017-06-17T02:19:59Z</time>
      </trkpt>
      <trkpt lat="50.068512037396431" lon="8.478353982791305">
        <ele>125.59</ele>
        <time>2017-06-17T02:20:00Z</time>
      </trkpt>
      <trkpt lat="50.068484041839838" lon="8.47840896807611">
        <ele>125.59</ele>
        <time>2017-06-17T02:20:01Z</time>
      </trkpt>
      <trkpt lat="50.068451017141342" lon="8.478456996381283">
        <ele>125.59</ele>
        <time>2017-06-17T02:20:02Z</time>
      </trkpt>
      <trkpt lat="50.068281032145023" lon="8.478593034669757">
        <ele>123.67</ele>
        <time>2017-06-17T02:20:10Z</time>
      </trkpt>
      <trkpt lat="50.068196039646864" lon="8.478666041046381">
        <ele>121.26000000000001</ele>
        <time>2017-06-17T02:20:27Z</time>
      </trkpt>
      <trkpt lat="50.06819000467658" lon="8.478689007461071">
        <ele>121.26000000000001</ele>
        <time>2017-06-17T02:20:28Z</time>
      </trkpt>
      <trkpt lat="50.068193022161722" lon="8.478718008846045">
        <ele>121.26000000000001</ele>
        <time>2017-06-17T02:20:29Z</time>
      </trkpt>
      <trkpt lat="50.068202996626496" lon="8.478741981089115">
        <ele>120.78</ele>
        <time>2017-06-17T02:20:30Z</time>
      </trkpt>
      <trkpt lat="50.068227974697948" lon="8.478769976645708">
        <ele>122.22</ele>
        <time>2017-06-17T02:20:44Z</time>
      </trkpt>
      <trkpt lat="50.068225963041186" lon="8.478767964988947">
        <ele>122.22</ele>
        <time>2017-06-17T02:22:05Z</time>
      </trkpt>
      <trkpt lat="50.068245995789766" lon="8.478778023272753">
        <ele>120.78</ele>
        <time>2017-06-17T02:22:16Z</time>
      </trkpt>
      <trkpt lat="50.068268040195107" lon="8.47879696637392">
        <ele>120.3</ele>
        <time>2017-06-17T02:22:17Z</time>
      </trkpt>
      <trkpt lat="50.06829796358943" lon="8.47883703187108">
        <ele>119.81999999999999</ele>
        <time>2017-06-17T02:22:18Z</time>
      </trkpt>
      <trkpt lat="50.068675987422466" lon="8.479556031525135">
        <ele>117.90000000000001</ele>
        <time>2017-06-17T02:22:26Z</time>
      </trkpt>
      <trkpt lat="50.06885795854032" lon="8.47986800596118">
        <ele>115.98</ele>
        <time>2017-06-17T02:22:29Z</time>
      </trkpt>
      <trkpt lat="50.069297002628446" lon="8.480775011703372">
        <ele>110.69</ele>
        <time>2017-06-17T02:22:37Z</time>
      </trkpt>
      <trkpt lat="50.069331033155322" lon="8.480929993093014">
        <ele>115.01000000000001</ele>
        <time>2017-06-17T02:22:38Z</time>
      </trkpt>
      <trkpt lat="50.069529013708234" lon="8.48143600858748">
        <ele>110.20999999999999</ele>
        <time>2017-06-17T02:22:45Z</time>
      </trkpt>
      <trkpt lat="50.069528007879853" lon="8.481476996093988">
        <ele>109.73</ele>
        <time>2017-06-17T02:22:46Z</time>
      </trkpt>
      <trkpt lat="50.069537982344627" lon="8.481505997478962">
        <ele>109.73</ele>
        <time>2017-06-17T02:22:47Z</time>
      </trkpt>
      <trkpt lat="50.069550974294543" lon="8.481533993035555">
        <ele>112.13</ele>
        <time>2017-06-17T02:22:48Z</time>
      </trkpt>
      <trkpt lat="50.069567989557981" lon="8.481541033834219">
        <ele>112.13</ele>
        <time>2017-06-17T02:22:49Z</time>
      </trkpt>
      <trkpt lat="50.0695860106498" lon="8.481528963893652">
        <ele>112.13</ele>
        <time>2017-06-17T02:22:50Z</time>
      </trkpt>
      <trkpt lat="50.069595985114574" lon="8.481508009135723">
        <ele>112.13</ele>
        <time>2017-06-17T02:22:51Z</time>
      </trkpt>
      <trkpt lat="50.069605959579349" lon="8.481485964730382">
        <ele>112.13</ele>
        <time>2017-06-17T02:22:52Z</time>
      </trkpt>
      <trkpt lat="50.069576958194375" lon="8.481396026909351">
        <ele>112.13</ele>
        <time>2017-06-17T02:22:55Z</time>
      </trkpt>
      <trkpt lat="50.069547034800053" lon="8.481334000825882">
        <ele>112.13</ele>
        <time>2017-06-17T02:22:56Z</time>
      </trkpt>
      <trkpt lat="50.069373026490211" lon="8.480940973386169">
        <ele>113.56999999999999</ele>
        <time>2017-06-17T02:23:00Z</time>
      </trkpt>
      <trkpt lat="50.068724015727639" lon="8.479625014588237">
        <ele>112.13</ele>
        <time>2017-06-17T02:23:11Z</time>
      </trkpt>
      <trkpt lat="50.067680971696973" lon="8.477401966229081">
        <ele>111.17</ele>
        <time>2017-06-17T02:23:27Z</time>
      </trkpt>
      <trkpt lat="50.067223990336061" lon="8.476231014356017">
        <ele>112.13</ele>
        <time>2017-06-17T02:23:35Z</time>
      </trkpt>
      <trkpt lat="50.067160036414862" lon="8.476115008816123">
        <ele>112.61</ele>
        <time>2017-06-17T02:23:36Z</time>
      </trkpt>
      <trkpt lat="50.066611021757126" lon="8.475083028897643">
        <ele>112.61</ele>
        <time>2017-06-17T02:23:46Z</time>
      </trkpt>
      <trkpt lat="50.066581014543772" lon="8.474973980337381">
        <ele>113.09</ele>
        <time>2017-06-17T02:23:47Z</time>
      </trkpt>
      <trkpt lat="50.066461991518736" lon="8.474662005901337">
        <ele>112.13</ele>
        <time>2017-06-17T02:23:50Z</time>
      </trkpt>
      <trkpt lat="50.066312961280346" lon="8.474324969574809">
        <ele>113.09</ele>
        <time>2017-06-17T02:23:53Z</time>
      </trkpt>
      <trkpt lat="50.065617011860013" lon="8.472089013084769">
        <ele>114.05</ele>
        <time>2017-06-17T02:24:10Z</time>
      </trkpt>
      <trkpt lat="50.065470999106765" lon="8.471202962100506">
        <ele>113.09</ele>
        <time>2017-06-17T02:24:17Z</time>
      </trkpt>
      <trkpt lat="50.065486002713442" lon="8.471086034551263">
        <ele>113.09</ele>
        <time>2017-06-17T02:24:18Z</time>
      </trkpt>
      <trkpt lat="50.06552497856319" lon="8.470971034839749">
        <ele>112.61</ele>
        <time>2017-06-17T02:24:19Z</time>
      </trkpt>
      <trkpt lat="50.065587004646659" lon="8.470874978229404">
        <ele>112.13</ele>
        <time>2017-06-17T02:24:20Z</time>
      </trkpt>
      <trkpt lat="50.06565498188138" lon="8.470788979902864">
        <ele>112.13</ele>
        <time>2017-06-17T02:24:21Z</time>
      </trkpt>
      <trkpt lat="50.065732011571527" lon="8.470714967697859">
        <ele>112.61</ele>
        <time>2017-06-17T02:24:22Z</time>
      </trkpt>
      <trkpt lat="50.065810969099402" lon="8.470642967149615">
        <ele>112.61</ele>
        <time>2017-06-17T02:24:23Z</time>
      </trkpt>
      <trkpt lat="50.067221978679299" lon="8.469585003331304">
        <ele>117.90000000000001</ele>
        <time>2017-06-17T02:24:40Z</time>
      </trkpt>
      <trkpt lat="50.067770993337035" lon="8.469308987259865">
        <ele>120.3</ele>
        <time>2017-06-17T02:24:47Z</time>
      </trkpt>
      <trkpt lat="50.067837964743376" lon="8.469312004745007">
        <ele>120.78</ele>
        <time>2017-06-17T02:24:48Z</time>
      </trkpt>
      <trkpt lat="50.067907031625509" lon="8.469342011958361">
        <ele>120.3</ele>
        <time>2017-06-17T02:24:49Z</time>
      </trkpt>
      <trkpt lat="50.067966962233186" lon="8.469400014728308">
        <ele>120.3</ele>
        <time>2017-06-17T02:24:50Z</time>
      </trkpt>
      <trkpt lat="50.068021025508642" lon="8.469486013054848">
        <ele>120.78</ele>
        <time>2017-06-17T02:24:51Z</time>
      </trkpt>
      <trkpt lat="50.068071987479925" lon="8.469593971967697">
        <ele>120.3</ele>
        <time>2017-06-17T02:24:52Z</time>
      </trkpt>
      <trkpt lat="50.068120015785098" lon="8.469716012477875">
        <ele>120.3</ele>
        <time>2017-06-17T02:24:53Z</time>
      </trkpt>
      <trkpt lat="50.068167960271239" lon="8.469846015796065">
        <ele>119.81999999999999</ele>
        <time>2017-06-17T02:24:54Z</time>
      </trkpt>
      <trkpt lat="50.068264016881585" lon="8.470098981633782">
        <ele>118.86</ele>
        <time>2017-06-17T02:24:56Z</time>
      </trkpt>
      <trkpt lat="50.068325037136674" lon="8.470205012708902">
        <ele>118.38</ele>
        <time>2017-06-17T02:24:57Z</time>
      </trkpt>
      <trkpt lat="50.068394020199776" lon="8.470293022692204">
        <ele>117.90000000000001</ele>
        <time>2017-06-17T02:24:58Z</time>
      </trkpt>
      <trkpt lat="50.068471971899271" lon="8.470365023240447">
        <ele>117.42</ele>
        <time>2017-06-17T02:24:59Z</time>
      </trkpt>
      <trkpt lat="50.068560987710953" lon="8.470411961898208">
        <ele>116.94</ele>
        <time>2017-06-17T02:25:00Z</time>
      </trkpt>
      <trkpt lat="50.068656960502267" lon="8.470429982990027">
        <ele>116.94</ele>
        <time>2017-06-17T02:25:01Z</time>
      </trkpt>
      <trkpt lat="50.068762991577387" lon="8.470407016575337">
        <ele>116.45999999999999</ele>
        <time>2017-06-17T02:25:02Z</time>
      </trkpt>
      <trkpt lat="50.068867010995746" lon="8.470362005755305">
        <ele>115.98</ele>
        <time>2017-06-17T02:25:03Z</time>
      </trkpt>
      <trkpt lat="50.068966001272202" lon="8.470305008813739">
        <ele>115.01000000000001</ele>
        <time>2017-06-17T02:25:04Z</time>
      </trkpt>
      <trkpt lat="50.069170016795397" lon="8.470192020758987">
        <ele>114.05</ele>
        <time>2017-06-17T02:25:06Z</time>
      </trkpt>
      <trkpt lat="50.069283004850149" lon="8.470165031030774">
        <ele>113.09</ele>
        <time>2017-06-17T02:25:07Z</time>
      </trkpt>
      <trkpt lat="50.069404961541295" lon="8.470169976353645">
        <ele>112.61</ele>
        <time>2017-06-17T02:25:08Z</time>
      </trkpt>
      <trkpt lat="50.069535970687866" lon="8.470208030194044">
        <ele>112.61</ele>
        <time>2017-06-17T02:25:09Z</time>
      </trkpt>
      <trkpt lat="50.069659017026424" lon="8.470282964408398">
        <ele>112.13</ele>
        <time>2017-06-17T02:25:10Z</time>
      </trkpt>
      <trkpt lat="50.06977996788919" lon="8.470397964119911">
        <ele>112.13</ele>
        <time>2017-06-17T02:25:11Z</time>
      </trkpt>
      <trkpt lat="50.069892033934593" lon="8.47054498270154">
        <ele>112.13</ele>
        <time>2017-06-17T02:25:12Z</time>
      </trkpt>
      <trkpt lat="50.069997981190681" lon="8.470713039860129">
        <ele>112.13</ele>
        <time>2017-06-17T02:25:13Z</time>
      </trkpt>
      <trkpt lat="50.070105018094182" lon="8.470889981836081">
        <ele>111.65000000000001</ele>
        <time>2017-06-17T02:25:14Z</time>
      </trkpt>
      <trkpt lat="50.071504963561893" lon="8.473045974969864">
        <ele>111.17</ele>
        <time>2017-06-17T02:25:25Z</time>
      </trkpt>
      <trkpt lat="50.073484014719725" lon="8.475892972201109">
        <ele>114.53</ele>
        <time>2017-06-17T02:25:38Z</time>
      </trkpt>
      <trkpt lat="50.075813010334969" lon="8.478921018540859">
        <ele>117.42</ele>
        <time>2017-06-17T02:25:51Z</time>
      </trkpt>
      <trkpt lat="50.078090960159898" lon="8.48188703879714">
        <ele>117.42</ele>
        <time>2017-06-17T02:26:02Z</time>
      </trkpt>
      <trkpt lat="50.080612991005182" lon="8.485312974080443">
        <ele>117.42</ele>
        <time>2017-06-17T02:26:14Z</time>
      </trkpt>
      <trkpt lat="50.082057025283575" lon="8.486384013667703">
        <ele>118.38</ele>
        <time>2017-06-17T02:26:20Z</time>
      </trkpt>
      <trkpt lat="50.083623016253114" lon="8.486771006137133">
        <ele>120.78</ele>
        <time>2017-06-17T02:26:26Z</time>
      </trkpt>
      <trkpt lat="50.085412971675396" lon="8.486417038366199">
        <ele>121.73999999999999</ele>
        <time>2017-06-17T02:26:33Z</time>
      </trkpt>
      <trkpt lat="50.089032026007771" lon="8.484974009916186">
        <ele>120.3</ele>
        <time>2017-06-17T02:26:47Z</time>
      </trkpt>
      <trkpt lat="50.093274023383856" lon="8.483489993959665">
        <ele>119.34</ele>
        <time>2017-06-17T02:27:03Z</time>
      </trkpt>
      <trkpt lat="50.095191970467567" lon="8.483598958700895">
        <ele>117.90000000000001</ele>
        <time>2017-06-17T02:27:10Z</time>
      </trkpt>
      <trkpt lat="50.096738012507558" lon="8.484527003020048">
        <ele>117.42</ele>
        <time>2017-06-17T02:27:16Z</time>
      </trkpt>
      <trkpt lat="50.098022958263755" lon="8.486179998144507">
        <ele>117.42</ele>
        <time>2017-06-17T02:27:22Z</time>
      </trkpt>
      <trkpt lat="50.099095003679395" lon="8.488704040646553">
        <ele>121.73999999999999</ele>
        <time>2017-06-17T02:27:29Z</time>
      </trkpt>
      <trkpt lat="50.101675037294626" lon="8.495840979740024">
        <ele>123.67</ele>
        <time>2017-06-17T02:27:48Z</time>
      </trkpt>
      <trkpt lat="50.104104029014707" lon="8.502489002421498">
        <ele>122.22</ele>
        <time>2017-06-17T02:28:05Z</time>
      </trkpt>
      <trkpt lat="50.106560010462999" lon="8.50941002368927">
        <ele>118.86</ele>
        <time>2017-06-17T02:28:23Z</time>
      </trkpt>
      <trkpt lat="50.109384041279554" lon="8.517098994925618">
        <ele>120.3</ele>
        <time>2017-06-17T02:28:43Z</time>
      </trkpt>
      <trkpt lat="50.113318003714085" lon="8.52782498113811">
        <ele>117.90000000000001</ele>
        <time>2017-06-17T02:29:11Z</time>
      </trkpt>
      <trkpt lat="50.115773985162377" lon="8.53454802185297">
        <ele>120.3</ele>
        <time>2017-06-17T02:29:29Z</time>
      </trkpt>
      <trkpt lat="50.118525009602308" lon="8.542056027799845">
        <ele>121.73999999999999</ele>
        <time>2017-06-17T02:29:49Z</time>
      </trkpt>
      <trkpt lat="50.121296988800168" lon="8.549813982099295">
        <ele>112.61</ele>
        <time>2017-06-17T02:30:09Z</time>
      </trkpt>
      <trkpt lat="50.123319961130619" lon="8.554834993556142">
        <ele>114.05</ele>
        <time>2017-06-17T02:30:22Z</time>
      </trkpt>
      <trkpt lat="50.126057993620634" lon="8.56114799156785">
        <ele>119.81999999999999</ele>
        <time>2017-06-17T02:30:40Z</time>
      </trkpt>
      <trkpt lat="50.128644984215498" lon="8.567697023972869">
        <ele>121.26000000000001</ele>
        <time>2017-06-17T02:30:58Z</time>
      </trkpt>
      <trkpt lat="50.129091991111636" lon="8.570682993158698">
        <ele>117.42</ele>
        <time>2017-06-17T02:31:05Z</time>
      </trkpt>
      <trkpt lat="50.129466997459531" lon="8.574527017772198">
        <ele>117.42</ele>
        <time>2017-06-17T02:31:14Z</time>
      </trkpt>
      <trkpt lat="50.13021701015532" lon="8.577148960903287">
        <ele>118.38</ele>
        <time>2017-06-17T02:31:21Z</time>
      </trkpt>
      <trkpt lat="50.13240703381598" lon="8.582113981246948">
        <ele>118.86</ele>
        <time>2017-06-17T02:31:36Z</time>
      </trkpt>
      <trkpt lat="50.133557030931115" lon="8.584699966013432">
        <ele>119.34</ele>
        <time>2017-06-17T02:31:45Z</time>
      </trkpt>
      <trkpt lat="50.134395975619555" lon="8.587642014026642">
        <ele>118.86</ele>
        <time>2017-06-17T02:31:55Z</time>
      </trkpt>
      <trkpt lat="50.134654976427555" lon="8.590137977153063">
        <ele>117.42</ele>
        <time>2017-06-17T02:32:03Z</time>
      </trkpt>
      <trkpt lat="50.134552968665957" lon="8.592109987512231">
        <ele>115.5</ele>
        <time>2017-06-17T02:32:10Z</time>
      </trkpt>
      <trkpt lat="50.134508041664958" lon="8.59232003800571">
        <ele>115.5</ele>
        <time>2017-06-17T02:32:11Z</time>
      </trkpt>
      <trkpt lat="50.134452972561121" lon="8.592502009123564">
        <ele>115.01000000000001</ele>
        <time>2017-06-17T02:32:12Z</time>
      </trkpt>
      <trkpt lat="50.134381977841258" lon="8.592637041583657">
        <ele>115.01000000000001</ele>
        <time>2017-06-17T02:32:13Z</time>
      </trkpt>
      <trkpt lat="50.13430000282824" lon="8.592748017981648">
        <ele>115.01000000000001</ele>
        <time>2017-06-17T02:32:14Z</time>
      </trkpt>
      <trkpt lat="50.134222973138094" lon="8.592833010479808">
        <ele>115.5</ele>
        <time>2017-06-17T02:32:15Z</time>
      </trkpt>
      <trkpt lat="50.134101016446948" lon="8.592829992994666">
        <ele>114.53</ele>
        <time>2017-06-17T02:32:16Z</time>
      </trkpt>
      <trkpt lat="50.133989034220576" lon="8.592823036015034">
        <ele>114.05</ele>
        <time>2017-06-17T02:32:17Z</time>
      </trkpt>
      <trkpt lat="50.133875040337443" lon="8.592775007709861">
        <ele>113.56999999999999</ele>
        <time>2017-06-17T02:32:18Z</time>
      </trkpt>
      <trkpt lat="50.133770015090704" lon="8.592680962756276">
        <ele>112.61</ele>
        <time>2017-06-17T02:32:19Z</time>
      </trkpt>
      <trkpt lat="50.133674964308739" lon="8.59253897331655">
        <ele>112.13</ele>
        <time>2017-06-17T02:32:20Z</time>
      </trkpt>
      <trkpt lat="50.133598018437624" lon="8.592367982491851">
        <ele>111.65000000000001</ele>
        <time>2017-06-17T02:32:21Z</time>
      </trkpt>
      <trkpt lat="50.133555019274354" lon="8.592166984453797">
        <ele>110.69</ele>
        <time>2017-06-17T02:32:22Z</time>
      </trkpt>
      <trkpt lat="50.133544960990548" lon="8.591952994465828">
        <ele>110.20999999999999</ele>
        <time>2017-06-17T02:32:23Z</time>
      </trkpt>
      <trkpt lat="50.13356901705265" lon="8.591743027791381">
        <ele>110.20999999999999</ele>
        <time>2017-06-17T02:32:24Z</time>
      </trkpt>
      <trkpt lat="50.133627019822598" lon="8.59154898673296">
        <ele>109.73</ele>
        <time>2017-06-17T02:32:25Z</time>
      </trkpt>
      <trkpt lat="50.133712012320757" lon="8.59137699007988">
        <ele>109.25</ele>
        <time>2017-06-17T02:32:26Z</time>
      </trkpt>
      <trkpt lat="50.133821982890368" lon="8.591230977326632">
        <ele>109.25</ele>
        <time>2017-06-17T02:32:27Z</time>
      </trkpt>
      <trkpt lat="50.133953997865319" lon="8.59113902784884">
        <ele>109.25</ele>
        <time>2017-06-17T02:32:28Z</time>
      </trkpt>
      <trkpt lat="50.134092969819903" lon="8.591085970401764">
        <ele>109.73</ele>
        <time>2017-06-17T02:32:29Z</time>
      </trkpt>
      <trkpt lat="50.134234959259629" lon="8.59107700176537">
        <ele>109.73</ele>
        <time>2017-06-17T02:32:30Z</time>
      </trkpt>
      <trkpt lat="50.134381977841258" lon="8.591102985665202">
        <ele>110.20999999999999</ele>
        <time>2017-06-17T02:32:31Z</time>
      </trkpt>
      <trkpt lat="50.134532013908029" lon="8.591149002313614">
        <ele>110.69</ele>
        <time>2017-06-17T02:32:32Z</time>
      </trkpt>
      <trkpt lat="50.135916033759713" lon="8.59167798422277">
        <ele>114.05</ele>
        <time>2017-06-17T02:32:40Z</time>
      </trkpt>
      <trkpt lat="50.138175962492824" lon="8.592906016856432">
        <ele>115.5</ele>
        <time>2017-06-17T02:32:51Z</time>
      </trkpt>
      <trkpt lat="50.1416049990803" lon="8.594740983098745">
        <ele>115.98</ele>
        <time>2017-06-17T02:33:07Z</time>
      </trkpt>
      <trkpt lat="50.144765982404351" lon="8.596490034833551">
        <ele>116.94</ele>
        <time>2017-06-17T02:33:21Z</time>
      </trkpt>
      <trkpt lat="50.149689009413123" lon="8.599210968241096">
        <ele>127.98999999999999</ele>
        <time>2017-06-17T02:33:43Z</time>
      </trkpt>
      <trkpt lat="50.153620960190892" lon="8.601387999951839">
        <ele>133.75999999999999</ele>
        <time>2017-06-17T02:34:00Z</time>
      </trkpt>
      <trkpt lat="50.158121958374977" lon="8.603862002491951">
        <ele>131.36000000000001</ele>
        <time>2017-06-17T02:34:17Z</time>
      </trkpt>
      <trkpt lat="50.16227200627327" lon="8.60615897923708">
        <ele>134.24000000000001</ele>
        <time>2017-06-17T02:34:32Z</time>
      </trkpt>
      <trkpt lat="50.166610982269049" lon="8.608548995107412">
        <ele>140.97</ele>
        <time>2017-06-17T02:34:48Z</time>
      </trkpt>
      <trkpt lat="50.171893006190658" lon="8.611439997330308">
        <ele>149.62</ele>
        <time>2017-06-17T02:35:07Z</time>
      </trkpt>
      <trkpt lat="50.178347993642092" lon="8.614990990608931">
        <ele>153.94999999999999</ele>
        <time>2017-06-17T02:35:30Z</time>
      </trkpt>
      <trkpt lat="50.182624021545053" lon="8.617380000650883">
        <ele>154.91</ele>
        <time>2017-06-17T02:35:45Z</time>
      </trkpt>
      <trkpt lat="50.185531033203006" lon="8.619854003190994">
        <ele>157.31</ele>
        <time>2017-06-17T02:35:56Z</time>
      </trkpt>
      <trkpt lat="50.18794996663928" lon="8.62289504148066">
        <ele>151.53999999999999</ele>
        <time>2017-06-17T02:36:06Z</time>
      </trkpt>
      <trkpt lat="50.190130015835166" lon="8.626579977571964">
        <ele>143.84999999999999</ele>
        <time>2017-06-17T02:36:16Z</time>
      </trkpt>
      <trkpt lat="50.194133967161179" lon="8.633491024374962">
        <ele>153.47</ele>
        <time>2017-06-17T02:36:35Z</time>
      </trkpt>
      <trkpt lat="50.198446959257126" lon="8.640986038371921">
        <ele>153.47</ele>
        <time>2017-06-17T02:36:56Z</time>
      </trkpt>
      <trkpt lat="50.203701993450522" lon="8.650120971724391">
        <ele>152.50999999999999</ele>
        <time>2017-06-17T02:37:21Z</time>
      </trkpt>
      <trkpt lat="50.207633022218943" lon="8.656625999137759">
        <ele>140.49000000000001</ele>
        <time>2017-06-17T02:37:39Z</time>
      </trkpt>
      <trkpt lat="50.20960402674973" lon="8.658919036388397">
        <ele>143.84999999999999</ele>
        <time>2017-06-17T02:37:47Z</time>
      </trkpt>
      <trkpt lat="50.21227098070085" lon="8.661163961514831">
        <ele>138.56999999999999</ele>
        <time>2017-06-17T02:37:57Z</time>
      </trkpt>
      <trkpt lat="50.21491002291441" lon="8.662592992186546">
        <ele>137.61000000000001</ele>
        <time>2017-06-17T02:38:06Z</time>
      </trkpt>
      <trkpt lat="50.217942008748651" lon="8.663384998217225">
        <ele>148.18000000000001</ele>
        <time>2017-06-17T02:38:16Z</time>
      </trkpt>
      <trkpt lat="50.221244981512427" lon="8.663411987945437">
        <ele>155.87</ele>
        <time>2017-06-17T02:38:27Z</time>
      </trkpt>
      <trkpt lat="50.225772969424725" lon="8.663325989618897">
        <ele>155.87</ele>
        <time>2017-06-17T02:38:42Z</time>
      </trkpt>
      <trkpt lat="50.233768969774246" lon="8.663195986300707">
        <ele>163.56</ele>
        <time>2017-06-17T02:39:09Z</time>
      </trkpt>
      <trkpt lat="50.238671964034438" lon="8.663093978539109">
        <ele>166.44999999999999</ele>
        <time>2017-06-17T02:39:26Z</time>
      </trkpt>
      <trkpt lat="50.24286400526762" lon="8.663087021559477">
        <ele>172.69</ele>
        <time>2017-06-17T02:39:40Z</time>
      </trkpt>
      <trkpt lat="50.249898014590144" lon="8.662989037111402">
        <ele>182.31</ele>
        <time>2017-06-17T02:40:04Z</time>
      </trkpt>
      <trkpt lat="50.254908967763186" lon="8.662917958572507">
        <ele>182.31</ele>
        <time>2017-06-17T02:40:21Z</time>
      </trkpt>
      <trkpt lat="50.259846998378634" lon="8.662743028253317">
        <ele>183.27000000000001</ele>
        <time>2017-06-17T02:40:37Z</time>
      </trkpt>
      <trkpt lat="50.263462029397488" lon="8.662786027416587">
        <ele>190</ele>
        <time>2017-06-17T02:40:49Z</time>
      </trkpt>
      <trkpt lat="50.266205007210374" lon="8.66326798684895">
        <ele>192.88</ele>
        <time>2017-06-17T02:40:58Z</time>
      </trkpt>
      <trkpt lat="50.269412007182837" lon="8.664388982579112">
        <ele>202.97999999999999</ele>
        <time>2017-06-17T02:41:09Z</time>
      </trkpt>
      <trkpt lat="50.272261016070843" lon="8.665344016626477">
        <ele>216.43000000000001</ele>
        <time>2017-06-17T02:41:19Z</time>
      </trkpt>
      <trkpt lat="50.275787031278014" lon="8.666526032611728">
        <ele>229.41</ele>
        <time>2017-06-17T02:41:31Z</time>
      </trkpt>
      <trkpt lat="50.279228975996375" lon="8.667683992534876">
        <ele>232.78</ele>
        <time>2017-06-17T02:41:42Z</time>
      </trkpt>
      <trkpt lat="50.283196968957782" lon="8.669063989073038">
        <ele>225.09</ele>
        <time>2017-06-17T02:41:54Z</time>
      </trkpt>
      <trkpt lat="50.287022972479463" lon="8.670367039740086">
        <ele>222.68000000000001</ele>
        <time>2017-06-17T02:42:06Z</time>
      </trkpt>
      <trkpt lat="50.292298961430788" lon="8.672134028747678">
        <ele>234.22</ele>
        <time>2017-06-17T02:42:23Z</time>
      </trkpt>
      <trkpt lat="50.297558018937707" lon="8.673958014696837">
        <ele>251.52000000000001</ele>
        <time>2017-06-17T02:42:40Z</time>
      </trkpt>
      <trkpt lat="50.300652030855417" lon="8.67531999014318">
        <ele>262.10000000000002</ele>
        <time>2017-06-17T02:42:50Z</time>
      </trkpt>
      <trkpt lat="50.302649019286036" lon="8.676794031634927">
        <ele>265.45999999999998</ele>
        <time>2017-06-17T02:42:57Z</time>
      </trkpt>
      <trkpt lat="50.305242966860533" lon="8.679546983912587">
        <ele>265.94</ele>
        <time>2017-06-17T02:43:07Z</time>
      </trkpt>
      <trkpt lat="50.309149017557502" lon="8.68406499736011">
        <ele>248.16</ele>
        <time>2017-06-17T02:43:22Z</time>
      </trkpt>
      <trkpt lat="50.313673987984657" lon="8.689104029908776">
        <ele>242.87</ele>
        <time>2017-06-17T02:43:39Z</time>
      </trkpt>
      <trkpt lat="50.316069032996893" lon="8.690861966460943">
        <ele>237.09999999999999</ele>
        <time>2017-06-17T02:43:47Z</time>
      </trkpt>
      <trkpt lat="50.31948197633028" lon="8.692460982128978">
        <ele>226.53</ele>
        <time>2017-06-17T02:43:58Z</time>
      </trkpt>
      <trkpt lat="50.322895003482699" lon="8.693296993151307">
        <ele>227.49000000000001</ele>
        <time>2017-06-17T02:44:09Z</time>
      </trkpt>
      <trkpt lat="50.327077992260456" lon="8.694211039692164">
        <ele>237.58000000000001</ele>
        <time>2017-06-17T02:44:22Z</time>
      </trkpt>
      <trkpt lat="50.331328958272934" lon="8.695198008790612">
        <ele>230.84999999999999</ele>
        <time>2017-06-17T02:44:35Z</time>
      </trkpt>
      <trkpt lat="50.334985982626677" lon="8.696091016754508">
        <ele>235.66</ele>
        <time>2017-06-17T02:44:46Z</time>
      </trkpt>
      <trkpt lat="50.337915038689971" lon="8.69635202921927">
        <ele>246.22999999999999</ele>
        <time>2017-06-17T02:44:55Z</time>
      </trkpt>
      <trkpt lat="50.34105003811419" lon="8.6958790384233">
        <ele>262.10000000000002</ele>
        <time>2017-06-17T02:45:05Z</time>
      </trkpt>
      <trkpt lat="50.34474796615541" lon="8.694508010521531">
        <ele>273.14999999999998</ele>
        <time>2017-06-17T02:45:17Z</time>
      </trkpt>
      <trkpt lat="50.349249970167875" lon="8.693079985678196">
        <ele>273.14999999999998</ele>
        <time>2017-06-17T02:45:31Z</time>
      </trkpt>
      <trkpt lat="50.352229988202453" lon="8.693050984293222">
        <ele>259.20999999999998</ele>
        <time>2017-06-17T02:45:40Z</time>
      </trkpt>
      <trkpt lat="50.355099029839039" lon="8.693771995604038">
        <ele>258.73000000000002</ele>
        <time>2017-06-17T02:45:49Z</time>
      </trkpt>
      <trkpt lat="50.357839995995164" lon="8.695204965770245">
        <ele>255.37</ele>
        <time>2017-06-17T02:45:58Z</time>
      </trkpt>
      <trkpt lat="50.360843986272812" lon="8.697592969983816">
        <ele>238.53999999999999</ele>
        <time>2017-06-17T02:46:08Z</time>
      </trkpt>
      <trkpt lat="50.367043996229768" lon="8.702740967273712">
        <ele>216.43000000000001</ele>
        <time>2017-06-17T02:46:29Z</time>
      </trkpt>
      <trkpt lat="50.369769958779216" lon="8.70458297431469">
        <ele>211.15000000000001</ele>
        <time>2017-06-17T02:46:38Z</time>
      </trkpt>
      <trkpt lat="50.372732961550355" lon="8.7056980188936">
        <ele>196.72999999999999</ele>
        <time>2017-06-17T02:46:47Z</time>
      </trkpt>
      <trkpt lat="50.375528996810317" lon="8.706028014421463">
        <ele>179.41999999999999</ele>
        <time>2017-06-17T02:46:55Z</time>
      </trkpt>
      <trkpt lat="50.378358978778124" lon="8.705610008910298">
        <ele>167.41</ele>
        <time>2017-06-17T02:47:03Z</time>
      </trkpt>
      <trkpt lat="50.381736969575286" lon="8.705026041716337">
        <ele>172.21000000000001</ele>
        <time>2017-06-17T02:47:13Z</time>
      </trkpt>
      <trkpt lat="50.38769599981606" lon="8.704021973535419">
        <ele>186.63</ele>
        <time>2017-06-17T02:47:31Z</time>
      </trkpt>
      <trkpt lat="50.394973000511527" lon="8.702762005850673">
        <ele>197.69</ele>
        <time>2017-06-17T02:47:53Z</time>
      </trkpt>
      <trkpt lat="50.401902990415692" lon="8.701545959338546">
        <ele>185.66999999999999</ele>
        <time>2017-06-17T02:48:14Z</time>
      </trkpt>
      <trkpt lat="50.408065030351281" lon="8.700441978871822">
        <ele>178.46000000000001</ele>
        <time>2017-06-17T02:48:32Z</time>
      </trkpt>
      <trkpt lat="50.413752989843488" lon="8.699457021430135">
        <ele>173.16999999999999</ele>
        <time>2017-06-17T02:48:49Z</time>
      </trkpt>
      <trkpt lat="50.420120973140001" lon="8.698307024315">
        <ele>180.38</ele>
        <time>2017-06-17T02:49:08Z</time>
      </trkpt>
      <trkpt lat="50.427116006612778" lon="8.697098018601537">
        <ele>180.38</ele>
        <time>2017-06-17T02:49:29Z</time>
      </trkpt>
      <trkpt lat="50.431647012010217" lon="8.696351023390889">
        <ele>172.69</ele>
        <time>2017-06-17T02:49:43Z</time>
      </trkpt>
      <trkpt lat="50.435750959441066" lon="8.695643004029989">
        <ele>181.34999999999999</ele>
        <time>2017-06-17T02:49:58Z</time>
      </trkpt>
      <trkpt lat="50.440817987546325" lon="8.694789977744222">
        <ele>180.38</ele>
        <time>2017-06-17T02:50:17Z</time>
      </trkpt>
      <trkpt lat="50.443195011466742" lon="8.694828031584621">
        <ele>182.78999999999999</ele>
        <time>2017-06-17T02:50:26Z</time>
      </trkpt>
      <trkpt lat="50.445244973525405" lon="8.695698995143175">
        <ele>185.66999999999999</ele>
        <time>2017-06-17T02:50:34Z</time>
      </trkpt>
      <trkpt lat="50.447153029963374" lon="8.69738400913775">
        <ele>185.19</ele>
        <time>2017-06-17T02:50:42Z</time>
      </trkpt>
      <trkpt lat="50.448792027309537" lon="8.699822975322604">
        <ele>181.34999999999999</ele>
        <time>2017-06-17T02:50:50Z</time>
      </trkpt>
      <trkpt lat="50.450433036312461" lon="8.703525010496378">
        <ele>180.87</ele>
        <time>2017-06-17T02:51:00Z</time>
      </trkpt>
      <trkpt lat="50.452980967238545" lon="8.709364011883736">
        <ele>187.11000000000001</ele>
        <time>2017-06-17T02:51:16Z</time>
      </trkpt>
      <trkpt lat="50.454812999814749" lon="8.713046014308929">
        <ele>177.02000000000001</ele>
        <time>2017-06-17T02:51:26Z</time>
      </trkpt>
      <trkpt lat="50.457080975174904" lon="8.716302970424295">
        <ele>169.33000000000001</ele>
        <time>2017-06-17T02:51:36Z</time>
      </trkpt>
      <trkpt lat="50.459179971367121" lon="8.718370031565428">
        <ele>179.41999999999999</ele>
        <time>2017-06-17T02:51:44Z</time>
      </trkpt>
      <trkpt lat="50.461953040212393" lon="8.720454024150968">
        <ele>188.08000000000001</ele>
        <time>2017-06-17T02:51:54Z</time>
      </trkpt>
      <trkpt lat="50.466705998405814" lon="8.722930960357189">
        <ele>196.72999999999999</ele>
        <time>2017-06-17T02:52:10Z</time>
      </trkpt>
      <trkpt lat="50.470174010843039" lon="8.724740026518703">
        <ele>213.06999999999999</ele>
        <time>2017-06-17T02:52:22Z</time>
      </trkpt>
      <trkpt lat="50.475545972585678" lon="8.727579982951284">
        <ele>220.28</ele>
        <time>2017-06-17T02:52:40Z</time>
      </trkpt>
      <trkpt lat="50.481659984216094" lon="8.730774996802211">
        <ele>223.16</ele>
        <time>2017-06-17T02:53:00Z</time>
      </trkpt>
      <trkpt lat="50.487523041665554" lon="8.733860962092876">
        <ele>236.13999999999999</ele>
        <time>2017-06-17T02:53:19Z</time>
      </trkpt>
      <trkpt lat="50.492954012006521" lon="8.736676024273038">
        <ele>237.58000000000001</ele>
        <time>2017-06-17T02:53:36Z</time>
      </trkpt>
      <trkpt lat="50.497864969074726" lon="8.739286987110972">
        <ele>220.28</ele>
        <time>2017-06-17T02:53:51Z</time>
      </trkpt>
      <trkpt lat="50.503941010683775" lon="8.742466997355223">
        <ele>207.78</ele>
        <time>2017-06-17T02:54:10Z</time>
      </trkpt>
      <trkpt lat="50.506607964634895" lon="8.744321996346116">
        <ele>214.99000000000001</ele>
        <time>2017-06-17T02:54:19Z</time>
      </trkpt>
      <trkpt lat="50.510452995076776" lon="8.747132029384375">
        <ele>227.49000000000001</ele>
        <time>2017-06-17T02:54:32Z</time>
      </trkpt>
      <trkpt lat="50.512702027335763" lon="8.749295985326171">
        <ele>231.81</ele>
        <time>2017-06-17T02:54:40Z</time>
      </trkpt>
      <trkpt lat="50.517056006938219" lon="8.753346959128976">
        <ele>231.81</ele>
        <time>2017-06-17T02:54:55Z</time>
      </trkpt>
      <trkpt lat="50.520719988271594" lon="8.756711035966873">
        <ele>239.50999999999999</ele>
        <time>2017-06-17T02:55:08Z</time>
      </trkpt>
      <trkpt lat="50.524525037035346" lon="8.760643992573023">
        <ele>235.66</ele>
        <time>2017-06-17T02:55:22Z</time>
      </trkpt>
      <trkpt lat="50.5293919891119" lon="8.765777992084622">
        <ele>242.38999999999999</ele>
        <time>2017-06-17T02:55:40Z</time>
      </trkpt>
      <trkpt lat="50.533859962597489" lon="8.770418968051672">
        <ele>250.08000000000001</ele>
        <time>2017-06-17T02:55:56Z</time>
      </trkpt>
      <trkpt lat="50.537887969985604" lon="8.774721985682845">
        <ele>258.73000000000002</ele>
        <time>2017-06-17T02:56:11Z</time>
      </trkpt>
      <trkpt lat="50.541510041803122" lon="8.778541032224894">
        <ele>253.44</ele>
        <time>2017-06-17T02:56:24Z</time>
      </trkpt>
      <trkpt lat="50.545753967016935" lon="8.782688984647393">
        <ele>239.02000000000001</ele>
        <time>2017-06-17T02:56:39Z</time>
      </trkpt>
      <trkpt lat="50.549921030178666" lon="8.785804035142064">
        <ele>242.87</ele>
        <time>2017-06-17T02:56:53Z</time>
      </trkpt>
      <trkpt lat="50.553298015147448" lon="8.787910994142294">
        <ele>241.91</ele>
        <time>2017-06-17T02:57:04Z</time>
      </trkpt>
      <trkpt lat="50.559345977380872" lon="8.791600959375501">
        <ele>247.68000000000001</ele>
        <time>2017-06-17T02:57:24Z</time>
      </trkpt>
      <trkpt lat="50.563741028308868" lon="8.79428300075233">
        <ele>251.03999999999999</ele>
        <time>2017-06-17T02:57:38Z</time>
      </trkpt>
      <trkpt lat="50.567954024299979" lon="8.7972910143435">
        <ele>262.57999999999998</ele>
        <time>2017-06-17T02:57:52Z</time>
      </trkpt>
      <trkpt lat="50.572426021099091" lon="8.800914008170366">
        <ele>248.16</ele>
        <time>2017-06-17T02:58:07Z</time>
      </trkpt>
      <trkpt lat="50.574987027794123" lon="8.802230972796679">
        <ele>240.94999999999999</ele>
        <time>2017-06-17T02:58:15Z</time>
      </trkpt>
      <trkpt lat="50.580019019544125" lon="8.804203988984227">
        <ele>240.94999999999999</ele>
        <time>2017-06-17T02:58:31Z</time>
      </trkpt>
      <trkpt lat="50.582061018794775" lon="8.805856984108686">
        <ele>234.69999999999999</ele>
        <time>2017-06-17T02:58:38Z</time>
      </trkpt>
      <trkpt lat="50.585932033136487" lon="8.808899028226733">
        <ele>221.24000000000001</ele>
        <time>2017-06-17T02:58:51Z</time>
      </trkpt>
      <trkpt lat="50.588751034811139" lon="8.810362005606294">
        <ele>218.36000000000001</ele>
        <time>2017-06-17T02:59:00Z</time>
      </trkpt>
      <trkpt lat="50.594733031466603" lon="8.813286032527685">
        <ele>221.24000000000001</ele>
        <time>2017-06-17T02:59:19Z</time>
      </trkpt>
      <trkpt lat="50.599427986890078" lon="8.815777972340584">
        <ele>239.02000000000001</ele>
        <time>2017-06-17T02:59:34Z</time>
      </trkpt>
      <trkpt lat="50.602315971627831" lon="8.818240994587541">
        <ele>252.96000000000001</ele>
        <time>2017-06-17T02:59:44Z</time>
      </trkpt>
      <trkpt lat="50.606453027576208" lon="8.82204202003777">
        <ele>269.31</ele>
        <time>2017-06-17T02:59:59Z</time>
      </trkpt>
      <trkpt lat="50.609388034790754" lon="8.825154975056648">
        <ele>275.06999999999999</ele>
        <time>2017-06-17T03:00:10Z</time>
      </trkpt>
      <trkpt lat="50.610823016613722" lon="8.827910022810102">
        <ele>281.31999999999999</ele>
        <time>2017-06-17T03:00:17Z</time>
      </trkpt>
      <trkpt lat="50.611680988222361" lon="8.830770011991262">
        <ele>283.73000000000002</ele>
        <time>2017-06-17T03:00:23Z</time>
      </trkpt>
      <trkpt lat="50.612142998725176" lon="8.834426030516625">
        <ele>279.88</ele>
        <time>2017-06-17T03:00:30Z</time>
      </trkpt>
      <trkpt lat="50.612076027318835" lon="8.83918896317482">
        <ele>279.39999999999998</ele>
        <time>2017-06-17T03:00:39Z</time>
      </trkpt>
      <trkpt lat="50.612079966813326" lon="8.848723964765668">
        <ele>292.86000000000001</ele>
        <time>2017-06-17T03:00:57Z</time>
      </trkpt>
      <trkpt lat="50.612049959599972" lon="8.856315035372973">
        <ele>285.64999999999998</ele>
        <time>2017-06-17T03:01:11Z</time>
      </trkpt>
      <trkpt lat="50.612127995118499" lon="8.863212000578642">
        <ele>301.50999999999999</ele>
        <time>2017-06-17T03:01:24Z</time>
      </trkpt>
      <trkpt lat="50.612649014219642" lon="8.867262974381447">
        <ele>307.75999999999999</ele>
        <time>2017-06-17T03:01:32Z</time>
      </trkpt>
      <trkpt lat="50.613723993301392" lon="8.87119903229177">
        <ele>311.12</ele>
        <time>2017-06-17T03:01:40Z</time>
      </trkpt>
      <trkpt lat="50.615577986463904" lon="8.876261031255126">
        <ele>329.38999999999999</ele>
        <time>2017-06-17T03:01:51Z</time>
      </trkpt>
      <trkpt lat="50.618891017511487" lon="8.885098993778229">
        <ele>328.91000000000003</ele>
        <time>2017-06-17T03:02:10Z</time>
      </trkpt>
      <trkpt lat="50.622767983004451" lon="8.895432036370039">
        <ele>328.43000000000001</ele>
        <time>2017-06-17T03:02:32Z</time>
      </trkpt>
      <trkpt lat="50.625562006607652" lon="8.903152020648122">
        <ele>301.50999999999999</ele>
        <time>2017-06-17T03:02:48Z</time>
      </trkpt>
      <trkpt lat="50.627481965348125" lon="8.909020023420453">
        <ele>307.75999999999999</ele>
        <time>2017-06-17T03:03:00Z</time>
      </trkpt>
      <trkpt lat="50.629652040079236" lon="8.915666034445167">
        <ele>315.44999999999999</ele>
        <time>2017-06-17T03:03:14Z</time>
      </trkpt>
      <trkpt lat="50.631952034309506" lon="8.92293599434197">
        <ele>302.94999999999999</ele>
        <time>2017-06-17T03:03:29Z</time>
      </trkpt>
      <trkpt lat="50.635495986789465" lon="8.934006979689002">
        <ele>282.27999999999997</ele>
        <time>2017-06-17T03:03:52Z</time>
      </trkpt>
      <trkpt lat="50.637985998764634" lon="8.942110016942024">
        <ele>289.00999999999999</ele>
        <time>2017-06-17T03:04:09Z</time>
      </trkpt>
      <trkpt lat="50.638808012008667" lon="8.946155961602926">
        <ele>307.27999999999997</ele>
        <time>2017-06-17T03:04:17Z</time>
      </trkpt>
      <trkpt lat="50.639182012528181" lon="8.95084697753191">
        <ele>318.32999999999998</ele>
        <time>2017-06-17T03:04:26Z</time>
      </trkpt>
      <trkpt lat="50.639788024127483" lon="8.961621997877955">
        <ele>314.00999999999999</ele>
        <time>2017-06-17T03:04:46Z</time>
      </trkpt>
      <trkpt lat="50.640030009672046" lon="8.965249015018344">
        <ele>312.08999999999997</ele>
        <time>2017-06-17T03:04:53Z</time>
      </trkpt>
      <trkpt lat="50.640541976317763" lon="8.971035964787006">
        <ele>297.18000000000001</ele>
        <time>2017-06-17T03:05:03Z</time>
      </trkpt>
      <trkpt lat="50.641683004796505" lon="8.978799032047391">
        <ele>287.56999999999999</ele>
        <time>2017-06-17T03:05:17Z</time>
      </trkpt>
      <trkpt lat="50.643012961372733" lon="8.987110024318099">
        <ele>311.60000000000002</ele>
        <time>2017-06-17T03:05:33Z</time>
      </trkpt>
      <trkpt lat="50.644555985927582" lon="8.994488026946783">
        <ele>332.75</ele>
        <time>2017-06-17T03:05:48Z</time>
      </trkpt>
      <trkpt lat="50.645703971385956" lon="8.997564017772675">
        <ele>337.56</ele>
        <time>2017-06-17T03:05:55Z</time>
      </trkpt>
      <trkpt lat="50.647298963740468" lon="9.000241030007601">
        <ele>335.63999999999999</ele>
        <time>2017-06-17T03:06:02Z</time>
      </trkpt>
      <trkpt lat="50.651430990546942" lon="9.006929034367204">
        <ele>323.13999999999999</ele>
        <time>2017-06-17T03:06:19Z</time>
      </trkpt>
      <trkpt lat="50.654287040233612" lon="9.011673023924232">
        <ele>314.97000000000003</ele>
        <time>2017-06-17T03:06:31Z</time>
      </trkpt>
      <trkpt lat="50.656880987808108" lon="9.015390984714031">
        <ele>304.38999999999999</ele>
        <time>2017-06-17T03:06:41Z</time>
      </trkpt>
      <trkpt lat="50.659128008410335" lon="9.017748981714249">
        <ele>296.69999999999999</ele>
        <time>2017-06-17T03:06:49Z</time>
      </trkpt>
      <trkpt lat="50.661635035648942" lon="9.019485041499138">
        <ele>285.17000000000002</ele>
        <time>2017-06-17T03:06:57Z</time>
      </trkpt>
      <trkpt lat="50.665352996438742" lon="9.021352026611567">
        <ele>270.75</ele>
        <time>2017-06-17T03:07:08Z</time>
      </trkpt>
      <trkpt lat="50.669556017965078" lon="9.023586977273226">
        <ele>264.98000000000002</ele>
        <time>2017-06-17T03:07:21Z</time>
      </trkpt>
      <trkpt lat="50.672972984611988" lon="9.025908010080457">
        <ele>272.67000000000002</ele>
        <time>2017-06-17T03:07:32Z</time>
      </trkpt>
      <trkpt lat="50.679621007293463" lon="9.030716959387064">
        <ele>261.62</ele>
        <time>2017-06-17T03:07:53Z</time>
      </trkpt>
      <trkpt lat="50.681688990443945" lon="9.032763987779617">
        <ele>254.88999999999999</ele>
        <time>2017-06-17T03:08:00Z</time>
      </trkpt>
      <trkpt lat="50.684471027925611" lon="9.03665604069829">
        <ele>253.44</ele>
        <time>2017-06-17T03:08:11Z</time>
      </trkpt>
      <trkpt lat="50.686247991397977" lon="9.038121029734612">
        <ele>250.08000000000001</ele>
        <time>2017-06-17T03:08:17Z</time>
      </trkpt>
      <trkpt lat="50.688514960929751" lon="9.03902099467814">
        <ele>242.38999999999999</ele>
        <time>2017-06-17T03:08:24Z</time>
      </trkpt>
      <trkpt lat="50.693749962374568" lon="9.041145974770188">
        <ele>237.58000000000001</ele>
        <time>2017-06-17T03:08:40Z</time>
      </trkpt>
      <trkpt lat="50.696835005655885" lon="9.043374974280596">
        <ele>238.53999999999999</ele>
        <time>2017-06-17T03:08:50Z</time>
      </trkpt>
      <trkpt lat="50.700403014197946" lon="9.046549033373594">
        <ele>232.78</ele>
        <time>2017-06-17T03:09:02Z</time>
      </trkpt>
      <trkpt lat="50.702729998156428" lon="9.049643967300654">
        <ele>234.22</ele>
        <time>2017-06-17T03:09:11Z</time>
      </trkpt>
      <trkpt lat="50.704713994637132" lon="9.053344996646047">
        <ele>239.50999999999999</ele>
        <time>2017-06-17T03:09:20Z</time>
      </trkpt>
      <trkpt lat="50.706335976719856" lon="9.057395970448852">
        <ele>252.47999999999999</ele>
        <time>2017-06-17T03:09:29Z</time>
      </trkpt>
      <trkpt lat="50.70861803367734" lon="9.063186021521688">
        <ele>272.19</ele>
        <time>2017-06-17T03:09:42Z</time>
      </trkpt>
      <trkpt lat="50.710610998794436" lon="9.066679012030363">
        <ele>281.80000000000001</ele>
        <time>2017-06-17T03:09:51Z</time>
      </trkpt>
      <trkpt lat="50.713697969913483" lon="9.071519980207086">
        <ele>295.25999999999999</ele>
        <time>2017-06-17T03:10:04Z</time>
      </trkpt>
      <trkpt lat="50.715204030275345" lon="9.074367983266711">
        <ele>297.67000000000002</ele>
        <time>2017-06-17T03:10:11Z</time>
      </trkpt>
      <trkpt lat="50.716316979378462" lon="9.077654024586082">
        <ele>303.91000000000003</ele>
        <time>2017-06-17T03:10:18Z</time>
      </trkpt>
      <trkpt lat="50.716981999576092" lon="9.081227984279394">
        <ele>305.36000000000001</ele>
        <time>2017-06-17T03:10:25Z</time>
      </trkpt>
      <trkpt lat="50.717096999287605" lon="9.084953991696239">
        <ele>307.27999999999997</ele>
        <time>2017-06-17T03:10:32Z</time>
      </trkpt>
      <trkpt lat="50.716712018474936" lon="9.088590983301401">
        <ele>316.41000000000003</ele>
        <time>2017-06-17T03:10:39Z</time>
      </trkpt>
      <trkpt lat="50.715928981080651" lon="9.094339963048697">
        <ele>327.94999999999999</ele>
        <time>2017-06-17T03:10:50Z</time>
      </trkpt>
      <trkpt lat="50.714825000613928" lon="9.101936984807253">
        <ele>334.19999999999999</ele>
        <time>2017-06-17T03:11:05Z</time>
      </trkpt>
      <trkpt lat="50.714509002864361" lon="9.10603498108685">
        <ele>339.95999999999998</ele>
        <time>2017-06-17T03:11:13Z</time>
      </trkpt>
      <trkpt lat="50.714798010885715" lon="9.110248982906342">
        <ele>337.07999999999998</ele>
        <time>2017-06-17T03:11:21Z</time>
      </trkpt>
      <trkpt lat="50.715522961691022" lon="9.117320040240884">
        <ele>314.49000000000001</ele>
        <time>2017-06-17T03:11:34Z</time>
      </trkpt>
      <trkpt lat="50.7154740113765" lon="9.122264022007585">
        <ele>310.63999999999999</ele>
        <time>2017-06-17T03:11:43Z</time>
      </trkpt>
      <trkpt lat="50.715166982263327" lon="9.131876975297928">
        <ele>330.82999999999998</ele>
        <time>2017-06-17T03:12:01Z</time>
      </trkpt>
      <trkpt lat="50.714885015040636" lon="9.137667026370764">
        <ele>333.70999999999998</ele>
        <time>2017-06-17T03:12:12Z</time>
      </trkpt>
      <trkpt lat="50.714360978454351" lon="9.140707980841398">
        <ele>343.81</ele>
        <time>2017-06-17T03:12:19Z</time>
      </trkpt>
      <trkpt lat="50.713248029351234" lon="9.145017033442855">
        <ele>351.01999999999998</ele>
        <time>2017-06-17T03:12:28Z</time>
      </trkpt>
      <trkpt lat="50.711840959265828" lon="9.150674985721707">
        <ele>355.82999999999998</ele>
        <time>2017-06-17T03:12:39Z</time>
      </trkpt>
      <trkpt lat="50.711380960419774" lon="9.155088979750872">
        <ele>351.5</ele>
        <time>2017-06-17T03:12:47Z</time>
      </trkpt>
      <trkpt lat="50.711366962641478" lon="9.160299003124237">
        <ele>340.44</ele>
        <time>2017-06-17T03:12:56Z</time>
      </trkpt>
      <trkpt lat="50.711726965382695" lon="9.164768988266587">
        <ele>342.85000000000002</ele>
        <time>2017-06-17T03:13:04Z</time>
      </trkpt>
      <trkpt lat="50.712386034429073" lon="9.17362698353827">
        <ele>347.64999999999998</ele>
        <time>2017-06-17T03:13:20Z</time>
      </trkpt>
      <trkpt lat="50.712420986965299" lon="9.178156983107328">
        <ele>344.76999999999998</ele>
        <time>2017-06-17T03:13:28Z</time>
      </trkpt>
      <trkpt lat="50.711925029754639" lon="9.181493986397982">
        <ele>337.56</ele>
        <time>2017-06-17T03:13:34Z</time>
      </trkpt>
      <trkpt lat="50.71154298260808" lon="9.18546399101615">
        <ele>325.06</ele>
        <time>2017-06-17T03:13:41Z</time>
      </trkpt>
      <trkpt lat="50.711798965930939" lon="9.188823960721493">
        <ele>325.54000000000002</ele>
        <time>2017-06-17T03:13:47Z</time>
      </trkpt>
      <trkpt lat="50.71240296587348" lon="9.191374992951751">
        <ele>330.35000000000002</ele>
        <time>2017-06-17T03:13:52Z</time>
      </trkpt>
      <trkpt lat="50.713600991293788" lon="9.194061979651451">
        <ele>335.16000000000003</ele>
        <time>2017-06-17T03:13:58Z</time>
      </trkpt>
      <trkpt lat="50.716037023812532" lon="9.198001977056265">
        <ele>339.48000000000002</ele>
        <time>2017-06-17T03:14:08Z</time>
      </trkpt>
      <trkpt lat="50.72116700001061" lon="9.206549003720284">
        <ele>320.25999999999999</ele>
        <time>2017-06-17T03:14:29Z</time>
      </trkpt>
      <trkpt lat="50.723174968734384" lon="9.210456982254982">
        <ele>319.77999999999997</ele>
        <time>2017-06-17T03:14:38Z</time>
      </trkpt>
      <trkpt lat="50.724884960800409" lon="9.215399036183953">
        <ele>312.08999999999997</ele>
        <time>2017-06-17T03:14:48Z</time>
      </trkpt>
      <trkpt lat="50.72729199193418" lon="9.22254997305572">
        <ele>332.26999999999998</ele>
        <time>2017-06-17T03:15:03Z</time>
      </trkpt>
      <trkpt lat="50.729194013401866" lon="9.227969963103533">
        <ele>332.26999999999998</ele>
        <time>2017-06-17T03:15:15Z</time>
      </trkpt>
      <trkpt lat="50.731218997389078" lon="9.231955977156758">
        <ele>331.31</ele>
        <time>2017-06-17T03:15:25Z</time>
      </trkpt>
      <trkpt lat="50.73354497551918" lon="9.236454041674733">
        <ele>338.04000000000002</ele>
        <time>2017-06-17T03:15:37Z</time>
      </trkpt>
      <trkpt lat="50.734133971855044" lon="9.237958006560803">
        <ele>340.44</ele>
        <time>2017-06-17T03:15:42Z</time>
      </trkpt>
      <trkpt lat="50.73425299488008" lon="9.238387998193502">
        <ele>340.44</ele>
        <time>2017-06-17T03:15:44Z</time>
      </trkpt>
      <trkpt lat="50.734265986829996" lon="9.238586984574795">
        <ele>340.44</ele>
        <time>2017-06-17T03:15:45Z</time>
      </trkpt>
      <trkpt lat="50.734254000708461" lon="9.23876996152103">
        <ele>340.44</ele>
        <time>2017-06-17T03:15:46Z</time>
      </trkpt>
      <trkpt lat="50.73420999571681" lon="9.23894003033638">
        <ele>340.44</ele>
        <time>2017-06-17T03:15:47Z</time>
      </trkpt>
      <trkpt lat="50.734155010432005" lon="9.239077996462584">
        <ele>340.44</ele>
        <time>2017-06-17T03:15:48Z</time>
      </trkpt>
      <trkpt lat="50.734093990176916" lon="9.239206993952394">
        <ele>340.44</ele>
        <time>2017-06-17T03:15:49Z</time>
      </trkpt>
      <trkpt lat="50.734022995457053" lon="9.23932702280581">
        <ele>340.92000000000002</ele>
        <time>2017-06-17T03:15:50Z</time>
      </trkpt>
      <trkpt lat="50.733947977423668" lon="9.239449985325337">
        <ele>341.41000000000003</ele>
        <time>2017-06-17T03:15:51Z</time>
      </trkpt>
      <trkpt lat="50.733739016577601" lon="9.239767994731665">
        <ele>342.37</ele>
        <time>2017-06-17T03:15:54Z</time>
      </trkpt>
      <trkpt lat="50.733674978837371" lon="9.239837983623147">
        <ele>342.85000000000002</ele>
        <time>2017-06-17T03:15:55Z</time>
      </trkpt>
      <trkpt lat="50.733513040468097" lon="9.240024983882904">
        <ele>342.85000000000002</ele>
        <time>2017-06-17T03:15:58Z</time>
      </trkpt>
      <trkpt lat="50.733488984405994" lon="9.240103019401431">
        <ele>342.37</ele>
        <time>2017-06-17T03:15:59Z</time>
      </trkpt>
      <trkpt lat="50.733398040756583" lon="9.240375012159348">
        <ele>342.37</ele>
        <time>2017-06-17T03:16:02Z</time>
      </trkpt>
      <trkpt lat="50.733363004401326" lon="9.240447012707591">
        <ele>342.37</ele>
        <time>2017-06-17T03:16:03Z</time>
      </trkpt>
      <trkpt lat="50.733215985819697" lon="9.240754041820765">
        <ele>341.41000000000003</ele>
        <time>2017-06-17T03:16:08Z</time>
      </trkpt>
      <trkpt lat="50.733196958899498" lon="9.240820007398725">
        <ele>341.41000000000003</ele>
        <time>2017-06-17T03:16:09Z</time>
      </trkpt>
      <trkpt lat="50.733187990263104" lon="9.240891002118588">
        <ele>341.88999999999999</ele>
        <time>2017-06-17T03:16:10Z</time>
      </trkpt>
      <trkpt lat="50.73317801579833" lon="9.241309007629752">
        <ele>343.32999999999998</ele>
        <time>2017-06-17T03:16:16Z</time>
      </trkpt>
      <trkpt lat="50.73319997638464" lon="9.241375979036093">
        <ele>343.81</ele>
        <time>2017-06-17T03:16:17Z</time>
      </trkpt>
      <trkpt lat="50.733246998861432" lon="9.241473041474819">
        <ele>343.81</ele>
        <time>2017-06-17T03:16:19Z</time>
      </trkpt>
      <trkpt lat="50.733291003853083" lon="9.241464994847775">
        <ele>340.92000000000002</ele>
        <time>2017-06-17T03:16:25Z</time>
      </trkpt>
      <trkpt lat="50.733299972489476" lon="9.241445967927575">
        <ele>340.44</ele>
        <time>2017-06-17T03:16:26Z</time>
      </trkpt>
      <trkpt lat="50.733406003564596" lon="9.241343038156629">
        <ele>339.48000000000002</ele>
        <time>2017-06-17T03:16:38Z</time>
      </trkpt>
      <trkpt lat="50.73358696885407" lon="9.24130498431623">
        <ele>352.94</ele>
        <time>2017-06-17T03:22:15Z</time>
      </trkpt>
      <trkpt lat="50.733515974134207" lon="9.241314958781004">
        <ele>346.20999999999998</ele>
        <time>2017-06-17T03:22:43Z</time>
      </trkpt>
      <trkpt lat="50.733519997447729" lon="9.241159977391362">
        <ele>345.73000000000002</ele>
        <time>2017-06-17T03:22:46Z</time>
      </trkpt>
      <trkpt lat="50.73350197635591" lon="9.241072973236442">
        <ele>345.25</ele>
        <time>2017-06-17T03:22:47Z</time>
      </trkpt>
      <trkpt lat="50.733485966920853" lon="9.240992004051805">
        <ele>345.25</ele>
        <time>2017-06-17T03:22:48Z</time>
      </trkpt>
      <trkpt lat="50.733466017991304" lon="9.240910029038787">
        <ele>344.76999999999998</ele>
        <time>2017-06-17T03:22:49Z</time>
      </trkpt>
      <trkpt lat="50.733442967757583" lon="9.240819001570344">
        <ele>344.29000000000002</ele>
        <time>2017-06-17T03:22:50Z</time>
      </trkpt>
      <trkpt lat="50.73341497220099" lon="9.240733003243804">
        <ele>343.32999999999998</ele>
        <time>2017-06-17T03:22:51Z</time>
      </trkpt>
      <trkpt lat="50.733397034928203" lon="9.240649016574025">
        <ele>342.85000000000002</ele>
        <time>2017-06-17T03:22:52Z</time>
      </trkpt>
      <trkpt lat="50.73339301161468" lon="9.240567041561008">
        <ele>342.85000000000002</ele>
        <time>2017-06-17T03:22:53Z</time>
      </trkpt>
      <trkpt lat="50.733403991907835" lon="9.240489006042481">
        <ele>342.37</ele>
        <time>2017-06-17T03:22:54Z</time>
      </trkpt>
      <trkpt lat="50.73343601077795" lon="9.240411976352334">
        <ele>342.37</ele>
        <time>2017-06-17T03:22:55Z</time>
      </trkpt>
      <trkpt lat="50.733476998284459" lon="9.240339975804091">
        <ele>342.37</ele>
        <time>2017-06-17T03:22:56Z</time>
      </trkpt>
      <trkpt lat="50.733523014932871" lon="9.240281973034143">
        <ele>342.37</ele>
        <time>2017-06-17T03:22:57Z</time>
      </trkpt>
      <trkpt lat="50.733580011874437" lon="9.240232016891241">
        <ele>342.37</ele>
        <time>2017-06-17T03:22:58Z</time>
      </trkpt>
      <trkpt lat="50.733684031292796" lon="9.240095978602767">
        <ele>341.88999999999999</ele>
        <time>2017-06-17T03:23:00Z</time>
      </trkpt>
      <trkpt lat="50.73371596634388" lon="9.239991959184408">
        <ele>341.88999999999999</ele>
        <time>2017-06-17T03:23:01Z</time>
      </trkpt>
      <trkpt lat="50.733850998803973" lon="9.239623993635178">
        <ele>340.44</ele>
        <time>2017-06-17T03:23:04Z</time>
      </trkpt>
      <trkpt lat="50.733919981867075" lon="9.23949901945889">
        <ele>339.95999999999998</ele>
        <time>2017-06-17T03:23:05Z</time>
      </trkpt>
      <trkpt lat="50.733992988243699" lon="9.239387959241867">
        <ele>339</ele>
        <time>2017-06-17T03:23:06Z</time>
      </trkpt>
      <trkpt lat="50.734076974913478" lon="9.239299027249217">
        <ele>338.51999999999998</ele>
        <time>2017-06-17T03:23:07Z</time>
      </trkpt>
      <trkpt lat="50.734174037352204" lon="9.239235995337367">
        <ele>338.04000000000002</ele>
        <time>2017-06-17T03:23:08Z</time>
      </trkpt>
      <trkpt lat="50.734281996265054" lon="9.239211017265916">
        <ele>337.56</ele>
        <time>2017-06-17T03:23:09Z</time>
      </trkpt>
      <trkpt lat="50.734391966834664" lon="9.239237001165748">
        <ele>337.56</ele>
        <time>2017-06-17T03:23:10Z</time>
      </trkpt>
      <trkpt lat="50.734501015394926" lon="9.239313025027514">
        <ele>337.56</ele>
        <time>2017-06-17T03:23:11Z</time>
      </trkpt>
      <trkpt lat="50.734598999843001" lon="9.239434981718659">
        <ele>337.56</ele>
        <time>2017-06-17T03:23:12Z</time>
      </trkpt>
      <trkpt lat="50.7346819806844" lon="9.239595998078585">
        <ele>337.56</ele>
        <time>2017-06-17T03:23:13Z</time>
      </trkpt>
      <trkpt lat="50.734754987061024" lon="9.239784004166722">
        <ele>337.56</ele>
        <time>2017-06-17T03:23:14Z</time>
      </trkpt>
      <trkpt lat="50.734821036458015" lon="9.239992965012789">
        <ele>337.56</ele>
        <time>2017-06-17T03:23:15Z</time>
      </trkpt>
      <trkpt lat="50.734888007864356" lon="9.240226987749338">
        <ele>337.07999999999998</ele>
        <time>2017-06-17T03:23:16Z</time>
      </trkpt>
      <trkpt lat="50.735210040584207" lon="9.241324011236429">
        <ele>336.60000000000002</ele>
        <time>2017-06-17T03:23:20Z</time>
      </trkpt>
      <trkpt lat="50.735296038910747" lon="9.241636991500855">
        <ele>334.68000000000001</ele>
        <time>2017-06-17T03:23:21Z</time>
      </trkpt>
      <trkpt lat="50.735889980569482" lon="9.244545008987188">
        <ele>326.5</ele>
        <time>2017-06-17T03:23:29Z</time>
      </trkpt>
      <trkpt lat="50.736502027139068" lon="9.248891025781632">
        <ele>310.16000000000003</ele>
        <time>2017-06-17T03:23:40Z</time>
      </trkpt>
      <trkpt lat="50.737057998776436" lon="9.253124976530671">
        <ele>299.11000000000001</ele>
        <time>2017-06-17T03:23:52Z</time>
      </trkpt>
      <trkpt lat="50.737729975953698" lon="9.257335960865021">
        <ele>293.81999999999999</ele>
        <time>2017-06-17T03:24:03Z</time>
      </trkpt>
      <trkpt lat="50.738951973617077" lon="9.263117965310812">
        <ele>294.30000000000001</ele>
        <time>2017-06-17T03:24:17Z</time>
      </trkpt>
      <trkpt lat="50.740398019552231" lon="9.268565028905869">
        <ele>284.20999999999998</ele>
        <time>2017-06-17T03:24:30Z</time>
      </trkpt>
      <trkpt lat="50.742141036316752" lon="9.275191007182002">
        <ele>259.69</ele>
        <time>2017-06-17T03:24:45Z</time>
      </trkpt>
      <trkpt lat="50.742764985188842" lon="9.279461000114679">
        <ele>262.10000000000002</ele>
        <time>2017-06-17T03:24:54Z</time>
      </trkpt>
      <trkpt lat="50.742861963808537" lon="9.283757982775569">
        <ele>270.75</ele>
        <time>2017-06-17T03:25:03Z</time>
      </trkpt>
      <trkpt lat="50.743015017360449" lon="9.288682015612721">
        <ele>277</ele>
        <time>2017-06-17T03:25:13Z</time>
      </trkpt>
      <trkpt lat="50.743609964847565" lon="9.291636971756816">
        <ele>272.19</ele>
        <time>2017-06-17T03:25:19Z</time>
      </trkpt>
      <trkpt lat="50.744641022756696" lon="9.294271990656853">
        <ele>264.5</ele>
        <time>2017-06-17T03:25:25Z</time>
      </trkpt>
      <trkpt lat="50.746300974860787" lon="9.296741969883442">
        <ele>264.98000000000002</ele>
        <time>2017-06-17T03:25:32Z</time>
      </trkpt>
      <trkpt lat="50.748564004898071" lon="9.298766031861305">
        <ele>271.70999999999998</ele>
        <time>2017-06-17T03:25:40Z</time>
      </trkpt>
      <trkpt lat="50.752744982019067" lon="9.302780963480473">
        <ele>281.31999999999999</ele>
        <time>2017-06-17T03:25:55Z</time>
      </trkpt>
      <trkpt lat="50.754363024607301" lon="9.305466022342444">
        <ele>274.11000000000001</ele>
        <time>2017-06-17T03:26:02Z</time>
      </trkpt>
      <trkpt lat="50.755600025877357" lon="9.30857595987618">
        <ele>270.26999999999998</ele>
        <time>2017-06-17T03:26:09Z</time>
      </trkpt>
      <trkpt lat="50.756433019414544" lon="9.312025029212236">
        <ele>266.42000000000002</ele>
        <time>2017-06-17T03:26:16Z</time>
      </trkpt>
      <trkpt lat="50.756794027984142" lon="9.315626984462142">
        <ele>265.45999999999998</ele>
        <time>2017-06-17T03:26:23Z</time>
      </trkpt>
      <trkpt lat="50.756639968603849" lon="9.319765968248248">
        <ele>272.19</ele>
        <time>2017-06-17T03:26:31Z</time>
      </trkpt>
      <trkpt lat="50.755851985886693" lon="9.324245005846024">
        <ele>289.97000000000003</ele>
        <time>2017-06-17T03:26:40Z</time>
      </trkpt>
      <trkpt lat="50.754283983260393" lon="9.333146000280976">
        <ele>313.05000000000001</ele>
        <time>2017-06-17T03:26:58Z</time>
      </trkpt>
      <trkpt lat="50.75431801378727" lon="9.336715014651418">
        <ele>316.88999999999999</ele>
        <time>2017-06-17T03:27:05Z</time>
      </trkpt>
      <trkpt lat="50.754861999303102" lon="9.340125024318695">
        <ele>318.32999999999998</ele>
        <time>2017-06-17T03:27:12Z</time>
      </trkpt>
      <trkpt lat="50.756262028589845" lon="9.346364010125399">
        <ele>320.25999999999999</ele>
        <time>2017-06-17T03:27:25Z</time>
      </trkpt>
      <trkpt lat="50.7578219845891" lon="9.353040028363466">
        <ele>334.19999999999999</ele>
        <time>2017-06-17T03:27:39Z</time>
      </trkpt>
      <trkpt lat="50.759158981963992" lon="9.358294978737831">
        <ele>326.99000000000001</ele>
        <time>2017-06-17T03:27:50Z</time>
      </trkpt>
      <trkpt lat="50.760664036497474" lon="9.363935999572277">
        <ele>336.12</ele>
        <time>2017-06-17T03:28:02Z</time>
      </trkpt>
      <trkpt lat="50.761633990332484" lon="9.368263995274901">
        <ele>333.70999999999998</ele>
        <time>2017-06-17T03:28:11Z</time>
      </trkpt>
      <trkpt lat="50.762890018522739" lon="9.371180981397629">
        <ele>329.87</ele>
        <time>2017-06-17T03:28:18Z</time>
      </trkpt>
      <trkpt lat="50.764327012002468" lon="9.373225998133421">
        <ele>330.82999999999998</ele>
        <time>2017-06-17T03:28:24Z</time>
      </trkpt>
      <trkpt lat="50.76725497841835" lon="9.376353034749627">
        <ele>333.23000000000002</ele>
        <time>2017-06-17T03:28:35Z</time>
      </trkpt>
      <trkpt lat="50.768733965232968" lon="9.378908006474376">
        <ele>339</ele>
        <time>2017-06-17T03:28:42Z</time>
      </trkpt>
      <trkpt lat="50.770886018872261" lon="9.383895993232727">
        <ele>346.69</ele>
        <time>2017-06-17T03:28:54Z</time>
      </trkpt>
      <trkpt lat="50.773864025250077" lon="9.391173999756575">
        <ele>349.57999999999998</ele>
        <time>2017-06-17T03:29:11Z</time>
      </trkpt>
      <trkpt lat="50.775752970948815" lon="9.395068986341357">
        <ele>359.19</ele>
        <time>2017-06-17T03:29:21Z</time>
      </trkpt>
      <trkpt lat="50.778216999024153" lon="9.398872023448348">
        <ele>358.23000000000002</ele>
        <time>2017-06-17T03:29:32Z</time>
      </trkpt>
      <trkpt lat="50.779330031946301" lon="9.401855980977416">
        <ele>363.51999999999998</ele>
        <time>2017-06-17T03:29:39Z</time>
      </trkpt>
      <trkpt lat="50.7807029876858" lon="9.407429024577141">
        <ele>367.36000000000001</ele>
        <time>2017-06-17T03:29:51Z</time>
      </trkpt>
      <trkpt lat="50.782489003613591" lon="9.415321005508304">
        <ele>387.06999999999999</ele>
        <time>2017-06-17T03:30:08Z</time>
      </trkpt>
      <trkpt lat="50.784382978454232" lon="9.423562008887529">
        <ele>399.56999999999999</ele>
        <time>2017-06-17T03:30:26Z</time>
      </trkpt>
      <trkpt lat="50.786016024649143" lon="9.430084973573685">
        <ele>402.44999999999999</ele>
        <time>2017-06-17T03:30:42Z</time>
      </trkpt>
      <trkpt lat="50.786700993776321" lon="9.433049988001585">
        <ele>413.01999999999998</ele>
        <time>2017-06-17T03:30:51Z</time>
      </trkpt>
      <trkpt lat="50.787607999518514" lon="9.43759398534894">
        <ele>435.13</ele>
        <time>2017-06-17T03:31:06Z</time>
      </trkpt>
      <trkpt lat="50.788677027449012" lon="9.441900020465255">
        <ele>444.26999999999998</ele>
        <time>2017-06-17T03:31:20Z</time>
      </trkpt>
      <trkpt lat="50.789805985987186" lon="9.444201020523906">
        <ele>442.81999999999999</ele>
        <time>2017-06-17T03:31:28Z</time>
      </trkpt>
      <trkpt lat="50.79187598079443" lon="9.447430986911058">
        <ele>433.20999999999998</ele>
        <time>2017-06-17T03:31:40Z</time>
      </trkpt>
      <trkpt lat="50.792744010686874" lon="9.449769034981728">
        <ele>436.57999999999998</ele>
        <time>2017-06-17T03:31:47Z</time>
      </trkpt>
      <trkpt lat="50.793097978457808" lon="9.452266003936529">
        <ele>445.23000000000002</ele>
        <time>2017-06-17T03:31:54Z</time>
      </trkpt>
      <trkpt lat="50.792967975139618" lon="9.454843020066619">
        <ele>451</ele>
        <time>2017-06-17T03:32:01Z</time>
      </trkpt>
      <trkpt lat="50.79234603792429" lon="9.457400003448129">
        <ele>451.95999999999998</ele>
        <time>2017-06-17T03:32:08Z</time>
      </trkpt>
      <trkpt lat="50.790317030623555" lon="9.46380696259439">
        <ele>464.93000000000001</ele>
        <time>2017-06-17T03:32:26Z</time>
      </trkpt>
      <trkpt lat="50.789959961548448" lon="9.466372998431325">
        <ele>477.43000000000001</ele>
        <time>2017-06-17T03:32:33Z</time>
      </trkpt>
      <trkpt lat="50.790173029527068" lon="9.469035007059574">
        <ele>489.93000000000001</ele>
        <time>2017-06-17T03:32:40Z</time>
      </trkpt>
      <trkpt lat="50.790946008637547" lon="9.471488976851106">
        <ele>496.18000000000001</ele>
        <time>2017-06-17T03:32:47Z</time>
      </trkpt>
      <trkpt lat="50.792163982987404" lon="9.47347498498857">
        <ele>497.62</ele>
        <time>2017-06-17T03:32:54Z</time>
      </trkpt>
      <trkpt lat="50.794173963367939" lon="9.476644014939666">
        <ele>488.97000000000003</ele>
        <time>2017-06-17T03:33:06Z</time>
      </trkpt>
      <trkpt lat="50.795072000473738" lon="9.478998994454742">
        <ele>477.91000000000003</ele>
        <time>2017-06-17T03:33:14Z</time>
      </trkpt>
      <trkpt lat="50.796487033367157" lon="9.483117023482919">
        <ele>459.17000000000002</ele>
        <time>2017-06-17T03:33:27Z</time>
      </trkpt>
      <trkpt lat="50.797235034406185" lon="9.485853966325522">
        <ele>446.67000000000002</ele>
        <time>2017-06-17T03:33:35Z</time>
      </trkpt>
      <trkpt lat="50.797618003562093" lon="9.489245032891631">
        <ele>442.81999999999999</ele>
        <time>2017-06-17T03:33:44Z</time>
      </trkpt>
      <trkpt lat="50.798139022663236" lon="9.492367962375283">
        <ele>441.38</ele>
        <time>2017-06-17T03:33:53Z</time>
      </trkpt>
      <trkpt lat="50.799131020903587" lon="9.495046986266971">
        <ele>436.57999999999998</ele>
        <time>2017-06-17T03:34:02Z</time>
      </trkpt>
      <trkpt lat="50.800713021308184" lon="9.498062962666154">
        <ele>434.64999999999998</ele>
        <time>2017-06-17T03:34:14Z</time>
      </trkpt>
      <trkpt lat="50.802255962044001" lon="9.499788964167237">
        <ele>430.81</ele>
        <time>2017-06-17T03:34:23Z</time>
      </trkpt>
      <trkpt lat="50.803798986598849" lon="9.501444976776838">
        <ele>421.19</ele>
        <time>2017-06-17T03:34:32Z</time>
      </trkpt>
      <trkpt lat="50.804886035621166" lon="9.503381028771401">
        <ele>410.62</ele>
        <time>2017-06-17T03:34:40Z</time>
      </trkpt>
      <trkpt lat="50.805620038881898" lon="9.505157992243767">
        <ele>402.44999999999999</ele>
        <time>2017-06-17T03:34:47Z</time>
      </trkpt>
      <trkpt lat="50.806643972173333" lon="9.507409036159515">
        <ele>391.38999999999999</ele>
        <time>2017-06-17T03:34:54Z</time>
      </trkpt>
      <trkpt lat="50.807609986513853" lon="9.510286962613463">
        <ele>382.74000000000001</ele>
        <time>2017-06-17T03:35:01Z</time>
      </trkpt>
      <trkpt lat="50.807965965941548" lon="9.513131026178598">
        <ele>376.97000000000003</ele>
        <time>2017-06-17T03:35:07Z</time>
      </trkpt>
      <trkpt lat="50.807812996208668" lon="9.516619993373752">
        <ele>373.13</ele>
        <time>2017-06-17T03:35:14Z</time>
      </trkpt>
      <trkpt lat="50.807220982387662" lon="9.520457983016968">
        <ele>380.81999999999999</ele>
        <time>2017-06-17T03:35:22Z</time>
      </trkpt>
      <trkpt lat="50.807200027629733" lon="9.523440012708306">
        <ele>382.74000000000001</ele>
        <time>2017-06-17T03:35:28Z</time>
      </trkpt>
      <trkpt lat="50.807757005095482" lon="9.53053898178041">
        <ele>380.33999999999997</ele>
        <time>2017-06-17T03:35:42Z</time>
      </trkpt>
      <trkpt lat="50.808383971452713" lon="9.53502899967134">
        <ele>380.81999999999999</ele>
        <time>2017-06-17T03:35:51Z</time>
      </trkpt>
      <trkpt lat="50.809374963864684" lon="9.537682961672545">
        <ele>375.05000000000001</ele>
        <time>2017-06-17T03:35:57Z</time>
      </trkpt>
      <trkpt lat="50.810780022293329" lon="9.539844989776611">
        <ele>369.27999999999997</ele>
        <time>2017-06-17T03:36:03Z</time>
      </trkpt>
      <trkpt lat="50.814779028296471" lon="9.545218963176012">
        <ele>374.08999999999997</ele>
        <time>2017-06-17T03:36:19Z</time>
      </trkpt>
      <trkpt lat="50.817154962569475" lon="9.549468001350761">
        <ele>366.88</ele>
        <time>2017-06-17T03:36:30Z</time>
      </trkpt>
      <trkpt lat="50.818252991884947" lon="9.552082987502217">
        <ele>354.86000000000001</ele>
        <time>2017-06-17T03:36:36Z</time>
      </trkpt>
      <trkpt lat="50.818651970475912" lon="9.554658997803927">
        <ele>344.29000000000002</ele>
        <time>2017-06-17T03:36:41Z</time>
      </trkpt>
      <trkpt lat="50.818549962714314" lon="9.557228973135352">
        <ele>333.23000000000002</ele>
        <time>2017-06-17T03:36:46Z</time>
      </trkpt>
      <trkpt lat="50.818239999935031" lon="9.56109001301229">
        <ele>317.37</ele>
        <time>2017-06-17T03:36:54Z</time>
      </trkpt>
      <trkpt lat="50.818681977689266" lon="9.563961988314986">
        <ele>303.43000000000001</ele>
        <time>2017-06-17T03:37:00Z</time>
      </trkpt>
      <trkpt lat="50.819682022556663" lon="9.56652601249516">
        <ele>290.45999999999998</ele>
        <time>2017-06-17T03:37:06Z</time>
      </trkpt>
      <trkpt lat="50.821335017681122" lon="9.569551041349769">
        <ele>273.14999999999998</ele>
        <time>2017-06-17T03:37:14Z</time>
      </trkpt>
      <trkpt lat="50.822917018085718" lon="9.571137987077236">
        <ele>262.57999999999998</ele>
        <time>2017-06-17T03:37:20Z</time>
      </trkpt>
      <trkpt lat="50.824987012892962" lon="9.572249008342624">
        <ele>257.76999999999998</ele>
        <time>2017-06-17T03:37:27Z</time>
      </trkpt>
      <trkpt lat="50.829335041344166" lon="9.574782019481063">
        <ele>259.69</ele>
        <time>2017-06-17T03:37:42Z</time>
      </trkpt>
      <trkpt lat="50.834525031968951" lon="9.578779013827443">
        <ele>269.31</ele>
        <time>2017-06-17T03:38:01Z</time>
      </trkpt>
      <trkpt lat="50.837200032547116" lon="9.580227993428707">
        <ele>277.95999999999998</ele>
        <time>2017-06-17T03:38:11Z</time>
      </trkpt>
      <trkpt lat="50.839043967425823" lon="9.581189984455705">
        <ele>277</ele>
        <time>2017-06-17T03:38:18Z</time>
      </trkpt>
      <trkpt lat="50.843092007562518" lon="9.583256961777806">
        <ele>278.44</ele>
        <time>2017-06-17T03:38:34Z</time>
      </trkpt>
      <trkpt lat="50.847650002688169" lon="9.585384037345648">
        <ele>277.95999999999998</ele>
        <time>2017-06-17T03:38:51Z</time>
      </trkpt>
      <trkpt lat="50.850795982405543" lon="9.586074035614729">
        <ele>281.80000000000001</ele>
        <time>2017-06-17T03:39:02Z</time>
      </trkpt>
      <trkpt lat="50.855456991121173" lon="9.587263008579612">
        <ele>319.30000000000001</ele>
        <time>2017-06-17T03:39:19Z</time>
      </trkpt>
      <trkpt lat="50.858936989679933" lon="9.588709976524115">
        <ele>347.64999999999998</ele>
        <time>2017-06-17T03:39:32Z</time>
      </trkpt>
      <trkpt lat="50.863303961232305" lon="9.590648040175438">
        <ele>381.30000000000001</ele>
        <time>2017-06-17T03:39:48Z</time>
      </trkpt>
      <trkpt lat="50.866285990923643" lon="9.59239399060607">
        <ele>389.94999999999999</ele>
        <time>2017-06-17T03:39:59Z</time>
      </trkpt>
      <trkpt lat="50.869578989222646" lon="9.594646962359548">
        <ele>405.32999999999998</ele>
        <time>2017-06-17T03:40:11Z</time>
      </trkpt>
      <trkpt lat="50.872121974825859" lon="9.596744030714035">
        <ele>410.13999999999999</ele>
        <time>2017-06-17T03:40:20Z</time>
      </trkpt>
      <trkpt lat="50.873803971335292" lon="9.599018963053823">
        <ele>415.91000000000003</ele>
        <time>2017-06-17T03:40:27Z</time>
      </trkpt>
      <trkpt lat="50.875400975346565" lon="9.600547989830375">
        <ele>415.91000000000003</ele>
        <time>2017-06-17T03:40:33Z</time>
      </trkpt>
      <trkpt lat="50.876954980194569" lon="9.601114019751549">
        <ele>412.54000000000002</ele>
        <time>2017-06-17T03:40:38Z</time>
      </trkpt>
      <trkpt lat="50.879568960517645" lon="9.601108990609646">
        <ele>413.98000000000002</ele>
        <time>2017-06-17T03:40:46Z</time>
      </trkpt>
      <trkpt lat="50.881265038624406" lon="9.600504990667105">
        <ele>414.47000000000003</ele>
        <time>2017-06-17T03:40:51Z</time>
      </trkpt>
      <trkpt lat="50.882767997682095" lon="9.59920302964747">
        <ele>415.91000000000003</ele>
        <time>2017-06-17T03:40:56Z</time>
      </trkpt>
      <trkpt lat="50.885440986603498" lon="9.596223011612892">
        <ele>417.82999999999998</ele>
        <time>2017-06-17T03:41:06Z</time>
      </trkpt>
      <trkpt lat="50.886371964588761" lon="9.594120997935534">
        <ele>412.54000000000002</ele>
        <time>2017-06-17T03:41:11Z</time>
      </trkpt>
      <trkpt lat="50.886869011446834" lon="9.591603996232152">
        <ele>406.76999999999998</ele>
        <time>2017-06-17T03:41:16Z</time>
      </trkpt>
      <trkpt lat="50.886906981468201" lon="9.58842096850276">
        <ele>404.85000000000002</ele>
        <time>2017-06-17T03:41:22Z</time>
      </trkpt>
      <trkpt lat="50.887188026681542" lon="9.585274988785386">
        <ele>400.52999999999997</ele>
        <time>2017-06-17T03:41:28Z</time>
      </trkpt>
      <trkpt lat="50.887966034933925" lon="9.58283300511539">
        <ele>396.68000000000001</ele>
        <time>2017-06-17T03:41:33Z</time>
      </trkpt>
      <trkpt lat="50.889200018718839" lon="9.580838028341532">
        <ele>389.47000000000003</ele>
        <time>2017-06-17T03:41:38Z</time>
      </trkpt>
      <trkpt lat="50.89077397249639" lon="9.579534977674484">
        <ele>378.42000000000002</ele>
        <time>2017-06-17T03:41:43Z</time>
      </trkpt>
      <trkpt lat="50.892537022009492" lon="9.579099034890533">
        <ele>366.39999999999998</ele>
        <time>2017-06-17T03:41:48Z</time>
      </trkpt>
      <trkpt lat="50.894315997138619" lon="9.579537995159626">
        <ele>357.75</ele>
        <time>2017-06-17T03:41:53Z</time>
      </trkpt>
      <trkpt lat="50.895917024463415" lon="9.580721016973257">
        <ele>356.31</ele>
        <time>2017-06-17T03:41:58Z</time>
      </trkpt>
      <trkpt lat="50.901352018117905" lon="9.585524015128613">
        <ele>337.56</ele>
        <time>2017-06-17T03:42:16Z</time>
      </trkpt>
      <trkpt lat="50.903259990736842" lon="9.586255000904203">
        <ele>332.75</ele>
        <time>2017-06-17T03:42:22Z</time>
      </trkpt>
      <trkpt lat="50.905267037451267" lon="9.585996000096202">
        <ele>324.10000000000002</ele>
        <time>2017-06-17T03:42:28Z</time>
      </trkpt>
      <trkpt lat="50.906834034249187" lon="9.584941975772381">
        <ele>314.49000000000001</ele>
        <time>2017-06-17T03:42:33Z</time>
      </trkpt>
      <trkpt lat="50.908403964713216" lon="9.582858989015222">
        <ele>309.68000000000001</ele>
        <time>2017-06-17T03:42:39Z</time>
      </trkpt>
      <trkpt lat="50.9095289837569" lon="9.580162027850747">
        <ele>307.75999999999999</ele>
        <time>2017-06-17T03:42:45Z</time>
      </trkpt>
      <trkpt lat="50.911856973543763" lon="9.573581982403994">
        <ele>310.16000000000003</ele>
        <time>2017-06-17T03:42:59Z</time>
      </trkpt>
      <trkpt lat="50.914403982460499" lon="9.568587960675359">
        <ele>314.97000000000003</ele>
        <time>2017-06-17T03:43:11Z</time>
      </trkpt>
      <trkpt lat="50.918224034830928" lon="9.561286987736821">
        <ele>315.44999999999999</ele>
        <time>2017-06-17T03:43:29Z</time>
      </trkpt>
      <trkpt lat="50.920135024935007" lon="9.558545015752316">
        <ele>335.16000000000003</ele>
        <time>2017-06-17T03:43:37Z</time>
      </trkpt>
      <trkpt lat="50.922325970605016" lon="9.555405993014574">
        <ele>351.5</ele>
        <time>2017-06-17T03:43:46Z</time>
      </trkpt>
      <trkpt lat="50.923123005777597" lon="9.553144974634051">
        <ele>363.51999999999998</ele>
        <time>2017-06-17T03:43:51Z</time>
      </trkpt>
      <trkpt lat="50.924433013424277" lon="9.549103975296021">
        <ele>384.66000000000003</ele>
        <time>2017-06-17T03:44:00Z</time>
      </trkpt>
      <trkpt lat="50.92618097551167" lon="9.546190006658435">
        <ele>403.41000000000003</ele>
        <time>2017-06-17T03:44:08Z</time>
      </trkpt>
      <trkpt lat="50.927830031141639" lon="9.544758964329958">
        <ele>417.35000000000002</ele>
        <time>2017-06-17T03:44:14Z</time>
      </trkpt>
      <trkpt lat="50.929448995739222" lon="9.544307012110949">
        <ele>424.56</ele>
        <time>2017-06-17T03:44:19Z</time>
      </trkpt>
      <trkpt lat="50.935065960511565" lon="9.543229015544057">
        <ele>456.75999999999999</ele>
        <time>2017-06-17T03:44:36Z</time>
      </trkpt>
      <trkpt lat="50.939082987606525" lon="9.541859999299049">
        <ele>453.39999999999998</ele>
        <time>2017-06-17T03:44:48Z</time>
      </trkpt>
      <trkpt lat="50.941022979095578" lon="9.540747972205281">
        <ele>451.48000000000002</ele>
        <time>2017-06-17T03:44:54Z</time>
      </trkpt>
      <trkpt lat="50.942655019462109" lon="9.538867995142937">
        <ele>449.06999999999999</ele>
        <time>2017-06-17T03:45:00Z</time>
      </trkpt>
      <trkpt lat="50.943881962448359" lon="9.536332972347736">
        <ele>445.23000000000002</ele>
        <time>2017-06-17T03:45:06Z</time>
      </trkpt>
      <trkpt lat="50.944629963487387" lon="9.533364018425345">
        <ele>452.44</ele>
        <time>2017-06-17T03:45:12Z</time>
      </trkpt>
      <trkpt lat="50.944869015365839" lon="9.530223989859223">
        <ele>459.64999999999998</ele>
        <time>2017-06-17T03:45:18Z</time>
      </trkpt>
      <trkpt lat="50.944813024252653" lon="9.524514991790056">
        <ele>458.20999999999998</ele>
        <time>2017-06-17T03:45:29Z</time>
      </trkpt>
      <trkpt lat="50.944876978173852" lon="9.524003025144339">
        <ele>457.24000000000001</ele>
        <time>2017-06-17T03:45:30Z</time>
      </trkpt>
      <trkpt lat="50.94495601952076" lon="9.523502038791776">
        <ele>455.80000000000001</ele>
        <time>2017-06-17T03:45:31Z</time>
      </trkpt>
      <trkpt lat="50.945072025060654" lon="9.523010021075606">
        <ele>455.31999999999999</ele>
        <time>2017-06-17T03:45:32Z</time>
      </trkpt>
      <trkpt lat="50.945209991186857" lon="9.522532001137734">
        <ele>454.36000000000001</ele>
        <time>2017-06-17T03:45:33Z</time>
      </trkpt>
      <trkpt lat="50.945372013375163" lon="9.522066973149777">
        <ele>454.83999999999997</ele>
        <time>2017-06-17T03:45:34Z</time>
      </trkpt>
      <trkpt lat="50.945551972836256" lon="9.521617032587528">
        <ele>455.31999999999999</ele>
        <time>2017-06-17T03:45:35Z</time>
      </trkpt>
      <trkpt lat="50.947056021541357" lon="9.518732987344265">
        <ele>460.61000000000001</ele>
        <time>2017-06-17T03:45:42Z</time>
      </trkpt>
      <trkpt lat="50.948138041421771" lon="9.516067039221525">
        <ele>456.75999999999999</ele>
        <time>2017-06-17T03:45:48Z</time>
      </trkpt>
      <trkpt lat="50.949461041018367" lon="9.51231999322772">
        <ele>451</ele>
        <time>2017-06-17T03:45:56Z</time>
      </trkpt>
      <trkpt lat="50.950726037845016" lon="9.510572031140328">
        <ele>457.72000000000003</ele>
        <time>2017-06-17T03:46:01Z</time>
      </trkpt>
      <trkpt lat="50.95378995873034" lon="9.506406979635358">
        <ele>466.86000000000001</ele>
        <time>2017-06-17T03:46:13Z</time>
      </trkpt>
      <trkpt lat="50.955353016033769" lon="9.502962017431855">
        <ele>456.75999999999999</ele>
        <time>2017-06-17T03:46:21Z</time>
      </trkpt>
      <trkpt lat="50.957322008907795" lon="9.499609004706144">
        <ele>438.98000000000002</ele>
        <time>2017-06-17T03:46:30Z</time>
      </trkpt>
      <trkpt lat="50.958172017708421" lon="9.497095020487905">
        <ele>426</ele>
        <time>2017-06-17T03:46:36Z</time>
      </trkpt>
      <trkpt lat="50.958490027114749" lon="9.494408033788204">
        <ele>410.62</ele>
        <time>2017-06-17T03:46:42Z</time>
      </trkpt>
      <trkpt lat="50.958971986547112" lon="9.491169014945626">
        <ele>396.68000000000001</ele>
        <time>2017-06-17T03:46:50Z</time>
      </trkpt>
      <trkpt lat="50.95995401032269" lon="9.488410027697682">
        <ele>387.55000000000001</ele>
        <time>2017-06-17T03:46:58Z</time>
      </trkpt>
      <trkpt lat="50.961305005475879" lon="9.485630001872778">
        <ele>375.05000000000001</ele>
        <time>2017-06-17T03:47:07Z</time>
      </trkpt>
      <trkpt lat="50.963269975036383" lon="9.483092967420816">
        <ele>355.33999999999997</ele>
        <time>2017-06-17T03:47:17Z</time>
      </trkpt>
      <trkpt lat="50.965379029512405" lon="9.480312019586563">
        <ele>339.48000000000002</ele>
        <time>2017-06-17T03:47:28Z</time>
      </trkpt>
      <trkpt lat="50.966860027983785" lon="9.479477014392614">
        <ele>329.38999999999999</ele>
        <time>2017-06-17T03:47:34Z</time>
      </trkpt>
      <trkpt lat="50.968512017279863" lon="9.479334019124508">
        <ele>319.30000000000001</ele>
        <time>2017-06-17T03:47:40Z</time>
      </trkpt>
      <trkpt lat="50.970400962978601" lon="9.479191023856401">
        <ele>302.47000000000003</ele>
        <time>2017-06-17T03:47:47Z</time>
      </trkpt>
      <trkpt lat="50.972125036641955" lon="9.478057036176324">
        <ele>296.69999999999999</ele>
        <time>2017-06-17T03:47:54Z</time>
      </trkpt>
      <trkpt lat="50.973488017916679" lon="9.476202037185431">
        <ele>294.77999999999997</ele>
        <time>2017-06-17T03:48:01Z</time>
      </trkpt>
      <trkpt lat="50.975182000547647" lon="9.473874969407916">
        <ele>291.89999999999998</ele>
        <time>2017-06-17T03:48:10Z</time>
      </trkpt>
      <trkpt lat="50.976779004558921" lon="9.472896968945861">
        <ele>290.94</ele>
        <time>2017-06-17T03:48:17Z</time>
      </trkpt>
      <trkpt lat="50.980076026171446" lon="9.471954004839063">
        <ele>286.61000000000001</ele>
        <time>2017-06-17T03:48:30Z</time>
      </trkpt>
      <trkpt lat="50.98193203099072" lon="9.471952999010682">
        <ele>286.61000000000001</ele>
        <time>2017-06-17T03:48:37Z</time>
      </trkpt>
      <trkpt lat="50.984827978536487" lon="9.4721610378474">
        <ele>289.49000000000001</ele>
        <time>2017-06-17T03:48:48Z</time>
      </trkpt>
      <trkpt lat="50.988074960187078" lon="9.472003038972616">
        <ele>304.88</ele>
        <time>2017-06-17T03:48:59Z</time>
      </trkpt>
      <trkpt lat="50.990172028541565" lon="9.47276403196156">
        <ele>307.27999999999997</ele>
        <time>2017-06-17T03:49:06Z</time>
      </trkpt>
      <trkpt lat="50.994011024013162" lon="9.473969014361501">
        <ele>305.83999999999997</ele>
        <time>2017-06-17T03:49:18Z</time>
      </trkpt>
      <trkpt lat="50.99662802182138" lon="9.474458014592528">
        <ele>294.77999999999997</ele>
        <time>2017-06-17T03:49:26Z</time>
      </trkpt>
      <trkpt lat="50.998920975252986" lon="9.475585967302322">
        <ele>280.36000000000001</ele>
        <time>2017-06-17T03:49:33Z</time>
      </trkpt>
      <trkpt lat="51.001324988901615" lon="9.477638024836779">
        <ele>289.49000000000001</ele>
        <time>2017-06-17T03:49:41Z</time>
      </trkpt>
      <trkpt lat="51.003394983708858" lon="9.480383014306426">
        <ele>299.11000000000001</ele>
        <time>2017-06-17T03:49:49Z</time>
      </trkpt>
      <trkpt lat="51.005930006504059" lon="9.484472963958979">
        <ele>318.81</ele>
        <time>2017-06-17T03:50:00Z</time>
      </trkpt>
      <trkpt lat="51.007989021018147" lon="9.487078981474042">
        <ele>321.69999999999999</ele>
        <time>2017-06-17T03:50:08Z</time>
      </trkpt>
      <trkpt lat="51.010005958378315" lon="9.488585963845253">
        <ele>329.38999999999999</ele>
        <time>2017-06-17T03:50:15Z</time>
      </trkpt>
      <trkpt lat="51.012281980365515" lon="9.489260958507657">
        <ele>333.70999999999998</ele>
        <time>2017-06-17T03:50:22Z</time>
      </trkpt>
      <trkpt lat="51.016450971364975" lon="9.489405965432525">
        <ele>330.35000000000002</ele>
        <time>2017-06-17T03:50:34Z</time>
      </trkpt>
      <trkpt lat="51.021147016435862" lon="9.489718023687601">
        <ele>332.26999999999998</ele>
        <time>2017-06-17T03:50:48Z</time>
      </trkpt>
      <trkpt lat="51.023132018744946" lon="9.489246960729361">
        <ele>334.68000000000001</ele>
        <time>2017-06-17T03:50:54Z</time>
      </trkpt>
      <trkpt lat="51.024947036057711" lon="9.487919015809894">
        <ele>333.23000000000002</ele>
        <time>2017-06-17T03:51:00Z</time>
      </trkpt>
      <trkpt lat="51.027896041050553" lon="9.485278967767954">
        <ele>320.74000000000001</ele>
        <time>2017-06-17T03:51:10Z</time>
      </trkpt>
      <trkpt lat="51.029896968975663" lon="9.484619982540608">
        <ele>319.77999999999997</ele>
        <time>2017-06-17T03:51:16Z</time>
      </trkpt>
      <trkpt lat="51.031923964619637" lon="9.48483900167048">
        <ele>324.57999999999998</ele>
        <time>2017-06-17T03:51:22Z</time>
      </trkpt>
      <trkpt lat="51.032249014824629" lon="9.484993983060122">
        <ele>326.01999999999998</ele>
        <time>2017-06-17T03:51:23Z</time>
      </trkpt>
      <trkpt lat="51.034371983259916" lon="9.486660975962877">
        <ele>333.70999999999998</ele>
        <time>2017-06-17T03:51:30Z</time>
      </trkpt>
      <trkpt lat="51.040100008249283" lon="9.491867981851101">
        <ele>323.13999999999999</ele>
        <time>2017-06-17T03:51:49Z</time>
      </trkpt>
      <trkpt lat="51.045984020456672" lon="9.496843982487917">
        <ele>284.69</ele>
        <time>2017-06-17T03:52:08Z</time>
      </trkpt>
      <trkpt lat="51.048041023313999" lon="9.497460974380374">
        <ele>276.51999999999998</ele>
        <time>2017-06-17T03:52:14Z</time>
      </trkpt>
      <trkpt lat="51.050100959837437" lon="9.497273974120617">
        <ele>271.70999999999998</ele>
        <time>2017-06-17T03:52:20Z</time>
      </trkpt>
      <trkpt lat="51.056112963706255" lon="9.495941000059247">
        <ele>279.88</ele>
        <time>2017-06-17T03:52:38Z</time>
      </trkpt>
      <trkpt lat="51.061327010393143" lon="9.494676003232598">
        <ele>307.75999999999999</ele>
        <time>2017-06-17T03:52:54Z</time>
      </trkpt>
      <trkpt lat="51.064871968701482" lon="9.493392985314131">
        <ele>322.66000000000003</ele>
        <time>2017-06-17T03:53:05Z</time>
      </trkpt>
      <trkpt lat="51.07071197591722" lon="9.491233974695206">
        <ele>328.91000000000003</ele>
        <time>2017-06-17T03:53:23Z</time>
      </trkpt>
      <trkpt lat="51.074065994471312" lon="9.489895971491933">
        <ele>318.32999999999998</ele>
        <time>2017-06-17T03:53:33Z</time>
      </trkpt>
      <trkpt lat="51.078752987086773" lon="9.487167997285724">
        <ele>301.50999999999999</ele>
        <time>2017-06-17T03:53:47Z</time>
      </trkpt>
      <trkpt lat="51.082563987001777" lon="9.485406037420034">
        <ele>276.04000000000002</ele>
        <time>2017-06-17T03:53:58Z</time>
      </trkpt>
      <trkpt lat="51.087205968797207" lon="9.484528033062816">
        <ele>268.35000000000002</ele>
        <time>2017-06-17T03:54:11Z</time>
      </trkpt>
      <trkpt lat="51.091940989717841" lon="9.483690010383725">
        <ele>280.83999999999997</ele>
        <time>2017-06-17T03:54:25Z</time>
      </trkpt>
      <trkpt lat="51.09623596072197" lon="9.483307963237166">
        <ele>310.16000000000003</ele>
        <time>2017-06-17T03:54:38Z</time>
      </trkpt>
      <trkpt lat="51.098174024373293" lon="9.484041966497898">
        <ele>316.41000000000003</ele>
        <time>2017-06-17T03:54:44Z</time>
      </trkpt>
      <trkpt lat="51.101084975525737" lon="9.485343005508184">
        <ele>316.88999999999999</ele>
        <time>2017-06-17T03:54:53Z</time>
      </trkpt>
      <trkpt lat="51.103114988654852" lon="9.485021978616715">
        <ele>319.77999999999997</ele>
        <time>2017-06-17T03:54:59Z</time>
      </trkpt>
      <trkpt lat="51.107093961909413" lon="9.483174020424485">
        <ele>321.69999999999999</ele>
        <time>2017-06-17T03:55:11Z</time>
      </trkpt>
      <trkpt lat="51.109184995293617" lon="9.483064971864224">
        <ele>321.22000000000003</ele>
        <time>2017-06-17T03:55:17Z</time>
      </trkpt>
      <trkpt lat="51.1119419708848" lon="9.483985975384712">
        <ele>314.97000000000003</ele>
        <time>2017-06-17T03:55:25Z</time>
      </trkpt>
      <trkpt lat="51.115428004413843" lon="9.484920976683497">
        <ele>311.12</ele>
        <time>2017-06-17T03:55:35Z</time>
      </trkpt>
      <trkpt lat="51.117893038317561" lon="9.484623000025749">
        <ele>306.31999999999999</ele>
        <time>2017-06-17T03:55:42Z</time>
      </trkpt>
      <trkpt lat="51.12027701921761" lon="9.483416005969048">
        <ele>303.43000000000001</ele>
        <time>2017-06-17T03:55:49Z</time>
      </trkpt>
      <trkpt lat="51.122379032894969" lon="9.481394961476326">
        <ele>307.75999999999999</ele>
        <time>2017-06-17T03:55:56Z</time>
      </trkpt>
      <trkpt lat="51.124406028538942" lon="9.478446040302515">
        <ele>308.24000000000001</ele>
        <time>2017-06-17T03:56:04Z</time>
      </trkpt>
      <trkpt lat="51.126828985288739" lon="9.475358985364437">
        <ele>306.31999999999999</ele>
        <time>2017-06-17T03:56:13Z</time>
      </trkpt>
      <trkpt lat="51.128738969564438" lon="9.474145034328103">
        <ele>303.91000000000003</ele>
        <time>2017-06-17T03:56:19Z</time>
      </trkpt>
      <trkpt lat="51.130797984078526" lon="9.473585961386561">
        <ele>297.67000000000002</ele>
        <time>2017-06-17T03:56:25Z</time>
      </trkpt>
      <trkpt lat="51.132947020232677" lon="9.473810009658337">
        <ele>284.20999999999998</ele>
        <time>2017-06-17T03:56:31Z</time>
      </trkpt>
      <trkpt lat="51.136472029611468" lon="9.47493402287364">
        <ele>260.64999999999998</ele>
        <time>2017-06-17T03:56:41Z</time>
      </trkpt>
      <trkpt lat="51.141018960624933" lon="9.475717982277274">
        <ele>251.52000000000001</ele>
        <time>2017-06-17T03:56:54Z</time>
      </trkpt>
      <trkpt lat="51.146653024479747" lon="9.475888973101974">
        <ele>248.63999999999999</ele>
        <time>2017-06-17T03:57:10Z</time>
      </trkpt>
      <trkpt lat="51.149693978950381" lon="9.476263979449868">
        <ele>262.57999999999998</ele>
        <time>2017-06-17T03:57:19Z</time>
      </trkpt>
      <trkpt lat="51.151631036773324" lon="9.477421017363668">
        <ele>267.38</ele>
        <time>2017-06-17T03:57:25Z</time>
      </trkpt>
      <trkpt lat="51.153698014095426" lon="9.479492017999291">
        <ele>272.19</ele>
        <time>2017-06-17T03:57:32Z</time>
      </trkpt>
      <trkpt lat="51.155846966430545" lon="9.48131600394845">
        <ele>272.19</ele>
        <time>2017-06-17T03:57:39Z</time>
      </trkpt>
      <trkpt lat="51.157911010086536" lon="9.481893014162779">
        <ele>267.86000000000001</ele>
        <time>2017-06-17T03:57:45Z</time>
      </trkpt>
      <trkpt lat="51.159634999930859" lon="9.481655973941088">
        <ele>267.86000000000001</ele>
        <time>2017-06-17T03:57:50Z</time>
      </trkpt>
      <trkpt lat="51.161295035853982" lon="9.480771012604237">
        <ele>272.19</ele>
        <time>2017-06-17T03:57:56Z</time>
      </trkpt>
      <trkpt lat="51.164963962510228" lon="9.478231966495514">
        <ele>283.25</ele>
        <time>2017-06-17T03:58:11Z</time>
      </trkpt>
      <trkpt lat="51.167563023045659" lon="9.476434970274568">
        <ele>280.36000000000001</ele>
        <time>2017-06-17T03:58:20Z</time>
      </trkpt>
      <trkpt lat="51.171689014881849" lon="9.473806992173195">
        <ele>251.03999999999999</ele>
        <time>2017-06-17T03:58:33Z</time>
      </trkpt>
      <trkpt lat="51.174135021865368" lon="9.472960000857711">
        <ele>232.78</ele>
        <time>2017-06-17T03:58:40Z</time>
      </trkpt>
      <trkpt lat="51.176936002448201" lon="9.472865033894777">
        <ele>236.13999999999999</ele>
        <time>2017-06-17T03:58:48Z</time>
      </trkpt>
      <trkpt lat="51.180642982944846" lon="9.473726022988558">
        <ele>232.78</ele>
        <time>2017-06-17T03:58:59Z</time>
      </trkpt>
      <trkpt lat="51.184061961248517" lon="9.474043026566505">
        <ele>213.55000000000001</ele>
        <time>2017-06-17T03:59:09Z</time>
      </trkpt>
      <trkpt lat="51.186721958220005" lon="9.473369959741831">
        <ele>212.59</ele>
        <time>2017-06-17T03:59:17Z</time>
      </trkpt>
      <trkpt lat="51.190611999481916" lon="9.471462992951274">
        <ele>214.99000000000001</ele>
        <time>2017-06-17T03:59:29Z</time>
      </trkpt>
      <trkpt lat="51.195719009265304" lon="9.468891005963087">
        <ele>211.63</ele>
        <time>2017-06-17T03:59:45Z</time>
      </trkpt>
      <trkpt lat="51.198931038379669" lon="9.467312023043633">
        <ele>190.96000000000001</ele>
        <time>2017-06-17T03:59:55Z</time>
      </trkpt>
      <trkpt lat="51.200999021530151" lon="9.466764014214277">
        <ele>172.69</ele>
        <time>2017-06-17T04:00:02Z</time>
      </trkpt>
      <trkpt lat="51.203168006613851" lon="9.467065008357167">
        <ele>154.43000000000001</ele>
        <time>2017-06-17T04:00:09Z</time>
      </trkpt>
      <trkpt lat="51.205239007249475" lon="9.468180974945426">
        <ele>148.18000000000001</ele>
        <time>2017-06-17T04:00:16Z</time>
      </trkpt>
      <trkpt lat="51.207954995334148" lon="9.469905970618129">
        <ele>148.66</ele>
        <time>2017-06-17T04:00:26Z</time>
      </trkpt>
      <trkpt lat="51.210395973175764" lon="9.471459975466132">
        <ele>156.83000000000001</ele>
        <time>2017-06-17T04:00:34Z</time>
      </trkpt>
      <trkpt lat="51.213590987026691" lon="9.473484959453344">
        <ele>178.46000000000001</ele>
        <time>2017-06-17T04:00:44Z</time>
      </trkpt>
      <trkpt lat="51.217206018045545" lon="9.475710019469261">
        <ele>186.63</ele>
        <time>2017-06-17T04:00:55Z</time>
      </trkpt>
      <trkpt lat="51.221649013459682" lon="9.478342020884156">
        <ele>187.11000000000001</ele>
        <time>2017-06-17T04:01:08Z</time>
      </trkpt>
      <trkpt lat="51.225220961496234" lon="9.480956001207233">
        <ele>205.86000000000001</ele>
        <time>2017-06-17T04:01:19Z</time>
      </trkpt>
      <trkpt lat="51.22791700065136" lon="9.483935013413429">
        <ele>210.19</ele>
        <time>2017-06-17T04:01:28Z</time>
      </trkpt>
      <trkpt lat="51.230575991794467" lon="9.487808039411902">
        <ele>210.19</ele>
        <time>2017-06-17T04:01:38Z</time>
      </trkpt>
      <trkpt lat="51.235715020447969" lon="9.495362984016538">
        <ele>220.75999999999999</ele>
        <time>2017-06-17T04:01:58Z</time>
      </trkpt>
      <trkpt lat="51.240072017535567" lon="9.501715041697025">
        <ele>247.19999999999999</ele>
        <time>2017-06-17T04:02:15Z</time>
      </trkpt>
      <trkpt lat="51.242331024259329" lon="9.505538027733564">
        <ele>271.70999999999998</ele>
        <time>2017-06-17T04:02:25Z</time>
      </trkpt>
      <trkpt lat="51.245552022010088" lon="9.511426985263825">
        <ele>285.17000000000002</ele>
        <time>2017-06-17T04:02:40Z</time>
      </trkpt>
      <trkpt lat="51.248141024261713" lon="9.51560796238482">
        <ele>278.92000000000002</ele>
        <time>2017-06-17T04:02:51Z</time>
      </trkpt>
      <trkpt lat="51.249952018260956" lon="9.517064988613129">
        <ele>274.58999999999997</ele>
        <time>2017-06-17T04:02:57Z</time>
      </trkpt>
      <trkpt lat="51.251986976712942" lon="9.51766898855567">
        <ele>268.82999999999998</ele>
        <time>2017-06-17T04:03:03Z</time>
      </trkpt>
      <trkpt lat="51.254787035286427" lon="9.517471008002758">
        <ele>251.52000000000001</ele>
        <time>2017-06-17T04:03:11Z</time>
      </trkpt>
      <trkpt lat="51.261549973860383" lon="9.516869019716978">
        <ele>206.34</ele>
        <time>2017-06-17T04:03:30Z</time>
      </trkpt>
      <trkpt lat="51.265196017920971" lon="9.516676990315318">
        <ele>185.19</ele>
        <time>2017-06-17T04:03:41Z</time>
      </trkpt>
      <trkpt lat="51.267173979431391" lon="9.517164984717965">
        <ele>177.02000000000001</ele>
        <time>2017-06-17T04:03:47Z</time>
      </trkpt>
      <trkpt lat="51.268956977874041" lon="9.518264019861817">
        <ele>171.25</ele>
        <time>2017-06-17T04:03:53Z</time>
      </trkpt>
      <trkpt lat="51.27052397467196" lon="9.519930006936193">
        <ele>165.96000000000001</ele>
        <time>2017-06-17T04:04:00Z</time>
      </trkpt>
      <trkpt lat="51.272090971469879" lon="9.522524960339069">
        <ele>162.12</ele>
        <time>2017-06-17T04:04:09Z</time>
      </trkpt>
      <trkpt lat="51.274127019569278" lon="9.526220038533211">
        <ele>160.19999999999999</ele>
        <time>2017-06-17T04:04:22Z</time>
      </trkpt>
      <trkpt lat="51.276877038180828" lon="9.53107500448823">
        <ele>159.24000000000001</ele>
        <time>2017-06-17T04:04:40Z</time>
      </trkpt>
      <trkpt lat="51.279581040143967" lon="9.535829974338412">
        <ele>159.24000000000001</ele>
        <time>2017-06-17T04:04:56Z</time>
      </trkpt>
      <trkpt lat="51.283767968416214" lon="9.543146034702659">
        <ele>169.81</ele>
        <time>2017-06-17T04:05:20Z</time>
      </trkpt>
      <trkpt lat="51.286878995597363" lon="9.548670966178179">
        <ele>186.63</ele>
        <time>2017-06-17T04:05:39Z</time>
      </trkpt>
      <trkpt lat="51.290347008034587" lon="9.554872987791896">
        <ele>190</ele>
        <time>2017-06-17T04:06:01Z</time>
      </trkpt>
      <trkpt lat="51.292378026992083" lon="9.558573011308909">
        <ele>177.97999999999999</ele>
        <time>2017-06-17T04:06:13Z</time>
      </trkpt>
      <trkpt lat="51.294292034581304" lon="9.560937965288758">
        <ele>167.88999999999999</ele>
        <time>2017-06-17T04:06:22Z</time>
      </trkpt>
      <trkpt lat="51.296217022463679" lon="9.562309999018908">
        <ele>165.47999999999999</ele>
        <time>2017-06-17T04:06:30Z</time>
      </trkpt>
      <trkpt lat="51.298170005902648" lon="9.562944006174803">
        <ele>169.33000000000001</ele>
        <time>2017-06-17T04:06:38Z</time>
      </trkpt>
      <trkpt lat="51.300461031496525" lon="9.562800005078316">
        <ele>169.81</ele>
        <time>2017-06-17T04:06:47Z</time>
      </trkpt>
      <trkpt lat="51.30341799929738" lon="9.561717985197902">
        <ele>163.08000000000001</ele>
        <time>2017-06-17T04:06:59Z</time>
      </trkpt>
      <trkpt lat="51.306602032855153" lon="9.560545021668077">
        <ele>161.63999999999999</ele>
        <time>2017-06-17T04:07:11Z</time>
      </trkpt>
      <trkpt lat="51.309003029018641" lon="9.559957031160593">
        <ele>159.24000000000001</ele>
        <time>2017-06-17T04:07:19Z</time>
      </trkpt>
      <trkpt lat="51.311423974111676" lon="9.560317033901811">
        <ele>158.27000000000001</ele>
        <time>2017-06-17T04:07:27Z</time>
      </trkpt>
      <trkpt lat="51.314574982970953" lon="9.561745980754495">
        <ele>163.08000000000001</ele>
        <time>2017-06-17T04:07:38Z</time>
      </trkpt>
      <trkpt lat="51.319003980606794" lon="9.563918989151716">
        <ele>188.08000000000001</ele>
        <time>2017-06-17T04:07:54Z</time>
      </trkpt>
      <trkpt lat="51.320762000977993" lon="9.565721014514566">
        <ele>195.77000000000001</ele>
        <time>2017-06-17T04:08:01Z</time>
      </trkpt>
      <trkpt lat="51.323386039584875" lon="9.569509970024228">
        <ele>212.11000000000001</ele>
        <time>2017-06-17T04:08:13Z</time>
      </trkpt>
      <trkpt lat="51.328276041895151" lon="9.576634000986815">
        <ele>247.19999999999999</ele>
        <time>2017-06-17T04:08:36Z</time>
      </trkpt>
      <trkpt lat="51.331526963040233" lon="9.581362986937165">
        <ele>270.26999999999998</ele>
        <time>2017-06-17T04:08:50Z</time>
      </trkpt>
      <trkpt lat="51.334916017949581" lon="9.586352985352278">
        <ele>292.86000000000001</ele>
        <time>2017-06-17T04:09:04Z</time>
      </trkpt>
      <trkpt lat="51.338579999282956" lon="9.591611959040165">
        <ele>303.43000000000001</ele>
        <time>2017-06-17T04:09:19Z</time>
      </trkpt>
      <trkpt lat="51.341794040054083" lon="9.596384027972817">
        <ele>287.08999999999997</ele>
        <time>2017-06-17T04:09:32Z</time>
      </trkpt>
      <trkpt lat="51.345716016367078" lon="9.601796977221966">
        <ele>285.64999999999998</ele>
        <time>2017-06-17T04:09:47Z</time>
      </trkpt>
      <trkpt lat="51.349152009934187" lon="9.60528502240777">
        <ele>298.14999999999998</ele>
        <time>2017-06-17T04:09:59Z</time>
      </trkpt>
      <trkpt lat="51.353295017033815" lon="9.609313029795885">
        <ele>289.49000000000001</ele>
        <time>2017-06-17T04:10:13Z</time>
      </trkpt>
      <trkpt lat="51.357595017179847" lon="9.613606994971633">
        <ele>292.38</ele>
        <time>2017-06-17T04:10:28Z</time>
      </trkpt>
      <trkpt lat="51.361812958493829" lon="9.618029035627842">
        <ele>312.08999999999997</ele>
        <time>2017-06-17T04:10:44Z</time>
      </trkpt>
      <trkpt lat="51.363326981663704" lon="9.620731025934219">
        <ele>325.06</ele>
        <time>2017-06-17T04:10:51Z</time>
      </trkpt>
      <trkpt lat="51.364472033455968" lon="9.623955963179469">
        <ele>338.51999999999998</ele>
        <time>2017-06-17T04:10:58Z</time>
      </trkpt>
      <trkpt lat="51.367165977135301" lon="9.632337028160691">
        <ele>369.75999999999999</ele>
        <time>2017-06-17T04:11:16Z</time>
      </trkpt>
      <trkpt lat="51.369363963603973" lon="9.639108013361692">
        <ele>378.42000000000002</ele>
        <time>2017-06-17T04:11:31Z</time>
      </trkpt>
      <trkpt lat="51.371494978666306" lon="9.64576399885118">
        <ele>372.64999999999998</ele>
        <time>2017-06-17T04:11:45Z</time>
      </trkpt>
      <trkpt lat="51.373719032853842" lon="9.651710959151387">
        <ele>367.83999999999997</ele>
        <time>2017-06-17T04:11:58Z</time>
      </trkpt>
      <trkpt lat="51.375334979966283" lon="9.654334997758269">
        <ele>367.83999999999997</ele>
        <time>2017-06-17T04:12:05Z</time>
      </trkpt>
      <trkpt lat="51.377293998375535" lon="9.656264008954167">
        <ele>376.00999999999999</ele>
        <time>2017-06-17T04:12:12Z</time>
      </trkpt>
      <trkpt lat="51.380100008100271" lon="9.658105010166764">
        <ele>381.30000000000001</ele>
        <time>2017-06-17T04:12:21Z</time>
      </trkpt>
      <trkpt lat="51.384306969121099" lon="9.660542970523238">
        <ele>367.83999999999997</ele>
        <time>2017-06-17T04:12:34Z</time>
      </trkpt>
      <trkpt lat="51.389950001612306" lon="9.663813002407551">
        <ele>334.19999999999999</ele>
        <time>2017-06-17T04:12:51Z</time>
      </trkpt>
      <trkpt lat="51.393079971894622" lon="9.665899006649852">
        <ele>317.37</ele>
        <time>2017-06-17T04:13:01Z</time>
      </trkpt>
      <trkpt lat="51.394959026947618" lon="9.667999008670449">
        <ele>317.85000000000002</ele>
        <time>2017-06-17T04:13:08Z</time>
      </trkpt>
      <trkpt lat="51.396590983495116" lon="9.670631010085344">
        <ele>318.81</ele>
        <time>2017-06-17T04:13:15Z</time>
      </trkpt>
      <trkpt lat="51.397610977292061" lon="9.673112975433469">
        <ele>314.49000000000001</ele>
        <time>2017-06-17T04:13:21Z</time>
      </trkpt>
      <trkpt lat="51.398428967222571" lon="9.676347970962524">
        <ele>302.47000000000003</ele>
        <time>2017-06-17T04:13:29Z</time>
      </trkpt>
      <trkpt lat="51.398720992729068" lon="9.679810032248497">
        <ele>295.25999999999999</ele>
        <time>2017-06-17T04:13:37Z</time>
      </trkpt>
      <trkpt lat="51.398462997749448" lon="9.682926004752517">
        <ele>295.25999999999999</ele>
        <time>2017-06-17T04:13:44Z</time>
      </trkpt>
      <trkpt lat="51.397785991430283" lon="9.686109032481909">
        <ele>295.74000000000001</ele>
        <time>2017-06-17T04:13:52Z</time>
      </trkpt>
      <trkpt lat="51.397102028131485" lon="9.68939901329577">
        <ele>290.45999999999998</ele>
        <time>2017-06-17T04:14:01Z</time>
      </trkpt>
      <trkpt lat="51.396884014829993" lon="9.692606013268232">
        <ele>279.88</ele>
        <time>2017-06-17T04:14:09Z</time>
      </trkpt>
      <trkpt lat="51.397163970395923" lon="9.696220038458705">
        <ele>263.54000000000002</ele>
        <time>2017-06-17T04:14:18Z</time>
      </trkpt>
      <trkpt lat="51.397933010011911" lon="9.699178012087941">
        <ele>246.22999999999999</ele>
        <time>2017-06-17T04:14:26Z</time>
      </trkpt>
      <trkpt lat="51.399203035980463" lon="9.701970024034381">
        <ele>227.49000000000001</ele>
        <time>2017-06-17T04:14:35Z</time>
      </trkpt>
      <trkpt lat="51.400834992527962" lon="9.704797994345427">
        <ele>207.78</ele>
        <time>2017-06-17T04:14:45Z</time>
      </trkpt>
      <trkpt lat="51.402235021814704" lon="9.708246979862452">
        <ele>190.96000000000001</ele>
        <time>2017-06-17T04:14:56Z</time>
      </trkpt>
      <trkpt lat="51.403575958684087" lon="9.711574008688331">
        <ele>179.90000000000001</ele>
        <time>2017-06-17T04:15:07Z</time>
      </trkpt>
      <trkpt lat="51.40579397790134" lon="9.71720396541059">
        <ele>181.34999999999999</ele>
        <time>2017-06-17T04:15:23Z</time>
      </trkpt>
      <trkpt lat="51.406984040513635" lon="9.720938019454479">
        <ele>193.84</ele>
        <time>2017-06-17T04:15:33Z</time>
      </trkpt>
      <trkpt lat="51.407688036561012" lon="9.724554978311062">
        <ele>199.61000000000001</ele>
        <time>2017-06-17T04:15:41Z</time>
      </trkpt>
      <trkpt lat="51.407981989905238" lon="9.728478966280818">
        <ele>203.46000000000001</ele>
        <time>2017-06-17T04:15:49Z</time>
      </trkpt>
      <trkpt lat="51.407799012959003" lon="9.732420975342393">
        <ele>205.38</ele>
        <time>2017-06-17T04:15:57Z</time>
      </trkpt>
      <trkpt lat="51.407310012727976" lon="9.738576980307698">
        <ele>203.46000000000001</ele>
        <time>2017-06-17T04:16:09Z</time>
      </trkpt>
      <trkpt lat="51.406668964773417" lon="9.742669025436044">
        <ele>195.28</ele>
        <time>2017-06-17T04:16:17Z</time>
      </trkpt>
      <trkpt lat="51.405306989327073" lon="9.747492978349328">
        <ele>189.52000000000001</ele>
        <time>2017-06-17T04:16:27Z</time>
      </trkpt>
      <trkpt lat="51.403514016419649" lon="9.751918958500028">
        <ele>186.63</ele>
        <time>2017-06-17T04:16:37Z</time>
      </trkpt>
      <trkpt lat="51.401048982515931" lon="9.757579006254673">
        <ele>174.13999999999999</ele>
        <time>2017-06-17T04:16:50Z</time>
      </trkpt>
      <trkpt lat="51.397021980956197" lon="9.767012000083923">
        <ele>166.44999999999999</ele>
        <time>2017-06-17T04:17:12Z</time>
      </trkpt>
      <trkpt lat="51.395542994141579" lon="9.771742997691035">
        <ele>159.24000000000001</ele>
        <time>2017-06-17T04:17:22Z</time>
      </trkpt>
      <trkpt lat="51.395002026110888" lon="9.775199024006724">
        <ele>167.88999999999999</ele>
        <time>2017-06-17T04:17:29Z</time>
      </trkpt>
      <trkpt lat="51.395004959776998" lon="9.778610039502382">
        <ele>174.62</ele>
        <time>2017-06-17T04:17:36Z</time>
      </trkpt>
      <trkpt lat="51.395489014685154" lon="9.781870013102889">
        <ele>178.94</ele>
        <time>2017-06-17T04:17:43Z</time>
      </trkpt>
      <trkpt lat="51.396549995988607" lon="9.785353029146791">
        <ele>180.87</ele>
        <time>2017-06-17T04:17:51Z</time>
      </trkpt>
      <trkpt lat="51.398437013849616" lon="9.790668999776244">
        <ele>195.77000000000001</ele>
        <time>2017-06-17T04:18:03Z</time>
      </trkpt>
      <trkpt lat="51.400779001414776" lon="9.797654980793595">
        <ele>223.16</ele>
        <time>2017-06-17T04:18:18Z</time>
      </trkpt>
      <trkpt lat="51.40278697013855" lon="9.804467959329486">
        <ele>238.06</ele>
        <time>2017-06-17T04:18:32Z</time>
      </trkpt>
      <trkpt lat="51.405104985460639" lon="9.811913017183542">
        <ele>261.13999999999999</ele>
        <time>2017-06-17T04:18:48Z</time>
      </trkpt>
      <trkpt lat="51.407420989125967" lon="9.819439966231585">
        <ele>281.31999999999999</ele>
        <time>2017-06-17T04:19:04Z</time>
      </trkpt>
      <trkpt lat="51.409075995907187" lon="9.823765028268099">
        <ele>302.47000000000003</ele>
        <time>2017-06-17T04:19:14Z</time>
      </trkpt>
      <trkpt lat="51.411643037572503" lon="9.828761983662844">
        <ele>310.16000000000003</ele>
        <time>2017-06-17T04:19:26Z</time>
      </trkpt>
      <trkpt lat="51.415679007768631" lon="9.836256997659802">
        <ele>293.33999999999997</ele>
        <time>2017-06-17T04:19:44Z</time>
      </trkpt>
      <trkpt lat="51.417721007019281" lon="9.83923802152276">
        <ele>284.69</ele>
        <time>2017-06-17T04:19:52Z</time>
      </trkpt>
      <trkpt lat="51.420289976522326" lon="9.841893995180726">
        <ele>281.31999999999999</ele>
        <time>2017-06-17T04:20:01Z</time>
      </trkpt>
      <trkpt lat="51.423106966540217" lon="9.843782018870115">
        <ele>280.36000000000001</ele>
        <time>2017-06-17T04:20:10Z</time>
      </trkpt>
      <trkpt lat="51.426425026729703" lon="9.845119016245008">
        <ele>271.23000000000002</ele>
        <time>2017-06-17T04:20:20Z</time>
      </trkpt>
      <trkpt lat="51.432926030829549" lon="9.847456980496645">
        <ele>245.27000000000001</ele>
        <time>2017-06-17T04:20:39Z</time>
      </trkpt>
      <trkpt lat="51.437222007662058" lon="9.849434019997716">
        <ele>222.19999999999999</ele>
        <time>2017-06-17T04:20:52Z</time>
      </trkpt>
      <trkpt lat="51.440062969923019" lon="9.851560005918145">
        <ele>212.59</ele>
        <time>2017-06-17T04:21:01Z</time>
      </trkpt>
      <trkpt lat="51.443541962653399" lon="9.855060037225485">
        <ele>208.25999999999999</ele>
        <time>2017-06-17T04:21:13Z</time>
      </trkpt>
      <trkpt lat="51.446440005674958" lon="9.857941986992955">
        <ele>218.36000000000001</ele>
        <time>2017-06-17T04:21:23Z</time>
      </trkpt>
      <trkpt lat="51.450414033606648" lon="9.861912997439504">
        <ele>217.40000000000001</ele>
        <time>2017-06-17T04:21:37Z</time>
      </trkpt>
      <trkpt lat="51.453745001927018" lon="9.865187974646688">
        <ele>199.13</ele>
        <time>2017-06-17T04:21:49Z</time>
      </trkpt>
      <trkpt lat="51.456345990300179" lon="9.867355031892657">
        <ele>196.25</ele>
        <time>2017-06-17T04:21:59Z</time>
      </trkpt>
      <trkpt lat="51.45864799618721" lon="9.8686289973557">
        <ele>199.61000000000001</ele>
        <time>2017-06-17T04:22:07Z</time>
      </trkpt>
      <trkpt lat="51.461779978126287" lon="9.869721997529268">
        <ele>197.69</ele>
        <time>2017-06-17T04:22:16Z</time>
      </trkpt>
      <trkpt lat="51.465306999161839" lon="9.870735034346581">
        <ele>181.34999999999999</ele>
        <time>2017-06-17T04:22:26Z</time>
      </trkpt>
      <trkpt lat="51.470169005915523" lon="9.871839014813304">
        <ele>172.69</ele>
        <time>2017-06-17T04:22:40Z</time>
      </trkpt>
      <trkpt lat="51.473030000925064" lon="9.872542005032301">
        <ele>171.72999999999999</ele>
        <time>2017-06-17T04:22:49Z</time>
      </trkpt>
      <trkpt lat="51.477613979950547" lon="9.873639028519392">
        <ele>169.33000000000001</ele>
        <time>2017-06-17T04:23:03Z</time>
      </trkpt>
      <trkpt lat="51.484578000381589" lon="9.875327982008457">
        <ele>165</ele>
        <time>2017-06-17T04:23:24Z</time>
      </trkpt>
      <trkpt lat="51.489777965471148" lon="9.876614017412067">
        <ele>165.47999999999999</ele>
        <time>2017-06-17T04:23:40Z</time>
      </trkpt>
      <trkpt lat="51.494670985266566" lon="9.877725960686803">
        <ele>164.52000000000001</ele>
        <time>2017-06-17T04:23:55Z</time>
      </trkpt>
      <trkpt lat="51.499300980940461" lon="9.878171961754561">
        <ele>164.03999999999999</ele>
        <time>2017-06-17T04:24:09Z</time>
      </trkpt>
      <trkpt lat="51.505628982558846" lon="9.878401961177588">
        <ele>165</ele>
        <time>2017-06-17T04:24:28Z</time>
      </trkpt>
      <trkpt lat="51.512182960286736" lon="9.878594996407628">
        <ele>169.33000000000001</ele>
        <time>2017-06-17T04:24:48Z</time>
      </trkpt>
      <trkpt lat="51.518856966868043" lon="9.878823990002275">
        <ele>168.37</ele>
        <time>2017-06-17T04:25:08Z</time>
      </trkpt>
      <trkpt lat="51.525675980374217" lon="9.879122972488403">
        <ele>167.88999999999999</ele>
        <time>2017-06-17T04:25:28Z</time>
      </trkpt>
      <trkpt lat="51.530714007094502" lon="9.879345009103417">
        <ele>155.87</ele>
        <time>2017-06-17T04:25:43Z</time>
      </trkpt>
      <trkpt lat="51.533463019877672" lon="9.87937300466001">
        <ele>153.47</ele>
        <time>2017-06-17T04:25:51Z</time>
      </trkpt>
      <trkpt lat="51.536421999335289" lon="9.879339979961515">
        <ele>156.34999999999999</ele>
        <time>2017-06-17T04:25:59Z</time>
      </trkpt>
      <trkpt lat="51.540582021698356" lon="9.879350960254669">
        <ele>157.31</ele>
        <time>2017-06-17T04:26:10Z</time>
      </trkpt>
      <trkpt lat="51.545245964080095" lon="9.87939203158021">
        <ele>167.41</ele>
        <time>2017-06-17T04:26:23Z</time>
      </trkpt>
      <trkpt lat="51.549813011661172" lon="9.879348026588559">
        <ele>164.52000000000001</ele>
        <time>2017-06-17T04:26:36Z</time>
      </trkpt>
      <trkpt lat="51.556807961314917" lon="9.8794149979949">
        <ele>153.47</ele>
        <time>2017-06-17T04:26:56Z</time>
      </trkpt>
      <trkpt lat="51.561922011896968" lon="9.879609039053321">
        <ele>151.53999999999999</ele>
        <time>2017-06-17T04:27:11Z</time>
      </trkpt>
      <trkpt lat="51.563884969800711" lon="9.880525013431907">
        <ele>149.62</ele>
        <time>2017-06-17T04:27:17Z</time>
      </trkpt>
      <trkpt lat="51.565698981285095" lon="9.882195023819804">
        <ele>147.69999999999999</ele>
        <time>2017-06-17T04:27:23Z</time>
      </trkpt>
      <trkpt lat="51.56727796420455" lon="9.884553020820022">
        <ele>148.66</ele>
        <time>2017-06-17T04:27:29Z</time>
      </trkpt>
      <trkpt lat="51.568384962156415" lon="9.887432036921382">
        <ele>150.58000000000001</ele>
        <time>2017-06-17T04:27:35Z</time>
      </trkpt>
      <trkpt lat="51.569114020094275" lon="9.891153015196323">
        <ele>151.06</ele>
        <time>2017-06-17T04:27:42Z</time>
      </trkpt>
      <trkpt lat="51.569926980882883" lon="9.896982964128256">
        <ele>148.18000000000001</ele>
        <time>2017-06-17T04:27:53Z</time>
      </trkpt>
      <trkpt lat="51.570991985499859" lon="9.901139969006181">
        <ele>145.78</ele>
        <time>2017-06-17T04:28:01Z</time>
      </trkpt>
      <trkpt lat="51.572756040841341" lon="9.904589960351586">
        <ele>145.30000000000001</ele>
        <time>2017-06-17T04:28:09Z</time>
      </trkpt>
      <trkpt lat="51.575392987579107" lon="9.908240027725697">
        <ele>138.56999999999999</ele>
        <time>2017-06-17T04:28:19Z</time>
      </trkpt>
      <trkpt lat="51.578327994793653" lon="9.911262961104512">
        <ele>133.75999999999999</ele>
        <time>2017-06-17T04:28:29Z</time>
      </trkpt>
      <trkpt lat="51.580298999324441" lon="9.912339029833674">
        <ele>131.84</ele>
        <time>2017-06-17T04:28:35Z</time>
      </trkpt>
      <trkpt lat="51.582420039921999" lon="9.91265301592648">
        <ele>130.88</ele>
        <time>2017-06-17T04:28:41Z</time>
      </trkpt>
      <trkpt lat="51.584847019985318" lon="9.912113975733519">
        <ele>133.28</ele>
        <time>2017-06-17T04:28:48Z</time>
      </trkpt>
      <trkpt lat="51.587126981467009" lon="9.910607999190688">
        <ele>131.84</ele>
        <time>2017-06-17T04:28:55Z</time>
      </trkpt>
      <trkpt lat="51.591971972957253" lon="9.906419981271029">
        <ele>130.40000000000001</ele>
        <time>2017-06-17T04:29:11Z</time>
      </trkpt>
      <trkpt lat="51.594192003831267" lon="9.904996985569596">
        <ele>131.36000000000001</ele>
        <time>2017-06-17T04:29:18Z</time>
      </trkpt>
      <trkpt lat="51.597198005765676" lon="9.904132978990674">
        <ele>131.36000000000001</ele>
        <time>2017-06-17T04:29:27Z</time>
      </trkpt>
      <trkpt lat="51.599624985828996" lon="9.904162986204028">
        <ele>131.84</ele>
        <time>2017-06-17T04:29:34Z</time>
      </trkpt>
      <trkpt lat="51.602352960035205" lon="9.904997991397977">
        <ele>131.36000000000001</ele>
        <time>2017-06-17T04:29:42Z</time>
      </trkpt>
      <trkpt lat="51.608310984447598" lon="9.907483980059624">
        <ele>133.75999999999999</ele>
        <time>2017-06-17T04:30:00Z</time>
      </trkpt>
      <trkpt lat="51.610602010041475" lon="9.907949008047581">
        <ele>138.09</ele>
        <time>2017-06-17T04:30:07Z</time>
      </trkpt>
      <trkpt lat="51.615066966041923" lon="9.908908987417817">
        <ele>127.51000000000001</ele>
        <time>2017-06-17T04:30:20Z</time>
      </trkpt>
      <trkpt lat="51.617361009120941" lon="9.910238021984696">
        <ele>127.51000000000001</ele>
        <time>2017-06-17T04:30:27Z</time>
      </trkpt>
      <trkpt lat="51.622006008401513" lon="9.913580976426601">
        <ele>135.19999999999999</ele>
        <time>2017-06-17T04:30:42Z</time>
      </trkpt>
      <trkpt lat="51.62853199057281" lon="9.918173002079129">
        <ele>134.24000000000001</ele>
        <time>2017-06-17T04:31:03Z</time>
      </trkpt>
      <trkpt lat="51.63203202188015" lon="9.920247020199895">
        <ele>144.34</ele>
        <time>2017-06-17T04:31:14Z</time>
      </trkpt>
      <trkpt lat="51.635047998279333" lon="9.920782037079334">
        <ele>146.25999999999999</ele>
        <time>2017-06-17T04:31:23Z</time>
      </trkpt>
      <trkpt lat="51.63873502984643" lon="9.921339014545083">
        <ele>148.66</ele>
        <time>2017-06-17T04:31:34Z</time>
      </trkpt>
      <trkpt lat="51.641777995973825" lon="9.921716032549739">
        <ele>143.84999999999999</ele>
        <time>2017-06-17T04:31:43Z</time>
      </trkpt>
      <trkpt lat="51.644154014065862" lon="9.921088982373476">
        <ele>141.44999999999999</ele>
        <time>2017-06-17T04:31:50Z</time>
      </trkpt>
      <trkpt lat="51.647098995745182" lon="9.919761037454009">
        <ele>150.09999999999999</ele>
        <time>2017-06-17T04:31:59Z</time>
      </trkpt>
      <trkpt lat="51.653085015714169" lon="9.91714496165514">
        <ele>172.69</ele>
        <time>2017-06-17T04:32:17Z</time>
      </trkpt>
      <trkpt lat="51.657078992575407" lon="9.915524991229177">
        <ele>176.06</ele>
        <time>2017-06-17T04:32:29Z</time>
      </trkpt>
      <trkpt lat="51.658993000164628" lon="9.915508981794119">
        <ele>177.5</ele>
        <time>2017-06-17T04:32:35Z</time>
      </trkpt>
      <trkpt lat="51.660829978063703" lon="9.916163021698594">
        <ele>181.34999999999999</ele>
        <time>2017-06-17T04:32:41Z</time>
      </trkpt>
      <trkpt lat="51.664613988250494" lon="9.918292025104165">
        <ele>194.31999999999999</ele>
        <time>2017-06-17T04:32:53Z</time>
      </trkpt>
      <trkpt lat="51.667964989319444" lon="9.920206032693386">
        <ele>209.22</ele>
        <time>2017-06-17T04:33:04Z</time>
      </trkpt>
      <trkpt lat="51.674124011769891" lon="9.923563990741968">
        <ele>207.78</ele>
        <time>2017-06-17T04:33:23Z</time>
      </trkpt>
      <trkpt lat="51.677723033353686" lon="9.92562803439796">
        <ele>190.47999999999999</ele>
        <time>2017-06-17T04:33:34Z</time>
      </trkpt>
      <trkpt lat="51.681059030815959" lon="9.926985986530781">
        <ele>173.16999999999999</ele>
        <time>2017-06-17T04:33:44Z</time>
      </trkpt>
      <trkpt lat="51.684793001040816" lon="9.927727030590177">
        <ele>158.27000000000001</ele>
        <time>2017-06-17T04:33:55Z</time>
      </trkpt>
      <trkpt lat="51.687064999714494" lon="9.928705031052232">
        <ele>152.99000000000001</ele>
        <time>2017-06-17T04:34:02Z</time>
      </trkpt>
      <trkpt lat="51.689115967601538" lon="9.930590037256479">
        <ele>149.62</ele>
        <time>2017-06-17T04:34:09Z</time>
      </trkpt>
      <trkpt lat="51.692527988925576" lon="9.934448981657624">
        <ele>140.97</ele>
        <time>2017-06-17T04:34:21Z</time>
      </trkpt>
      <trkpt lat="51.695363000035286" lon="9.936616038903594">
        <ele>130.88</ele>
        <time>2017-06-17T04:34:30Z</time>
      </trkpt>
      <trkpt lat="51.698069013655186" lon="9.937736028805375">
        <ele>124.63</ele>
        <time>2017-06-17T04:34:38Z</time>
      </trkpt>
      <trkpt lat="51.701139975339174" lon="9.938202984631062">
        <ele>125.59</ele>
        <time>2017-06-17T04:34:47Z</time>
      </trkpt>
      <trkpt lat="51.708540022373199" lon="9.938595006242394">
        <ele>136.63999999999999</ele>
        <time>2017-06-17T04:35:09Z</time>
      </trkpt>
      <trkpt lat="51.712158992886543" lon="9.939689012244344">
        <ele>142.88999999999999</ele>
        <time>2017-06-17T04:35:20Z</time>
      </trkpt>
      <trkpt lat="51.715619964525104" lon="9.941538982093334">
        <ele>139.05000000000001</ele>
        <time>2017-06-17T04:35:31Z</time>
      </trkpt>
      <trkpt lat="51.718929978087544" lon="9.944168971851468">
        <ele>125.59</ele>
        <time>2017-06-17T04:35:42Z</time>
      </trkpt>
      <trkpt lat="51.721741016954184" lon="9.947191989049316">
        <ele>115.5</ele>
        <time>2017-06-17T04:35:52Z</time>
      </trkpt>
      <trkpt lat="51.72448500059545" lon="9.95111002586782">
        <ele>110.20999999999999</ele>
        <time>2017-06-17T04:36:03Z</time>
      </trkpt>
      <trkpt lat="51.726582990959287" lon="9.95497802272439">
        <ele>109.73</ele>
        <time>2017-06-17T04:36:14Z</time>
      </trkpt>
      <trkpt lat="51.728502027690411" lon="9.959546998143196">
        <ele>110.69</ele>
        <time>2017-06-17T04:36:26Z</time>
      </trkpt>
      <trkpt lat="51.730434978380799" lon="9.964766995981336">
        <ele>114.05</ele>
        <time>2017-06-17T04:36:40Z</time>
      </trkpt>
      <trkpt lat="51.732590971514583" lon="9.970632987096906">
        <ele>120.78</ele>
        <time>2017-06-17T04:36:56Z</time>
      </trkpt>
      <trkpt lat="51.733591016381979" lon="9.973417958244681">
        <ele>126.06999999999999</ele>
        <time>2017-06-17T04:37:04Z</time>
      </trkpt>
      <trkpt lat="51.734256958588958" lon="9.975331965833902">
        <ele>130.40000000000001</ele>
        <time>2017-06-17T04:37:12Z</time>
      </trkpt>
      <trkpt lat="51.734300963580608" lon="9.975592978298664">
        <ele>130.88</ele>
        <time>2017-06-17T04:37:13Z</time>
      </trkpt>
      <trkpt lat="51.734326025471091" lon="9.975848039612174">
        <ele>131.36000000000001</ele>
        <time>2017-06-17T04:37:14Z</time>
      </trkpt>
      <trkpt lat="51.734328037127852" lon="9.976090025156736">
        <ele>131.36000000000001</ele>
        <time>2017-06-17T04:37:15Z</time>
      </trkpt>
      <trkpt lat="51.734301969408989" lon="9.976316001266241">
        <ele>131.36000000000001</ele>
        <time>2017-06-17T04:37:16Z</time>
      </trkpt>
      <trkpt lat="51.734242038801312" lon="9.976511970162392">
        <ele>131.36000000000001</ele>
        <time>2017-06-17T04:37:17Z</time>
      </trkpt>
      <trkpt lat="51.73415201716125" lon="9.976668963208795">
        <ele>130.88</ele>
        <time>2017-06-17T04:37:18Z</time>
      </trkpt>
      <trkpt lat="51.734039029106498" lon="9.97678698040545">
        <ele>130.40000000000001</ele>
        <time>2017-06-17T04:37:19Z</time>
      </trkpt>
      <trkpt lat="51.733902990818024" lon="9.976845989003778">
        <ele>129.43000000000001</ele>
        <time>2017-06-17T04:37:20Z</time>
      </trkpt>
      <trkpt lat="51.733756978064775" lon="9.9768500123173">
        <ele>128.94999999999999</ele>
        <time>2017-06-17T04:37:21Z</time>
      </trkpt>
      <trkpt lat="51.733618006110191" lon="9.976789997890592">
        <ele>128.94999999999999</ele>
        <time>2017-06-17T04:37:22Z</time>
      </trkpt>
      <trkpt lat="51.733490014448762" lon="9.976683966815472">
        <ele>128.94999999999999</ele>
        <time>2017-06-17T04:37:23Z</time>
      </trkpt>
      <trkpt lat="51.73337996006012" lon="9.976520016789436">
        <ele>127.98999999999999</ele>
        <time>2017-06-17T04:37:24Z</time>
      </trkpt>
      <trkpt lat="51.733268983662128" lon="9.976348020136356">
        <ele>127.98999999999999</ele>
        <time>2017-06-17T04:37:25Z</time>
      </trkpt>
      <trkpt lat="51.732364995405078" lon="9.974922006949782">
        <ele>122.22</ele>
        <time>2017-06-17T04:37:33Z</time>
      </trkpt>
      <trkpt lat="51.732041034847498" lon="9.973892960697413">
        <ele>120.3</ele>
        <time>2017-06-17T04:37:40Z</time>
      </trkpt>
      <trkpt lat="51.731974985450506" lon="9.97360797598958">
        <ele>120.3</ele>
        <time>2017-06-17T04:37:42Z</time>
      </trkpt>
      <trkpt lat="51.731933997943997" lon="9.973489036783576">
        <ele>120.3</ele>
        <time>2017-06-17T04:37:43Z</time>
      </trkpt>
      <trkpt lat="51.731663011014462" lon="9.972847988829017">
        <ele>118.86</ele>
        <time>2017-06-17T04:37:50Z</time>
      </trkpt>
      <trkpt lat="51.731623029336333" lon="9.97281395830214">
        <ele>118.86</ele>
        <time>2017-06-17T04:37:51Z</time>
      </trkpt>
      <trkpt lat="51.731586987152696" lon="9.972799960523844">
        <ele>118.38</ele>
        <time>2017-06-17T04:37:52Z</time>
      </trkpt>
      <trkpt lat="51.731543987989426" lon="9.97278998605907">
        <ele>118.38</ele>
        <time>2017-06-17T04:37:53Z</time>
      </trkpt>
      <trkpt lat="51.731496965512633" lon="9.972794009372592">
        <ele>118.38</ele>
        <time>2017-06-17T04:37:54Z</time>
      </trkpt>
      <trkpt lat="51.731442986056209" lon="9.972808007150888">
        <ele>118.38</ele>
        <time>2017-06-17T04:37:55Z</time>
      </trkpt>
      <trkpt lat="51.731392024084926" lon="9.972828039899468">
        <ele>118.38</ele>
        <time>2017-06-17T04:37:56Z</time>
      </trkpt>
      <trkpt lat="51.73120996914804" lon="9.972690995782614">
        <ele>118.38</ele>
        <time>2017-06-17T04:38:04Z</time>
      </trkpt>
      <trkpt lat="51.731176022440195" lon="9.972628969699144">
        <ele>118.38</ele>
        <time>2017-06-17T04:38:06Z</time>
      </trkpt>
      <trkpt lat="51.731152972206473" lon="9.972614971920848">
        <ele>118.38</ele>
        <time>2017-06-17T04:38:07Z</time>
      </trkpt>
      <trkpt lat="51.731093963608146" lon="9.972631987184286">
        <ele>116.45999999999999</ele>
        <time>2017-06-17T04:38:18Z</time>
      </trkpt>
      <trkpt lat="51.731089018285275" lon="9.97263902798295">
        <ele>117.42</ele>
        <time>2017-06-17T04:39:41Z</time>
      </trkpt>
      <trkpt lat="51.731088012456894" lon="9.972625030204654">
        <ele>118.38</ele>
        <time>2017-06-17T04:40:29Z</time>
      </trkpt>
      <trkpt lat="51.731092035770416" lon="9.972621006891131">
        <ele>118.38</ele>
        <time>2017-06-17T04:42:35Z</time>
      </trkpt>
      <trkpt lat="51.731090024113655" lon="9.972614971920848">
        <ele>118.86</ele>
        <time>2017-06-17T04:43:58Z</time>
      </trkpt>
      <trkpt lat="51.731053981930017" lon="9.972823010757566">
        <ele>118.38</ele>
        <time>2017-06-17T04:45:27Z</time>
      </trkpt>
      <trkpt lat="51.731062028557062" lon="9.972900962457061">
        <ele>118.38</ele>
        <time>2017-06-17T04:45:31Z</time>
      </trkpt>
      <trkpt lat="51.731068985536695" lon="9.972937004640698">
        <ele>118.86</ele>
        <time>2017-06-17T04:45:32Z</time>
      </trkpt>
      <trkpt lat="51.731086000800133" lon="9.972974974662066">
        <ele>118.86</ele>
        <time>2017-06-17T04:45:33Z</time>
      </trkpt>
      <trkpt lat="51.731107961386442" lon="9.973015962168574">
        <ele>118.86</ele>
        <time>2017-06-17T04:45:34Z</time>
      </trkpt>
      <trkpt lat="51.731130005791783" lon="9.973045969381928">
        <ele>118.86</ele>
        <time>2017-06-17T04:45:35Z</time>
      </trkpt>
      <trkpt lat="51.731153978034854" lon="9.973074970766902">
        <ele>118.86</ele>
        <time>2017-06-17T04:45:36Z</time>
      </trkpt>
      <trkpt lat="51.731174010783434" lon="9.973097015172243">
        <ele>118.38</ele>
        <time>2017-06-17T04:45:37Z</time>
      </trkpt>
      <trkpt lat="51.731280041858554" lon="9.973225006833673">
        <ele>118.86</ele>
        <time>2017-06-17T04:45:49Z</time>
      </trkpt>
      <trkpt lat="51.731278030201793" lon="9.973227018490434">
        <ele>118.86</ele>
        <time>2017-06-17T04:47:41Z</time>
      </trkpt>
      <trkpt lat="51.731278030201793" lon="9.97322098352015">
        <ele>118.86</ele>
        <time>2017-06-17T04:48:59Z</time>
      </trkpt>
      <trkpt lat="51.731278030201793" lon="9.973216960206628">
        <ele>118.86</ele>
        <time>2017-06-17T04:50:28Z</time>
      </trkpt>
      <trkpt lat="51.731278030201793" lon="9.973216038197279">
        <ele>118.86</ele>
        <time>2017-06-17T04:50:57Z</time>
      </trkpt>
      <trkpt lat="51.731302002444863" lon="9.973204974085093">
        <ele>118.86</ele>
        <time>2017-06-17T04:50:58Z</time>
      </trkpt>
      <trkpt lat="51.731342989951372" lon="9.973169015720487">
        <ele>118.86</ele>
        <time>2017-06-17T04:50:59Z</time>
      </trkpt>
      <trkpt lat="51.731592016294599" lon="9.972988972440362">
        <ele>118.86</ele>
        <time>2017-06-17T04:51:06Z</time>
      </trkpt>
      <trkpt lat="51.73163996078074" lon="9.97302602045238">
        <ele>119.34</ele>
        <time>2017-06-17T04:51:07Z</time>
      </trkpt>
      <trkpt lat="51.731679020449519" lon="9.97309098020196">
        <ele>119.34</ele>
        <time>2017-06-17T04:51:08Z</time>
      </trkpt>
      <trkpt lat="51.731710033491254" lon="9.973158035427332">
        <ele>119.81999999999999</ele>
        <time>2017-06-17T04:51:09Z</time>
      </trkpt>
      <trkpt lat="51.731737023219466" lon="9.973222995176911">
        <ele>119.81999999999999</ele>
        <time>2017-06-17T04:51:10Z</time>
      </trkpt>
      <trkpt lat="51.731856968253851" lon="9.973632032051683">
        <ele>120.78</ele>
        <time>2017-06-17T04:51:20Z</time>
      </trkpt>
      <trkpt lat="51.731955036520958" lon="9.974046014249325">
        <ele>121.26000000000001</ele>
        <time>2017-06-17T04:51:41Z</time>
      </trkpt>
      <trkpt lat="51.732456022873521" lon="9.975192993879318">
        <ele>122.70999999999999</ele>
        <time>2017-06-17T04:51:48Z</time>
      </trkpt>
      <trkpt lat="51.733554974198341" lon="9.976752027869225">
        <ele>130.88</ele>
        <time>2017-06-17T04:51:57Z</time>
      </trkpt>
      <trkpt lat="51.733702998608351" lon="9.976861998438835">
        <ele>131.36000000000001</ele>
        <time>2017-06-17T04:51:58Z</time>
      </trkpt>
      <trkpt lat="51.733856974169612" lon="9.976935004815459">
        <ele>132.31999999999999</ele>
        <time>2017-06-17T04:51:59Z</time>
      </trkpt>
      <trkpt lat="51.734020002186298" lon="9.976981021463871">
        <ele>132.80000000000001</ele>
        <time>2017-06-17T04:52:00Z</time>
      </trkpt>
      <trkpt lat="51.734187975525856" lon="9.976998958736658">
        <ele>133.28</ele>
        <time>2017-06-17T04:52:01Z</time>
      </trkpt>
      <trkpt lat="51.734352009370923" lon="9.977011028677225">
        <ele>134.24000000000001</ele>
        <time>2017-06-17T04:52:02Z</time>
      </trkpt>
      <trkpt lat="51.734655015170574" lon="9.97706500813365">
        <ele>135.19999999999999</ele>
        <time>2017-06-17T04:52:04Z</time>
      </trkpt>
      <trkpt lat="51.734794992953539" lon="9.977138014510274">
        <ele>135.68000000000001</ele>
        <time>2017-06-17T04:52:05Z</time>
      </trkpt>
      <trkpt lat="51.734931031242013" lon="9.977254020050168">
        <ele>136.63999999999999</ele>
        <time>2017-06-17T04:52:06Z</time>
      </trkpt>
      <trkpt lat="51.735050976276398" lon="9.97743004001677">
        <ele>136.63999999999999</ele>
        <time>2017-06-17T04:52:07Z</time>
      </trkpt>
      <trkpt lat="51.735165975987911" lon="9.977634977549315">
        <ele>138.09</ele>
        <time>2017-06-17T04:52:08Z</time>
      </trkpt>
      <trkpt lat="51.735274018719792" lon="9.977872017771006">
        <ele>139.05000000000001</ele>
        <time>2017-06-17T04:52:09Z</time>
      </trkpt>
      <trkpt lat="51.735379965975881" lon="9.978133030235767">
        <ele>140.00999999999999</ele>
        <time>2017-06-17T04:52:10Z</time>
      </trkpt>
      <trkpt lat="51.736341034993529" lon="9.980953959748149">
        <ele>150.58000000000001</ele>
        <time>2017-06-17T04:52:19Z</time>
      </trkpt>
      <trkpt lat="51.737099010497332" lon="9.983893996104598">
        <ele>158.27000000000001</ele>
        <time>2017-06-17T04:52:27Z</time>
      </trkpt>
      <trkpt lat="51.73769898712635" lon="9.987090015783906">
        <ele>164.03999999999999</ele>
        <time>2017-06-17T04:52:34Z</time>
      </trkpt>
      <trkpt lat="51.738185975700617" lon="9.992144973948598">
        <ele>167.88999999999999</ele>
        <time>2017-06-17T04:52:44Z</time>
      </trkpt>
      <trkpt lat="51.738831968978047" lon="9.997410988435149">
        <ele>169.33000000000001</ele>
        <time>2017-06-17T04:52:54Z</time>
      </trkpt>
      <trkpt lat="51.739848023280501" lon="10.000756038352847">
        <ele>169.81</ele>
        <time>2017-06-17T04:53:01Z</time>
      </trkpt>
      <trkpt lat="51.741247968748212" lon="10.003742007538676">
        <ele>170.77000000000001</ele>
        <time>2017-06-17T04:53:08Z</time>
      </trkpt>
      <trkpt lat="51.743052005767822" lon="10.006180973723531">
        <ele>171.72999999999999</ele>
        <time>2017-06-17T04:53:15Z</time>
      </trkpt>
      <trkpt lat="51.745143039152026" lon="10.007950980216265">
        <ele>171.25</ele>
        <time>2017-06-17T04:53:22Z</time>
      </trkpt>
      <trkpt lat="51.747718965634704" lon="10.009154034778476">
        <ele>173.16999999999999</ele>
        <time>2017-06-17T04:53:30Z</time>
      </trkpt>
      <trkpt lat="51.754264980554581" lon="10.011703977361321">
        <ele>181.34999999999999</ele>
        <time>2017-06-17T04:53:50Z</time>
      </trkpt>
      <trkpt lat="51.757889986038208" lon="10.013502985239029">
        <ele>184.71000000000001</ele>
        <time>2017-06-17T04:54:01Z</time>
      </trkpt>
      <trkpt lat="51.760617038235068" lon="10.015647998079658">
        <ele>185.66999999999999</ele>
        <time>2017-06-17T04:54:10Z</time>
      </trkpt>
      <trkpt lat="51.763302013278008" lon="10.018546041101217">
        <ele>187.11000000000001</ele>
        <time>2017-06-17T04:54:20Z</time>
      </trkpt>
      <trkpt lat="51.766507001593709" lon="10.022182026877999">
        <ele>185.19</ele>
        <time>2017-06-17T04:54:32Z</time>
      </trkpt>
      <trkpt lat="51.770537020638585" lon="10.026006018742919">
        <ele>172.21000000000001</ele>
        <time>2017-06-17T04:54:46Z</time>
      </trkpt>
      <trkpt lat="51.774155991151929" lon="10.028584040701389">
        <ele>165</ele>
        <time>2017-06-17T04:54:58Z</time>
      </trkpt>
      <trkpt lat="51.778750028461218" lon="10.031751981005073">
        <ele>158.27000000000001</ele>
        <time>2017-06-17T04:55:13Z</time>
      </trkpt>
      <trkpt lat="51.781001994386315" lon="10.034184996038675">
        <ele>150.09999999999999</ele>
        <time>2017-06-17T04:55:21Z</time>
      </trkpt>
      <trkpt lat="51.783272987231612" lon="10.037558041512966">
        <ele>140.49000000000001</ele>
        <time>2017-06-17T04:55:30Z</time>
      </trkpt>
      <trkpt lat="51.785498969256878" lon="10.041709011420608">
        <ele>134.24000000000001</ele>
        <time>2017-06-17T04:55:40Z</time>
      </trkpt>
      <trkpt lat="51.787535017356277" lon="10.046560959890485">
        <ele>129.91999999999999</ele>
        <time>2017-06-17T04:55:51Z</time>
      </trkpt>
      <trkpt lat="51.789216008037329" lon="10.051699988543987">
        <ele>127.51000000000001</ele>
        <time>2017-06-17T04:56:02Z</time>
      </trkpt>
      <trkpt lat="51.790669010952115" lon="10.057600010186434">
        <ele>129.91999999999999</ele>
        <time>2017-06-17T04:56:14Z</time>
      </trkpt>
      <trkpt lat="51.791600994765759" lon="10.063013965263963">
        <ele>135.68000000000001</ele>
        <time>2017-06-17T04:56:25Z</time>
      </trkpt>
      <trkpt lat="51.792241958901286" lon="10.069426037371159">
        <ele>144.81999999999999</ele>
        <time>2017-06-17T04:56:38Z</time>
      </trkpt>
      <trkpt lat="51.79287102073431" lon="10.073844976723194">
        <ele>151.06</ele>
        <time>2017-06-17T04:56:47Z</time>
      </trkpt>
      <trkpt lat="51.793993022292852" lon="10.078070964664221">
        <ele>155.38999999999999</ele>
        <time>2017-06-17T04:56:56Z</time>
      </trkpt>
      <trkpt lat="51.795349968597293" lon="10.081294979900122">
        <ele>157.78999999999999</ele>
        <time>2017-06-17T04:57:04Z</time>
      </trkpt>
      <trkpt lat="51.797204967588186" lon="10.084254965186119">
        <ele>160.19999999999999</ele>
        <time>2017-06-17T04:57:13Z</time>
      </trkpt>
      <trkpt lat="51.799506973475218" lon="10.086699966341257">
        <ele>164.52000000000001</ele>
        <time>2017-06-17T04:57:22Z</time>
      </trkpt>
      <trkpt lat="51.802918994799256" lon="10.089328028261662">
        <ele>175.09999999999999</ele>
        <time>2017-06-17T04:57:34Z</time>
      </trkpt>
      <trkpt lat="51.806094981729984" lon="10.092365965247154">
        <ele>184.71000000000001</ele>
        <time>2017-06-17T04:57:46Z</time>
      </trkpt>
      <trkpt lat="51.808772999793291" lon="10.095775974914432">
        <ele>189.03999999999999</ele>
        <time>2017-06-17T04:57:57Z</time>
      </trkpt>
      <trkpt lat="51.812429018318653" lon="10.10131498798728">
        <ele>193.84</ele>
        <time>2017-06-17T04:58:13Z</time>
      </trkpt>
      <trkpt lat="51.815441977232695" lon="10.105051975697279">
        <ele>199.13</ele>
        <time>2017-06-17T04:58:25Z</time>
      </trkpt>
      <trkpt lat="51.81867697276175" lon="10.108083039522171">
        <ele>209.22</ele>
        <time>2017-06-17T04:58:37Z</time>
      </trkpt>
      <trkpt lat="51.822116989642382" lon="10.110411029309034">
        <ele>221.72</ele>
        <time>2017-06-17T04:58:49Z</time>
      </trkpt>
      <trkpt lat="51.826035026460886" lon="10.112425033003092">
        <ele>223.63999999999999</ele>
        <time>2017-06-17T04:59:02Z</time>
      </trkpt>
      <trkpt lat="51.833441024646163" lon="10.116232009604573">
        <ele>203.94</ele>
        <time>2017-06-17T04:59:26Z</time>
      </trkpt>
      <trkpt lat="51.839056983590126" lon="10.118961995467544">
        <ele>193.84</ele>
        <time>2017-06-17T04:59:44Z</time>
      </trkpt>
      <trkpt lat="51.84319001622498" lon="10.120709035545588">
        <ele>190</ele>
        <time>2017-06-17T04:59:57Z</time>
      </trkpt>
      <trkpt lat="51.847972981631756" lon="10.122493961825967">
        <ele>188.56</ele>
        <time>2017-06-17T05:00:12Z</time>
      </trkpt>
      <trkpt lat="51.85225697234273" lon="10.123944031074643">
        <ele>190.47999999999999</ele>
        <time>2017-06-17T05:00:26Z</time>
      </trkpt>
      <trkpt lat="51.853731013834476" lon="10.124405035749078">
        <ele>191.44</ele>
        <time>2017-06-17T05:00:32Z</time>
      </trkpt>
      <trkpt lat="51.854363009333611" lon="10.124774007126689">
        <ele>191.91999999999999</ele>
        <time>2017-06-17T05:00:36Z</time>
      </trkpt>
      <trkpt lat="51.854474991559982" lon="10.124877020716667">
        <ele>191.91999999999999</ele>
        <time>2017-06-17T05:00:37Z</time>
      </trkpt>
      <trkpt lat="51.854570964351296" lon="10.124977016821504">
        <ele>192.40000000000001</ele>
        <time>2017-06-17T05:00:38Z</time>
      </trkpt>
      <trkpt lat="51.854889979586005" lon="10.125370966270566">
        <ele>192.88</ele>
        <time>2017-06-17T05:00:44Z</time>
      </trkpt>
      <trkpt lat="51.855056025087833" lon="10.125660980120301">
        <ele>193.36000000000001</ele>
        <time>2017-06-17T05:00:48Z</time>
      </trkpt>
      <trkpt lat="51.855095000937581" lon="10.125714037567377">
        <ele>193.36000000000001</ele>
        <time>2017-06-17T05:00:49Z</time>
      </trkpt>
      <trkpt lat="51.855236990377307" lon="10.125962980091572">
        <ele>191.91999999999999</ele>
        <time>2017-06-17T05:00:58Z</time>
      </trkpt>
      <trkpt lat="51.855164989829063" lon="10.125984018668532">
        <ele>207.78</ele>
        <time>2017-06-17T05:04:44Z</time>
      </trkpt>
      <trkpt lat="51.855168007314205" lon="10.125971026718616">
        <ele>200.56999999999999</ele>
        <time>2017-06-17T05:05:04Z</time>
      </trkpt>
      <trkpt lat="51.855262974277139" lon="10.126145035028458">
        <ele>200.56999999999999</ele>
        <time>2017-06-17T05:05:08Z</time>
      </trkpt>
      <trkpt lat="51.855321982875466" lon="10.126199014484882">
        <ele>201.05000000000001</ele>
        <time>2017-06-17T05:05:09Z</time>
      </trkpt>
      <trkpt lat="51.855400018393993" lon="10.126232039183378">
        <ele>201.05000000000001</ele>
        <time>2017-06-17T05:05:10Z</time>
      </trkpt>
      <trkpt lat="51.85655202716589" lon="10.126502020284534">
        <ele>199.13</ele>
        <time>2017-06-17T05:05:21Z</time>
      </trkpt>
      <trkpt lat="51.85678998939693" lon="10.126540996134281">
        <ele>198.65000000000001</ele>
        <time>2017-06-17T05:05:23Z</time>
      </trkpt>
      <trkpt lat="51.85689702630043" lon="10.126525992527604">
        <ele>198.16999999999999</ele>
        <time>2017-06-17T05:05:24Z</time>
      </trkpt>
      <trkpt lat="51.856992999091744" lon="10.126463966444135">
        <ele>198.16999999999999</ele>
        <time>2017-06-17T05:05:25Z</time>
      </trkpt>
      <trkpt lat="51.857077991589904" lon="10.126348966732621">
        <ele>198.16999999999999</ele>
        <time>2017-06-17T05:05:26Z</time>
      </trkpt>
      <trkpt lat="51.85715502128005" lon="10.126189040020108">
        <ele>197.69</ele>
        <time>2017-06-17T05:05:27Z</time>
      </trkpt>
      <trkpt lat="51.857232972979546" lon="10.126015031710267">
        <ele>197.69</ele>
        <time>2017-06-17T05:05:28Z</time>
      </trkpt>
      <trkpt lat="51.857484010979533" lon="10.125614041462541">
        <ele>197.21000000000001</ele>
        <time>2017-06-17T05:05:31Z</time>
      </trkpt>
      <trkpt lat="51.857594987377524" lon="10.125537011772394">
        <ele>196.72999999999999</ele>
        <time>2017-06-17T05:05:32Z</time>
      </trkpt>
      <trkpt lat="51.857724990695715" lon="10.125490995123982">
        <ele>196.72999999999999</ele>
        <time>2017-06-17T05:05:33Z</time>
      </trkpt>
      <trkpt lat="51.857879972085357" lon="10.125474985688925">
        <ele>196.25</ele>
        <time>2017-06-17T05:05:34Z</time>
      </trkpt>
      <trkpt lat="51.858069989830256" lon="10.125468028709292">
        <ele>196.25</ele>
        <time>2017-06-17T05:05:35Z</time>
      </trkpt>
      <trkpt lat="51.859413022175431" lon="10.125626027584076">
        <ele>195.28</ele>
        <time>2017-06-17T05:05:41Z</time>
      </trkpt>
      <trkpt lat="51.861723996698856" lon="10.125987958163023">
        <ele>190.96000000000001</ele>
        <time>2017-06-17T05:05:49Z</time>
      </trkpt>
      <trkpt lat="51.865037027746439" lon="10.126322982832789">
        <ele>181.83000000000001</ele>
        <time>2017-06-17T05:05:59Z</time>
      </trkpt>
      <trkpt lat="51.870172033086419" lon="10.126854982227087">
        <ele>177.02000000000001</ele>
        <time>2017-06-17T05:06:14Z</time>
      </trkpt>
      <trkpt lat="51.87337601557374" lon="10.127170979976654">
        <ele>178.46000000000001</ele>
        <time>2017-06-17T05:06:23Z</time>
      </trkpt>
      <trkpt lat="51.876140031963587" lon="10.12765402905643">
        <ele>177.02000000000001</ele>
        <time>2017-06-17T05:06:31Z</time>
      </trkpt>
      <trkpt lat="51.879301015287638" lon="10.128462966531515">
        <ele>170.77000000000001</ele>
        <time>2017-06-17T05:06:40Z</time>
      </trkpt>
      <trkpt lat="51.884938012808561" lon="10.130024012178183">
        <ele>158.75</ele>
        <time>2017-06-17T05:06:56Z</time>
      </trkpt>
      <trkpt lat="51.889536995440722" lon="10.131211979314685">
        <ele>156.34999999999999</ele>
        <time>2017-06-17T05:07:09Z</time>
      </trkpt>
      <trkpt lat="51.893409015610814" lon="10.132070034742355">
        <ele>160.68000000000001</ele>
        <time>2017-06-17T05:07:20Z</time>
      </trkpt>
      <trkpt lat="51.90038301050663" lon="10.133249033242464">
        <ele>166.93000000000001</ele>
        <time>2017-06-17T05:07:40Z</time>
      </trkpt>
      <trkpt lat="51.907343007624149" lon="10.134017989039421">
        <ele>165</ele>
        <time>2017-06-17T05:08:00Z</time>
      </trkpt>
      <trkpt lat="51.912906998768449" lon="10.134902028366923">
        <ele>155.38999999999999</ele>
        <time>2017-06-17T05:08:16Z</time>
      </trkpt>
      <trkpt lat="51.917095016688108" lon="10.13631597161293">
        <ele>149.13999999999999</ele>
        <time>2017-06-17T05:08:28Z</time>
      </trkpt>
      <trkpt lat="51.921227965503931" lon="10.138511024415493">
        <ele>146.25999999999999</ele>
        <time>2017-06-17T05:08:40Z</time>
      </trkpt>
      <trkpt lat="51.924750041216612" lon="10.141058033332229">
        <ele>150.58000000000001</ele>
        <time>2017-06-17T05:08:51Z</time>
      </trkpt>
      <trkpt lat="51.928220987319946" lon="10.143333971500397">
        <ele>152.03</ele>
        <time>2017-06-17T05:09:02Z</time>
      </trkpt>
      <trkpt lat="51.931528989225626" lon="10.144725032150745">
        <ele>151.06</ele>
        <time>2017-06-17T05:09:12Z</time>
      </trkpt>
      <trkpt lat="51.935268994420767" lon="10.145564982667565">
        <ele>148.66</ele>
        <time>2017-06-17T05:09:23Z</time>
      </trkpt>
      <trkpt lat="51.939107989892364" lon="10.145512009039521">
        <ele>144.81999999999999</ele>
        <time>2017-06-17T05:09:34Z</time>
      </trkpt>
      <trkpt lat="51.942908009514213" lon="10.144781023263931">
        <ele>145.30000000000001</ele>
        <time>2017-06-17T05:09:45Z</time>
      </trkpt>
      <trkpt lat="51.94737397134304" lon="10.143066002056003">
        <ele>148.66</ele>
        <time>2017-06-17T05:09:58Z</time>
      </trkpt>
      <trkpt lat="51.953272987157106" lon="10.140774976462126">
        <ele>150.58000000000001</ele>
        <time>2017-06-17T05:10:15Z</time>
      </trkpt>
      <trkpt lat="51.956470012664795" lon="10.140154967084527">
        <ele>144.81999999999999</ele>
        <time>2017-06-17T05:10:24Z</time>
      </trkpt>
      <trkpt lat="51.9603499956429" lon="10.140280025079846">
        <ele>145.78</ele>
        <time>2017-06-17T05:10:35Z</time>
      </trkpt>
      <trkpt lat="51.963746007531881" lon="10.141248973086476">
        <ele>155.87</ele>
        <time>2017-06-17T05:10:45Z</time>
      </trkpt>
      <trkpt lat="51.967197004705667" lon="10.143270017579198">
        <ele>169.33000000000001</ele>
        <time>2017-06-17T05:10:56Z</time>
      </trkpt>
      <trkpt lat="51.970299985259771" lon="10.145815014839172">
        <ele>169.33000000000001</ele>
        <time>2017-06-17T05:11:06Z</time>
      </trkpt>
      <trkpt lat="51.974745998159051" lon="10.149452006444335">
        <ele>157.78999999999999</ele>
        <time>2017-06-17T05:11:20Z</time>
      </trkpt>
      <trkpt lat="51.978985983878374" lon="10.151978982612491">
        <ele>149.62</ele>
        <time>2017-06-17T05:11:33Z</time>
      </trkpt>
      <trkpt lat="51.983645986765623" lon="10.153778996318579">
        <ele>144.81999999999999</ele>
        <time>2017-06-17T05:11:47Z</time>
      </trkpt>
      <trkpt lat="51.988827008754015" lon="10.154938967898488">
        <ele>139.53</ele>
        <time>2017-06-17T05:12:02Z</time>
      </trkpt>
      <trkpt lat="51.993207978084683" lon="10.15552100725472">
        <ele>135.19999999999999</ele>
        <time>2017-06-17T05:12:15Z</time>
      </trkpt>
      <trkpt lat="51.999921966344118" lon="10.156666981056333">
        <ele>129.43000000000001</ele>
        <time>2017-06-17T05:12:35Z</time>
      </trkpt>
      <trkpt lat="52.002665027976036" lon="10.157597959041595">
        <ele>127.03</ele>
        <time>2017-06-17T05:12:43Z</time>
      </trkpt>
      <trkpt lat="52.006771992892027" lon="10.159621015191078">
        <ele>130.40000000000001</ele>
        <time>2017-06-17T05:12:55Z</time>
      </trkpt>
      <trkpt lat="52.009599963203073" lon="10.16143100336194">
        <ele>134.72</ele>
        <time>2017-06-17T05:13:04Z</time>
      </trkpt>
      <trkpt lat="52.012599008157849" lon="10.163682969287038">
        <ele>137.61000000000001</ele>
        <time>2017-06-17T05:13:13Z</time>
      </trkpt>
      <trkpt lat="52.017534021288157" lon="10.16710102558136">
        <ele>140.00999999999999</ele>
        <time>2017-06-17T05:13:28Z</time>
      </trkpt>
      <trkpt lat="52.021599998697639" lon="10.169255007058382">
        <ele>142.41</ele>
        <time>2017-06-17T05:13:40Z</time>
      </trkpt>
      <trkpt lat="52.02710104174912" lon="10.171298012137413">
        <ele>149.62</ele>
        <time>2017-06-17T05:13:56Z</time>
      </trkpt>
      <trkpt lat="52.031734976917505" lon="10.173031976446509">
        <ele>163.08000000000001</ele>
        <time>2017-06-17T05:14:10Z</time>
      </trkpt>
      <trkpt lat="52.034993022680283" lon="10.174462012946606">
        <ele>172.69</ele>
        <time>2017-06-17T05:14:20Z</time>
      </trkpt>
      <trkpt lat="52.038836041465402" lon="10.176825961098075">
        <ele>175.58000000000001</ele>
        <time>2017-06-17T05:14:32Z</time>
      </trkpt>
      <trkpt lat="52.042630026116967" lon="10.180000020191073">
        <ele>169.33000000000001</ele>
        <time>2017-06-17T05:14:44Z</time>
      </trkpt>
      <trkpt lat="52.047116020694375" lon="10.184274036437273">
        <ele>155.87</ele>
        <time>2017-06-17T05:14:58Z</time>
      </trkpt>
      <trkpt lat="52.050920985639095" lon="10.187708018347621">
        <ele>146.25999999999999</ele>
        <time>2017-06-17T05:15:10Z</time>
      </trkpt>
      <trkpt lat="52.054516989737749" lon="10.190172968432307">
        <ele>146.74000000000001</ele>
        <time>2017-06-17T05:15:21Z</time>
      </trkpt>
      <trkpt lat="52.058168984949589" lon="10.191963007673621">
        <ele>153.94999999999999</ele>
        <time>2017-06-17T05:15:32Z</time>
      </trkpt>
      <trkpt lat="52.062589013949037" lon="10.193447023630142">
        <ele>152.99000000000001</ele>
        <time>2017-06-17T05:15:45Z</time>
      </trkpt>
      <trkpt lat="52.066359026357532" lon="10.19398296251893">
        <ele>143.37</ele>
        <time>2017-06-17T05:15:56Z</time>
      </trkpt>
      <trkpt lat="52.070083022117615" lon="10.19383099861443">
        <ele>141.44999999999999</ele>
        <time>2017-06-17T05:16:07Z</time>
      </trkpt>
      <trkpt lat="52.073117019608617" lon="10.192978978157043">
        <ele>142.88999999999999</ele>
        <time>2017-06-17T05:16:16Z</time>
      </trkpt>
      <trkpt lat="52.075715996325016" lon="10.191872986033559">
        <ele>143.84999999999999</ele>
        <time>2017-06-17T05:16:24Z</time>
      </trkpt>
      <trkpt lat="52.078669024631381" lon="10.18996199592948">
        <ele>142.88999999999999</ele>
        <time>2017-06-17T05:16:34Z</time>
      </trkpt>
      <trkpt lat="52.081587016582489" lon="10.187356984242797">
        <ele>137.61000000000001</ele>
        <time>2017-06-17T05:16:45Z</time>
      </trkpt>
      <trkpt lat="52.08517799153924" lon="10.183349009603262">
        <ele>127.98999999999999</ele>
        <time>2017-06-17T05:16:59Z</time>
      </trkpt>
      <trkpt lat="52.088037980720401" lon="10.179466009140015">
        <ele>123.19</ele>
        <time>2017-06-17T05:17:10Z</time>
      </trkpt>
      <trkpt lat="52.090824963524938" lon="10.174830984324217">
        <ele>118.86</ele>
        <time>2017-06-17T05:17:22Z</time>
      </trkpt>
      <trkpt lat="52.093523014336824" lon="10.169331030920148">
        <ele>114.53</ele>
        <time>2017-06-17T05:17:35Z</time>
      </trkpt>
      <trkpt lat="52.095696022734046" lon="10.163881033658981">
        <ele>110.69</ele>
        <time>2017-06-17T05:17:47Z</time>
      </trkpt>
      <trkpt lat="52.099190019071102" lon="10.154538983479142">
        <ele>106.84</ele>
        <time>2017-06-17T05:18:07Z</time>
      </trkpt>
      <trkpt lat="52.10215101018548" lon="10.147954998537898">
        <ele>117.90000000000001</ele>
        <time>2017-06-17T05:18:22Z</time>
      </trkpt>
      <trkpt lat="52.104698019102216" lon="10.143087962642312">
        <ele>129.91999999999999</ele>
        <time>2017-06-17T05:18:34Z</time>
      </trkpt>
      <trkpt lat="52.107388023287058" lon="10.138622000813484">
        <ele>136.16</ele>
        <time>2017-06-17T05:18:46Z</time>
      </trkpt>
      <trkpt lat="52.1111970115453" lon="10.133115006610751">
        <ele>136.16</ele>
        <time>2017-06-17T05:19:02Z</time>
      </trkpt>
      <trkpt lat="52.11506299674511" lon="10.12759200297296">
        <ele>140.00999999999999</ele>
        <time>2017-06-17T05:19:18Z</time>
      </trkpt>
      <trkpt lat="52.116978010162711" lon="10.123836994171143">
        <ele>139.53</ele>
        <time>2017-06-17T05:19:27Z</time>
      </trkpt>
      <trkpt lat="52.118725972250104" lon="10.119113959372044">
        <ele>134.24000000000001</ele>
        <time>2017-06-17T05:19:37Z</time>
      </trkpt>
      <trkpt lat="52.119733979925513" lon="10.115170022472739">
        <ele>131.84</ele>
        <time>2017-06-17T05:19:45Z</time>
      </trkpt>
      <trkpt lat="52.120512994006276" lon="10.110522005707026">
        <ele>133.28</ele>
        <time>2017-06-17T05:19:54Z</time>
      </trkpt>
      <trkpt lat="52.120952038094401" lon="10.104618966579437">
        <ele>139.05000000000001</ele>
        <time>2017-06-17T05:20:05Z</time>
      </trkpt>
      <trkpt lat="52.120966035872698" lon="10.097525026649237">
        <ele>150.09999999999999</ele>
        <time>2017-06-17T05:20:18Z</time>
      </trkpt>
      <trkpt lat="52.12082102894783" lon="10.090599982067943">
        <ele>161.16</ele>
        <time>2017-06-17T05:20:31Z</time>
      </trkpt>
      <trkpt lat="52.120867967605591" lon="10.08335399441421">
        <ele>171.25</ele>
        <time>2017-06-17T05:20:45Z</time>
      </trkpt>
      <trkpt lat="52.121201986446977" lon="10.075566032901406">
        <ele>178.94</ele>
        <time>2017-06-17T05:21:00Z</time>
      </trkpt>
      <trkpt lat="52.121929032728076" lon="10.069343978539109">
        <ele>182.78999999999999</ele>
        <time>2017-06-17T05:21:12Z</time>
      </trkpt>
      <trkpt lat="52.123134015128016" lon="10.063209012150764">
        <ele>185.19</ele>
        <time>2017-06-17T05:21:24Z</time>
      </trkpt>
      <trkpt lat="52.124720038846135" lon="10.057729007676244">
        <ele>185.66999999999999</ele>
        <time>2017-06-17T05:21:35Z</time>
      </trkpt>
      <trkpt lat="52.126830015331507" lon="10.052054962143302">
        <ele>183.75</ele>
        <time>2017-06-17T05:21:47Z</time>
      </trkpt>
      <trkpt lat="52.128777969628572" lon="10.047507025301456">
        <ele>178.46000000000001</ele>
        <time>2017-06-17T05:21:57Z</time>
      </trkpt>
      <trkpt lat="52.130938991904259" lon="10.041314978152514">
        <ele>173.16999999999999</ele>
        <time>2017-06-17T05:22:10Z</time>
      </trkpt>
      <trkpt lat="52.132558962330222" lon="10.035337004810572">
        <ele>169.33000000000001</ele>
        <time>2017-06-17T05:22:22Z</time>
      </trkpt>
      <trkpt lat="52.133881961926818" lon="10.028982013463974">
        <ele>166.93000000000001</ele>
        <time>2017-06-17T05:22:34Z</time>
      </trkpt>
      <trkpt lat="52.13519599288702" lon="10.02098198980093">
        <ele>164.52000000000001</ele>
        <time>2017-06-17T05:22:49Z</time>
      </trkpt>
      <trkpt lat="52.136607002466917" lon="10.013887966051698">
        <ele>163.08000000000001</ele>
        <time>2017-06-17T05:23:02Z</time>
      </trkpt>
      <trkpt lat="52.137997979298234" lon="10.009276997298002">
        <ele>160.19999999999999</ele>
        <time>2017-06-17T05:23:11Z</time>
      </trkpt>
      <trkpt lat="52.139825988560915" lon="10.004903990775347">
        <ele>153.47</ele>
        <time>2017-06-17T05:23:20Z</time>
      </trkpt>
      <trkpt lat="52.142023975029588" lon="10.001058960333467">
        <ele>144.81999999999999</ele>
        <time>2017-06-17T05:23:29Z</time>
      </trkpt>
      <trkpt lat="52.144566960632801" lon="9.99775598756969">
        <ele>133.28</ele>
        <time>2017-06-17T05:23:38Z</time>
      </trkpt>
      <trkpt lat="52.14739803224802" lon="9.995047962293029">
        <ele>119.81999999999999</ele>
        <time>2017-06-17T05:23:47Z</time>
      </trkpt>
      <trkpt lat="52.150430018082261" lon="9.993018032982945">
        <ele>107.81</ele>
        <time>2017-06-17T05:23:56Z</time>
      </trkpt>
      <trkpt lat="52.153813038021326" lon="9.991322960704565">
        <ele>99.150000000000006</ele>
        <time>2017-06-17T05:24:06Z</time>
      </trkpt>
      <trkpt lat="52.159296981990337" lon="9.988556010648608">
        <ele>93.870000000000005</ele>
        <time>2017-06-17T05:24:22Z</time>
      </trkpt>
      <trkpt lat="52.16400995850563" lon="9.986255010589957">
        <ele>98.189999999999998</ele>
        <time>2017-06-17T05:24:36Z</time>
      </trkpt>
      <trkpt lat="52.170266965404153" lon="9.983138032257557">
        <ele>91.939999999999998</ele>
        <time>2017-06-17T05:24:55Z</time>
      </trkpt>
      <trkpt lat="52.174667967483401" lon="9.980306960642338">
        <ele>86.659999999999997</ele>
        <time>2017-06-17T05:25:08Z</time>
      </trkpt>
      <trkpt lat="52.177145993337035" lon="9.978220034390688">
        <ele>86.180000000000007</ele>
        <time>2017-06-17T05:25:16Z</time>
      </trkpt>
      <trkpt lat="52.180154006928205" lon="9.974956037476659">
        <ele>84.730000000000004</ele>
        <time>2017-06-17T05:25:27Z</time>
      </trkpt>
      <trkpt lat="52.183391014114022" lon="9.970481023192406">
        <ele>87.620000000000005</ele>
        <time>2017-06-17T05:25:40Z</time>
      </trkpt>
      <trkpt lat="52.186260977759957" lon="9.965619016438723">
        <ele>91.939999999999998</ele>
        <time>2017-06-17T05:25:53Z</time>
      </trkpt>
      <trkpt lat="52.188682006672025" lon="9.961087005212903">
        <ele>92.900000000000006</ele>
        <time>2017-06-17T05:26:05Z</time>
      </trkpt>
      <trkpt lat="52.192207016050816" lon="9.954100018367171">
        <ele>87.620000000000005</ele>
        <time>2017-06-17T05:26:23Z</time>
      </trkpt>
      <trkpt lat="52.194993998855352" lon="9.948959983885288">
        <ele>85.209999999999994</ele>
        <time>2017-06-17T05:26:36Z</time>
      </trkpt>
      <trkpt lat="52.19795498996973" lon="9.944242984056473">
        <ele>83.769999999999996</ele>
        <time>2017-06-17T05:26:49Z</time>
      </trkpt>
      <trkpt lat="52.200995022431016" lon="9.940396025776863">
        <ele>82.329999999999998</ele>
        <time>2017-06-17T05:27:01Z</time>
      </trkpt>
      <trkpt lat="52.203872026875615" lon="9.937655981630087">
        <ele>80.409999999999997</ele>
        <time>2017-06-17T05:27:11Z</time>
      </trkpt>
      <trkpt lat="52.206506039947271" lon="9.935846999287605">
        <ele>78.480000000000004</ele>
        <time>2017-06-17T05:27:19Z</time>
      </trkpt>
      <trkpt lat="52.209283970296383" lon="9.934770008549094">
        <ele>77.040000000000006</ele>
        <time>2017-06-17T05:27:27Z</time>
      </trkpt>
      <trkpt lat="52.213469976559281" lon="9.934067018330097">
        <ele>75.599999999999994</ele>
        <time>2017-06-17T05:27:39Z</time>
      </trkpt>
      <trkpt lat="52.218584027141333" lon="9.933896027505398">
        <ele>74.159999999999997</ele>
        <time>2017-06-17T05:27:53Z</time>
      </trkpt>
      <trkpt lat="52.223289040848613" lon="9.933896027505398">
        <ele>73.680000000000007</ele>
        <time>2017-06-17T05:28:06Z</time>
      </trkpt>
      <trkpt lat="52.228873986750841" lon="9.933442985638976">
        <ele>72.719999999999999</ele>
        <time>2017-06-17T05:28:22Z</time>
      </trkpt>
      <trkpt lat="52.233421001583338" lon="9.932407988235354">
        <ele>71.269999999999996</ele>
        <time>2017-06-17T05:28:35Z</time>
      </trkpt>
      <trkpt lat="52.237426964566112" lon="9.930766979232431">
        <ele>69.349999999999994</ele>
        <time>2017-06-17T05:28:47Z</time>
      </trkpt>
      <trkpt lat="52.242027036845684" lon="9.928219970315695">
        <ele>69.349999999999994</ele>
        <time>2017-06-17T05:29:01Z</time>
      </trkpt>
      <trkpt lat="52.245832001790404" lon="9.92573699913919">
        <ele>71.760000000000005</ele>
        <time>2017-06-17T05:29:13Z</time>
      </trkpt>
      <trkpt lat="52.249941984191537" lon="9.922996032983065">
        <ele>76.560000000000002</ele>
        <time>2017-06-17T05:29:26Z</time>
      </trkpt>
      <trkpt lat="52.253840994089842" lon="9.920573998242617">
        <ele>81.849999999999994</ele>
        <time>2017-06-17T05:29:38Z</time>
      </trkpt>
      <trkpt lat="52.259224019944668" lon="9.917935961857438">
        <ele>89.060000000000002</ele>
        <time>2017-06-17T05:29:54Z</time>
      </trkpt>
      <trkpt lat="52.263293014839292" lon="9.916530987247825">
        <ele>94.829999999999998</ele>
        <time>2017-06-17T05:30:06Z</time>
      </trkpt>
      <trkpt lat="52.268449980765581" lon="9.91480297408998">
        <ele>99.150000000000006</ele>
        <time>2017-06-17T05:30:21Z</time>
      </trkpt>
      <trkpt lat="52.271509962156415" lon="9.913713997229934">
        <ele>98.670000000000002</ele>
        <time>2017-06-17T05:30:30Z</time>
      </trkpt>
      <trkpt lat="52.275564037263393" lon="9.911766964942217">
        <ele>97.230000000000004</ele>
        <time>2017-06-17T05:30:42Z</time>
      </trkpt>
      <trkpt lat="52.279171021655202" lon="9.909389019012451">
        <ele>95.310000000000002</ele>
        <time>2017-06-17T05:30:53Z</time>
      </trkpt>
      <trkpt lat="52.283532964065671" lon="9.90573501214385">
        <ele>91.939999999999998</ele>
        <time>2017-06-17T05:31:07Z</time>
      </trkpt>
      <trkpt lat="52.287329966202378" lon="9.90167398005724">
        <ele>82.329999999999998</ele>
        <time>2017-06-17T05:31:20Z</time>
      </trkpt>
      <trkpt lat="52.291154963895679" lon="9.896618016064167">
        <ele>72.239999999999995</ele>
        <time>2017-06-17T05:31:34Z</time>
      </trkpt>
      <trkpt lat="52.294448968023062" lon="9.891434982419014">
        <ele>66.469999999999999</ele>
        <time>2017-06-17T05:31:47Z</time>
      </trkpt>
      <trkpt lat="52.298530032858253" lon="9.884725017473102">
        <ele>67.430000000000007</ele>
        <time>2017-06-17T05:32:04Z</time>
      </trkpt>
      <trkpt lat="52.30250297114253" lon="9.878737991675735">
        <ele>75.120000000000005</ele>
        <time>2017-06-17T05:32:20Z</time>
      </trkpt>
      <trkpt lat="52.305880961939692" lon="9.874614011496306">
        <ele>80.890000000000001</ele>
        <time>2017-06-17T05:32:32Z</time>
      </trkpt>
      <trkpt lat="52.309541003778577" lon="9.871068969368935">
        <ele>79.930000000000007</ele>
        <time>2017-06-17T05:32:44Z</time>
      </trkpt>
      <trkpt lat="52.313047992065549" lon="9.868344012647867">
        <ele>78.969999999999999</ele>
        <time>2017-06-17T05:32:55Z</time>
      </trkpt>
      <trkpt lat="52.316777016967535" lon="9.866251973435283">
        <ele>78</ele>
        <time>2017-06-17T05:33:06Z</time>
      </trkpt>
      <trkpt lat="52.320943996310234" lon="9.864608030766249">
        <ele>76.079999999999998</ele>
        <time>2017-06-17T05:33:18Z</time>
      </trkpt>
      <trkpt lat="52.325190016999841" lon="9.863690966740251">
        <ele>74.159999999999997</ele>
        <time>2017-06-17T05:33:30Z</time>
      </trkpt>
      <trkpt lat="52.329365964978933" lon="9.863501032814384">
        <ele>72.239999999999995</ele>
        <time>2017-06-17T05:33:42Z</time>
      </trkpt>
      <trkpt lat="52.334139961749315" lon="9.864168986678124">
        <ele>71.269999999999996</ele>
        <time>2017-06-17T05:33:56Z</time>
      </trkpt>
      <trkpt lat="52.33784400857985" lon="9.865281013771892">
        <ele>69.349999999999994</ele>
        <time>2017-06-17T05:34:07Z</time>
      </trkpt>
      <trkpt lat="52.34093701466918" lon="9.866769975051284">
        <ele>70.790000000000006</ele>
        <time>2017-06-17T05:34:16Z</time>
      </trkpt>
      <trkpt lat="52.344257002696395" lon="9.868944995105267">
        <ele>74.640000000000001</ele>
        <time>2017-06-17T05:34:26Z</time>
      </trkpt>
      <trkpt lat="52.347711017355323" lon="9.871894000098109">
        <ele>77.040000000000006</ele>
        <time>2017-06-17T05:34:37Z</time>
      </trkpt>
      <trkpt lat="52.351239966228604" lon="9.875723021104932">
        <ele>75.599999999999994</ele>
        <time>2017-06-17T05:34:49Z</time>
      </trkpt>
      <trkpt lat="52.355017019435763" lon="9.880792982876301">
        <ele>69.349999999999994</ele>
        <time>2017-06-17T05:35:03Z</time>
      </trkpt>
      <trkpt lat="52.358922986313701" lon="9.886004012078047">
        <ele>65.030000000000001</ele>
        <time>2017-06-17T05:35:17Z</time>
      </trkpt>
      <trkpt lat="52.36128500662744" lon="9.888642970472574">
        <ele>62.619999999999997</ele>
        <time>2017-06-17T05:35:25Z</time>
      </trkpt>
      <trkpt lat="52.364695016294718" lon="9.891584012657404">
        <ele>59.259999999999998</ele>
        <time>2017-06-17T05:35:36Z</time>
      </trkpt>
      <trkpt lat="52.367672016844153" lon="9.893308002501726">
        <ele>60.219999999999999</ele>
        <time>2017-06-17T05:35:45Z</time>
      </trkpt>
      <trkpt lat="52.371716033667326" lon="9.89497197791934">
        <ele>61.18</ele>
        <time>2017-06-17T05:35:57Z</time>
      </trkpt>
      <trkpt lat="52.378794969990849" lon="9.897326035425067">
        <ele>62.619999999999997</ele>
        <time>2017-06-17T05:36:18Z</time>
      </trkpt>
      <trkpt lat="52.384456023573875" lon="9.89892597310245">
        <ele>55.890000000000001</ele>
        <time>2017-06-17T05:36:34Z</time>
      </trkpt>
      <trkpt lat="52.388609005138278" lon="9.899699036031961">
        <ele>55.409999999999997</ele>
        <time>2017-06-17T05:36:46Z</time>
      </trkpt>
      <trkpt lat="52.393765971064568" lon="9.900035988539457">
        <ele>62.619999999999997</ele>
        <time>2017-06-17T05:37:01Z</time>
      </trkpt>
      <trkpt lat="52.39901103079319" lon="9.899743041023612">
        <ele>64.069999999999993</ele>
        <time>2017-06-17T05:37:16Z</time>
      </trkpt>
      <trkpt lat="52.404509978368878" lon="9.898766968399286">
        <ele>63.100000000000001</ele>
        <time>2017-06-17T05:37:32Z</time>
      </trkpt>
      <trkpt lat="52.409671973437071" lon="9.897193014621735">
        <ele>61.659999999999997</ele>
        <time>2017-06-17T05:37:47Z</time>
      </trkpt>
      <trkpt lat="52.414813013747334" lon="9.894954040646553">
        <ele>61.18</ele>
        <time>2017-06-17T05:38:02Z</time>
      </trkpt>
      <trkpt lat="52.419696981087327" lon="9.892291026189923">
        <ele>60.219999999999999</ele>
        <time>2017-06-17T05:38:17Z</time>
      </trkpt>
      <trkpt lat="52.424038974568248" lon="9.889388959854841">
        <ele>58.780000000000001</ele>
        <time>2017-06-17T05:38:31Z</time>
      </trkpt>
      <trkpt lat="52.428581966087222" lon="9.885681979358196">
        <ele>57.82</ele>
        <time>2017-06-17T05:38:46Z</time>
      </trkpt>
      <trkpt lat="52.432445017620921" lon="9.881909033283591">
        <ele>58.299999999999997</ele>
        <time>2017-06-17T05:38:59Z</time>
      </trkpt>
      <trkpt lat="52.436156021431088" lon="9.877891000360251">
        <ele>59.740000000000002</ele>
        <time>2017-06-17T05:39:12Z</time>
      </trkpt>
      <trkpt lat="52.43998596444726" lon="9.873196966946125">
        <ele>58.780000000000001</ele>
        <time>2017-06-17T05:39:26Z</time>
      </trkpt>
      <trkpt lat="52.445555990561843" lon="9.86676100641489">
        <ele>56.859999999999999</ele>
        <time>2017-06-17T05:39:46Z</time>
      </trkpt>
      <trkpt lat="52.448797021061182" lon="9.863872015848756">
        <ele>57.82</ele>
        <time>2017-06-17T05:39:57Z</time>
      </trkpt>
      <trkpt lat="52.451686011627316" lon="9.86203302629292">
        <ele>61.18</ele>
        <time>2017-06-17T05:40:06Z</time>
      </trkpt>
      <trkpt lat="52.456088019534945" lon="9.86020602285862">
        <ele>64.549999999999997</ele>
        <time>2017-06-17T05:40:19Z</time>
      </trkpt>
      <trkpt lat="52.459990968927741" lon="9.859615014865995">
        <ele>66.469999999999999</ele>
        <time>2017-06-17T05:40:30Z</time>
      </trkpt>
      <trkpt lat="52.464611995965242" lon="9.858912024646998">
        <ele>67.430000000000007</ele>
        <time>2017-06-17T05:40:43Z</time>
      </trkpt>
      <trkpt lat="52.467655967921019" lon="9.85786696895957">
        <ele>69.349999999999994</ele>
        <time>2017-06-17T05:40:52Z</time>
      </trkpt>
      <trkpt lat="52.471367977559566" lon="9.8561040032655">
        <ele>69.349999999999994</ele>
        <time>2017-06-17T05:41:03Z</time>
      </trkpt>
      <trkpt lat="52.475373018532991" lon="9.853282989934087">
        <ele>65.989999999999995</ele>
        <time>2017-06-17T05:41:15Z</time>
      </trkpt>
      <trkpt lat="52.477710982784629" lon="9.851241996511817">
        <ele>62.619999999999997</ele>
        <time>2017-06-17T05:41:23Z</time>
      </trkpt>
      <trkpt lat="52.480922006070614" lon="9.848158964887261">
        <ele>60.700000000000003</ele>
        <time>2017-06-17T05:41:36Z</time>
      </trkpt>
      <trkpt lat="52.484635021537542" lon="9.844215027987957">
        <ele>58.780000000000001</ele>
        <time>2017-06-17T05:41:52Z</time>
      </trkpt>
      <trkpt lat="52.48832599259913" lon="9.840067997574806">
        <ele>56.369999999999997</ele>
        <time>2017-06-17T05:42:09Z</time>
      </trkpt>
      <trkpt lat="52.492254003882408" lon="9.835746036842465">
        <ele>52.530000000000001</ele>
        <time>2017-06-17T05:42:27Z</time>
      </trkpt>
      <trkpt lat="52.494528014212847" lon="9.833404971286655">
        <ele>48.68</ele>
        <time>2017-06-17T05:42:39Z</time>
      </trkpt>
      <trkpt lat="52.497854037210345" lon="9.830191014334559">
        <ele>46.280000000000001</ele>
        <time>2017-06-17T05:42:56Z</time>
      </trkpt>
      <trkpt lat="52.499997960403562" lon="9.828288992866874">
        <ele>45.799999999999997</ele>
        <time>2017-06-17T05:43:06Z</time>
      </trkpt>
      <trkpt lat="52.502278005704284" lon="9.826498031616211">
        <ele>45.799999999999997</ele>
        <time>2017-06-17T05:43:16Z</time>
      </trkpt>
      <trkpt lat="52.505791028961539" lon="9.824096029624343">
        <ele>45.32</ele>
        <time>2017-06-17T05:43:33Z</time>
      </trkpt>
      <trkpt lat="52.510466035455465" lon="9.8214699793607">
        <ele>42.439999999999998</ele>
        <time>2017-06-17T05:43:55Z</time>
      </trkpt>
      <trkpt lat="52.515331981703639" lon="9.819126985967159">
        <ele>42.439999999999998</ele>
        <time>2017-06-17T05:44:17Z</time>
      </trkpt>
      <trkpt lat="52.520796982571483" lon="9.816432036459446">
        <ele>42.439999999999998</ele>
        <time>2017-06-17T05:44:42Z</time>
      </trkpt>
      <trkpt lat="52.522384012117982" lon="9.815502986311913">
        <ele>42.439999999999998</ele>
        <time>2017-06-17T05:44:48Z</time>
      </trkpt>
      <trkpt lat="52.525115003809333" lon="9.813775978982449">
        <ele>41.950000000000003</ele>
        <time>2017-06-17T05:44:57Z</time>
      </trkpt>
      <trkpt lat="52.529752040281892" lon="9.81046998873353">
        <ele>41.950000000000003</ele>
        <time>2017-06-17T05:45:12Z</time>
      </trkpt>
      <trkpt lat="52.533678039908409" lon="9.807323003187776">
        <ele>41.950000000000003</ele>
        <time>2017-06-17T05:45:25Z</time>
      </trkpt>
      <trkpt lat="52.540422035381198" lon="9.801798993721604">
        <ele>40.030000000000001</ele>
        <time>2017-06-17T05:45:47Z</time>
      </trkpt>
      <trkpt lat="52.546190964058042" lon="9.797795964404941">
        <ele>38.590000000000003</ele>
        <time>2017-06-17T05:46:05Z</time>
      </trkpt>
      <trkpt lat="52.551991995424032" lon="9.794410010799766">
        <ele>40.030000000000001</ele>
        <time>2017-06-17T05:46:23Z</time>
      </trkpt>
      <trkpt lat="52.558186976239085" lon="9.79091702029109">
        <ele>38.109999999999999</ele>
        <time>2017-06-17T05:46:42Z</time>
      </trkpt>
      <trkpt lat="52.562725022435188" lon="9.78812500834465">
        <ele>38.109999999999999</ele>
        <time>2017-06-17T05:46:57Z</time>
      </trkpt>
      <trkpt lat="52.566539039835334" lon="9.785301983356476">
        <ele>38.590000000000003</ele>
        <time>2017-06-17T05:47:10Z</time>
      </trkpt>
      <trkpt lat="52.570631001144648" lon="9.781888034194708">
        <ele>39.549999999999997</ele>
        <time>2017-06-17T05:47:24Z</time>
      </trkpt>
      <trkpt lat="52.574483994394541" lon="9.777903025969863">
        <ele>40.030000000000001</ele>
        <time>2017-06-17T05:47:38Z</time>
      </trkpt>
      <trkpt lat="52.578408988192677" lon="9.773174040019512">
        <ele>39.549999999999997</ele>
        <time>2017-06-17T05:47:53Z</time>
      </trkpt>
      <trkpt lat="52.580715017393231" lon="9.769949018955231">
        <ele>37.149999999999999</ele>
        <time>2017-06-17T05:48:03Z</time>
      </trkpt>
      <trkpt lat="52.582272961735725" lon="9.767617005854845">
        <ele>38.109999999999999</ele>
        <time>2017-06-17T05:48:10Z</time>
      </trkpt>
      <trkpt lat="52.58544098585844" lon="9.763016011565924">
        <ele>38.109999999999999</ele>
        <time>2017-06-17T05:48:23Z</time>
      </trkpt>
      <trkpt lat="52.588647985830903" lon="9.758632024750114">
        <ele>39.549999999999997</ele>
        <time>2017-06-17T05:48:36Z</time>
      </trkpt>
      <trkpt lat="52.59227299131453" lon="9.75422297604382">
        <ele>40.509999999999998</ele>
        <time>2017-06-17T05:48:50Z</time>
      </trkpt>
      <trkpt lat="52.596594030037522" lon="9.749714015051723">
        <ele>39.549999999999997</ele>
        <time>2017-06-17T05:49:06Z</time>
      </trkpt>
      <trkpt lat="52.601202987134457" lon="9.745611995458603">
        <ele>40.030000000000001</ele>
        <time>2017-06-17T05:49:23Z</time>
      </trkpt>
      <trkpt lat="52.604661025106907" lon="9.742751000449061">
        <ele>39.07</ele>
        <time>2017-06-17T05:49:36Z</time>
      </trkpt>
      <trkpt lat="52.607788983732462" lon="9.74021103233099">
        <ele>39.07</ele>
        <time>2017-06-17T05:49:48Z</time>
      </trkpt>
      <trkpt lat="52.613321039825678" lon="9.735705005005002">
        <ele>38.109999999999999</ele>
        <time>2017-06-17T05:50:08Z</time>
      </trkpt>
      <trkpt lat="52.619693968445063" lon="9.730493975803256">
        <ele>37.149999999999999</ele>
        <time>2017-06-17T05:50:30Z</time>
      </trkpt>
      <trkpt lat="52.624383978545666" lon="9.726777020841837">
        <ele>37.149999999999999</ele>
        <time>2017-06-17T05:50:46Z</time>
      </trkpt>
      <trkpt lat="52.628976004198194" lon="9.723039027303457">
        <ele>36.670000000000002</ele>
        <time>2017-06-17T05:51:02Z</time>
      </trkpt>
      <trkpt lat="52.633267035707831" lon="9.719700012356043">
        <ele>35.710000000000001</ele>
        <time>2017-06-17T05:51:17Z</time>
      </trkpt>
      <trkpt lat="52.636848958209157" lon="9.716830970719457">
        <ele>34.740000000000002</ele>
        <time>2017-06-17T05:51:30Z</time>
      </trkpt>
      <trkpt lat="52.640187973156571" lon="9.71417298540473">
        <ele>33.299999999999997</ele>
        <time>2017-06-17T05:51:44Z</time>
      </trkpt>
      <trkpt lat="52.644121013581753" lon="9.711093977093697">
        <ele>32.340000000000003</ele>
        <time>2017-06-17T05:52:00Z</time>
      </trkpt>
      <trkpt lat="52.648713961243629" lon="9.707613978534937">
        <ele>31.379999999999999</ele>
        <time>2017-06-17T05:52:18Z</time>
      </trkpt>
      <trkpt lat="52.654525972902775" lon="9.703597035259008">
        <ele>30.420000000000002</ele>
        <time>2017-06-17T05:52:40Z</time>
      </trkpt>
      <trkpt lat="52.661345992237329" lon="9.699481017887592">
        <ele>30.420000000000002</ele>
        <time>2017-06-17T05:53:05Z</time>
      </trkpt>
      <trkpt lat="52.665759986266494" lon="9.697218993678689">
        <ele>34.259999999999998</ele>
        <time>2017-06-17T05:53:21Z</time>
      </trkpt>
      <trkpt lat="52.671947004273534" lon="9.694278035312891">
        <ele>34.740000000000002</ele>
        <time>2017-06-17T05:53:43Z</time>
      </trkpt>
      <trkpt lat="52.676840024068952" lon="9.692345000803471">
        <ele>31.859999999999999</ele>
        <time>2017-06-17T05:54:00Z</time>
      </trkpt>
      <trkpt lat="52.682226989418268" lon="9.690429987385869">
        <ele>30.420000000000002</ele>
        <time>2017-06-17T05:54:18Z</time>
      </trkpt>
      <trkpt lat="52.686743997037411" lon="9.68916499055922">
        <ele>30.420000000000002</ele>
        <time>2017-06-17T05:54:33Z</time>
      </trkpt>
      <trkpt lat="52.69168303348124" lon="9.687865041196346">
        <ele>26.09</ele>
        <time>2017-06-17T05:54:49Z</time>
      </trkpt>
      <trkpt lat="52.694900007918477" lon="9.687230028212071">
        <ele>26.57</ele>
        <time>2017-06-17T05:54:59Z</time>
      </trkpt>
      <trkpt lat="52.701349966228008" lon="9.685955978929997">
        <ele>28.02</ele>
        <time>2017-06-17T05:55:19Z</time>
      </trkpt>
      <trkpt lat="52.706305012106895" lon="9.684919975697994">
        <ele>28.02</ele>
        <time>2017-06-17T05:55:34Z</time>
      </trkpt>
      <trkpt lat="52.710270993411541" lon="9.684025961905718">
        <ele>28.02</ele>
        <time>2017-06-17T05:55:46Z</time>
      </trkpt>
      <trkpt lat="52.714194981381297" lon="9.682957017794251">
        <ele>28.98</ele>
        <time>2017-06-17T05:56:00Z</time>
      </trkpt>
      <trkpt lat="52.718360032886267" lon="9.681675005704165">
        <ele>28.02</ele>
        <time>2017-06-17T05:56:14Z</time>
      </trkpt>
      <trkpt lat="52.723388001322746" lon="9.679779019206762">
        <ele>28.5</ele>
        <time>2017-06-17T05:56:31Z</time>
      </trkpt>
      <trkpt lat="52.728704977780581" lon="9.677430996671319">
        <ele>28.5</ele>
        <time>2017-06-17T05:56:49Z</time>
      </trkpt>
      <trkpt lat="52.731919018551707" lon="9.675773978233337">
        <ele>26.57</ele>
        <time>2017-06-17T05:56:59Z</time>
      </trkpt>
      <trkpt lat="52.734529981389642" lon="9.674451984465122">
        <ele>27.050000000000001</ele>
        <time>2017-06-17T05:57:07Z</time>
      </trkpt>
      <trkpt lat="52.738355984911323" lon="9.67210597358644">
        <ele>28.02</ele>
        <time>2017-06-17T05:57:19Z</time>
      </trkpt>
      <trkpt lat="52.740687998011708" lon="9.670720025897026">
        <ele>28.02</ele>
        <time>2017-06-17T05:57:27Z</time>
      </trkpt>
      <trkpt lat="52.743199970573187" lon="9.669431978836656">
        <ele>27.050000000000001</ele>
        <time>2017-06-17T05:57:35Z</time>
      </trkpt>
      <trkpt lat="52.746544014662504" lon="9.668113002553582">
        <ele>27.530000000000001</ele>
        <time>2017-06-17T05:57:45Z</time>
      </trkpt>
      <trkpt lat="52.751539964228868" lon="9.666574001312256">
        <ele>28.02</ele>
        <time>2017-06-17T05:58:00Z</time>
      </trkpt>
      <trkpt lat="52.755854967981577" lon="9.665737990289927">
        <ele>29.460000000000001</ele>
        <time>2017-06-17T05:58:13Z</time>
      </trkpt>
      <trkpt lat="52.75815999135375" lon="9.665503967553377">
        <ele>29.460000000000001</ele>
        <time>2017-06-17T05:58:21Z</time>
      </trkpt>
      <trkpt lat="52.760297963395715" lon="9.665449988096952">
        <ele>28.98</ele>
        <time>2017-06-17T05:58:30Z</time>
      </trkpt>
      <trkpt lat="52.764232009649277" lon="9.665621984750032">
        <ele>30.420000000000002</ele>
        <time>2017-06-17T05:58:47Z</time>
      </trkpt>
      <trkpt lat="52.768335035070777" lon="9.666235037147999">
        <ele>31.379999999999999</ele>
        <time>2017-06-17T05:59:05Z</time>
      </trkpt>
      <trkpt lat="52.771559972316027" lon="9.666984966024756">
        <ele>32.82</ele>
        <time>2017-06-17T05:59:20Z</time>
      </trkpt>
      <trkpt lat="52.774220975115895" lon="9.667866993695498">
        <ele>33.780000000000001</ele>
        <time>2017-06-17T05:59:33Z</time>
      </trkpt>
      <trkpt lat="52.776380991563201" lon="9.668594961985946">
        <ele>35.710000000000001</ele>
        <time>2017-06-17T05:59:44Z</time>
      </trkpt>
      <trkpt lat="52.779609030112624" lon="9.66971998102963">
        <ele>39.07</ele>
        <time>2017-06-17T06:00:00Z</time>
      </trkpt>
      <trkpt lat="52.782560968771577" lon="9.670635033398867">
        <ele>40.990000000000002</ele>
        <time>2017-06-17T06:00:15Z</time>
      </trkpt>
      <trkpt lat="52.785004964098334" lon="9.671246996149421">
        <ele>42.920000000000002</ele>
        <time>2017-06-17T06:00:28Z</time>
      </trkpt>
      <trkpt lat="52.788141975179315" lon="9.672352988272905">
        <ele>45.799999999999997</ele>
        <time>2017-06-17T06:00:44Z</time>
      </trkpt>
      <trkpt lat="52.792352959513664" lon="9.673833986744285">
        <ele>54.93</ele>
        <time>2017-06-17T06:01:05Z</time>
      </trkpt>
      <trkpt lat="52.796801989898086" lon="9.675368964672089">
        <ele>65.030000000000001</ele>
        <time>2017-06-17T06:01:26Z</time>
      </trkpt>
      <trkpt lat="52.800621958449483" lon="9.676647959277034">
        <ele>68.390000000000001</ele>
        <time>2017-06-17T06:01:42Z</time>
      </trkpt>
      <trkpt lat="52.806013030931354" lon="9.678448978811503">
        <ele>65.030000000000001</ele>
        <time>2017-06-17T06:02:04Z</time>
      </trkpt>
      <trkpt lat="52.811079975217581" lon="9.680119995027781">
        <ele>58.299999999999997</ele>
        <time>2017-06-17T06:02:24Z</time>
      </trkpt>
      <trkpt lat="52.815580973401666" lon="9.681625971570611">
        <ele>60.700000000000003</ele>
        <time>2017-06-17T06:02:42Z</time>
      </trkpt>
      <trkpt lat="52.818823009729385" lon="9.682727018371224">
        <ele>69.829999999999998</ele>
        <time>2017-06-17T06:02:56Z</time>
      </trkpt>
      <trkpt lat="52.822380037978292" lon="9.683702001348138">
        <ele>78.969999999999999</ele>
        <time>2017-06-17T06:03:12Z</time>
      </trkpt>
      <trkpt lat="52.825645040720701" lon="9.684356041252613">
        <ele>83.769999999999996</ele>
        <time>2017-06-17T06:03:27Z</time>
      </trkpt>
      <trkpt lat="52.82785995863378" lon="9.684773962944746">
        <ele>83.769999999999996</ele>
        <time>2017-06-17T06:03:37Z</time>
      </trkpt>
      <trkpt lat="52.832165993750095" lon="9.68555498868227">
        <ele>82.329999999999998</ele>
        <time>2017-06-17T06:03:55Z</time>
      </trkpt>
      <trkpt lat="52.835896024480462" lon="9.686250016093254">
        <ele>78.969999999999999</ele>
        <time>2017-06-17T06:04:12Z</time>
      </trkpt>
      <trkpt lat="52.839129008352757" lon="9.686877988278866">
        <ele>76.079999999999998</ele>
        <time>2017-06-17T06:04:28Z</time>
      </trkpt>
      <trkpt lat="52.841358007863164" lon="9.687601011246443">
        <ele>72.239999999999995</ele>
        <time>2017-06-17T06:04:38Z</time>
      </trkpt>
      <trkpt lat="52.843416016548872" lon="9.68854296952486">
        <ele>70.790000000000006</ele>
        <time>2017-06-17T06:04:48Z</time>
      </trkpt>
      <trkpt lat="52.844991981983185" lon="9.689476964995265">
        <ele>68.390000000000001</ele>
        <time>2017-06-17T06:04:58Z</time>
      </trkpt>
      <trkpt lat="52.846201993525028" lon="9.690329991281033">
        <ele>66.950000000000003</ele>
        <time>2017-06-17T06:05:05Z</time>
      </trkpt>
      <trkpt lat="52.848682031035423" lon="9.692476009950042">
        <ele>66.469999999999999</ele>
        <time>2017-06-17T06:05:18Z</time>
      </trkpt>
      <trkpt lat="52.850703997537494" lon="9.694609036669135">
        <ele>67.430000000000007</ele>
        <time>2017-06-17T06:05:30Z</time>
      </trkpt>
      <trkpt lat="52.853024024516344" lon="9.697753004729748">
        <ele>70.310000000000002</ele>
        <time>2017-06-17T06:05:46Z</time>
      </trkpt>
      <trkpt lat="52.854660004377365" lon="9.700747020542622">
        <ele>72.239999999999995</ele>
        <time>2017-06-17T06:05:58Z</time>
      </trkpt>
      <trkpt lat="52.855718974024057" lon="9.703227980062366">
        <ele>74.640000000000001</ele>
        <time>2017-06-17T06:06:09Z</time>
      </trkpt>
      <trkpt lat="52.856448031961918" lon="9.705534009262919">
        <ele>76.079999999999998</ele>
        <time>2017-06-17T06:06:18Z</time>
      </trkpt>
      <trkpt lat="52.857197038829327" lon="9.707967024296522">
        <ele>76.560000000000002</ele>
        <time>2017-06-17T06:06:26Z</time>
      </trkpt>
      <trkpt lat="52.858265982940793" lon="9.711421960964799">
        <ele>75.599999999999994</ele>
        <time>2017-06-17T06:06:37Z</time>
      </trkpt>
      <trkpt lat="52.859639022499323" lon="9.715822963044047">
        <ele>70.790000000000006</ele>
        <time>2017-06-17T06:06:50Z</time>
      </trkpt>
      <trkpt lat="52.860578969120979" lon="9.718837011605501">
        <ele>66.469999999999999</ele>
        <time>2017-06-17T06:06:57Z</time>
      </trkpt>
      <trkpt lat="52.861451022326946" lon="9.721646038815379">
        <ele>63.100000000000001</ele>
        <time>2017-06-17T06:07:04Z</time>
      </trkpt>
      <trkpt lat="52.863353965803981" lon="9.727200977504253">
        <ele>63.579999999999998</ele>
        <time>2017-06-17T06:07:19Z</time>
      </trkpt>
      <trkpt lat="52.865296974778175" lon="9.731722008436918">
        <ele>64.069999999999993</ele>
        <time>2017-06-17T06:07:32Z</time>
      </trkpt>
      <trkpt lat="52.867026999592781" lon="9.735060017555952">
        <ele>68.870000000000005</ele>
        <time>2017-06-17T06:07:42Z</time>
      </trkpt>
      <trkpt lat="52.868360979482532" lon="9.737305026501417">
        <ele>70.790000000000006</ele>
        <time>2017-06-17T06:07:51Z</time>
      </trkpt>
      <trkpt lat="52.869865028187633" lon="9.739647014066577">
        <ele>76.560000000000002</ele>
        <time>2017-06-17T06:08:00Z</time>
      </trkpt>
      <trkpt lat="52.87209402769804" lon="9.742666007950902">
        <ele>79.450000000000003</ele>
        <time>2017-06-17T06:08:12Z</time>
      </trkpt>
      <trkpt lat="52.874223031103611" lon="9.745318964123726">
        <ele>78</ele>
        <time>2017-06-17T06:08:23Z</time>
      </trkpt>
      <trkpt lat="52.8771420288831" lon="9.74891203455627">
        <ele>74.159999999999997</ele>
        <time>2017-06-17T06:08:37Z</time>
      </trkpt>
      <trkpt lat="52.879800014197826" lon="9.752178965136409">
        <ele>70.790000000000006</ele>
        <time>2017-06-17T06:08:49Z</time>
      </trkpt>
      <trkpt lat="52.881631962954998" lon="9.754447024315596">
        <ele>67.909999999999997</ele>
        <time>2017-06-17T06:08:56Z</time>
      </trkpt>
      <trkpt lat="52.886079987511039" lon="9.760231962427497">
        <ele>55.409999999999997</ele>
        <time>2017-06-17T06:09:12Z</time>
      </trkpt>
      <trkpt lat="52.889550011605024" lon="9.765761001035571">
        <ele>53.490000000000002</ele>
        <time>2017-06-17T06:09:26Z</time>
      </trkpt>
      <trkpt lat="52.893021963536739" lon="9.771912982687354">
        <ele>51.57</ele>
        <time>2017-06-17T06:09:41Z</time>
      </trkpt>
      <trkpt lat="52.896293001249433" lon="9.777634972706437">
        <ele>53.009999999999998</ele>
        <time>2017-06-17T06:09:56Z</time>
      </trkpt>
      <trkpt lat="52.897958988323808" lon="9.780408963561058">
        <ele>54.93</ele>
        <time>2017-06-17T06:10:05Z</time>
      </trkpt>
      <trkpt lat="52.9002630058676" lon="9.783859960734844">
        <ele>55.890000000000001</ele>
        <time>2017-06-17T06:10:15Z</time>
      </trkpt>
      <trkpt lat="52.903304966166615" lon="9.787618992850184">
        <ele>57.340000000000003</ele>
        <time>2017-06-17T06:10:27Z</time>
      </trkpt>
      <trkpt lat="52.907605972141027" lon="9.792591976001859">
        <ele>58.780000000000001</ele>
        <time>2017-06-17T06:10:44Z</time>
      </trkpt>
      <trkpt lat="52.913364004343748" lon="9.799331026151776">
        <ele>61.18</ele>
        <time>2017-06-17T06:11:07Z</time>
      </trkpt>
      <trkpt lat="52.917094035074115" lon="9.804641967639327">
        <ele>64.549999999999997</ele>
        <time>2017-06-17T06:11:23Z</time>
      </trkpt>
      <trkpt lat="52.920449981465936" lon="9.810637962073088">
        <ele>67.909999999999997</ele>
        <time>2017-06-17T06:11:39Z</time>
      </trkpt>
      <trkpt lat="52.922669006511569" lon="9.815487982705236">
        <ele>64.549999999999997</ele>
        <time>2017-06-17T06:11:51Z</time>
      </trkpt>
      <trkpt lat="52.924127960577607" lon="9.819375006482005">
        <ele>59.259999999999998</ele>
        <time>2017-06-17T06:12:00Z</time>
      </trkpt>
      <trkpt lat="52.925686994567513" lon="9.823727980256081">
        <ele>55.890000000000001</ele>
        <time>2017-06-17T06:12:09Z</time>
      </trkpt>
      <trkpt lat="52.927454989403486" lon="9.828735999763012">
        <ele>55.890000000000001</ele>
        <time>2017-06-17T06:12:20Z</time>
      </trkpt>
      <trkpt lat="52.929339995607734" lon="9.834003020077944">
        <ele>57.82</ele>
        <time>2017-06-17T06:12:32Z</time>
      </trkpt>
      <trkpt lat="52.932208031415939" lon="9.842076972126961">
        <ele>61.18</ele>
        <time>2017-06-17T06:12:49Z</time>
      </trkpt>
      <trkpt lat="52.93564897030592" lon="9.851658996194601">
        <ele>63.579999999999998</ele>
        <time>2017-06-17T06:13:09Z</time>
      </trkpt>
      <trkpt lat="52.938218023627996" lon="9.858515979722142">
        <ele>63.579999999999998</ele>
        <time>2017-06-17T06:13:24Z</time>
      </trkpt>
      <trkpt lat="52.940940968692303" lon="9.864376019686461">
        <ele>65.989999999999995</ele>
        <time>2017-06-17T06:13:38Z</time>
      </trkpt>
      <trkpt lat="52.943785032257438" lon="9.86953298561275">
        <ele>65.989999999999995</ele>
        <time>2017-06-17T06:13:51Z</time>
      </trkpt>
      <trkpt lat="52.947589997202158" lon="9.875291017815471">
        <ele>73.200000000000003</ele>
        <time>2017-06-17T06:14:07Z</time>
      </trkpt>
      <trkpt lat="52.952784011140466" lon="9.883187022060156">
        <ele>73.680000000000007</ele>
        <time>2017-06-17T06:14:29Z</time>
      </trkpt>
      <trkpt lat="52.957577034831047" lon="9.890620009973645">
        <ele>65.510000000000005</ele>
        <time>2017-06-17T06:14:49Z</time>
      </trkpt>
      <trkpt lat="52.961513008922338" lon="9.89701297134161">
        <ele>71.760000000000005</ele>
        <time>2017-06-17T06:15:06Z</time>
      </trkpt>
      <trkpt lat="52.965202974155545" lon="9.903035033494234">
        <ele>72.719999999999999</ele>
        <time>2017-06-17T06:15:22Z</time>
      </trkpt>
      <trkpt lat="52.971457969397306" lon="9.913086025044322">
        <ele>72.719999999999999</ele>
        <time>2017-06-17T06:15:49Z</time>
      </trkpt>
      <trkpt lat="52.97434201464057" lon="9.917734041810036">
        <ele>73.680000000000007</ele>
        <time>2017-06-17T06:16:02Z</time>
      </trkpt>
      <trkpt lat="52.975898031145334" lon="9.920236961916089">
        <ele>74.159999999999997</ele>
        <time>2017-06-17T06:16:11Z</time>
      </trkpt>
      <trkpt lat="52.977741966024041" lon="9.922983963042498">
        <ele>75.599999999999994</ele>
        <time>2017-06-17T06:16:20Z</time>
      </trkpt>
      <trkpt lat="52.979891002178192" lon="9.92541303858161">
        <ele>77.040000000000006</ele>
        <time>2017-06-17T06:16:29Z</time>
      </trkpt>
      <trkpt lat="52.981570987030864" lon="9.926823964342475">
        <ele>78.969999999999999</ele>
        <time>2017-06-17T06:16:36Z</time>
      </trkpt>
      <trkpt lat="52.984107015654445" lon="9.928292976692319">
        <ele>81.849999999999994</ele>
        <time>2017-06-17T06:16:47Z</time>
      </trkpt>
      <trkpt lat="52.986746979877353" lon="9.929119013249874">
        <ele>87.140000000000001</ele>
        <time>2017-06-17T06:16:58Z</time>
      </trkpt>
      <trkpt lat="52.988837007433176" lon="9.929273994639516">
        <ele>90.5</ele>
        <time>2017-06-17T06:17:07Z</time>
      </trkpt>
      <trkpt lat="52.991375969722867" lon="9.929180033504963">
        <ele>94.829999999999998</ele>
        <time>2017-06-17T06:17:18Z</time>
      </trkpt>
      <trkpt lat="52.995131984353065" lon="9.929043995216489">
        <ele>95.310000000000002</ele>
        <time>2017-06-17T06:17:32Z</time>
      </trkpt>
      <trkpt lat="52.997352015227079" lon="9.928965959697962">
        <ele>94.829999999999998</ele>
        <time>2017-06-17T06:17:39Z</time>
      </trkpt>
      <trkpt lat="53.00034100189805" lon="9.928888007998467">
        <ele>95.310000000000002</ele>
        <time>2017-06-17T06:17:50Z</time>
      </trkpt>
      <trkpt lat="53.004639996215701" lon="9.928826987743378">
        <ele>100.59999999999999</ele>
        <time>2017-06-17T06:18:07Z</time>
      </trkpt>
      <trkpt lat="53.007293958216906" lon="9.929233007133007">
        <ele>103</ele>
        <time>2017-06-17T06:18:18Z</time>
      </trkpt>
      <trkpt lat="53.01013701595366" lon="9.930145964026451">
        <ele>102.52</ele>
        <time>2017-06-17T06:18:30Z</time>
      </trkpt>
      <trkpt lat="53.012659968808293" lon="9.931424036622047">
        <ele>102.04000000000001</ele>
        <time>2017-06-17T06:18:39Z</time>
      </trkpt>
      <trkpt lat="53.014614041894674" lon="9.932732032611966">
        <ele>102.52</ele>
        <time>2017-06-17T06:18:47Z</time>
      </trkpt>
      <trkpt lat="53.017826993018389" lon="9.935055999085307">
        <ele>100.11</ele>
        <time>2017-06-17T06:19:00Z</time>
      </trkpt>
      <trkpt lat="53.02221198566258" lon="9.938341034576297">
        <ele>99.150000000000006</ele>
        <time>2017-06-17T06:19:16Z</time>
      </trkpt>
      <trkpt lat="53.025237014517188" lon="9.940473977476358">
        <ele>100.59999999999999</ele>
        <time>2017-06-17T06:19:26Z</time>
      </trkpt>
      <trkpt lat="53.030645018443465" lon="9.944402994588018">
        <ele>106.36</ele>
        <time>2017-06-17T06:19:44Z</time>
      </trkpt>
      <trkpt lat="53.03428896702826" lon="9.946953020989895">
        <ele>106.84</ele>
        <time>2017-06-17T06:19:56Z</time>
      </trkpt>
      <trkpt lat="53.038529958575964" lon="9.949823990464211">
        <ele>103.95999999999999</ele>
        <time>2017-06-17T06:20:09Z</time>
      </trkpt>
      <trkpt lat="53.041862016543746" lon="9.951400961726904">
        <ele>106.84</ele>
        <time>2017-06-17T06:20:19Z</time>
      </trkpt>
      <trkpt lat="53.045188961550593" lon="9.952261028811336">
        <ele>109.25</ele>
        <time>2017-06-17T06:20:29Z</time>
      </trkpt>
      <trkpt lat="53.051318982616067" lon="9.953212039545178">
        <ele>113.09</ele>
        <time>2017-06-17T06:20:47Z</time>
      </trkpt>
      <trkpt lat="53.058580979704857" lon="9.954220969229937">
        <ele>111.17</ele>
        <time>2017-06-17T06:21:08Z</time>
      </trkpt>
      <trkpt lat="53.064637994393706" lon="9.955252027139068">
        <ele>107.31999999999999</ele>
        <time>2017-06-17T06:21:26Z</time>
      </trkpt>
      <trkpt lat="53.068698020651937" lon="9.956543007865548">
        <ele>98.670000000000002</ele>
        <time>2017-06-17T06:21:38Z</time>
      </trkpt>
      <trkpt lat="53.072403995320201" lon="9.958340004086494">
        <ele>95.310000000000002</ele>
        <time>2017-06-17T06:21:49Z</time>
      </trkpt>
      <trkpt lat="53.076576003804803" lon="9.961054986342788">
        <ele>95.790000000000006</ele>
        <time>2017-06-17T06:22:02Z</time>
      </trkpt>
      <trkpt lat="53.081845035776496" lon="9.964547976851463">
        <ele>100.11</ele>
        <time>2017-06-17T06:22:19Z</time>
      </trkpt>
      <trkpt lat="53.087452026084065" lon="9.968301979824901">
        <ele>90.019999999999996</ele>
        <time>2017-06-17T06:22:37Z</time>
      </trkpt>
      <trkpt lat="53.093897961080074" lon="9.972621006891131">
        <ele>84.730000000000004</ele>
        <time>2017-06-17T06:22:58Z</time>
      </trkpt>
      <trkpt lat="53.098916038870811" lon="9.975962033495307">
        <ele>88.099999999999994</ele>
        <time>2017-06-17T06:23:15Z</time>
      </trkpt>
      <trkpt lat="53.103762036189437" lon="9.979211026802659">
        <ele>84.25</ele>
        <time>2017-06-17T06:23:31Z</time>
      </trkpt>
      <trkpt lat="53.108079973608255" lon="9.982161037623882">
        <ele>86.180000000000007</ele>
        <time>2017-06-17T06:23:46Z</time>
      </trkpt>
      <trkpt lat="53.113024039193988" lon="9.985323026776314">
        <ele>94.349999999999994</ele>
        <time>2017-06-17T06:24:04Z</time>
      </trkpt>
      <trkpt lat="53.116568997502327" lon="9.986794972792268">
        <ele>95.310000000000002</ele>
        <time>2017-06-17T06:24:16Z</time>
      </trkpt>
      <trkpt lat="53.119886973872781" lon="9.987742966040969">
        <ele>93.870000000000005</ele>
        <time>2017-06-17T06:24:26Z</time>
      </trkpt>
      <trkpt lat="53.124084966257215" lon="9.989073006436229">
        <ele>88.579999999999998</ele>
        <time>2017-06-17T06:24:38Z</time>
      </trkpt>
      <trkpt lat="53.127750037238002" lon="9.990661963820458">
        <ele>84.730000000000004</ele>
        <time>2017-06-17T06:24:49Z</time>
      </trkpt>
      <trkpt lat="53.131877034902573" lon="9.99360702931881">
        <ele>84.25</ele>
        <time>2017-06-17T06:25:02Z</time>
      </trkpt>
      <trkpt lat="53.135458035394549" lon="9.997104965150356">
        <ele>85.209999999999994</ele>
        <time>2017-06-17T06:25:14Z</time>
      </trkpt>
      <trkpt lat="53.138756984844804" lon="10.001402031630278">
        <ele>79.450000000000003</ele>
        <time>2017-06-17T06:25:26Z</time>
      </trkpt>
      <trkpt lat="53.140618018805981" lon="10.004558991640806">
        <ele>74.159999999999997</ele>
        <time>2017-06-17T06:25:33Z</time>
      </trkpt>
      <trkpt lat="53.143440959975123" lon="10.010300008580089">
        <ele>70.310000000000002</ele>
        <time>2017-06-17T06:25:45Z</time>
      </trkpt>
      <trkpt lat="53.145454041659832" lon="10.01586701720953">
        <ele>69.829999999999998</ele>
        <time>2017-06-17T06:25:56Z</time>
      </trkpt>
      <trkpt lat="53.147254977375269" lon="10.022245980799198">
        <ele>68.870000000000005</ele>
        <time>2017-06-17T06:26:08Z</time>
      </trkpt>
      <trkpt lat="53.149999966844916" lon="10.03288596868515">
        <ele>70.310000000000002</ele>
        <time>2017-06-17T06:26:28Z</time>
      </trkpt>
      <trkpt lat="53.152687037363648" lon="10.043103005737066">
        <ele>77.519999999999996</ele>
        <time>2017-06-17T06:26:48Z</time>
      </trkpt>
      <trkpt lat="53.153867041692138" lon="10.047212988138199">
        <ele>77.519999999999996</ele>
        <time>2017-06-17T06:26:56Z</time>
      </trkpt>
      <trkpt lat="53.15576302818954" lon="10.052787959575653">
        <ele>73.200000000000003</ele>
        <time>2017-06-17T06:27:07Z</time>
      </trkpt>
      <trkpt lat="53.15817198716104" lon="10.058306017890573">
        <ele>73.200000000000003</ele>
        <time>2017-06-17T06:27:19Z</time>
      </trkpt>
      <trkpt lat="53.160928040742874" lon="10.063352007418871">
        <ele>77.040000000000006</ele>
        <time>2017-06-17T06:27:31Z</time>
      </trkpt>
      <trkpt lat="53.163218982517719" lon="10.066758999601007">
        <ele>81.370000000000005</ele>
        <time>2017-06-17T06:27:40Z</time>
      </trkpt>
      <trkpt lat="53.165592988952994" lon="10.069680009037256">
        <ele>84.25</ele>
        <time>2017-06-17T06:27:49Z</time>
      </trkpt>
      <trkpt lat="53.170002959668636" lon="10.074238004162908">
        <ele>90.019999999999996</ele>
        <time>2017-06-17T06:28:05Z</time>
      </trkpt>
      <trkpt lat="53.173795016482472" lon="10.077480040490627">
        <ele>90.5</ele>
        <time>2017-06-17T06:28:18Z</time>
      </trkpt>
      <trkpt lat="53.176830019801855" lon="10.079679032787681">
        <ele>88.099999999999994</ele>
        <time>2017-06-17T06:28:28Z</time>
      </trkpt>
      <trkpt lat="53.180498024448752" lon="10.081752967089415">
        <ele>85.689999999999998</ele>
        <time>2017-06-17T06:28:40Z</time>
      </trkpt>
      <trkpt lat="53.184052035212517" lon="10.083220973610878">
        <ele>89.060000000000002</ele>
        <time>2017-06-17T06:28:52Z</time>
      </trkpt>
      <trkpt lat="53.187055019661784" lon="10.083750961348414">
        <ele>95.790000000000006</ele>
        <time>2017-06-17T06:29:02Z</time>
      </trkpt>
      <trkpt lat="53.190385987982154" lon="10.083549041301012">
        <ele>103.48</ele>
        <time>2017-06-17T06:29:13Z</time>
      </trkpt>
      <trkpt lat="53.19344999268651" lon="10.082577997818589">
        <ele>109.25</ele>
        <time>2017-06-17T06:29:23Z</time>
      </trkpt>
      <trkpt lat="53.198094991967082" lon="10.080563994124532">
        <ele>117.42</ele>
        <time>2017-06-17T06:29:38Z</time>
      </trkpt>
      <trkpt lat="53.201823011040688" lon="10.079493038356304">
        <ele>121.26000000000001</ele>
        <time>2017-06-17T06:29:50Z</time>
      </trkpt>
      <trkpt lat="53.206348987296224" lon="10.078846039250493">
        <ele>124.63</ele>
        <time>2017-06-17T06:30:04Z</time>
      </trkpt>
      <trkpt lat="53.211538977921009" lon="10.077935010194778">
        <ele>118.86</ele>
        <time>2017-06-17T06:30:20Z</time>
      </trkpt>
      <trkpt lat="53.214919986203313" lon="10.077158007770777">
        <ele>109.73</ele>
        <time>2017-06-17T06:30:30Z</time>
      </trkpt>
      <trkpt lat="53.219588035717607" lon="10.076186964288354">
        <ele>97.709999999999994</ele>
        <time>2017-06-17T06:30:43Z</time>
      </trkpt>
      <trkpt lat="53.224567975848913" lon="10.075894016772509">
        <ele>87.140000000000001</ele>
        <time>2017-06-17T06:30:57Z</time>
      </trkpt>
      <trkpt lat="53.228432033210993" lon="10.076290983706713">
        <ele>83.769999999999996</ele>
        <time>2017-06-17T06:31:08Z</time>
      </trkpt>
      <trkpt lat="53.232567999511957" lon="10.077426983043551">
        <ele>74.640000000000001</ele>
        <time>2017-06-17T06:31:20Z</time>
      </trkpt>
      <trkpt lat="53.236909992992878" lon="10.079242000356317">
        <ele>72.239999999999995</ele>
        <time>2017-06-17T06:31:33Z</time>
      </trkpt>
      <trkpt lat="53.241421971470118" lon="10.081726983189583">
        <ele>74.159999999999997</ele>
        <time>2017-06-17T06:31:47Z</time>
      </trkpt>
      <trkpt lat="53.245577970519662" lon="10.084101995453238">
        <ele>73.680000000000007</ele>
        <time>2017-06-17T06:32:00Z</time>
      </trkpt>
      <trkpt lat="53.251084964722395" lon="10.087013030424714">
        <ele>69.829999999999998</ele>
        <time>2017-06-17T06:32:17Z</time>
      </trkpt>
      <trkpt lat="53.254396989941597" lon="10.088088009506464">
        <ele>74.640000000000001</ele>
        <time>2017-06-17T06:32:27Z</time>
      </trkpt>
      <trkpt lat="53.257855027914047" lon="10.08842202834785">
        <ele>77.040000000000006</ele>
        <time>2017-06-17T06:32:37Z</time>
      </trkpt>
      <trkpt lat="53.260834962129593" lon="10.088180964812636">
        <ele>75.120000000000005</ele>
        <time>2017-06-17T06:32:46Z</time>
      </trkpt>
      <trkpt lat="53.264167020097375" lon="10.087174968793988">
        <ele>69.349999999999994</ele>
        <time>2017-06-17T06:32:56Z</time>
      </trkpt>
      <trkpt lat="53.270527040585876" lon="10.084527963772416">
        <ele>65.030000000000001</ele>
        <time>2017-06-17T06:33:15Z</time>
      </trkpt>
      <trkpt lat="53.274927036836743" lon="10.082897013053298">
        <ele>61.659999999999997</ele>
        <time>2017-06-17T06:33:28Z</time>
      </trkpt>
      <trkpt lat="53.278630999848247" lon="10.081360023468733">
        <ele>58.780000000000001</ele>
        <time>2017-06-17T06:33:39Z</time>
      </trkpt>
      <trkpt lat="53.284083008766174" lon="10.079653970897198">
        <ele>53.490000000000002</ele>
        <time>2017-06-17T06:33:55Z</time>
      </trkpt>
      <trkpt lat="53.28946896828711" lon="10.078044980764389">
        <ele>45.32</ele>
        <time>2017-06-17T06:34:11Z</time>
      </trkpt>
      <trkpt lat="53.294756021350622" lon="10.076339012011886">
        <ele>40.030000000000001</ele>
        <time>2017-06-17T06:34:27Z</time>
      </trkpt>
      <trkpt lat="53.300905991345644" lon="10.074188970029354">
        <ele>41.469999999999999</ele>
        <time>2017-06-17T06:34:46Z</time>
      </trkpt>
      <trkpt lat="53.305813008919358" lon="10.072421981021762">
        <ele>43.399999999999999</ele>
        <time>2017-06-17T06:35:01Z</time>
      </trkpt>
      <trkpt lat="53.310326999053359" lon="10.070554995909333">
        <ele>48.200000000000003</ele>
        <time>2017-06-17T06:35:15Z</time>
      </trkpt>
      <trkpt lat="53.313043992966413" lon="10.068569993600249">
        <ele>50.130000000000003</ele>
        <time>2017-06-17T06:35:24Z</time>
      </trkpt>
      <trkpt lat="53.31556904129684" lon="10.065911002457142">
        <ele>53.009999999999998</ele>
        <time>2017-06-17T06:35:33Z</time>
      </trkpt>
      <trkpt lat="53.317872975021601" lon="10.062635019421577">
        <ele>54.93</ele>
        <time>2017-06-17T06:35:42Z</time>
      </trkpt>
      <trkpt lat="53.32238101400435" lon="10.056113982573152">
        <ele>51.090000000000003</ele>
        <time>2017-06-17T06:36:00Z</time>
      </trkpt>
      <trkpt lat="53.326296033337712" lon="10.050518978387117">
        <ele>56.859999999999999</ele>
        <time>2017-06-17T06:36:16Z</time>
      </trkpt>
      <trkpt lat="53.329894971102476" lon="10.045439964160323">
        <ele>60.219999999999999</ele>
        <time>2017-06-17T06:36:30Z</time>
      </trkpt>
      <trkpt lat="53.332303008064628" lon="10.042805029079318">
        <ele>58.299999999999997</ele>
        <time>2017-06-17T06:36:39Z</time>
      </trkpt>
      <trkpt lat="53.335004998371005" lon="10.040808040648699">
        <ele>53.969999999999999</ele>
        <time>2017-06-17T06:36:48Z</time>
      </trkpt>
      <trkpt lat="53.337890971451998" lon="10.039596017450094">
        <ele>48.200000000000003</ele>
        <time>2017-06-17T06:36:57Z</time>
      </trkpt>
      <trkpt lat="53.341550007462502" lon="10.039064018055797">
        <ele>40.030000000000001</ele>
        <time>2017-06-17T06:37:08Z</time>
      </trkpt>
      <trkpt lat="53.34603700786829" lon="10.038607958704233">
        <ele>28.98</ele>
        <time>2017-06-17T06:37:22Z</time>
      </trkpt>
      <trkpt lat="53.352452013641596" lon="10.037940004840493">
        <ele>16.960000000000001</ele>
        <time>2017-06-17T06:37:43Z</time>
      </trkpt>
      <trkpt lat="53.359082015231252" lon="10.037232991307974">
        <ele>12.630000000000001</ele>
        <time>2017-06-17T06:38:06Z</time>
      </trkpt>
      <trkpt lat="53.36318202316761" lon="10.036415001377463">
        <ele>11.19</ele>
        <time>2017-06-17T06:38:20Z</time>
      </trkpt>
      <trkpt lat="53.365413034334779" lon="10.035058977082372">
        <ele>15.039999999999999</ele>
        <time>2017-06-17T06:38:28Z</time>
      </trkpt>
      <trkpt lat="53.367328969761729" lon="10.033156033605337">
        <ele>17.920000000000002</ele>
        <time>2017-06-17T06:38:37Z</time>
      </trkpt>
      <trkpt lat="53.369208024814725" lon="10.030340971425176">
        <ele>17.920000000000002</ele>
        <time>2017-06-17T06:38:47Z</time>
      </trkpt>
      <trkpt lat="53.370407978072762" lon="10.027787005528808">
        <ele>14.56</ele>
        <time>2017-06-17T06:38:55Z</time>
      </trkpt>
      <trkpt lat="53.372462969273329" lon="10.023699989542365">
        <ele>12.630000000000001</ele>
        <time>2017-06-17T06:39:09Z</time>
      </trkpt>
      <trkpt lat="53.374199029058218" lon="10.021783970296383">
        <ele>12.15</ele>
        <time>2017-06-17T06:39:18Z</time>
      </trkpt>
      <trkpt lat="53.377320030704141" lon="10.019306028261781">
        <ele>11.19</ele>
        <time>2017-06-17T06:39:32Z</time>
      </trkpt>
      <trkpt lat="53.379504019394517" lon="10.017645992338657">
        <ele>15.52</ele>
        <time>2017-06-17T06:39:42Z</time>
      </trkpt>
      <trkpt lat="53.380947969853878" lon="10.01724399626255">
        <ele>15.52</ele>
        <time>2017-06-17T06:39:49Z</time>
      </trkpt>
      <trkpt lat="53.38247599080205" lon="10.017745988443494">
        <ele>11.67</ele>
        <time>2017-06-17T06:39:56Z</time>
      </trkpt>
      <trkpt lat="53.384550008922815" lon="10.019427984952927">
        <ele>10.23</ele>
        <time>2017-06-17T06:40:06Z</time>
      </trkpt>
      <trkpt lat="53.386682029813528" lon="10.02083295956254">
        <ele>10.710000000000001</ele>
        <time>2017-06-17T06:40:16Z</time>
      </trkpt>
      <trkpt lat="53.391338009387255" lon="10.022912006825209">
        <ele>4.94</ele>
        <time>2017-06-17T06:40:37Z</time>
      </trkpt>
      <trkpt lat="53.39588200673461" lon="10.024926010519266">
        <ele>5.91</ele>
        <time>2017-06-17T06:40:57Z</time>
      </trkpt>
      <trkpt lat="53.399392012506723" lon="10.026408014819026">
        <ele>5.91</ele>
        <time>2017-06-17T06:41:11Z</time>
      </trkpt>
      <trkpt lat="53.402963960543275" lon="10.027342010289431">
        <ele>3.98</ele>
        <time>2017-06-17T06:41:23Z</time>
      </trkpt>
      <trkpt lat="53.408841015771031" lon="10.028758971020579">
        <ele>2.54</ele>
        <time>2017-06-17T06:41:42Z</time>
      </trkpt>
      <trkpt lat="53.415070027112961" lon="10.030274000018835">
        <ele>2.06</ele>
        <time>2017-06-17T06:42:02Z</time>
      </trkpt>
      <trkpt lat="53.419376984238625" lon="10.031693978235126">
        <ele>6.87</ele>
        <time>2017-06-17T06:42:16Z</time>
      </trkpt>
      <trkpt lat="53.424135977402329" lon="10.034120036289096">
        <ele>7.83</ele>
        <time>2017-06-17T06:42:32Z</time>
      </trkpt>
      <trkpt lat="53.426937041804194" lon="10.035073980689049">
        <ele>1.1</ele>
        <time>2017-06-17T06:42:41Z</time>
      </trkpt>
      <trkpt lat="53.429092029109597" lon="10.034755971282721">
        <ele>-0.34</ele>
        <time>2017-06-17T06:42:48Z</time>
      </trkpt>
      <trkpt lat="53.433231012895703" lon="10.03329299390316">
        <ele>-0.82</ele>
        <time>2017-06-17T06:43:02Z</time>
      </trkpt>
      <trkpt lat="53.437987994402647" lon="10.031546037644148">
        <ele>-1.3</ele>
        <time>2017-06-17T06:43:18Z</time>
      </trkpt>
      <trkpt lat="53.442856036126614" lon="10.030020028352737">
        <ele>-1.79</ele>
        <time>2017-06-17T06:43:34Z</time>
      </trkpt>
      <trkpt lat="53.445293996483088" lon="10.029771002009511">
        <ele>1.58</ele>
        <time>2017-06-17T06:43:43Z</time>
      </trkpt>
      <trkpt lat="53.447756012901664" lon="10.029556006193161">
        <ele>3.02</ele>
        <time>2017-06-17T06:43:54Z</time>
      </trkpt>
      <trkpt lat="53.450895035639405" lon="10.029197009280324">
        <ele>-1.3</ele>
        <time>2017-06-17T06:44:07Z</time>
      </trkpt>
      <trkpt lat="53.454505959525704" lon="10.028201993554831">
        <ele>-3.23</ele>
        <time>2017-06-17T06:44:21Z</time>
      </trkpt>
      <trkpt lat="53.458831021562219" lon="10.026944037526846">
        <ele>-4.67</ele>
        <time>2017-06-17T06:44:38Z</time>
      </trkpt>
      <trkpt lat="53.461810033768415" lon="10.02607399597764">
        <ele>0.14</ele>
        <time>2017-06-17T06:44:50Z</time>
      </trkpt>
      <trkpt lat="53.464778987690806" lon="10.02523303963244">
        <ele>-2.75</ele>
        <time>2017-06-17T06:45:03Z</time>
      </trkpt>
      <trkpt lat="53.468409022316337" lon="10.024459976702929">
        <ele>-3.23</ele>
        <time>2017-06-17T06:45:19Z</time>
      </trkpt>
      <trkpt lat="53.471675030887127" lon="10.023777019232512">
        <ele>1.1</ele>
        <time>2017-06-17T06:45:34Z</time>
      </trkpt>
      <trkpt lat="53.474740041419864" lon="10.023124990984797">
        <ele>3.5</ele>
        <time>2017-06-17T06:45:50Z</time>
      </trkpt>
      <trkpt lat="53.477621991187334" lon="10.022661974653602">
        <ele>4.46</ele>
        <time>2017-06-17T06:46:05Z</time>
      </trkpt>
      <trkpt lat="53.479559971019626" lon="10.023010997101665">
        <ele>1.1</ele>
        <time>2017-06-17T06:46:16Z</time>
      </trkpt>
      <trkpt lat="53.480198001489043" lon="10.023343004286289">
        <ele>1.1</ele>
        <time>2017-06-17T06:46:22Z</time>
      </trkpt>
      <trkpt lat="53.480316018685699" lon="10.02345398068428">
        <ele>0.62</ele>
        <time>2017-06-17T06:46:24Z</time>
      </trkpt>
      <trkpt lat="53.480369998142123" lon="10.023521035909653">
        <ele>1.1</ele>
        <time>2017-06-17T06:46:25Z</time>
      </trkpt>
      <trkpt lat="53.480421965941787" lon="10.023620026186109">
        <ele>1.1</ele>
        <time>2017-06-17T06:46:26Z</time>
      </trkpt>
      <trkpt lat="53.48046999424696" lon="10.023737959563732">
        <ele>0.62</ele>
        <time>2017-06-17T06:46:27Z</time>
      </trkpt>
      <trkpt lat="53.480506036430597" lon="10.023867962881923">
        <ele>0.62</ele>
        <time>2017-06-17T06:46:28Z</time>
      </trkpt>
      <trkpt lat="53.480531014502048" lon="10.024006012827158">
        <ele>0.14</ele>
        <time>2017-06-17T06:46:29Z</time>
      </trkpt>
      <trkpt lat="53.480540988966823" lon="10.024146996438503">
        <ele>0.14</ele>
        <time>2017-06-17T06:46:30Z</time>
      </trkpt>
      <trkpt lat="53.48053403198719" lon="10.024286974221468">
        <ele>-0.34</ele>
        <time>2017-06-17T06:46:31Z</time>
      </trkpt>
      <trkpt lat="53.480510981753469" lon="10.024430975317955">
        <ele>-0.82</ele>
        <time>2017-06-17T06:46:32Z</time>
      </trkpt>
      <trkpt lat="53.480472005903721" lon="10.024567013606429">
        <ele>-1.3</ele>
        <time>2017-06-17T06:46:33Z</time>
      </trkpt>
      <trkpt lat="53.480422971770167" lon="10.024680001661181">
        <ele>-1.79</ele>
        <time>2017-06-17T06:46:34Z</time>
      </trkpt>
      <trkpt lat="53.480367986485362" lon="10.024774968624115">
        <ele>-2.27</ele>
        <time>2017-06-17T06:46:35Z</time>
      </trkpt>
      <trkpt lat="53.480310989543796" lon="10.024851998314261">
        <ele>-2.27</ele>
        <time>2017-06-17T06:46:36Z</time>
      </trkpt>
      <trkpt lat="53.480248041450977" lon="10.024902960285544">
        <ele>-2.75</ele>
        <time>2017-06-17T06:46:37Z</time>
      </trkpt>
      <trkpt lat="53.480182997882366" lon="10.024929028004408">
        <ele>-2.75</ele>
        <time>2017-06-17T06:46:38Z</time>
      </trkpt>
      <trkpt lat="53.480122983455658" lon="10.024929028004408">
        <ele>-2.75</ele>
        <time>2017-06-17T06:46:39Z</time>
      </trkpt>
      <trkpt lat="53.480071015655994" lon="10.024902960285544">
        <ele>-2.75</ele>
        <time>2017-06-17T06:46:40Z</time>
      </trkpt>
      <trkpt lat="53.480023993179202" lon="10.024850992485881">
        <ele>-2.75</ele>
        <time>2017-06-17T06:46:41Z</time>
      </trkpt>
      <trkpt lat="53.479984011501074" lon="10.024772034958005">
        <ele>-2.75</ele>
        <time>2017-06-17T06:46:42Z</time>
      </trkpt>
      <trkpt lat="53.479944029822946" lon="10.024675978347659">
        <ele>-2.75</ele>
        <time>2017-06-17T06:46:43Z</time>
      </trkpt>
      <trkpt lat="53.479909999296069" lon="10.024571036919951">
        <ele>-2.75</ele>
        <time>2017-06-17T06:46:44Z</time>
      </trkpt>
      <trkpt lat="53.479485036805272" lon="10.023094983771443">
        <ele>-2.75</ele>
        <time>2017-06-17T06:46:54Z</time>
      </trkpt>
      <trkpt lat="53.47935201600194" lon="10.021740971133113">
        <ele>-2.75</ele>
        <time>2017-06-17T06:47:01Z</time>
      </trkpt>
      <trkpt lat="53.479365007951856" lon="10.021528992801905">
        <ele>-2.75</ele>
        <time>2017-06-17T06:47:02Z</time>
      </trkpt>
      <trkpt lat="53.479516971856356" lon="10.019655972719193">
        <ele>-2.75</ele>
        <time>2017-06-17T06:47:12Z</time>
      </trkpt>
      <trkpt lat="53.479613028466702" lon="10.018545035272837">
        <ele>-2.75</ele>
        <time>2017-06-17T06:47:21Z</time>
      </trkpt>
      <trkpt lat="53.479644041508436" lon="10.018437998369336">
        <ele>-3.23</ele>
        <time>2017-06-17T06:47:24Z</time>
      </trkpt>
      <trkpt lat="53.479643035680056" lon="10.01840497367084">
        <ele>-2.75</ele>
        <time>2017-06-17T06:47:25Z</time>
      </trkpt>
      <trkpt lat="53.479637000709772" lon="10.018377983942628">
        <ele>-2.75</ele>
        <time>2017-06-17T06:47:26Z</time>
      </trkpt>
      <trkpt lat="53.479628032073379" lon="10.018376978114247">
        <ele>-2.27</ele>
        <time>2017-06-17T06:47:44Z</time>
      </trkpt>
      <trkpt lat="53.479627026244998" lon="10.018375972285867">
        <ele>-2.27</ele>
        <time>2017-06-17T06:49:34Z</time>
      </trkpt>
      <trkpt lat="53.479626020416617" lon="10.018417965620756">
        <ele>-3.23</ele>
        <time>2017-06-17T06:54:02Z</time>
      </trkpt>
      <trkpt lat="53.479615962132812" lon="10.01838100142777">
        <ele>-5.15</ele>
        <time>2017-06-17T06:54:41Z</time>
      </trkpt>
      <trkpt lat="53.47961101680994" lon="10.018271030858159">
        <ele>-4.67</ele>
        <time>2017-06-17T06:54:44Z</time>
      </trkpt>
      <trkpt lat="53.479687962681055" lon="10.017212983220816">
        <ele>-4.67</ele>
        <time>2017-06-17T06:54:51Z</time>
      </trkpt>
      <trkpt lat="53.47989097237587" lon="10.015208031982183">
        <ele>-4.67</ele>
        <time>2017-06-17T06:55:00Z</time>
      </trkpt>
      <trkpt lat="53.480290034785867" lon="10.011497028172016">
        <ele>-5.15</ele>
        <time>2017-06-17T06:55:15Z</time>
      </trkpt>
      <trkpt lat="53.480552975088358" lon="10.009419992566109">
        <ele>-4.19</ele>
        <time>2017-06-17T06:55:25Z</time>
      </trkpt>
      <trkpt lat="53.480891017243266" lon="10.006150966510177">
        <ele>-4.67</ele>
        <time>2017-06-17T06:55:40Z</time>
      </trkpt>
      <trkpt lat="53.481390997767448" lon="10.003206990659237">
        <ele>-7.55</ele>
        <time>2017-06-17T06:55:53Z</time>
      </trkpt>
      <trkpt lat="53.481643963605165" lon="10.001161973923445">
        <ele>-8.51</ele>
        <time>2017-06-17T06:56:03Z</time>
      </trkpt>
      <trkpt lat="53.48165100440383" lon="10.000961981713772">
        <ele>-7.55</ele>
        <time>2017-06-17T06:56:04Z</time>
      </trkpt>
      <trkpt lat="53.481638012453914" lon="10.000781016424298">
        <ele>-7.55</ele>
        <time>2017-06-17T06:56:05Z</time>
      </trkpt>
      <trkpt lat="53.481570035219193" lon="10.000175004824996">
        <ele>-3.23</ele>
        <time>2017-06-17T06:56:09Z</time>
      </trkpt>
      <trkpt lat="53.481530975550413" lon="10.000092023983598">
        <ele>-2.75</ele>
        <time>2017-06-17T06:56:10Z</time>
      </trkpt>
      <trkpt lat="53.481316985562444" lon="10.000064028427005">
        <ele>-1.3</ele>
        <time>2017-06-17T06:56:13Z</time>
      </trkpt>
      <trkpt lat="53.481155969202518" lon="10.000224960967898">
        <ele>-0.34</ele>
        <time>2017-06-17T06:56:15Z</time>
      </trkpt>
      <trkpt lat="53.480982966721058" lon="10.000459989532828">
        <ele>0.14</ele>
        <time>2017-06-17T06:56:17Z</time>
      </trkpt>
      <trkpt lat="53.480309983715415" lon="10.000578006729484">
        <ele>1.1</ele>
        <time>2017-06-17T06:56:23Z</time>
      </trkpt>
      <trkpt lat="53.479932965710759" lon="9.999836040660739">
        <ele>-0.34</ele>
        <time>2017-06-17T06:56:28Z</time>
      </trkpt>
      <trkpt lat="53.47989097237587" lon="9.999648034572601">
        <ele>-0.34</ele>
        <time>2017-06-17T06:56:29Z</time>
      </trkpt>
      <trkpt lat="53.47986800596118" lon="9.99945399351418">
        <ele>-0.82</ele>
        <time>2017-06-17T06:56:30Z</time>
      </trkpt>
      <trkpt lat="53.479867000132799" lon="9.99926095828414">
        <ele>-1.3</ele>
        <time>2017-06-17T06:56:31Z</time>
      </trkpt>
      <trkpt lat="53.479932965710759" lon="9.998758966103196">
        <ele>-2.75</ele>
        <time>2017-06-17T06:56:34Z</time>
      </trkpt>
      <trkpt lat="53.479968002066016" lon="9.998628040775657">
        <ele>-3.23</ele>
        <time>2017-06-17T06:56:35Z</time>
      </trkpt>
      <trkpt lat="53.480005972087383" lon="9.998511029407382">
        <ele>-3.23</ele>
        <time>2017-06-17T06:56:36Z</time>
      </trkpt>
      <trkpt lat="53.480121977627277" lon="9.99812001362443">
        <ele>-2.75</ele>
        <time>2017-06-17T06:56:40Z</time>
      </trkpt>
      <trkpt lat="53.480180986225605" lon="9.997717011719942">
        <ele>-2.27</ele>
        <time>2017-06-17T06:56:50Z</time>
      </trkpt>
      <trkpt lat="53.480230020359159" lon="9.99738902784884">
        <ele>-0.82</ele>
        <time>2017-06-17T06:57:33Z</time>
      </trkpt>
      <trkpt lat="53.480392964556813" lon="9.996272977441549">
        <ele>0.14</ele>
        <time>2017-06-17T06:57:40Z</time>
      </trkpt>
      <trkpt lat="53.48044803366065" lon="9.996132999658585">
        <ele>0.14</ele>
        <time>2017-06-17T06:57:41Z</time>
      </trkpt>
      <trkpt lat="53.480521040037274" lon="9.996025040745735">
        <ele>0.14</ele>
        <time>2017-06-17T06:57:42Z</time>
      </trkpt>
      <trkpt lat="53.480607038363814" lon="9.995949016883969">
        <ele>0.62</ele>
        <time>2017-06-17T06:57:43Z</time>
      </trkpt>
      <trkpt lat="53.480699993669987" lon="9.995896965265274">
        <ele>0.62</ele>
        <time>2017-06-17T06:57:44Z</time>
      </trkpt>
      <trkpt lat="53.480798983946443" lon="9.995867963880301">
        <ele>0.62</ele>
        <time>2017-06-17T06:57:45Z</time>
      </trkpt>
      <trkpt lat="53.480901997536421" lon="9.995855977758765">
        <ele>1.1</ele>
        <time>2017-06-17T06:57:46Z</time>
      </trkpt>
      <trkpt lat="53.481610016897321" lon="9.995784983038902">
        <ele>4.94</ele>
        <time>2017-06-17T06:57:55Z</time>
      </trkpt>
      <trkpt lat="53.481646981090307" lon="9.995740978047252">
        <ele>4.46</ele>
        <time>2017-06-17T06:57:56Z</time>
      </trkpt>
      <trkpt lat="53.481684029102325" lon="9.995664032176137">
        <ele>3.98</ele>
        <time>2017-06-17T06:57:57Z</time>
      </trkpt>
      <trkpt lat="53.481702972203493" lon="9.995559006929398">
        <ele>3.98</ele>
        <time>2017-06-17T06:57:58Z</time>
      </trkpt>
      <trkpt lat="53.481709007173777" lon="9.995444007217884">
        <ele>3.5</ele>
        <time>2017-06-17T06:57:59Z</time>
      </trkpt>
      <trkpt lat="53.481701966375113" lon="9.99532800167799">
        <ele>3.02</ele>
        <time>2017-06-17T06:58:00Z</time>
      </trkpt>
      <trkpt lat="53.481691991910338" lon="9.995193975046277">
        <ele>3.02</ele>
        <time>2017-06-17T06:58:01Z</time>
      </trkpt>
      <trkpt lat="53.481560982763767" lon="9.993904000148177">
        <ele>1.1</ele>
        <time>2017-06-17T06:58:11Z</time>
      </trkpt>
      <trkpt lat="53.481366019695997" lon="9.992210017517209">
        <ele>-0.34</ele>
        <time>2017-06-17T06:58:23Z</time>
      </trkpt>
      <trkpt lat="53.480962011963129" lon="9.990315036848187">
        <ele>1.1</ele>
        <time>2017-06-17T06:58:33Z</time>
      </trkpt>
      <trkpt lat="53.480739975348115" lon="9.987968020141125">
        <ele>3.98</ele>
        <time>2017-06-17T06:58:44Z</time>
      </trkpt>
      <trkpt lat="53.480496983975172" lon="9.986096005886793">
        <ele>2.06</ele>
        <time>2017-06-17T06:58:55Z</time>
      </trkpt>
      <trkpt lat="53.480317024514079" lon="9.983703978359699">
        <ele>3.98</ele>
        <time>2017-06-17T06:59:08Z</time>
      </trkpt>
      <trkpt lat="53.480338985100389" lon="9.981729034334421">
        <ele>2.06</ele>
        <time>2017-06-17T06:59:20Z</time>
      </trkpt>
      <trkpt lat="53.480709968134761" lon="9.980415003374219">
        <ele>2.06</ele>
        <time>2017-06-17T06:59:31Z</time>
      </trkpt>
      <trkpt lat="53.481599036604166" lon="9.978614989668131">
        <ele>1.58</ele>
        <time>2017-06-17T06:59:43Z</time>
      </trkpt>
      <trkpt lat="53.482569996267557" lon="9.97723700478673">
        <ele>0.62</ele>
        <time>2017-06-17T06:59:52Z</time>
      </trkpt>
      <trkpt lat="53.483659978955984" lon="9.976859986782074">
        <ele>1.1</ele>
        <time>2017-06-17T06:59:59Z</time>
      </trkpt>
      <trkpt lat="53.485968019813299" lon="9.976548012346029">
        <ele>3.5</ele>
        <time>2017-06-17T07:00:12Z</time>
      </trkpt>
      <trkpt lat="53.488396005704999" lon="9.976190021261573">
        <ele>3.5</ele>
        <time>2017-06-17T07:00:26Z</time>
      </trkpt>
      <trkpt lat="53.489131014794111" lon="9.976234026253223">
        <ele>4.46</ele>
        <time>2017-06-17T07:00:32Z</time>
      </trkpt>
      <trkpt lat="53.490171041339636" lon="9.976394036784768">
        <ele>4.94</ele>
        <time>2017-06-17T07:00:42Z</time>
      </trkpt>
      <trkpt lat="53.491418017074466" lon="9.976195972412825">
        <ele>3.5</ele>
        <time>2017-06-17T07:00:52Z</time>
      </trkpt>
      <trkpt lat="53.492817962542176" lon="9.975718958303332">
        <ele>4.46</ele>
        <time>2017-06-17T07:01:03Z</time>
      </trkpt>
      <trkpt lat="53.494294015690684" lon="9.974727965891361">
        <ele>5.91</ele>
        <time>2017-06-17T07:01:14Z</time>
      </trkpt>
      <trkpt lat="53.495701001957059" lon="9.973235987126827">
        <ele>3.02</ele>
        <time>2017-06-17T07:01:25Z</time>
      </trkpt>
      <trkpt lat="53.497844003140926" lon="9.9710079934448">
        <ele>2.54</ele>
        <time>2017-06-17T07:01:40Z</time>
      </trkpt>
      <trkpt lat="53.499264987185597" lon="9.96976001188159">
        <ele>4.46</ele>
        <time>2017-06-17T07:01:50Z</time>
      </trkpt>
      <trkpt lat="53.500917982310057" lon="9.968095030635595">
        <ele>8.310000000000001</ele>
        <time>2017-06-17T07:02:02Z</time>
      </trkpt>
      <trkpt lat="53.50204098969698" lon="9.967227000743151">
        <ele>11.19</ele>
        <time>2017-06-17T07:02:12Z</time>
      </trkpt>
      <trkpt lat="53.502938020974398" lon="9.966614032164216">
        <ele>7.35</ele>
        <time>2017-06-17T07:02:24Z</time>
      </trkpt>
      <trkpt lat="53.503837985917926" lon="9.966377997770906">
        <ele>4.94</ele>
        <time>2017-06-17T07:02:36Z</time>
      </trkpt>
      <trkpt lat="53.505055960267782" lon="9.965999973937869">
        <ele>4.46</ele>
        <time>2017-06-17T07:02:47Z</time>
      </trkpt>
      <trkpt lat="53.506177039816976" lon="9.966175993904471">
        <ele>4.46</ele>
        <time>2017-06-17T07:02:56Z</time>
      </trkpt>
      <trkpt lat="53.5079700127244" lon="9.966225028038025">
        <ele>6.39</ele>
        <time>2017-06-17T07:03:08Z</time>
      </trkpt>
      <trkpt lat="53.509624013677239" lon="9.966434994712472">
        <ele>6.39</ele>
        <time>2017-06-17T07:03:19Z</time>
      </trkpt>
      <trkpt lat="53.51069999858737" lon="9.967338982969523">
        <ele>3.98</ele>
        <time>2017-06-17T07:03:27Z</time>
      </trkpt>
      <trkpt lat="53.51207697764039" lon="9.968289993703365">
        <ele>5.91</ele>
        <time>2017-06-17T07:03:37Z</time>
      </trkpt>
      <trkpt lat="53.512726994231343" lon="9.96868796646595">
        <ele>7.83</ele>
        <time>2017-06-17T07:03:45Z</time>
      </trkpt>
      <trkpt lat="53.512883987277746" lon="9.968845965340734">
        <ele>8.310000000000001</ele>
        <time>2017-06-17T07:03:52Z</time>
      </trkpt>
      <trkpt lat="53.513052966445684" lon="9.969018967822194">
        <ele>9.27</ele>
        <time>2017-06-17T07:04:42Z</time>
      </trkpt>
      <trkpt lat="53.513139970600605" lon="9.969021985307336">
        <ele>8.789999999999999</ele>
        <time>2017-06-17T07:04:43Z</time>
      </trkpt>
      <trkpt lat="53.513444988057017" lon="9.96898896060884">
        <ele>8.789999999999999</ele>
        <time>2017-06-17T07:04:46Z</time>
      </trkpt>
      <trkpt lat="53.51355797611177" lon="9.969006981700659">
        <ele>8.789999999999999</ele>
        <time>2017-06-17T07:04:47Z</time>
      </trkpt>
      <trkpt lat="53.513670964166522" lon="9.969036988914013">
        <ele>8.789999999999999</ele>
        <time>2017-06-17T07:04:48Z</time>
      </trkpt>
      <trkpt lat="53.51549101062119" lon="9.969586003571749">
        <ele>8.310000000000001</ele>
        <time>2017-06-17T07:05:02Z</time>
      </trkpt>
      <trkpt lat="53.516315035521984" lon="9.970048014074564">
        <ele>9.27</ele>
        <time>2017-06-17T07:05:09Z</time>
      </trkpt>
      <trkpt lat="53.516404973343015" lon="9.970063017681241">
        <ele>9.75</ele>
        <time>2017-06-17T07:05:10Z</time>
      </trkpt>
      <trkpt lat="53.516483008861542" lon="9.970046002417803">
        <ele>10.23</ele>
        <time>2017-06-17T07:05:11Z</time>
      </trkpt>
      <trkpt lat="53.516546962782741" lon="9.970007026568055">
        <ele>10.23</ele>
        <time>2017-06-17T07:05:12Z</time>
      </trkpt>
      <trkpt lat="53.516595996916294" lon="9.96995497494936">
        <ele>10.23</ele>
        <time>2017-06-17T07:05:13Z</time>
      </trkpt>
      <trkpt lat="53.516630027443171" lon="9.969907030463219">
        <ele>9.75</ele>
        <time>2017-06-17T07:05:14Z</time>
      </trkpt>
      <trkpt lat="53.516653999686241" lon="9.969872999936342">
        <ele>9.75</ele>
        <time>2017-06-17T07:05:15Z</time>
      </trkpt>
      <trkpt lat="53.516673026606441" lon="9.969850033521652">
        <ele>9.27</ele>
        <time>2017-06-17T07:05:16Z</time>
      </trkpt>
      <trkpt lat="53.516804035753012" lon="9.969648029655218">
        <ele>9.27</ele>
        <time>2017-06-17T07:05:24Z</time>
      </trkpt>
      <trkpt lat="53.516820967197418" lon="9.969551973044872">
        <ele>9.27</ele>
        <time>2017-06-17T07:05:25Z</time>
      </trkpt>
      <trkpt lat="53.516813004389405" lon="9.969428004696965">
        <ele>8.789999999999999</ele>
        <time>2017-06-17T07:05:26Z</time>
      </trkpt>
      <trkpt lat="53.516777968034148" lon="9.969292972236872">
        <ele>8.789999999999999</ele>
        <time>2017-06-17T07:05:27Z</time>
      </trkpt>
      <trkpt lat="53.516720971092582" lon="9.969171015545726">
        <ele>9.27</ele>
        <time>2017-06-17T07:05:28Z</time>
      </trkpt>
      <trkpt lat="53.516645031049848" lon="9.969044029712677">
        <ele>9.27</ele>
        <time>2017-06-17T07:05:29Z</time>
      </trkpt>
      <trkpt lat="53.516143038868904" lon="9.967647017911077">
        <ele>10.710000000000001</ele>
        <time>2017-06-17T07:05:36Z</time>
      </trkpt>
      <trkpt lat="53.516108002513647" lon="9.96737795881927">
        <ele>11.19</ele>
        <time>2017-06-17T07:05:37Z</time>
      </trkpt>
      <trkpt lat="53.516088975593448" lon="9.967100014910102">
        <ele>11.19</ele>
        <time>2017-06-17T07:05:38Z</time>
      </trkpt>
      <trkpt lat="53.516088975593448" lon="9.966817041859031">
        <ele>11.19</ele>
        <time>2017-06-17T07:05:39Z</time>
      </trkpt>
      <trkpt lat="53.516100961714983" lon="9.96653700247407">
        <ele>11.67</ele>
        <time>2017-06-17T07:05:40Z</time>
      </trkpt>
      <trkpt lat="53.516127029433846" lon="9.966284036636353">
        <ele>11.67</ele>
        <time>2017-06-17T07:05:41Z</time>
      </trkpt>
      <trkpt lat="53.516159970313311" lon="9.966075997799635">
        <ele>11.67</ele>
        <time>2017-06-17T07:05:42Z</time>
      </trkpt>
      <trkpt lat="53.516196012496948" lon="9.965913975611329">
        <ele>11.67</ele>
        <time>2017-06-17T07:05:43Z</time>
      </trkpt>
      <trkpt lat="53.516225013881922" lon="9.965793024748564">
        <ele>11.67</ele>
        <time>2017-06-17T07:05:44Z</time>
      </trkpt>
      <trkpt lat="53.516315035521984" lon="9.965497981756926">
        <ele>11.19</ele>
        <time>2017-06-17T07:05:51Z</time>
      </trkpt>
      <trkpt lat="53.516420982778072" lon="9.965123981237412">
        <ele>11.67</ele>
        <time>2017-06-17T07:06:10Z</time>
      </trkpt>
      <trkpt lat="53.516747038811445" lon="9.963719006627798">
        <ele>12.630000000000001</ele>
        <time>2017-06-17T07:06:17Z</time>
      </trkpt>
      <trkpt lat="53.517522029578686" lon="9.960183016955853">
        <ele>13.6</ele>
        <time>2017-06-17T07:06:32Z</time>
      </trkpt>
      <trkpt lat="53.518312023952603" lon="9.956669993698597">
        <ele>14.08</ele>
        <time>2017-06-17T07:06:47Z</time>
      </trkpt>
      <trkpt lat="53.5189079772681" lon="9.95405400171876">
        <ele>16</ele>
        <time>2017-06-17T07:07:00Z</time>
      </trkpt>
      <trkpt lat="53.519754968583584" lon="9.950274014845491">
        <ele>23.690000000000001</ele>
        <time>2017-06-17T07:07:17Z</time>
      </trkpt>
      <trkpt lat="53.521007979288697" lon="9.944527968764305">
        <ele>39.07</ele>
        <time>2017-06-17T07:07:43Z</time>
      </trkpt>
      <trkpt lat="53.521579038351774" lon="9.940703976899386">
        <ele>49.649999999999999</ele>
        <time>2017-06-17T07:08:01Z</time>
      </trkpt>
    </trkseg>
  </trk>

  <trk>
    <name>Track vom: 17 JUN 2017 09:08</name>
    <extensions>
      <gpxx:TrackExtension>
        <gpxx:DisplayColor>DarkGray</gpxx:DisplayColor>
      </gpxx:TrackExtension>
    </extensions>
    <trkseg>
      <trkpt lat="53.521851031109691" lon="9.938441030681133">
        <ele>53.490000000000002</ele>
        <time>2017-06-17T07:08:11Z</time>
      </trkpt>
      <trkpt lat="53.522225031629205" lon="9.935204023495317">
        <ele>47.719999999999999</ele>
        <time>2017-06-17T07:08:24Z</time>
      </trkpt>
      <trkpt lat="53.522285968065262" lon="9.93271904066205">
        <ele>40.509999999999998</ele>
        <time>2017-06-17T07:08:34Z</time>
      </trkpt>
      <trkpt lat="53.521803002804518" lon="9.930732026696205">
        <ele>35.229999999999997</ele>
        <time>2017-06-17T07:08:42Z</time>
      </trkpt>
      <trkpt lat="53.520920975133777" lon="9.929238958284259">
        <ele>29.460000000000001</ele>
        <time>2017-06-17T07:08:50Z</time>
      </trkpt>
      <trkpt lat="53.519620019942522" lon="9.927965998649597">
        <ele>21.77</ele>
        <time>2017-06-17T07:09:00Z</time>
      </trkpt>
      <trkpt lat="53.518666997551918" lon="9.927021022886038">
        <ele>16.48</ele>
        <time>2017-06-17T07:09:09Z</time>
      </trkpt>
      <trkpt lat="53.517912039533257" lon="9.925801958888769">
        <ele>12.15</ele>
        <time>2017-06-17T07:09:16Z</time>
      </trkpt>
      <trkpt lat="53.517841966822743" lon="9.925563996657729">
        <ele>11.19</ele>
        <time>2017-06-17T07:09:17Z</time>
      </trkpt>
      <trkpt lat="53.517784969881177" lon="9.92530700750649">
        <ele>10.710000000000001</ele>
        <time>2017-06-17T07:09:18Z</time>
      </trkpt>
      <trkpt lat="53.517741970717907" lon="9.925051024183631">
        <ele>9.75</ele>
        <time>2017-06-17T07:09:19Z</time>
      </trkpt>
      <trkpt lat="53.517717998474836" lon="9.924784982576966">
        <ele>8.789999999999999</ele>
        <time>2017-06-17T07:09:20Z</time>
      </trkpt>
      <trkpt lat="53.517711041495204" lon="9.924509972333908">
        <ele>8.310000000000001</ele>
        <time>2017-06-17T07:09:21Z</time>
      </trkpt>
      <trkpt lat="53.517720010131598" lon="9.92423303425312">
        <ele>7.35</ele>
        <time>2017-06-17T07:09:22Z</time>
      </trkpt>
      <trkpt lat="53.51774800568819" lon="9.923962969332933">
        <ele>6.87</ele>
        <time>2017-06-17T07:09:23Z</time>
      </trkpt>
      <trkpt lat="53.517792010679841" lon="9.923697011545301">
        <ele>5.91</ele>
        <time>2017-06-17T07:09:24Z</time>
      </trkpt>
      <trkpt lat="53.517850013449788" lon="9.923442034050822">
        <ele>5.42</ele>
        <time>2017-06-17T07:09:25Z</time>
      </trkpt>
      <trkpt lat="53.517921008169651" lon="9.923209017142654">
        <ele>4.46</ele>
        <time>2017-06-17T07:09:26Z</time>
      </trkpt>
      <trkpt lat="53.518001977354288" lon="9.923000978305936">
        <ele>3.98</ele>
        <time>2017-06-17T07:09:27Z</time>
      </trkpt>
      <trkpt lat="53.518089987337589" lon="9.922816995531321">
        <ele>3.5</ele>
        <time>2017-06-17T07:09:28Z</time>
      </trkpt>
      <trkpt lat="53.518181014806032" lon="9.922658996656537">
        <ele>2.54</ele>
        <time>2017-06-17T07:09:29Z</time>
      </trkpt>
      <trkpt lat="53.518272964283824" lon="9.922533016651869">
        <ele>2.06</ele>
        <time>2017-06-17T07:09:30Z</time>
      </trkpt>
      <trkpt lat="53.518363991752267" lon="9.922430003061891">
        <ele>1.58</ele>
        <time>2017-06-17T07:09:31Z</time>
      </trkpt>
      <trkpt lat="53.518461976200342" lon="9.922345010563731">
        <ele>1.1</ele>
        <time>2017-06-17T07:09:32Z</time>
      </trkpt>
      <trkpt lat="53.51856398396194" lon="9.922274015843868">
        <ele>0.62</ele>
        <time>2017-06-17T07:09:33Z</time>
      </trkpt>
      <trkpt lat="53.518682001158595" lon="9.922224981710315">
        <ele>0.14</ele>
        <time>2017-06-17T07:09:34Z</time>
      </trkpt>
      <trkpt lat="53.518797000870109" lon="9.922188017517328">
        <ele>-0.34</ele>
        <time>2017-06-17T07:09:35Z</time>
      </trkpt>
      <trkpt lat="53.518902026116848" lon="9.922201009467244">
        <ele>-0.82</ele>
        <time>2017-06-17T07:09:36Z</time>
      </trkpt>
      <trkpt lat="53.519006967544556" lon="9.922212995588779">
        <ele>-1.3</ele>
        <time>2017-06-17T07:09:37Z</time>
      </trkpt>
      <trkpt lat="53.51920997723937" lon="9.922317015007138">
        <ele>-2.75</ele>
        <time>2017-06-17T07:09:39Z</time>
      </trkpt>
      <trkpt lat="53.519303016364574" lon="9.922384992241859">
        <ele>-2.75</ele>
        <time>2017-06-17T07:09:40Z</time>
      </trkpt>
      <trkpt lat="53.519385997205973" lon="9.922465961426497">
        <ele>-2.75</ele>
        <time>2017-06-17T07:09:41Z</time>
      </trkpt>
      <trkpt lat="53.520157970488071" lon="9.92352400906384">
        <ele>-3.23</ele>
        <time>2017-06-17T07:09:52Z</time>
      </trkpt>
      <trkpt lat="53.520424012094736" lon="9.923883005976677">
        <ele>-3.23</ele>
        <time>2017-06-17T07:09:57Z</time>
      </trkpt>
      <trkpt lat="53.520459970459342" lon="9.92395400069654">
        <ele>-3.71</ele>
        <time>2017-06-17T07:09:58Z</time>
      </trkpt>
      <trkpt lat="53.520491989329457" lon="9.924037987366319">
        <ele>-4.19</ele>
        <time>2017-06-17T07:09:59Z</time>
      </trkpt>
      <trkpt lat="53.520489977672696" lon="9.924121974036098">
        <ele>-4.67</ele>
        <time>2017-06-17T07:10:00Z</time>
      </trkpt>
      <trkpt lat="53.520477991551161" lon="9.924208978191018">
        <ele>-4.67</ele>
        <time>2017-06-17T07:10:01Z</time>
      </trkpt>
      <trkpt lat="53.520467011258006" lon="9.924279972910881">
        <ele>-4.67</ele>
        <time>2017-06-17T07:10:02Z</time>
      </trkpt>
      <trkpt lat="53.520452007651329" lon="9.924338981509209">
        <ele>-4.67</ele>
        <time>2017-06-17T07:10:03Z</time>
      </trkpt>
      <trkpt lat="53.520440021529794" lon="9.924377035349608">
        <ele>-4.67</ele>
        <time>2017-06-17T07:10:04Z</time>
      </trkpt>
      <trkpt lat="53.520422000437975" lon="9.924419028684497">
        <ele>-5.15</ele>
        <time>2017-06-17T07:10:05Z</time>
      </trkpt>
      <trkpt lat="53.520418982952833" lon="9.924450041726232">
        <ele>-5.63</ele>
        <time>2017-06-17T07:10:16Z</time>
      </trkpt>
      <trkpt lat="53.520329967141151" lon="9.924676017835736">
        <ele>-4.19</ele>
        <time>2017-06-17T07:10:33Z</time>
      </trkpt>
      <trkpt lat="53.520333990454674" lon="9.924675012007356">
        <ele>-4.67</ele>
        <time>2017-06-17T07:10:53Z</time>
      </trkpt>
      <trkpt lat="53.520330972969532" lon="9.924710970371962">
        <ele>-4.67</ele>
        <time>2017-06-17T07:10:54Z</time>
      </trkpt>
      <trkpt lat="53.5203240159899" lon="9.924766039475799">
        <ele>-4.67</ele>
        <time>2017-06-17T07:10:55Z</time>
      </trkpt>
      <trkpt lat="53.520293002948165" lon="9.924843991175294">
        <ele>-4.67</ele>
        <time>2017-06-17T07:10:56Z</time>
      </trkpt>
      <trkpt lat="53.520256038755178" lon="9.924910040572286">
        <ele>-4.19</ele>
        <time>2017-06-17T07:10:57Z</time>
      </trkpt>
      <trkpt lat="53.520216979086399" lon="9.924967037513852">
        <ele>-3.71</ele>
        <time>2017-06-17T07:10:58Z</time>
      </trkpt>
      <trkpt lat="53.520184038206935" lon="9.925008025020361">
        <ele>-3.23</ele>
        <time>2017-06-17T07:10:59Z</time>
      </trkpt>
      <trkpt lat="53.520055040717125" lon="9.92517901584506">
        <ele>-2.27</ele>
        <time>2017-06-17T07:11:10Z</time>
      </trkpt>
      <trkpt lat="53.520055962726474" lon="9.925181027501822">
        <ele>-1.79</ele>
        <time>2017-06-17T07:13:14Z</time>
      </trkpt>
    </trkseg>
  </trk>

  <trk>
    <name>Track vom: 17 JUN 2017 09:24</name>
    <extensions>
      <gpxx:TrackExtension>
        <gpxx:DisplayColor>DarkGray</gpxx:DisplayColor>
      </gpxx:TrackExtension>
    </extensions>
    <trkseg>
      <trkpt lat="53.520081024616957" lon="9.92522100917995">
        <ele>7.83</ele>
        <time>2017-06-17T07:24:11Z</time>
      </trkpt>
      <trkpt lat="53.520082030445337" lon="9.925217991694808">
        <ele>7.35</ele>
        <time>2017-06-17T07:26:13Z</time>
      </trkpt>
      <trkpt lat="53.520083036273718" lon="9.925215980038047">
        <ele>7.35</ele>
        <time>2017-06-17T07:28:23Z</time>
      </trkpt>
      <trkpt lat="53.520082030445337" lon="9.925214974209666">
        <ele>7.35</ele>
        <time>2017-06-17T07:30:29Z</time>
      </trkpt>
      <trkpt lat="53.520082030445337" lon="9.925212040543556">
        <ele>7.35</ele>
        <time>2017-06-17T07:32:21Z</time>
      </trkpt>
      <trkpt lat="53.520074989646673" lon="9.925238024443388">
        <ele>7.35</ele>
        <time>2017-06-17T07:32:30Z</time>
      </trkpt>
      <trkpt lat="53.520055040717125" lon="9.925313964486122">
        <ele>7.83</ele>
        <time>2017-06-17T07:32:32Z</time>
      </trkpt>
      <trkpt lat="53.520026039332151" lon="9.925384037196636">
        <ele>7.35</ele>
        <time>2017-06-17T07:32:33Z</time>
      </trkpt>
      <trkpt lat="53.519987985491753" lon="9.925467018038034">
        <ele>7.83</ele>
        <time>2017-06-17T07:32:34Z</time>
      </trkpt>
      <trkpt lat="53.519940041005611" lon="9.92554496973753">
        <ele>7.83</ele>
        <time>2017-06-17T07:32:35Z</time>
      </trkpt>
      <trkpt lat="53.519886983558536" lon="9.925623005256057">
        <ele>7.83</ele>
        <time>2017-06-17T07:32:36Z</time>
      </trkpt>
      <trkpt lat="53.518987018615007" lon="9.926757998764515">
        <ele>7.83</ele>
        <time>2017-06-17T07:32:49Z</time>
      </trkpt>
      <trkpt lat="53.518716031685472" lon="9.927036026492715">
        <ele>7.83</ele>
        <time>2017-06-17T07:32:53Z</time>
      </trkpt>
      <trkpt lat="53.518568007275462" lon="9.927124036476016">
        <ele>7.83</ele>
        <time>2017-06-17T07:32:55Z</time>
      </trkpt>
      <trkpt lat="53.517782036215067" lon="9.927079025655985">
        <ele>7.35</ele>
        <time>2017-06-17T07:33:03Z</time>
      </trkpt>
      <trkpt lat="53.516621980816126" lon="9.926196997985244">
        <ele>6.39</ele>
        <time>2017-06-17T07:33:13Z</time>
      </trkpt>
      <trkpt lat="53.516430035233498" lon="9.925977978855372">
        <ele>6.39</ele>
        <time>2017-06-17T07:33:15Z</time>
      </trkpt>
      <trkpt lat="53.51635099388659" lon="9.925835989415646">
        <ele>6.87</ele>
        <time>2017-06-17T07:33:16Z</time>
      </trkpt>
      <trkpt lat="53.51628796197474" lon="9.925672961398959">
        <ele>6.87</ele>
        <time>2017-06-17T07:33:17Z</time>
      </trkpt>
      <trkpt lat="53.516240017488599" lon="9.925488978624344">
        <ele>7.35</ele>
        <time>2017-06-17T07:33:18Z</time>
      </trkpt>
      <trkpt lat="53.516206992790103" lon="9.925294015556574">
        <ele>7.83</ele>
        <time>2017-06-17T07:33:19Z</time>
      </trkpt>
      <trkpt lat="53.516190983355045" lon="9.92509301751852">
        <ele>7.83</ele>
        <time>2017-06-17T07:33:20Z</time>
      </trkpt>
      <trkpt lat="53.516190983355045" lon="9.924891013652086">
        <ele>8.310000000000001</ele>
        <time>2017-06-17T07:33:21Z</time>
      </trkpt>
      <trkpt lat="53.516201041638851" lon="9.924681968986988">
        <ele>8.310000000000001</ele>
        <time>2017-06-17T07:33:22Z</time>
      </trkpt>
      <trkpt lat="53.516215039417148" lon="9.924465967342258">
        <ele>8.310000000000001</ele>
        <time>2017-06-17T07:33:23Z</time>
      </trkpt>
      <trkpt lat="53.516225013881922" lon="9.924015020951629">
        <ele>8.310000000000001</ele>
        <time>2017-06-17T07:33:25Z</time>
      </trkpt>
      <trkpt lat="53.516211016103625" lon="9.923785021528602">
        <ele>8.310000000000001</ele>
        <time>2017-06-17T07:33:26Z</time>
      </trkpt>
      <trkpt lat="53.516184026375413" lon="9.923555022105575">
        <ele>7.83</ele>
        <time>2017-06-17T07:33:27Z</time>
      </trkpt>
      <trkpt lat="53.516144966706634" lon="9.92333197966218">
        <ele>7.35</ele>
        <time>2017-06-17T07:33:28Z</time>
      </trkpt>
      <trkpt lat="53.516095010563731" lon="9.923122012987733">
        <ele>7.35</ele>
        <time>2017-06-17T07:33:29Z</time>
      </trkpt>
      <trkpt lat="53.516039019450545" lon="9.922933001071215">
        <ele>6.87</ele>
        <time>2017-06-17T07:33:30Z</time>
      </trkpt>
      <trkpt lat="53.515888983383775" lon="9.922431008890271">
        <ele>6.39</ele>
        <time>2017-06-17T07:33:33Z</time>
      </trkpt>
      <trkpt lat="53.51585797034204" lon="9.922251971438527">
        <ele>5.91</ele>
        <time>2017-06-17T07:33:34Z</time>
      </trkpt>
      <trkpt lat="53.515845984220505" lon="9.922066982835531">
        <ele>5.91</ele>
        <time>2017-06-17T07:33:35Z</time>
      </trkpt>
      <trkpt lat="53.51585797034204" lon="9.921880988404155">
        <ele>5.91</ele>
        <time>2017-06-17T07:33:36Z</time>
      </trkpt>
      <trkpt lat="53.515896024182439" lon="9.921705974265933">
        <ele>5.91</ele>
        <time>2017-06-17T07:33:37Z</time>
      </trkpt>
      <trkpt lat="53.515956038609147" lon="9.921550992876291">
        <ele>6.39</ele>
        <time>2017-06-17T07:33:38Z</time>
      </trkpt>
      <trkpt lat="53.516039019450545" lon="9.921429036185145">
        <ele>6.39</ele>
        <time>2017-06-17T07:33:39Z</time>
      </trkpt>
      <trkpt lat="53.516127029433846" lon="9.921338008716703">
        <ele>6.39</ele>
        <time>2017-06-17T07:33:40Z</time>
      </trkpt>
      <trkpt lat="53.516212021932006" lon="9.921269025653601">
        <ele>6.87</ele>
        <time>2017-06-17T07:33:41Z</time>
      </trkpt>
      <trkpt lat="53.516298020258546" lon="9.921206999570131">
        <ele>7.35</ele>
        <time>2017-06-17T07:33:42Z</time>
      </trkpt>
      <trkpt lat="53.517043003812432" lon="9.920873986557126">
        <ele>10.710000000000001</ele>
        <time>2017-06-17T07:33:49Z</time>
      </trkpt>
      <trkpt lat="53.517164038494229" lon="9.920867029577494">
        <ele>10.710000000000001</ele>
        <time>2017-06-17T07:33:50Z</time>
      </trkpt>
      <trkpt lat="53.517290018498898" lon="9.920882033184171">
        <ele>10.710000000000001</ele>
        <time>2017-06-17T07:33:51Z</time>
      </trkpt>
      <trkpt lat="53.517422033473849" lon="9.920934000983834">
        <ele>10.710000000000001</ele>
        <time>2017-06-17T07:33:52Z</time>
      </trkpt>
      <trkpt lat="53.51755497045815" lon="9.921019999310374">
        <ele>10.710000000000001</ele>
        <time>2017-06-17T07:33:53Z</time>
      </trkpt>
      <trkpt lat="53.517676005139947" lon="9.921143967658281">
        <ele>10.23</ele>
        <time>2017-06-17T07:33:54Z</time>
      </trkpt>
      <trkpt lat="53.517797039821744" lon="9.921283023431897">
        <ele>10.710000000000001</ele>
        <time>2017-06-17T07:33:55Z</time>
      </trkpt>
      <trkpt lat="53.517914973199368" lon="9.921436998993158">
        <ele>10.710000000000001</ele>
        <time>2017-06-17T07:33:56Z</time>
      </trkpt>
      <trkpt lat="53.519312990829349" lon="9.923210022971034">
        <ele>11.19</ele>
        <time>2017-06-17T07:34:06Z</time>
      </trkpt>
      <trkpt lat="53.521643998101354" lon="9.926203032955527">
        <ele>11.19</ele>
        <time>2017-06-17T07:34:21Z</time>
      </trkpt>
      <trkpt lat="53.523669987916946" lon="9.928764039650559">
        <ele>10.710000000000001</ele>
        <time>2017-06-17T07:34:34Z</time>
      </trkpt>
      <trkpt lat="53.52642897516489" lon="9.931884035468102">
        <ele>9.27</ele>
        <time>2017-06-17T07:34:51Z</time>
      </trkpt>
      <trkpt lat="53.528358992189169" lon="9.933337038382888">
        <ele>7.83</ele>
        <time>2017-06-17T07:35:03Z</time>
      </trkpt>
      <trkpt lat="53.530001007020473" lon="9.934005998075008">
        <ele>7.35</ele>
        <time>2017-06-17T07:35:14Z</time>
      </trkpt>
      <trkpt lat="53.53136801160872" lon="9.934072969481349">
        <ele>6.87</ele>
        <time>2017-06-17T07:35:22Z</time>
      </trkpt>
      <trkpt lat="53.533098958432674" lon="9.933624034747481">
        <ele>3.98</ele>
        <time>2017-06-17T07:35:32Z</time>
      </trkpt>
      <trkpt lat="53.534778021275997" lon="9.932456016540527">
        <ele>1.58</ele>
        <time>2017-06-17T07:35:43Z</time>
      </trkpt>
      <trkpt lat="53.536401009187102" lon="9.930299017578363">
        <ele>-5.15</ele>
        <time>2017-06-17T07:35:56Z</time>
      </trkpt>
      <trkpt lat="53.554360996931791" lon="9.897381020709872">
        <ele>26.57</ele>
        <time>2017-06-17T07:38:44Z</time>
      </trkpt>
      <trkpt lat="53.555608978495002" lon="9.897542037069798">
        <ele>14.56</ele>
        <time>2017-06-17T07:38:52Z</time>
      </trkpt>
      <trkpt lat="53.55760102160275" lon="9.897902039811015">
        <ele>9.75</ele>
        <time>2017-06-17T07:39:02Z</time>
      </trkpt>
      <trkpt lat="53.559823986142874" lon="9.898338988423348">
        <ele>12.630000000000001</ele>
        <time>2017-06-17T07:39:12Z</time>
      </trkpt>
      <trkpt lat="53.563564997166395" lon="9.899314977228642">
        <ele>16.960000000000001</ele>
        <time>2017-06-17T07:39:27Z</time>
      </trkpt>
      <trkpt lat="53.565083965659142" lon="9.89986902102828">
        <ele>18.879999999999999</ele>
        <time>2017-06-17T07:39:33Z</time>
      </trkpt>
      <trkpt lat="53.565340032801032" lon="9.900005981326103">
        <ele>18.399999999999999</ele>
        <time>2017-06-17T07:39:34Z</time>
      </trkpt>
      <trkpt lat="53.567992988973856" lon="9.90117802284658">
        <ele>23.210000000000001</ele>
        <time>2017-06-17T07:39:44Z</time>
      </trkpt>
      <trkpt lat="53.570798998698592" lon="9.902822971343994">
        <ele>29.940000000000001</ele>
        <time>2017-06-17T07:39:55Z</time>
      </trkpt>
      <trkpt lat="53.573052976280451" lon="9.904460962861776">
        <ele>34.740000000000002</ele>
        <time>2017-06-17T07:40:06Z</time>
      </trkpt>
      <trkpt lat="53.574626008048654" lon="9.906125022098422">
        <ele>35.710000000000001</ele>
        <time>2017-06-17T07:40:16Z</time>
      </trkpt>
      <trkpt lat="53.576034000143409" lon="9.908432979136705">
        <ele>34.259999999999998</ele>
        <time>2017-06-17T07:40:26Z</time>
      </trkpt>
      <trkpt lat="53.57745498418808" lon="9.911401011049748">
        <ele>32.82</ele>
        <time>2017-06-17T07:40:38Z</time>
      </trkpt>
      <trkpt lat="53.578719981014729" lon="9.913394981995225">
        <ele>32.340000000000003</ele>
        <time>2017-06-17T07:40:49Z</time>
      </trkpt>
      <trkpt lat="53.579971985891461" lon="9.914704989641905">
        <ele>31.379999999999999</ele>
        <time>2017-06-17T07:40:58Z</time>
      </trkpt>
      <trkpt lat="53.581698993220925" lon="9.915826991200447">
        <ele>29.460000000000001</ele>
        <time>2017-06-17T07:41:09Z</time>
      </trkpt>
      <trkpt lat="53.583507975563407" lon="9.916308028623462">
        <ele>28.02</ele>
        <time>2017-06-17T07:41:20Z</time>
      </trkpt>
      <trkpt lat="53.585522985085845" lon="9.916148018091917">
        <ele>27.050000000000001</ele>
        <time>2017-06-17T07:41:32Z</time>
      </trkpt>
      <trkpt lat="53.587885005399585" lon="9.915885999798775">
        <ele>28.5</ele>
        <time>2017-06-17T07:41:46Z</time>
      </trkpt>
      <trkpt lat="53.58939902856946" lon="9.916467033326626">
        <ele>28.98</ele>
        <time>2017-06-17T07:41:55Z</time>
      </trkpt>
      <trkpt lat="53.590764021500945" lon="9.917795984074473">
        <ele>27.530000000000001</ele>
        <time>2017-06-17T07:42:04Z</time>
      </trkpt>
      <trkpt lat="53.591825002804399" lon="9.9194420222193">
        <ele>24.649999999999999</ele>
        <time>2017-06-17T07:42:12Z</time>
      </trkpt>
      <trkpt lat="53.593005007132888" lon="9.920958979055286">
        <ele>21.289999999999999</ele>
        <time>2017-06-17T07:42:21Z</time>
      </trkpt>
      <trkpt lat="53.594883978366852" lon="9.922853037714958">
        <ele>13.6</ele>
        <time>2017-06-17T07:42:35Z</time>
      </trkpt>
      <trkpt lat="53.596357014030218" lon="9.923360981047154">
        <ele>10.710000000000001</ele>
        <time>2017-06-17T07:42:45Z</time>
      </trkpt>
      <trkpt lat="53.59784597530961" lon="9.923270959407091">
        <ele>10.23</ele>
        <time>2017-06-17T07:42:56Z</time>
      </trkpt>
      <trkpt lat="53.60009903088212" lon="9.922660002484918">
        <ele>13.6</ele>
        <time>2017-06-17T07:43:11Z</time>
      </trkpt>
      <trkpt lat="53.602897999808192" lon="9.921241030097008">
        <ele>12.630000000000001</ele>
        <time>2017-06-17T07:43:29Z</time>
      </trkpt>
      <trkpt lat="53.605500999838114" lon="9.919456019997597">
        <ele>10.23</ele>
        <time>2017-06-17T07:43:46Z</time>
      </trkpt>
      <trkpt lat="53.607187019661069" lon="9.9187530297786">
        <ele>9.27</ele>
        <time>2017-06-17T07:43:56Z</time>
      </trkpt>
      <trkpt lat="53.608784023672342" lon="9.918134026229382">
        <ele>8.310000000000001</ele>
        <time>2017-06-17T07:44:06Z</time>
      </trkpt>
      <trkpt lat="53.61090799793601" lon="9.917002972215414">
        <ele>8.789999999999999</ele>
        <time>2017-06-17T07:44:19Z</time>
      </trkpt>
      <trkpt lat="53.61266802996397" lon="9.91566002368927">
        <ele>9.27</ele>
        <time>2017-06-17T07:44:31Z</time>
      </trkpt>
      <trkpt lat="53.614648003131151" lon="9.914047010242939">
        <ele>16.48</ele>
        <time>2017-06-17T07:44:44Z</time>
      </trkpt>
      <trkpt lat="53.616728978231549" lon="9.9128039740026">
        <ele>18.879999999999999</ele>
        <time>2017-06-17T07:44:57Z</time>
      </trkpt>
      <trkpt lat="53.618355989456177" lon="9.912828030064702">
        <ele>16.48</ele>
        <time>2017-06-17T07:45:06Z</time>
      </trkpt>
      <trkpt lat="53.61982399597764" lon="9.913699999451637">
        <ele>14.56</ele>
        <time>2017-06-17T07:45:15Z</time>
      </trkpt>
      <trkpt lat="53.621309017762542" lon="9.915300020948052">
        <ele>14.08</ele>
        <time>2017-06-17T07:45:26Z</time>
      </trkpt>
      <trkpt lat="53.622751040384173" lon="9.9171850271523">
        <ele>13.6</ele>
        <time>2017-06-17T07:45:37Z</time>
      </trkpt>
      <trkpt lat="53.624346032738686" lon="9.919031979516149">
        <ele>11.67</ele>
        <time>2017-06-17T07:45:49Z</time>
      </trkpt>
      <trkpt lat="53.626114027574658" lon="9.920604005455971">
        <ele>10.23</ele>
        <time>2017-06-17T07:46:01Z</time>
      </trkpt>
      <trkpt lat="53.627550015226007" lon="9.921517968177795">
        <ele>9.75</ele>
        <time>2017-06-17T07:46:12Z</time>
      </trkpt>
      <trkpt lat="53.628304973244667" lon="9.921929016709328">
        <ele>9.27</ele>
        <time>2017-06-17T07:46:18Z</time>
      </trkpt>
      <trkpt lat="53.62949201837182" lon="9.922440983355045">
        <ele>10.710000000000001</ele>
        <time>2017-06-17T07:46:28Z</time>
      </trkpt>
      <trkpt lat="53.630927000194788" lon="9.922905005514622">
        <ele>11.19</ele>
        <time>2017-06-17T07:46:38Z</time>
      </trkpt>
      <trkpt lat="53.632612014189363" lon="9.923409009352326">
        <ele>12.15</ele>
        <time>2017-06-17T07:46:49Z</time>
      </trkpt>
      <trkpt lat="53.634954001754522" lon="9.924174025654793">
        <ele>11.67</ele>
        <time>2017-06-17T07:47:03Z</time>
      </trkpt>
      <trkpt lat="53.637529006227851" lon="9.925539018586278">
        <ele>10.710000000000001</ele>
        <time>2017-06-17T07:47:18Z</time>
      </trkpt>
      <trkpt lat="53.639770997688174" lon="9.927207017317414">
        <ele>14.08</ele>
        <time>2017-06-17T07:47:31Z</time>
      </trkpt>
      <trkpt lat="53.641978958621621" lon="9.928815001621842">
        <ele>16.48</ele>
        <time>2017-06-17T07:47:43Z</time>
      </trkpt>
      <trkpt lat="53.64433603361249" lon="9.93003498762846">
        <ele>18.399999999999999</ele>
        <time>2017-06-17T07:47:57Z</time>
      </trkpt>
      <trkpt lat="53.647051015868783" lon="9.9306580144912">
        <ele>16.960000000000001</ele>
        <time>2017-06-17T07:48:13Z</time>
      </trkpt>
      <trkpt lat="53.649773960933089" lon="9.930704031139612">
        <ele>12.15</ele>
        <time>2017-06-17T07:48:29Z</time>
      </trkpt>
      <trkpt lat="53.652534037828445" lon="9.930912991985679">
        <ele>9.27</ele>
        <time>2017-06-17T07:48:44Z</time>
      </trkpt>
      <trkpt lat="53.654772005975246" lon="9.93138799443841">
        <ele>8.310000000000001</ele>
        <time>2017-06-17T07:48:54Z</time>
      </trkpt>
      <trkpt lat="53.657769039273262" lon="9.932390972971916">
        <ele>7.83</ele>
        <time>2017-06-17T07:49:07Z</time>
      </trkpt>
      <trkpt lat="53.660809993743896" lon="9.933887980878353">
        <ele>7.83</ele>
        <time>2017-06-17T07:49:21Z</time>
      </trkpt>
      <trkpt lat="53.664245987311006" lon="9.936131983995438">
        <ele>7.35</ele>
        <time>2017-06-17T07:49:37Z</time>
      </trkpt>
      <trkpt lat="53.66769396699965" lon="9.938576985150576">
        <ele>8.310000000000001</ele>
        <time>2017-06-17T07:49:53Z</time>
      </trkpt>
      <trkpt lat="53.670583041384816" lon="9.940504990518093">
        <ele>9.27</ele>
        <time>2017-06-17T07:50:06Z</time>
      </trkpt>
      <trkpt lat="53.673439007252455" lon="9.942099982872605">
        <ele>11.19</ele>
        <time>2017-06-17T07:50:21Z</time>
      </trkpt>
      <trkpt lat="53.676849016919732" lon="9.943662034347653">
        <ele>13.119999999999999</ele>
        <time>2017-06-17T07:50:38Z</time>
      </trkpt>
      <trkpt lat="53.679209025576711" lon="9.944483041763306">
        <ele>13.119999999999999</ele>
        <time>2017-06-17T07:50:50Z</time>
      </trkpt>
      <trkpt lat="53.682162975892425" lon="9.945279993116856">
        <ele>13.119999999999999</ele>
        <time>2017-06-17T07:51:05Z</time>
      </trkpt>
      <trkpt lat="53.685079040005803" lon="9.945768993347883">
        <ele>14.08</ele>
        <time>2017-06-17T07:51:20Z</time>
      </trkpt>
      <trkpt lat="53.688688036054373" lon="9.946036040782929">
        <ele>15.52</ele>
        <time>2017-06-17T07:51:38Z</time>
      </trkpt>
      <trkpt lat="53.691331017762423" lon="9.945917017757893">
        <ele>15.039999999999999</ele>
        <time>2017-06-17T07:51:51Z</time>
      </trkpt>
      <trkpt lat="53.695831010118127" lon="9.945189971476793">
        <ele>15.039999999999999</ele>
        <time>2017-06-17T07:52:13Z</time>
      </trkpt>
      <trkpt lat="53.699041027575731" lon="9.944239966571331">
        <ele>15.039999999999999</ele>
        <time>2017-06-17T07:52:29Z</time>
      </trkpt>
      <trkpt lat="53.702518008649349" lon="9.942921996116638">
        <ele>15.039999999999999</ele>
        <time>2017-06-17T07:52:46Z</time>
      </trkpt>
      <trkpt lat="53.705337010324001" lon="9.941775016486645">
        <ele>15.52</ele>
        <time>2017-06-17T07:53:00Z</time>
      </trkpt>
      <trkpt lat="53.709671040996909" lon="9.940183963626623">
        <ele>16.960000000000001</ele>
        <time>2017-06-17T07:53:20Z</time>
      </trkpt>
      <trkpt lat="53.713999036699533" lon="9.93914402090013">
        <ele>18.399999999999999</ele>
        <time>2017-06-17T07:53:40Z</time>
      </trkpt>
      <trkpt lat="53.717305026948452" lon="9.938904969021678">
        <ele>19.359999999999999</ele>
        <time>2017-06-17T07:53:55Z</time>
      </trkpt>
      <trkpt lat="53.720586039125919" lon="9.938975963741541">
        <ele>20.32</ele>
        <time>2017-06-17T07:54:10Z</time>
      </trkpt>
      <trkpt lat="53.723762026056647" lon="9.939484996721149">
        <ele>20.809999999999999</ele>
        <time>2017-06-17T07:54:25Z</time>
      </trkpt>
      <trkpt lat="53.727580988779664" lon="9.940603980794549">
        <ele>21.289999999999999</ele>
        <time>2017-06-17T07:54:44Z</time>
      </trkpt>
      <trkpt lat="53.730337964370847" lon="9.941709972918034">
        <ele>21.289999999999999</ele>
        <time>2017-06-17T07:54:59Z</time>
      </trkpt>
      <trkpt lat="53.73485597781837" lon="9.943836964666843">
        <ele>20.32</ele>
        <time>2017-06-17T07:55:24Z</time>
      </trkpt>
      <trkpt lat="53.737802971154451" lon="9.945292985066772">
        <ele>20.809999999999999</ele>
        <time>2017-06-17T07:55:41Z</time>
      </trkpt>
      <trkpt lat="53.740629013627768" lon="9.94664398021996">
        <ele>21.77</ele>
        <time>2017-06-17T07:55:57Z</time>
      </trkpt>
      <trkpt lat="53.744336999952793" lon="9.948179963976145">
        <ele>23.210000000000001</ele>
        <time>2017-06-17T07:56:18Z</time>
      </trkpt>
      <trkpt lat="53.7471669819206" lon="9.949074983596802">
        <ele>24.649999999999999</ele>
        <time>2017-06-17T07:56:32Z</time>
      </trkpt>
      <trkpt lat="53.75047498382628" lon="9.949804963544011">
        <ele>27.050000000000001</ele>
        <time>2017-06-17T07:56:48Z</time>
      </trkpt>
      <trkpt lat="53.754899958148599" lon="9.950116015970707">
        <ele>33.780000000000001</ele>
        <time>2017-06-17T07:57:10Z</time>
      </trkpt>
      <trkpt lat="53.757732035592198" lon="9.949962962418795">
        <ele>35.710000000000001</ele>
        <time>2017-06-17T07:57:24Z</time>
      </trkpt>
      <trkpt lat="53.76100298948586" lon="9.949444038793445">
        <ele>32.82</ele>
        <time>2017-06-17T07:57:40Z</time>
      </trkpt>
      <trkpt lat="53.764244019985199" lon="9.948587995022535">
        <ele>27.050000000000001</ele>
        <time>2017-06-17T07:57:56Z</time>
      </trkpt>
      <trkpt lat="53.768547037616372" lon="9.946999959647656">
        <ele>21.289999999999999</ele>
        <time>2017-06-17T07:58:18Z</time>
      </trkpt>
      <trkpt lat="53.771682037040591" lon="9.945624992251396">
        <ele>20.32</ele>
        <time>2017-06-17T07:58:34Z</time>
      </trkpt>
      <trkpt lat="53.773608030751348" lon="9.944713041186333">
        <ele>21.289999999999999</ele>
        <time>2017-06-17T07:58:42Z</time>
      </trkpt>
      <trkpt lat="53.777122981846333" lon="9.943114025518298">
        <ele>22.73</ele>
        <time>2017-06-17T07:58:54Z</time>
      </trkpt>
      <trkpt lat="53.781558014452457" lon="9.940968006849289">
        <ele>19.84</ele>
        <time>2017-06-17T07:59:08Z</time>
      </trkpt>
      <trkpt lat="53.785396004095674" lon="9.939093980938196">
        <ele>17.920000000000002</ele>
        <time>2017-06-17T07:59:21Z</time>
      </trkpt>
      <trkpt lat="53.7897929828614" lon="9.936789963394404">
        <ele>19.359999999999999</ele>
        <time>2017-06-17T07:59:37Z</time>
      </trkpt>
      <trkpt lat="53.793507004156709" lon="9.934821976348758">
        <ele>22.73</ele>
        <time>2017-06-17T07:59:51Z</time>
      </trkpt>
      <trkpt lat="53.797369971871376" lon="9.932621978223324">
        <ele>24.649999999999999</ele>
        <time>2017-06-17T08:00:06Z</time>
      </trkpt>
      <trkpt lat="53.800574960187078" lon="9.930837973952293">
        <ele>25.609999999999999</ele>
        <time>2017-06-17T08:00:19Z</time>
      </trkpt>
      <trkpt lat="53.802007008343935" lon="9.930161973461509">
        <ele>25.129999999999999</ele>
        <time>2017-06-17T08:00:26Z</time>
      </trkpt>
      <trkpt lat="53.802186967805028" lon="9.930144036188722">
        <ele>25.129999999999999</ele>
        <time>2017-06-17T08:00:27Z</time>
      </trkpt>
      <trkpt lat="53.802367011085153" lon="9.930164990946651">
        <ele>25.129999999999999</ele>
        <time>2017-06-17T08:00:28Z</time>
      </trkpt>
      <trkpt lat="53.802547976374626" lon="9.930225005373359">
        <ele>25.129999999999999</ele>
        <time>2017-06-17T08:00:29Z</time>
      </trkpt>
      <trkpt lat="53.802720978856087" lon="9.930325001478195">
        <ele>25.609999999999999</ele>
        <time>2017-06-17T08:00:30Z</time>
      </trkpt>
      <trkpt lat="53.802881995216012" lon="9.930459028109908">
        <ele>26.09</ele>
        <time>2017-06-17T08:00:31Z</time>
      </trkpt>
      <trkpt lat="53.803029013797641" lon="9.930603029206395">
        <ele>27.050000000000001</ele>
        <time>2017-06-17T08:00:32Z</time>
      </trkpt>
      <trkpt lat="53.803310981020331" lon="9.930867981165648">
        <ele>28.5</ele>
        <time>2017-06-17T08:00:34Z</time>
      </trkpt>
      <trkpt lat="53.803449030965567" lon="9.930950962007046">
        <ele>28.98</ele>
        <time>2017-06-17T08:00:35Z</time>
      </trkpt>
      <trkpt lat="53.803584985435009" lon="9.930979963392019">
        <ele>29.460000000000001</ele>
        <time>2017-06-17T08:00:36Z</time>
      </trkpt>
      <trkpt lat="53.803712977096438" lon="9.930966971442103">
        <ele>29.940000000000001</ele>
        <time>2017-06-17T08:00:37Z</time>
      </trkpt>
      <trkpt lat="53.804020006209612" lon="9.930907040834427">
        <ele>31.379999999999999</ele>
        <time>2017-06-17T08:00:40Z</time>
      </trkpt>
      <trkpt lat="53.804088989272714" lon="9.930932018905878">
        <ele>31.379999999999999</ele>
        <time>2017-06-17T08:00:41Z</time>
      </trkpt>
      <trkpt lat="53.804142968729138" lon="9.930992033332586">
        <ele>31.379999999999999</ele>
        <time>2017-06-17T08:00:42Z</time>
      </trkpt>
      <trkpt lat="53.804185967892408" lon="9.931096974760294">
        <ele>30.899999999999999</ele>
        <time>2017-06-17T08:00:43Z</time>
      </trkpt>
      <trkpt lat="53.804214969277382" lon="9.931248016655445">
        <ele>30.899999999999999</ele>
        <time>2017-06-17T08:00:44Z</time>
      </trkpt>
      <trkpt lat="53.804233996197581" lon="9.931438034400344">
        <ele>30.899999999999999</ele>
        <time>2017-06-17T08:00:45Z</time>
      </trkpt>
      <trkpt lat="53.8042520172894" lon="9.931648001074791">
        <ele>31.379999999999999</ele>
        <time>2017-06-17T08:00:46Z</time>
      </trkpt>
      <trkpt lat="53.804470030590892" lon="9.933564020320773">
        <ele>31.859999999999999</ele>
        <time>2017-06-17T08:00:53Z</time>
      </trkpt>
      <trkpt lat="53.805063972249627" lon="9.937157006934285">
        <ele>31.379999999999999</ele>
        <time>2017-06-17T08:01:04Z</time>
      </trkpt>
      <trkpt lat="53.805387010797858" lon="9.938663989305496">
        <ele>31.379999999999999</ele>
        <time>2017-06-17T08:01:10Z</time>
      </trkpt>
      <trkpt lat="53.805542998015881" lon="9.939379971474409">
        <ele>31.859999999999999</ele>
        <time>2017-06-17T08:01:14Z</time>
      </trkpt>
      <trkpt lat="53.805549032986164" lon="9.93953101336956">
        <ele>31.859999999999999</ele>
        <time>2017-06-17T08:01:15Z</time>
      </trkpt>
      <trkpt lat="53.805523971095681" lon="9.939664034172893">
        <ele>31.859999999999999</ele>
        <time>2017-06-17T08:01:16Z</time>
      </trkpt>
      <trkpt lat="53.80547602660954" lon="9.939782973378897">
        <ele>31.859999999999999</ele>
        <time>2017-06-17T08:01:17Z</time>
      </trkpt>
      <trkpt lat="53.805409977212548" lon="9.93987400084734">
        <ele>32.340000000000003</ele>
        <time>2017-06-17T08:01:18Z</time>
      </trkpt>
      <trkpt lat="53.805330013856292" lon="9.939942983910441">
        <ele>32.340000000000003</ele>
        <time>2017-06-17T08:01:19Z</time>
      </trkpt>
      <trkpt lat="53.805235968902707" lon="9.940005009993911">
        <ele>32.340000000000003</ele>
        <time>2017-06-17T08:01:20Z</time>
      </trkpt>
      <trkpt lat="53.80513203330338" lon="9.940062006935477">
        <ele>32.82</ele>
        <time>2017-06-17T08:01:21Z</time>
      </trkpt>
      <trkpt lat="53.804143974557519" lon="9.9406479857862">
        <ele>34.259999999999998</ele>
        <time>2017-06-17T08:01:30Z</time>
      </trkpt>
      <trkpt lat="53.803938031196594" lon="9.940770026296377">
        <ele>34.259999999999998</ele>
        <time>2017-06-17T08:01:33Z</time>
      </trkpt>
      <trkpt lat="53.803881034255028" lon="9.940773965790868">
        <ele>34.259999999999998</ele>
        <time>2017-06-17T08:01:34Z</time>
      </trkpt>
      <trkpt lat="53.803828982636333" lon="9.940743036568165">
        <ele>34.259999999999998</ele>
        <time>2017-06-17T08:01:35Z</time>
      </trkpt>
      <trkpt lat="53.803776009008288" lon="9.940683022141457">
        <ele>34.259999999999998</ele>
        <time>2017-06-17T08:01:36Z</time>
      </trkpt>
      <trkpt lat="53.803726974874735" lon="9.94060498662293">
        <ele>34.259999999999998</ele>
        <time>2017-06-17T08:01:37Z</time>
      </trkpt>
      <trkpt lat="53.803691016510129" lon="9.940517982468009">
        <ele>34.259999999999998</ele>
        <time>2017-06-17T08:01:38Z</time>
      </trkpt>
      <trkpt lat="53.803657991811633" lon="9.94043298996985">
        <ele>34.740000000000002</ele>
        <time>2017-06-17T08:01:39Z</time>
      </trkpt>
      <trkpt lat="53.803627984598279" lon="9.940330982208252">
        <ele>34.740000000000002</ele>
        <time>2017-06-17T08:01:40Z</time>
      </trkpt>
      <trkpt lat="53.803603006526828" lon="9.94021899998188">
        <ele>34.740000000000002</ele>
        <time>2017-06-17T08:01:41Z</time>
      </trkpt>
      <trkpt lat="53.803581967949867" lon="9.940104000270367">
        <ele>34.259999999999998</ele>
        <time>2017-06-17T08:01:42Z</time>
      </trkpt>
      <trkpt lat="53.803571993485093" lon="9.939995035529137">
        <ele>33.780000000000001</ele>
        <time>2017-06-17T08:01:43Z</time>
      </trkpt>
      <trkpt lat="53.803580962121487" lon="9.939877018332481">
        <ele>33.780000000000001</ele>
        <time>2017-06-17T08:01:44Z</time>
      </trkpt>
      <trkpt lat="53.803612980991602" lon="9.939774004742503">
        <ele>33.299999999999997</ele>
        <time>2017-06-17T08:01:45Z</time>
      </trkpt>
      <trkpt lat="53.803656985983253" lon="9.939699992537499">
        <ele>33.780000000000001</ele>
        <time>2017-06-17T08:01:46Z</time>
      </trkpt>
      <trkpt lat="53.803748013451695" lon="9.939612988382578">
        <ele>33.780000000000001</ele>
        <time>2017-06-17T08:01:48Z</time>
      </trkpt>
      <trkpt lat="53.803911963477731" lon="9.939403021708131">
        <ele>33.299999999999997</ele>
        <time>2017-06-17T08:01:57Z</time>
      </trkpt>
      <trkpt lat="53.803916992619634" lon="9.939407967031002">
        <ele>32.82</ele>
        <time>2017-06-17T08:03:06Z</time>
      </trkpt>
      <trkpt lat="53.803944988176227" lon="9.939398998394609">
        <ele>33.780000000000001</ele>
        <time>2017-06-17T08:03:44Z</time>
      </trkpt>
      <trkpt lat="53.803976001217961" lon="9.939421964809299">
        <ele>22.73</ele>
        <time>2017-06-17T08:08:52Z</time>
      </trkpt>
      <trkpt lat="53.80403601564467" lon="9.93935901671648">
        <ele>32.340000000000003</ele>
        <time>2017-06-17T08:10:22Z</time>
      </trkpt>
      <trkpt lat="53.804030986502767" lon="9.9393580108881">
        <ele>33.299999999999997</ele>
        <time>2017-06-17T08:11:54Z</time>
      </trkpt>
      <trkpt lat="53.804034003987908" lon="9.9393580108881">
        <ele>33.780000000000001</ele>
        <time>2017-06-17T08:13:11Z</time>
      </trkpt>
      <trkpt lat="53.804038027301431" lon="9.939362034201622">
        <ele>33.780000000000001</ele>
        <time>2017-06-17T08:14:35Z</time>
      </trkpt>
      <trkpt lat="53.804040960967541" lon="9.939354993402958">
        <ele>33.780000000000001</ele>
        <time>2017-06-17T08:15:00Z</time>
      </trkpt>
      <trkpt lat="53.803991004824638" lon="9.939198000356555">
        <ele>34.740000000000002</ele>
        <time>2017-06-17T08:15:05Z</time>
      </trkpt>
      <trkpt lat="53.803894026204944" lon="9.939289027824998">
        <ele>32.82</ele>
        <time>2017-06-17T08:15:08Z</time>
      </trkpt>
      <trkpt lat="53.803782965987921" lon="9.93955004028976">
        <ele>31.859999999999999</ele>
        <time>2017-06-17T08:15:11Z</time>
      </trkpt>
      <trkpt lat="53.803656985983253" lon="9.93993703275919">
        <ele>32.82</ele>
        <time>2017-06-17T08:15:15Z</time>
      </trkpt>
      <trkpt lat="53.803664026781917" lon="9.940048009157181">
        <ele>33.299999999999997</ele>
        <time>2017-06-17T08:15:16Z</time>
      </trkpt>
      <trkpt lat="53.803675007075071" lon="9.940162003040314">
        <ele>33.299999999999997</ele>
        <time>2017-06-17T08:15:17Z</time>
      </trkpt>
      <trkpt lat="53.803793024271727" lon="9.940743958577514">
        <ele>33.780000000000001</ele>
        <time>2017-06-17T08:15:23Z</time>
      </trkpt>
      <trkpt lat="53.803815990686417" lon="9.940810007974505">
        <ele>33.780000000000001</ele>
        <time>2017-06-17T08:15:24Z</time>
      </trkpt>
      <trkpt lat="53.803845997899771" lon="9.940850995481014">
        <ele>33.780000000000001</ele>
        <time>2017-06-17T08:15:25Z</time>
      </trkpt>
      <trkpt lat="53.80388799123466" lon="9.94086398743093">
        <ele>33.780000000000001</ele>
        <time>2017-06-17T08:15:26Z</time>
      </trkpt>
      <trkpt lat="53.80395102314651" lon="9.940846972167492">
        <ele>33.780000000000001</ele>
        <time>2017-06-17T08:15:27Z</time>
      </trkpt>
      <trkpt lat="53.804027969017625" lon="9.940811013802886">
        <ele>33.780000000000001</ele>
        <time>2017-06-17T08:15:28Z</time>
      </trkpt>
      <trkpt lat="53.804116984829307" lon="9.9407550226897">
        <ele>33.780000000000001</ele>
        <time>2017-06-17T08:15:29Z</time>
      </trkpt>
      <trkpt lat="53.805228006094694" lon="9.940020013600588">
        <ele>33.299999999999997</ele>
        <time>2017-06-17T08:15:39Z</time>
      </trkpt>
      <trkpt lat="53.805573005229235" lon="9.939799988642335">
        <ele>33.299999999999997</ele>
        <time>2017-06-17T08:15:45Z</time>
      </trkpt>
      <trkpt lat="53.805635031312704" lon="9.93972203694284">
        <ele>32.82</ele>
        <time>2017-06-17T08:15:51Z</time>
      </trkpt>
      <trkpt lat="53.805671995505691" lon="9.939664034172893">
        <ele>32.340000000000003</ele>
        <time>2017-06-17T08:15:52Z</time>
      </trkpt>
      <trkpt lat="53.805694961920381" lon="9.939578035846353">
        <ele>31.859999999999999</ele>
        <time>2017-06-17T08:15:53Z</time>
      </trkpt>
      <trkpt lat="53.805698985233903" lon="9.939464963972569">
        <ele>32.340000000000003</ele>
        <time>2017-06-17T08:15:54Z</time>
      </trkpt>
      <trkpt lat="53.805679958313704" lon="9.939334038645029">
        <ele>31.379999999999999</ele>
        <time>2017-06-17T08:15:55Z</time>
      </trkpt>
      <trkpt lat="53.805645005777478" lon="9.939190959557891">
        <ele>31.379999999999999</ele>
        <time>2017-06-17T08:15:56Z</time>
      </trkpt>
      <trkpt lat="53.805602006614208" lon="9.939038995653391">
        <ele>31.379999999999999</ele>
        <time>2017-06-17T08:15:57Z</time>
      </trkpt>
      <trkpt lat="53.805215014144778" lon="9.937636032700539">
        <ele>29.940000000000001</ele>
        <time>2017-06-17T08:16:04Z</time>
      </trkpt>
      <trkpt lat="53.804625011980534" lon="9.934689039364457">
        <ele>29.940000000000001</ele>
        <time>2017-06-17T08:16:15Z</time>
      </trkpt>
      <trkpt lat="53.804237013682723" lon="9.931770041584969">
        <ele>31.859999999999999</ele>
        <time>2017-06-17T08:16:25Z</time>
      </trkpt>
      <trkpt lat="53.804112961515784" lon="9.930814001709223">
        <ele>32.340000000000003</ele>
        <time>2017-06-17T08:16:30Z</time>
      </trkpt>
      <trkpt lat="53.804072979837656" lon="9.93072297424078">
        <ele>32.340000000000003</ele>
        <time>2017-06-17T08:16:31Z</time>
      </trkpt>
      <trkpt lat="53.804021012037992" lon="9.930690033361316">
        <ele>31.859999999999999</ele>
        <time>2017-06-17T08:16:32Z</time>
      </trkpt>
      <trkpt lat="53.803948005661368" lon="9.930693972855806">
        <ele>31.859999999999999</ele>
        <time>2017-06-17T08:16:33Z</time>
      </trkpt>
      <trkpt lat="53.803857984021306" lon="9.930735966190696">
        <ele>31.379999999999999</ele>
        <time>2017-06-17T08:16:34Z</time>
      </trkpt>
      <trkpt lat="53.803748013451695" lon="9.93078701198101">
        <ele>30.899999999999999</ele>
        <time>2017-06-17T08:16:35Z</time>
      </trkpt>
      <trkpt lat="53.803622033447027" lon="9.9308290053159">
        <ele>30.420000000000002</ele>
        <time>2017-06-17T08:16:36Z</time>
      </trkpt>
      <trkpt lat="53.803489012643695" lon="9.930846020579338">
        <ele>29.940000000000001</ele>
        <time>2017-06-17T08:16:37Z</time>
      </trkpt>
      <trkpt lat="53.803359009325504" lon="9.930817019194365">
        <ele>28.98</ele>
        <time>2017-06-17T08:16:38Z</time>
      </trkpt>
      <trkpt lat="53.803246021270752" lon="9.930740995332599">
        <ele>28.5</ele>
        <time>2017-06-17T08:16:39Z</time>
      </trkpt>
      <trkpt lat="53.803154993802309" lon="9.930618032813072">
        <ele>27.050000000000001</ele>
        <time>2017-06-17T08:16:40Z</time>
      </trkpt>
      <trkpt lat="53.80309003405273" lon="9.930450981482863">
        <ele>26.09</ele>
        <time>2017-06-17T08:16:41Z</time>
      </trkpt>
      <trkpt lat="53.80305097438395" lon="9.930253000929952">
        <ele>25.609999999999999</ele>
        <time>2017-06-17T08:16:42Z</time>
      </trkpt>
      <trkpt lat="53.803038988262415" lon="9.930054014548659">
        <ele>25.129999999999999</ele>
        <time>2017-06-17T08:16:43Z</time>
      </trkpt>
      <trkpt lat="53.803060026839375" lon="9.929857039824128">
        <ele>24.649999999999999</ele>
        <time>2017-06-17T08:16:44Z</time>
      </trkpt>
      <trkpt lat="53.80311300046742" lon="9.929667022079229">
        <ele>24.170000000000002</ele>
        <time>2017-06-17T08:16:45Z</time>
      </trkpt>
      <trkpt lat="53.803203022107482" lon="9.929503994062543">
        <ele>24.649999999999999</ele>
        <time>2017-06-17T08:16:46Z</time>
      </trkpt>
      <trkpt lat="53.803320033475757" lon="9.929374996572733">
        <ele>24.649999999999999</ele>
        <time>2017-06-17T08:16:47Z</time>
      </trkpt>
      <trkpt lat="53.803462022915483" lon="9.929270977154374">
        <ele>25.129999999999999</ele>
        <time>2017-06-17T08:16:48Z</time>
      </trkpt>
      <trkpt lat="53.803625972941518" lon="9.929178021848202">
        <ele>24.649999999999999</ele>
        <time>2017-06-17T08:16:49Z</time>
      </trkpt>
      <trkpt lat="53.805024996399879" lon="9.928447036072612">
        <ele>24.170000000000002</ele>
        <time>2017-06-17T08:16:56Z</time>
      </trkpt>
      <trkpt lat="53.807937959209085" lon="9.927044995129108">
        <ele>22.73</ele>
        <time>2017-06-17T08:17:08Z</time>
      </trkpt>
      <trkpt lat="53.811755999922752" lon="9.925494007766247">
        <ele>21.289999999999999</ele>
        <time>2017-06-17T08:17:22Z</time>
      </trkpt>
      <trkpt lat="53.816640973091125" lon="9.924047039821744">
        <ele>22.25</ele>
        <time>2017-06-17T08:17:39Z</time>
      </trkpt>
      <trkpt lat="53.820938961580396" lon="9.923358969390392">
        <ele>26.09</ele>
        <time>2017-06-17T08:17:54Z</time>
      </trkpt>
      <trkpt lat="53.824812993407249" lon="9.923356035724282">
        <ele>28.02</ele>
        <time>2017-06-17T08:18:07Z</time>
      </trkpt>
      <trkpt lat="53.828355018049479" lon="9.923790972679853">
        <ele>28.02</ele>
        <time>2017-06-17T08:18:19Z</time>
      </trkpt>
      <trkpt lat="53.830822985619307" lon="9.924415005370975">
        <ele>26.57</ele>
        <time>2017-06-17T08:18:28Z</time>
      </trkpt>
      <trkpt lat="53.834314970299602" lon="9.925734987482429">
        <ele>24.170000000000002</ele>
        <time>2017-06-17T08:18:42Z</time>
      </trkpt>
      <trkpt lat="53.837942993268371" lon="9.927659975364804">
        <ele>21.77</ele>
        <time>2017-06-17T08:18:56Z</time>
      </trkpt>
      <trkpt lat="53.841137001290917" lon="9.929832983762026">
        <ele>20.809999999999999</ele>
        <time>2017-06-17T08:19:09Z</time>
      </trkpt>
      <trkpt lat="53.842727970331907" lon="9.93108700029552">
        <ele>20.32</ele>
        <time>2017-06-17T08:19:17Z</time>
      </trkpt>
      <trkpt lat="53.844575006514788" lon="9.93261300958693">
        <ele>20.809999999999999</ele>
        <time>2017-06-17T08:19:27Z</time>
      </trkpt>
      <trkpt lat="53.848172016441822" lon="9.935766030102968">
        <ele>19.84</ele>
        <time>2017-06-17T08:19:46Z</time>
      </trkpt>
      <trkpt lat="53.850489025935531" lon="9.93764097802341">
        <ele>20.809999999999999</ele>
        <time>2017-06-17T08:19:58Z</time>
      </trkpt>
      <trkpt lat="53.853674987331033" lon="9.940165020525456">
        <ele>21.77</ele>
        <time>2017-06-17T08:20:15Z</time>
      </trkpt>
      <trkpt lat="53.857087008655071" lon="9.942555036395788">
        <ele>21.289999999999999</ele>
        <time>2017-06-17T08:20:33Z</time>
      </trkpt>
      <trkpt lat="53.859775001183152" lon="9.944111974909902">
        <ele>19.84</ele>
        <time>2017-06-17T08:20:45Z</time>
      </trkpt>
      <trkpt lat="53.863215018063784" lon="9.945650976151228">
        <ele>17.920000000000002</ele>
        <time>2017-06-17T08:21:01Z</time>
      </trkpt>
      <trkpt lat="53.866095962002873" lon="9.946562005206943">
        <ele>16.48</ele>
        <time>2017-06-17T08:21:14Z</time>
      </trkpt>
      <trkpt lat="53.867967976257205" lon="9.94698797352612">
        <ele>15.52</ele>
        <time>2017-06-17T08:21:23Z</time>
      </trkpt>
      <trkpt lat="53.871140023693442" lon="9.947382006794214">
        <ele>15.039999999999999</ele>
        <time>2017-06-17T08:21:38Z</time>
      </trkpt>
      <trkpt lat="53.874560007825494" lon="9.947405979037285">
        <ele>14.56</ele>
        <time>2017-06-17T08:21:55Z</time>
      </trkpt>
      <trkpt lat="53.877568021416664" lon="9.947047987952828">
        <ele>15.52</ele>
        <time>2017-06-17T08:22:10Z</time>
      </trkpt>
      <trkpt lat="53.880593972280622" lon="9.946338040754199">
        <ele>15.52</ele>
        <time>2017-06-17T08:22:25Z</time>
      </trkpt>
      <trkpt lat="53.882322991266847" lon="9.945796988904476">
        <ele>14.56</ele>
        <time>2017-06-17T08:22:35Z</time>
      </trkpt>
      <trkpt lat="53.884688029065728" lon="9.944886965677142">
        <ele>12.630000000000001</ele>
        <time>2017-06-17T08:22:47Z</time>
      </trkpt>
      <trkpt lat="53.887059018015862" lon="9.943839982151985">
        <ele>11.19</ele>
        <time>2017-06-17T08:23:00Z</time>
      </trkpt>
      <trkpt lat="53.88907796703279" lon="9.942897018045187">
        <ele>11.19</ele>
        <time>2017-06-17T08:23:11Z</time>
      </trkpt>
      <trkpt lat="53.891372010111809" lon="9.941793959587812">
        <ele>11.67</ele>
        <time>2017-06-17T08:23:23Z</time>
      </trkpt>
      <trkpt lat="53.893116032704711" lon="9.940959960222244">
        <ele>12.630000000000001</ele>
        <time>2017-06-17T08:23:33Z</time>
      </trkpt>
      <trkpt lat="53.89571500942111" lon="9.939775010570884">
        <ele>13.6</ele>
        <time>2017-06-17T08:23:47Z</time>
      </trkpt>
      <trkpt lat="53.899037009105086" lon="9.938537003472447">
        <ele>15.039999999999999</ele>
        <time>2017-06-17T08:24:03Z</time>
      </trkpt>
      <trkpt lat="53.901673033833504" lon="9.937670985236764">
        <ele>15.52</ele>
        <time>2017-06-17T08:24:15Z</time>
      </trkpt>
      <trkpt lat="53.903928017243743" lon="9.937175028026104">
        <ele>15.039999999999999</ele>
        <time>2017-06-17T08:24:26Z</time>
      </trkpt>
      <trkpt lat="53.905978985130787" lon="9.936893982812762">
        <ele>14.56</ele>
        <time>2017-06-17T08:24:38Z</time>
      </trkpt>
      <trkpt lat="53.908726992085576" lon="9.936787029728293">
        <ele>16</ele>
        <time>2017-06-17T08:24:53Z</time>
      </trkpt>
      <trkpt lat="53.911759983748198" lon="9.936975035816431">
        <ele>14.56</ele>
        <time>2017-06-17T08:25:08Z</time>
      </trkpt>
      <trkpt lat="53.915456989780068" lon="9.937592027708888">
        <ele>14.08</ele>
        <time>2017-06-17T08:25:25Z</time>
      </trkpt>
      <trkpt lat="53.91853398643434" lon="9.93837296962738">
        <ele>13.6</ele>
        <time>2017-06-17T08:25:39Z</time>
      </trkpt>
      <trkpt lat="53.923447960987687" lon="9.940039040520787">
        <ele>13.119999999999999</ele>
        <time>2017-06-17T08:26:02Z</time>
      </trkpt>
      <trkpt lat="53.926827041432261" lon="9.941382994875312">
        <ele>13.6</ele>
        <time>2017-06-17T08:26:17Z</time>
      </trkpt>
      <trkpt lat="53.930003028362989" lon="9.942748993635178">
        <ele>15.039999999999999</ele>
        <time>2017-06-17T08:26:32Z</time>
      </trkpt>
      <trkpt lat="53.933978984132409" lon="9.944489998742938">
        <ele>15.039999999999999</ele>
        <time>2017-06-17T08:26:50Z</time>
      </trkpt>
      <trkpt lat="53.938077986240387" lon="9.946188004687429">
        <ele>16.48</ele>
        <time>2017-06-17T08:27:09Z</time>
      </trkpt>
      <trkpt lat="53.940591970458627" lon="9.947168016806245">
        <ele>16.48</ele>
        <time>2017-06-17T08:27:20Z</time>
      </trkpt>
      <trkpt lat="53.943649018183351" lon="9.948152974247932">
        <ele>17.440000000000001</ele>
        <time>2017-06-17T08:27:32Z</time>
      </trkpt>
      <trkpt lat="53.947957986965775" lon="9.949368014931679">
        <ele>19.359999999999999</ele>
        <time>2017-06-17T08:27:46Z</time>
      </trkpt>
      <trkpt lat="53.952205013483763" lon="9.950221963226795">
        <ele>17.920000000000002</ele>
        <time>2017-06-17T08:27:59Z</time>
      </trkpt>
      <trkpt lat="53.956359000876546" lon="9.950539972633123">
        <ele>17.440000000000001</ele>
        <time>2017-06-17T08:28:12Z</time>
      </trkpt>
      <trkpt lat="53.961294014006853" lon="9.950438970699906">
        <ele>17.920000000000002</ele>
        <time>2017-06-17T08:28:28Z</time>
      </trkpt>
      <trkpt lat="53.966309996321797" lon="9.949806975200772">
        <ele>17.440000000000001</ele>
        <time>2017-06-17T08:28:44Z</time>
      </trkpt>
      <trkpt lat="53.971960991621017" lon="9.948393031954765">
        <ele>17.440000000000001</ele>
        <time>2017-06-17T08:29:02Z</time>
      </trkpt>
      <trkpt lat="53.976884018629789" lon="9.946553958579898">
        <ele>17.920000000000002</ele>
        <time>2017-06-17T08:29:18Z</time>
      </trkpt>
      <trkpt lat="53.980870032683015" lon="9.944657972082496">
        <ele>17.920000000000002</ele>
        <time>2017-06-17T08:29:31Z</time>
      </trkpt>
      <trkpt lat="53.984194966033101" lon="9.942812025547028">
        <ele>18.879999999999999</ele>
        <time>2017-06-17T08:29:42Z</time>
      </trkpt>
      <trkpt lat="53.988163964822888" lon="9.940655026584864">
        <ele>19.359999999999999</ele>
        <time>2017-06-17T08:29:55Z</time>
      </trkpt>
      <trkpt lat="53.991681011393666" lon="9.938765997067094">
        <ele>19.359999999999999</ele>
        <time>2017-06-17T08:30:06Z</time>
      </trkpt>
      <trkpt lat="53.997509032487869" lon="9.935918999835849">
        <ele>19.359999999999999</ele>
        <time>2017-06-17T08:30:25Z</time>
      </trkpt>
      <trkpt lat="54.002213040366769" lon="9.934064000844955">
        <ele>17.920000000000002</ele>
        <time>2017-06-17T08:30:41Z</time>
      </trkpt>
      <trkpt lat="54.007165990769863" lon="9.932687021791935">
        <ele>17.440000000000001</ele>
        <time>2017-06-17T08:30:58Z</time>
      </trkpt>
      <trkpt lat="54.011053014546633" lon="9.932067012414336">
        <ele>17.920000000000002</ele>
        <time>2017-06-17T08:31:11Z</time>
      </trkpt>
      <trkpt lat="54.013413023203611" lon="9.931902978569269">
        <ele>18.399999999999999</ele>
        <time>2017-06-17T08:31:20Z</time>
      </trkpt>
      <trkpt lat="54.016291033476591" lon="9.931900966912508">
        <ele>19.84</ele>
        <time>2017-06-17T08:31:32Z</time>
      </trkpt>
      <trkpt lat="54.019328970462084" lon="9.932061983272433">
        <ele>21.289999999999999</ele>
        <time>2017-06-17T08:31:46Z</time>
      </trkpt>
      <trkpt lat="54.022476961836219" lon="9.932317966595292">
        <ele>18.879999999999999</ele>
        <time>2017-06-17T08:32:01Z</time>
      </trkpt>
      <trkpt lat="54.027199996635318" lon="9.932617032900453">
        <ele>17.920000000000002</ele>
        <time>2017-06-17T08:32:22Z</time>
      </trkpt>
      <trkpt lat="54.032140960916877" lon="9.932517958804965">
        <ele>17.920000000000002</ele>
        <time>2017-06-17T08:32:43Z</time>
      </trkpt>
      <trkpt lat="54.034890979528427" lon="9.93216298520565">
        <ele>18.399999999999999</ele>
        <time>2017-06-17T08:32:55Z</time>
      </trkpt>
      <trkpt lat="54.038267964497209" lon="9.931496037170291">
        <ele>18.879999999999999</ele>
        <time>2017-06-17T08:33:10Z</time>
      </trkpt>
      <trkpt lat="54.041905039921403" lon="9.930461039766669">
        <ele>22.25</ele>
        <time>2017-06-17T08:33:27Z</time>
      </trkpt>
      <trkpt lat="54.043372962623835" lon="9.929923005402088">
        <ele>23.690000000000001</ele>
        <time>2017-06-17T08:33:35Z</time>
      </trkpt>
      <trkpt lat="54.045456033200026" lon="9.92902304045856">
        <ele>24.649999999999999</ele>
        <time>2017-06-17T08:33:48Z</time>
      </trkpt>
      <trkpt lat="54.046817002817988" lon="9.928382998332381">
        <ele>25.129999999999999</ele>
        <time>2017-06-17T08:33:59Z</time>
      </trkpt>
      <trkpt lat="54.048448959365487" lon="9.927754020318389">
        <ele>23.210000000000001</ele>
        <time>2017-06-17T08:34:11Z</time>
      </trkpt>
      <trkpt lat="54.049758967012167" lon="9.927182961255312">
        <ele>21.289999999999999</ele>
        <time>2017-06-17T08:34:20Z</time>
      </trkpt>
      <trkpt lat="54.052029959857464" lon="9.92614503018558">
        <ele>19.359999999999999</ele>
        <time>2017-06-17T08:34:34Z</time>
      </trkpt>
      <trkpt lat="54.054397009313107" lon="9.925140962004662">
        <ele>16</ele>
        <time>2017-06-17T08:34:47Z</time>
      </trkpt>
      <trkpt lat="54.056818960234523" lon="9.924249965697527">
        <ele>16.48</ele>
        <time>2017-06-17T08:35:00Z</time>
      </trkpt>
      <trkpt lat="54.059675009921193" lon="9.923397023230791">
        <ele>16.960000000000001</ele>
        <time>2017-06-17T08:35:13Z</time>
      </trkpt>
      <trkpt lat="54.062944035977125" lon="9.922812972217798">
        <ele>16.960000000000001</ele>
        <time>2017-06-17T08:35:28Z</time>
      </trkpt>
      <trkpt lat="54.066152963787317" lon="9.922704007476568">
        <ele>17.920000000000002</ele>
        <time>2017-06-17T08:35:43Z</time>
      </trkpt>
      <trkpt lat="54.070370988920331" lon="9.923026962205768">
        <ele>18.879999999999999</ele>
        <time>2017-06-17T08:36:01Z</time>
      </trkpt>
      <trkpt lat="54.073404986411333" lon="9.923549992963672">
        <ele>20.809999999999999</ele>
        <time>2017-06-17T08:36:15Z</time>
      </trkpt>
      <trkpt lat="54.076056014746428" lon="9.924150975421071">
        <ele>23.690000000000001</ele>
        <time>2017-06-17T08:36:29Z</time>
      </trkpt>
      <trkpt lat="54.078232040628791" lon="9.924752963706851">
        <ele>25.129999999999999</ele>
        <time>2017-06-17T08:36:41Z</time>
      </trkpt>
      <trkpt lat="54.080447964370251" lon="9.925472969189286">
        <ele>24.649999999999999</ele>
        <time>2017-06-17T08:36:52Z</time>
      </trkpt>
      <trkpt lat="54.082926996052265" lon="9.926367988809943">
        <ele>22.25</ele>
        <time>2017-06-17T08:37:04Z</time>
      </trkpt>
      <trkpt lat="54.08650103956461" lon="9.927962981164455">
        <ele>20.809999999999999</ele>
        <time>2017-06-17T08:37:20Z</time>
      </trkpt>
      <trkpt lat="54.089136980473995" lon="9.929327974095941">
        <ele>21.77</ele>
        <time>2017-06-17T08:37:32Z</time>
      </trkpt>
      <trkpt lat="54.091103039681911" lon="9.930447963997722">
        <ele>22.25</ele>
        <time>2017-06-17T08:37:42Z</time>
      </trkpt>
      <trkpt lat="54.093427006155252" lon="9.931923011317849">
        <ele>21.77</ele>
        <time>2017-06-17T08:37:53Z</time>
      </trkpt>
      <trkpt lat="54.095935961231589" lon="9.933555973693728">
        <ele>21.77</ele>
        <time>2017-06-17T08:38:06Z</time>
      </trkpt>
      <trkpt lat="54.098220029845834" lon="9.935123976320028">
        <ele>22.25</ele>
        <time>2017-06-17T08:38:19Z</time>
      </trkpt>
      <trkpt lat="54.100792016834021" lon="9.937056005001068">
        <ele>23.690000000000001</ele>
        <time>2017-06-17T08:38:33Z</time>
      </trkpt>
      <trkpt lat="54.103171974420547" lon="9.938860964030027">
        <ele>24.649999999999999</ele>
        <time>2017-06-17T08:38:47Z</time>
      </trkpt>
      <trkpt lat="54.104651967063546" lon="9.939723964780569">
        <ele>26.57</ele>
        <time>2017-06-17T08:38:56Z</time>
      </trkpt>
      <trkpt lat="54.107057992368937" lon="9.941555997356772">
        <ele>29.940000000000001</ele>
        <time>2017-06-17T08:39:10Z</time>
      </trkpt>
      <trkpt lat="54.109484972432256" lon="9.943443015217781">
        <ele>33.780000000000001</ele>
        <time>2017-06-17T08:39:24Z</time>
      </trkpt>
      <trkpt lat="54.112400030717254" lon="9.945729011669755">
        <ele>35.229999999999997</ele>
        <time>2017-06-17T08:39:41Z</time>
      </trkpt>
      <trkpt lat="54.115340989083052" lon="9.948001010343432">
        <ele>34.259999999999998</ele>
        <time>2017-06-17T08:39:59Z</time>
      </trkpt>
      <trkpt lat="54.116963976994157" lon="9.94922099635005">
        <ele>31.859999999999999</ele>
        <time>2017-06-17T08:40:09Z</time>
      </trkpt>
      <trkpt lat="54.118349002674222" lon="9.950419021770358">
        <ele>30.420000000000002</ele>
        <time>2017-06-17T08:40:18Z</time>
      </trkpt>
      <trkpt lat="54.120005015283823" lon="9.951697010546923">
        <ele>29.460000000000001</ele>
        <time>2017-06-17T08:40:27Z</time>
      </trkpt>
      <trkpt lat="54.122025975957513" lon="9.953098967671394">
        <ele>28.02</ele>
        <time>2017-06-17T08:40:36Z</time>
      </trkpt>
      <trkpt lat="54.126093965023756" lon="9.955770028755069">
        <ele>28.98</ele>
        <time>2017-06-17T08:40:53Z</time>
      </trkpt>
      <trkpt lat="54.130181986838579" lon="9.95811796747148">
        <ele>28.5</ele>
        <time>2017-06-17T08:41:08Z</time>
      </trkpt>
      <trkpt lat="54.134074039757252" lon="9.96002702973783">
        <ele>30.420000000000002</ele>
        <time>2017-06-17T08:41:21Z</time>
      </trkpt>
      <trkpt lat="54.139156993478537" lon="9.96198495849967">
        <ele>30.899999999999999</ele>
        <time>2017-06-17T08:41:37Z</time>
      </trkpt>
      <trkpt lat="54.144025035202503" lon="9.963363027200103">
        <ele>29.940000000000001</ele>
        <time>2017-06-17T08:41:52Z</time>
      </trkpt>
      <trkpt lat="54.147963020950556" lon="9.96417598798871">
        <ele>29.940000000000001</ele>
        <time>2017-06-17T08:42:04Z</time>
      </trkpt>
      <trkpt lat="54.152504000812769" lon="9.964527022093535">
        <ele>28.98</ele>
        <time>2017-06-17T08:42:18Z</time>
      </trkpt>
      <trkpt lat="54.15555702522397" lon="9.964444963261485">
        <ele>28.5</ele>
        <time>2017-06-17T08:42:27Z</time>
      </trkpt>
      <trkpt lat="54.15725402534008" lon="9.964391989633441">
        <ele>28.5</ele>
        <time>2017-06-17T08:42:32Z</time>
      </trkpt>
      <trkpt lat="54.16187304072082" lon="9.963470986112952">
        <ele>28.5</ele>
        <time>2017-06-17T08:42:46Z</time>
      </trkpt>
      <trkpt lat="54.166171029210091" lon="9.961852021515369">
        <ele>28.5</ele>
        <time>2017-06-17T08:43:00Z</time>
      </trkpt>
      <trkpt lat="54.16997398249805" lon="9.959698040038347">
        <ele>29.460000000000001</ele>
        <time>2017-06-17T08:43:13Z</time>
      </trkpt>
      <trkpt lat="54.173443000763655" lon="9.956947015598416">
        <ele>30.420000000000002</ele>
        <time>2017-06-17T08:43:25Z</time>
      </trkpt>
      <trkpt lat="54.176656035706401" lon="9.953695004805923">
        <ele>29.460000000000001</ele>
        <time>2017-06-17T08:43:37Z</time>
      </trkpt>
      <trkpt lat="54.180179033428431" lon="9.949161987751722">
        <ele>28.02</ele>
        <time>2017-06-17T08:43:51Z</time>
      </trkpt>
      <trkpt lat="54.182669967412949" lon="9.94511503726244">
        <ele>27.530000000000001</ele>
        <time>2017-06-17T08:44:02Z</time>
      </trkpt>
      <trkpt lat="54.185547977685928" lon="9.939435962587595">
        <ele>25.609999999999999</ele>
        <time>2017-06-17T08:44:16Z</time>
      </trkpt>
      <trkpt lat="54.187738001346588" lon="9.933805000036955">
        <ele>23.690000000000001</ele>
        <time>2017-06-17T08:44:29Z</time>
      </trkpt>
      <trkpt lat="54.18931296095252" lon="9.928563963621855">
        <ele>22.73</ele>
        <time>2017-06-17T08:44:40Z</time>
      </trkpt>
      <trkpt lat="54.190854979678988" lon="9.922072011977434">
        <ele>21.289999999999999</ele>
        <time>2017-06-17T08:44:53Z</time>
      </trkpt>
      <trkpt lat="54.191897017881274" lon="9.915880970656872">
        <ele>20.809999999999999</ele>
        <time>2017-06-17T08:45:05Z</time>
      </trkpt>
      <trkpt lat="54.192933021113276" lon="9.907510969787836">
        <ele>20.809999999999999</ele>
        <time>2017-06-17T08:45:21Z</time>
      </trkpt>
      <trkpt lat="54.194198017939925" lon="9.899747986346483">
        <ele>20.809999999999999</ele>
        <time>2017-06-17T08:45:36Z</time>
      </trkpt>
      <trkpt lat="54.195366958156228" lon="9.89492797292769">
        <ele>21.289999999999999</ele>
        <time>2017-06-17T08:45:46Z</time>
      </trkpt>
      <trkpt lat="54.197160014882684" lon="9.88908302038908">
        <ele>22.73</ele>
        <time>2017-06-17T08:45:59Z</time>
      </trkpt>
      <trkpt lat="54.199134036898613" lon="9.883890012279153">
        <ele>22.73</ele>
        <time>2017-06-17T08:46:11Z</time>
      </trkpt>
      <trkpt lat="54.201732007786632" lon="9.878688035532832">
        <ele>22.25</ele>
        <time>2017-06-17T08:46:24Z</time>
      </trkpt>
      <trkpt lat="54.204302988946438" lon="9.87440999597311">
        <ele>21.289999999999999</ele>
        <time>2017-06-17T08:46:35Z</time>
      </trkpt>
      <trkpt lat="54.207102963700891" lon="9.870465975254774">
        <ele>21.289999999999999</ele>
        <time>2017-06-17T08:46:46Z</time>
      </trkpt>
      <trkpt lat="54.210030008107424" lon="9.86680299974978">
        <ele>21.77</ele>
        <time>2017-06-17T08:46:57Z</time>
      </trkpt>
      <trkpt lat="54.21440402045846" lon="9.86147303134203">
        <ele>22.25</ele>
        <time>2017-06-17T08:47:13Z</time>
      </trkpt>
      <trkpt lat="54.217852000147104" lon="9.856874970719218">
        <ele>20.809999999999999</ele>
        <time>2017-06-17T08:47:27Z</time>
      </trkpt>
      <trkpt lat="54.220269005745649" lon="9.85331098549068">
        <ele>19.359999999999999</ele>
        <time>2017-06-17T08:47:38Z</time>
      </trkpt>
      <trkpt lat="54.222806040197611" lon="9.849337041378021">
        <ele>17.920000000000002</ele>
        <time>2017-06-17T08:47:50Z</time>
      </trkpt>
      <trkpt lat="54.225797038525343" lon="9.844169011339545">
        <ele>16.48</ele>
        <time>2017-06-17T08:48:04Z</time>
      </trkpt>
      <trkpt lat="54.229493960738182" lon="9.837659038603306">
        <ele>15.039999999999999</ele>
        <time>2017-06-17T08:48:21Z</time>
      </trkpt>
      <trkpt lat="54.233911978080869" lon="9.830287992954254">
        <ele>14.08</ele>
        <time>2017-06-17T08:48:41Z</time>
      </trkpt>
      <trkpt lat="54.236972965300083" lon="9.825863018631935">
        <ele>13.6</ele>
        <time>2017-06-17T08:48:54Z</time>
      </trkpt>
      <trkpt lat="54.239587029442191" lon="9.822395006194711">
        <ele>12.15</ele>
        <time>2017-06-17T08:49:05Z</time>
      </trkpt>
      <trkpt lat="54.243622999638319" lon="9.817592008039355">
        <ele>12.15</ele>
        <time>2017-06-17T08:49:21Z</time>
      </trkpt>
      <trkpt lat="54.246089961379766" lon="9.81487300246954">
        <ele>11.19</ele>
        <time>2017-06-17T08:49:31Z</time>
      </trkpt>
      <trkpt lat="54.250019984319806" lon="9.810636034235358">
        <ele>11.19</ele>
        <time>2017-06-17T08:49:46Z</time>
      </trkpt>
      <trkpt lat="54.250273033976555" lon="9.810341997072101">
        <ele>11.19</ele>
        <time>2017-06-17T08:49:47Z</time>
      </trkpt>
      <trkpt lat="54.25469096750021" lon="9.805574035272002">
        <ele>10.710000000000001</ele>
        <time>2017-06-17T08:50:04Z</time>
      </trkpt>
      <trkpt lat="54.259015023708344" lon="9.800170976668596">
        <ele>8.789999999999999</ele>
        <time>2017-06-17T08:50:21Z</time>
      </trkpt>
      <trkpt lat="54.262559982016683" lon="9.795006969943643">
        <ele>8.310000000000001</ele>
        <time>2017-06-17T08:50:36Z</time>
      </trkpt>
      <trkpt lat="54.267598008736968" lon="9.787388993427157">
        <ele>7.35</ele>
        <time>2017-06-17T08:50:57Z</time>
      </trkpt>
      <trkpt lat="54.270414998754859" lon="9.783399039879441">
        <ele>7.35</ele>
        <time>2017-06-17T08:51:09Z</time>
      </trkpt>
      <trkpt lat="54.273783015087247" lon="9.779186965897679">
        <ele>8.789999999999999</ele>
        <time>2017-06-17T08:51:24Z</time>
      </trkpt>
      <trkpt lat="54.27628300152719" lon="9.7764350194484">
        <ele>8.310000000000001</ele>
        <time>2017-06-17T08:51:34Z</time>
      </trkpt>
      <trkpt lat="54.279593015089631" lon="9.773228019475937">
        <ele>8.310000000000001</ele>
        <time>2017-06-17T08:51:46Z</time>
      </trkpt>
      <trkpt lat="54.283088017255068" lon="9.770199973136187">
        <ele>9.27</ele>
        <time>2017-06-17T08:51:58Z</time>
      </trkpt>
      <trkpt lat="54.287493964657187" lon="9.766930025070906">
        <ele>8.310000000000001</ele>
        <time>2017-06-17T08:52:13Z</time>
      </trkpt>
      <trkpt lat="54.292383966967463" lon="9.763595033437014">
        <ele>11.19</ele>
        <time>2017-06-17T08:52:30Z</time>
      </trkpt>
      <trkpt lat="54.297385029494762" lon="9.760296000167728">
        <ele>19.84</ele>
        <time>2017-06-17T08:52:47Z</time>
      </trkpt>
      <trkpt lat="54.301490988582373" lon="9.757498037070036">
        <ele>23.690000000000001</ele>
        <time>2017-06-17T08:53:01Z</time>
      </trkpt>
      <trkpt lat="54.307451024651527" lon="9.753021011129022">
        <ele>16.960000000000001</ele>
        <time>2017-06-17T08:53:21Z</time>
      </trkpt>
      <trkpt lat="54.312136005610228" lon="9.749030973762274">
        <ele>14.08</ele>
        <time>2017-06-17T08:53:37Z</time>
      </trkpt>
      <trkpt lat="54.314008019864559" lon="9.747307989746332">
        <ele>14.56</ele>
        <time>2017-06-17T08:53:45Z</time>
      </trkpt>
      <trkpt lat="54.317563958466053" lon="9.743831008672714">
        <ele>15.039999999999999</ele>
        <time>2017-06-17T08:54:01Z</time>
      </trkpt>
      <trkpt lat="54.319159034639597" lon="9.742093021050096">
        <ele>16.960000000000001</ele>
        <time>2017-06-17T08:54:09Z</time>
      </trkpt>
      <trkpt lat="54.322589999064803" lon="9.738272968679667">
        <ele>23.690000000000001</ele>
        <time>2017-06-17T08:54:25Z</time>
      </trkpt>
      <trkpt lat="54.325353009626269" lon="9.734946023672819">
        <ele>32.340000000000003</ele>
        <time>2017-06-17T08:54:39Z</time>
      </trkpt>
      <trkpt lat="54.327938994392753" lon="9.731644978746772">
        <ele>41.950000000000003</ele>
        <time>2017-06-17T08:54:53Z</time>
      </trkpt>
      <trkpt lat="54.329745965078473" lon="9.729220010340214">
        <ele>45.32</ele>
        <time>2017-06-17T08:55:05Z</time>
      </trkpt>
      <trkpt lat="54.332019975408912" lon="9.726015022024512">
        <ele>44.359999999999999</ele>
        <time>2017-06-17T08:55:21Z</time>
      </trkpt>
      <trkpt lat="54.335120022296906" lon="9.721385026350617">
        <ele>34.740000000000002</ele>
        <time>2017-06-17T08:55:42Z</time>
      </trkpt>
      <trkpt lat="54.337715981528163" lon="9.717219974845648">
        <ele>24.649999999999999</ele>
        <time>2017-06-17T08:56:00Z</time>
      </trkpt>
      <trkpt lat="54.339562011882663" lon="9.7140640206635">
        <ele>19.359999999999999</ele>
        <time>2017-06-17T08:56:14Z</time>
      </trkpt>
      <trkpt lat="54.340861039236188" lon="9.711792021989822">
        <ele>16</ele>
        <time>2017-06-17T08:56:22Z</time>
      </trkpt>
      <trkpt lat="54.343616003170609" lon="9.706780984997749">
        <ele>11.19</ele>
        <time>2017-06-17T08:56:36Z</time>
      </trkpt>
      <trkpt lat="54.347414011135697" lon="9.699646979570389">
        <ele>8.310000000000001</ele>
        <time>2017-06-17T08:56:54Z</time>
      </trkpt>
      <trkpt lat="54.350878000259399" lon="9.693186962977052">
        <ele>7.83</ele>
        <time>2017-06-17T08:57:09Z</time>
      </trkpt>
      <trkpt lat="54.353907974436879" lon="9.687733026221395">
        <ele>7.83</ele>
        <time>2017-06-17T08:57:23Z</time>
      </trkpt>
      <trkpt lat="54.357040962204337" lon="9.682424012571573">
        <ele>8.310000000000001</ele>
        <time>2017-06-17T08:57:37Z</time>
      </trkpt>
      <trkpt lat="54.359857030212879" lon="9.678003983572125">
        <ele>10.710000000000001</ele>
        <time>2017-06-17T08:57:49Z</time>
      </trkpt>
      <trkpt lat="54.362853979691863" lon="9.673830969259143">
        <ele>12.630000000000001</ele>
        <time>2017-06-17T08:58:02Z</time>
      </trkpt>
      <trkpt lat="54.365795021876693" lon="9.67014997266233">
        <ele>13.6</ele>
        <time>2017-06-17T08:58:14Z</time>
      </trkpt>
      <trkpt lat="54.369396977126598" lon="9.666285999119282">
        <ele>14.56</ele>
        <time>2017-06-17T08:58:28Z</time>
      </trkpt>
      <trkpt lat="54.373432025313377" lon="9.662774987518787">
        <ele>15.52</ele>
        <time>2017-06-17T08:58:43Z</time>
      </trkpt>
      <trkpt lat="54.378271987661719" lon="9.659430021420121">
        <ele>15.52</ele>
        <time>2017-06-17T08:59:00Z</time>
      </trkpt>
      <trkpt lat="54.382310975342989" lon="9.656931962817907">
        <ele>15.52</ele>
        <time>2017-06-17T08:59:14Z</time>
      </trkpt>
      <trkpt lat="54.383847964927554" lon="9.656011965125799">
        <ele>15.039999999999999</ele>
        <time>2017-06-17T08:59:20Z</time>
      </trkpt>
      <trkpt lat="54.386818008497357" lon="9.654185967519879">
        <ele>15.039999999999999</ele>
        <time>2017-06-17T08:59:32Z</time>
      </trkpt>
      <trkpt lat="54.389602979645133" lon="9.652269026264548">
        <ele>15.039999999999999</ele>
        <time>2017-06-17T08:59:42Z</time>
      </trkpt>
      <trkpt lat="54.392165997996926" lon="9.650245970115066">
        <ele>15.039999999999999</ele>
        <time>2017-06-17T08:59:52Z</time>
      </trkpt>
      <trkpt lat="54.395380960777402" lon="9.647132009267807">
        <ele>15.039999999999999</ele>
        <time>2017-06-17T09:00:06Z</time>
      </trkpt>
      <trkpt lat="54.39803902991116" lon="9.643971025943756">
        <ele>15.52</ele>
        <time>2017-06-17T09:00:18Z</time>
      </trkpt>
      <trkpt lat="54.400750994682312" lon="9.640073021873832">
        <ele>16.960000000000001</ele>
        <time>2017-06-17T09:00:30Z</time>
      </trkpt>
      <trkpt lat="54.402989968657494" lon="9.636262021958828">
        <ele>16.960000000000001</ele>
        <time>2017-06-17T09:00:40Z</time>
      </trkpt>
      <trkpt lat="54.406340969726443" lon="9.629892027005553">
        <ele>16</ele>
        <time>2017-06-17T09:00:55Z</time>
      </trkpt>
      <trkpt lat="54.408678011968732" lon="9.625177038833499">
        <ele>15.039999999999999</ele>
        <time>2017-06-17T09:01:06Z</time>
      </trkpt>
      <trkpt lat="54.412044016644359" lon="9.618576038628817">
        <ele>15.039999999999999</ele>
        <time>2017-06-17T09:01:22Z</time>
      </trkpt>
      <trkpt lat="54.415341038256884" lon="9.61248298175633">
        <ele>16</ele>
        <time>2017-06-17T09:01:37Z</time>
      </trkpt>
      <trkpt lat="54.418789017945528" lon="9.607281005010009">
        <ele>17.920000000000002</ele>
        <time>2017-06-17T09:01:51Z</time>
      </trkpt>
      <trkpt lat="54.422061983495951" lon="9.603385012596846">
        <ele>18.399999999999999</ele>
        <time>2017-06-17T09:02:03Z</time>
      </trkpt>
      <trkpt lat="54.425572995096445" lon="9.600167032331228">
        <ele>18.879999999999999</ele>
        <time>2017-06-17T09:02:15Z</time>
      </trkpt>
      <trkpt lat="54.429835025221109" lon="9.597188020125032">
        <ele>18.399999999999999</ele>
        <time>2017-06-17T09:02:29Z</time>
      </trkpt>
      <trkpt lat="54.43132096901536" lon="9.596315966919065">
        <ele>18.399999999999999</ele>
        <time>2017-06-17T09:02:35Z</time>
      </trkpt>
      <trkpt lat="54.433506969362497" lon="9.595063040032983">
        <ele>17.920000000000002</ele>
        <time>2017-06-17T09:02:46Z</time>
      </trkpt>
      <trkpt lat="54.437918029725552" lon="9.592429026961327">
        <ele>18.399999999999999</ele>
        <time>2017-06-17T09:03:11Z</time>
      </trkpt>
      <trkpt lat="54.440593030303717" lon="9.590816013514996">
        <ele>19.359999999999999</ele>
        <time>2017-06-17T09:03:25Z</time>
      </trkpt>
      <trkpt lat="54.443055968731642" lon="9.5893220230937">
        <ele>20.809999999999999</ele>
        <time>2017-06-17T09:03:36Z</time>
      </trkpt>
      <trkpt lat="54.446731014177203" lon="9.587070979177952">
        <ele>22.73</ele>
        <time>2017-06-17T09:03:50Z</time>
      </trkpt>
      <trkpt lat="54.450563974678516" lon="9.584421962499619">
        <ele>23.210000000000001</ele>
        <time>2017-06-17T09:04:04Z</time>
      </trkpt>
      <trkpt lat="54.45400801487267" lon="9.581501958891749">
        <ele>21.289999999999999</ele>
        <time>2017-06-17T09:04:17Z</time>
      </trkpt>
      <trkpt lat="54.456770019605756" lon="9.578714976087213">
        <ele>20.32</ele>
        <time>2017-06-17T09:04:29Z</time>
      </trkpt>
      <trkpt lat="54.459820026531816" lon="9.575117966160178">
        <ele>19.84</ele>
        <time>2017-06-17T09:04:42Z</time>
      </trkpt>
      <trkpt lat="54.46159397251904" lon="9.572738008573651">
        <ele>18.879999999999999</ele>
        <time>2017-06-17T09:04:51Z</time>
      </trkpt>
      <trkpt lat="54.464673986658454" lon="9.568044980987907">
        <ele>18.399999999999999</ele>
        <time>2017-06-17T09:05:07Z</time>
      </trkpt>
      <trkpt lat="54.466078961268067" lon="9.5656259637326">
        <ele>17.440000000000001</ele>
        <time>2017-06-17T09:05:15Z</time>
      </trkpt>
      <trkpt lat="54.468385996297002" lon="9.561168970540166">
        <ele>16.48</ele>
        <time>2017-06-17T09:05:29Z</time>
      </trkpt>
      <trkpt lat="54.470360018312931" lon="9.556924039497972">
        <ele>15.039999999999999</ele>
        <time>2017-06-17T09:05:40Z</time>
      </trkpt>
      <trkpt lat="54.472947008907795" lon="9.551127031445503">
        <ele>13.119999999999999</ele>
        <time>2017-06-17T09:05:54Z</time>
      </trkpt>
      <trkpt lat="54.476240007206798" lon="9.544124035164714">
        <ele>12.630000000000001</ele>
        <time>2017-06-17T09:06:11Z</time>
      </trkpt>
      <trkpt lat="54.478187039494514" lon="9.540633978322148">
        <ele>14.56</ele>
        <time>2017-06-17T09:06:21Z</time>
      </trkpt>
      <trkpt lat="54.480790961533785" lon="9.53655500896275">
        <ele>20.32</ele>
        <time>2017-06-17T09:06:34Z</time>
      </trkpt>
      <trkpt lat="54.483387004584074" lon="9.533125972375274">
        <ele>26.09</ele>
        <time>2017-06-17T09:06:45Z</time>
      </trkpt>
      <trkpt lat="54.485172014683485" lon="9.530972996726632">
        <ele>29.460000000000001</ele>
        <time>2017-06-17T09:06:53Z</time>
      </trkpt>
      <trkpt lat="54.487062972038984" lon="9.528879029676318">
        <ele>32.340000000000003</ele>
        <time>2017-06-17T09:07:04Z</time>
      </trkpt>
      <trkpt lat="54.489146964624524" lon="9.52660895884037">
        <ele>33.780000000000001</ele>
        <time>2017-06-17T09:07:16Z</time>
      </trkpt>
      <trkpt lat="54.491351991891861" lon="9.524092962965369">
        <ele>33.780000000000001</ele>
        <time>2017-06-17T09:07:30Z</time>
      </trkpt>
      <trkpt lat="54.493290977552533" lon="9.521664977073669">
        <ele>32.340000000000003</ele>
        <time>2017-06-17T09:07:43Z</time>
      </trkpt>
      <trkpt lat="54.495213031768799" lon="9.518981007859111">
        <ele>28.98</ele>
        <time>2017-06-17T09:07:54Z</time>
      </trkpt>
      <trkpt lat="54.498263038694859" lon="9.514307007193565">
        <ele>25.609999999999999</ele>
        <time>2017-06-17T09:08:11Z</time>
      </trkpt>
      <trkpt lat="54.500732012093067" lon="9.510500030592084">
        <ele>24.649999999999999</ele>
        <time>2017-06-17T09:08:24Z</time>
      </trkpt>
      <trkpt lat="54.502395987510681" lon="9.50810699723661">
        <ele>24.649999999999999</ele>
        <time>2017-06-17T09:08:33Z</time>
      </trkpt>
      <trkpt lat="54.50462800450623" lon="9.505181964486837">
        <ele>26.57</ele>
        <time>2017-06-17T09:08:45Z</time>
      </trkpt>
      <trkpt lat="54.506909977644682" lon="9.502593968063593">
        <ele>29.940000000000001</ele>
        <time>2017-06-17T09:08:56Z</time>
      </trkpt>
      <trkpt lat="54.509539967402816" lon="9.500014018267393">
        <ele>33.780000000000001</ele>
        <time>2017-06-17T09:09:07Z</time>
      </trkpt>
      <trkpt lat="54.511517006903887" lon="9.498329004272819">
        <ele>34.740000000000002</ele>
        <time>2017-06-17T09:09:16Z</time>
      </trkpt>
      <trkpt lat="54.514136016368866" lon="9.496382977813482">
        <ele>35.229999999999997</ele>
        <time>2017-06-17T09:09:28Z</time>
      </trkpt>
      <trkpt lat="54.516690988093615" lon="9.494567038491368">
        <ele>33.299999999999997</ele>
        <time>2017-06-17T09:09:40Z</time>
      </trkpt>
      <trkpt lat="54.519758010283113" lon="9.492367040365934">
        <ele>28.98</ele>
        <time>2017-06-17T09:09:53Z</time>
      </trkpt>
      <trkpt lat="54.52325401827693" lon="9.489418035373092">
        <ele>24.170000000000002</ele>
        <time>2017-06-17T09:10:07Z</time>
      </trkpt>
      <trkpt lat="54.525642022490501" lon="9.486928023397923">
        <ele>22.73</ele>
        <time>2017-06-17T09:10:17Z</time>
      </trkpt>
      <trkpt lat="54.527974035590887" lon="9.484072979539633">
        <ele>21.289999999999999</ele>
        <time>2017-06-17T09:10:29Z</time>
      </trkpt>
      <trkpt lat="54.530201023444533" lon="9.481159010902047">
        <ele>21.289999999999999</ele>
        <time>2017-06-17T09:10:41Z</time>
      </trkpt>
      <trkpt lat="54.532446032389998" lon="9.478315031155944">
        <ele>21.77</ele>
        <time>2017-06-17T09:10:51Z</time>
      </trkpt>
      <trkpt lat="54.535904992371798" lon="9.474664041772485">
        <ele>20.32</ele>
        <time>2017-06-17T09:11:05Z</time>
      </trkpt>
      <trkpt lat="54.539596969261765" lon="9.47169098071754">
        <ele>19.84</ele>
        <time>2017-06-17T09:11:18Z</time>
      </trkpt>
      <trkpt lat="54.543133964762092" lon="9.469611011445522">
        <ele>19.84</ele>
        <time>2017-06-17T09:11:30Z</time>
      </trkpt>
      <trkpt lat="54.546376001089811" lon="9.468301003798842">
        <ele>20.809999999999999</ele>
        <time>2017-06-17T09:11:40Z</time>
      </trkpt>
      <trkpt lat="54.549636980518699" lon="9.467531964182854">
        <ele>20.32</ele>
        <time>2017-06-17T09:11:50Z</time>
      </trkpt>
      <trkpt lat="54.552734009921551" lon="9.467286039143801">
        <ele>19.84</ele>
        <time>2017-06-17T09:12:00Z</time>
      </trkpt>
      <trkpt lat="54.555721990764141" lon="9.467420987784863">
        <ele>20.32</ele>
        <time>2017-06-17T09:12:11Z</time>
      </trkpt>
      <trkpt lat="54.558335971087217" lon="9.467765986919403">
        <ele>20.809999999999999</ele>
        <time>2017-06-17T09:12:22Z</time>
      </trkpt>
      <trkpt lat="54.561063023284078" lon="9.4682099763304">
        <ele>20.809999999999999</ele>
        <time>2017-06-17T09:12:33Z</time>
      </trkpt>
      <trkpt lat="54.566070036962628" lon="9.469077000394464">
        <ele>19.84</ele>
        <time>2017-06-17T09:12:52Z</time>
      </trkpt>
      <trkpt lat="54.570142971351743" lon="9.469419987872243">
        <ele>20.809999999999999</ele>
        <time>2017-06-17T09:13:07Z</time>
      </trkpt>
      <trkpt lat="54.572726022452116" lon="9.469346981495619">
        <ele>21.77</ele>
        <time>2017-06-17T09:13:17Z</time>
      </trkpt>
      <trkpt lat="54.575102962553501" lon="9.468997959047556">
        <ele>21.77</ele>
        <time>2017-06-17T09:13:26Z</time>
      </trkpt>
      <trkpt lat="54.578820001333952" lon="9.46810101158917">
        <ele>22.25</ele>
        <time>2017-06-17T09:13:39Z</time>
      </trkpt>
      <trkpt lat="54.58201602101326" lon="9.466858981177211">
        <ele>22.73</ele>
        <time>2017-06-17T09:13:49Z</time>
      </trkpt>
      <trkpt lat="54.586103036999702" lon="9.464654959738255">
        <ele>22.25</ele>
        <time>2017-06-17T09:14:02Z</time>
      </trkpt>
      <trkpt lat="54.589797025546432" lon="9.462134018540382">
        <ele>20.809999999999999</ele>
        <time>2017-06-17T09:14:14Z</time>
      </trkpt>
      <trkpt lat="54.595653964206576" lon="9.457460017874837">
        <ele>20.32</ele>
        <time>2017-06-17T09:14:33Z</time>
      </trkpt>
      <trkpt lat="54.600318996235728" lon="9.453605012968183">
        <ele>19.359999999999999</ele>
        <time>2017-06-17T09:14:48Z</time>
      </trkpt>
      <trkpt lat="54.601877024397254" lon="9.45231000892818">
        <ele>18.879999999999999</ele>
        <time>2017-06-17T09:14:54Z</time>
      </trkpt>
      <trkpt lat="54.605058962479234" lon="9.449784038588405">
        <ele>17.920000000000002</ele>
        <time>2017-06-17T09:15:08Z</time>
      </trkpt>
      <trkpt lat="54.609459964558482" lon="9.446739982813597">
        <ele>17.440000000000001</ele>
        <time>2017-06-17T09:15:27Z</time>
      </trkpt>
      <trkpt lat="54.611963974311948" lon="9.445303995162249">
        <ele>17.920000000000002</ele>
        <time>2017-06-17T09:15:38Z</time>
      </trkpt>
      <trkpt lat="54.615431986749172" lon="9.443791983649135">
        <ele>19.359999999999999</ele>
        <time>2017-06-17T09:15:54Z</time>
      </trkpt>
      <trkpt lat="54.619040982797742" lon="9.442739970982075">
        <ele>18.879999999999999</ele>
        <time>2017-06-17T09:16:09Z</time>
      </trkpt>
      <trkpt lat="54.622676968574524" lon="9.441895997151732">
        <ele>18.879999999999999</ele>
        <time>2017-06-17T09:16:23Z</time>
      </trkpt>
      <trkpt lat="54.626976968720555" lon="9.441025033593178">
        <ele>17.920000000000002</ele>
        <time>2017-06-17T09:16:38Z</time>
      </trkpt>
      <trkpt lat="54.630705993622541" lon="9.440262028947473">
        <ele>17.920000000000002</ele>
        <time>2017-06-17T09:16:50Z</time>
      </trkpt>
      <trkpt lat="54.637224012985826" lon="9.438887983560562">
        <ele>17.920000000000002</ele>
        <time>2017-06-17T09:17:10Z</time>
      </trkpt>
      <trkpt lat="54.641787959262729" lon="9.437935966998339">
        <ele>20.32</ele>
        <time>2017-06-17T09:17:24Z</time>
      </trkpt>
      <trkpt lat="54.648487027734518" lon="9.436366036534309">
        <ele>27.050000000000001</ele>
        <time>2017-06-17T09:17:45Z</time>
      </trkpt>
      <trkpt lat="54.652930023148656" lon="9.435050999745727">
        <ele>35.229999999999997</ele>
        <time>2017-06-17T09:17:59Z</time>
      </trkpt>
      <trkpt lat="54.65710898861289" lon="9.433633033186197">
        <ele>43.399999999999999</ele>
        <time>2017-06-17T09:18:12Z</time>
      </trkpt>
      <trkpt lat="54.662622017785907" lon="9.431301020085812">
        <ele>45.32</ele>
        <time>2017-06-17T09:18:29Z</time>
      </trkpt>
      <trkpt lat="54.666757984086871" lon="9.429108984768391">
        <ele>39.07</ele>
        <time>2017-06-17T09:18:42Z</time>
      </trkpt>
      <trkpt lat="54.671858036890626" lon="9.425873989239335">
        <ele>29.940000000000001</ele>
        <time>2017-06-17T09:18:58Z</time>
      </trkpt>
      <trkpt lat="54.676709985360503" lon="9.422236997634172">
        <ele>25.129999999999999</ele>
        <time>2017-06-17T09:19:14Z</time>
      </trkpt>
      <trkpt lat="54.68056901358068" lon="9.419108033180237">
        <ele>25.129999999999999</ele>
        <time>2017-06-17T09:19:27Z</time>
      </trkpt>
      <trkpt lat="54.685863023623824" lon="9.414542997255921">
        <ele>25.609999999999999</ele>
        <time>2017-06-17T09:19:45Z</time>
      </trkpt>
      <trkpt lat="54.691639998927712" lon="9.409789033234119">
        <ele>26.09</ele>
        <time>2017-06-17T09:20:04Z</time>
      </trkpt>
      <trkpt lat="54.696556990966201" lon="9.406201997771859">
        <ele>26.57</ele>
        <time>2017-06-17T09:20:20Z</time>
      </trkpt>
      <trkpt lat="54.700577035546303" lon="9.403847018256784">
        <ele>26.57</ele>
        <time>2017-06-17T09:20:33Z</time>
      </trkpt>
      <trkpt lat="54.705079039558768" lon="9.401913983747363">
        <ele>26.09</ele>
        <time>2017-06-17T09:20:47Z</time>
      </trkpt>
      <trkpt lat="54.709908021613955" lon="9.400739008560777">
        <ele>27.050000000000001</ele>
        <time>2017-06-17T09:21:02Z</time>
      </trkpt>
      <trkpt lat="54.713894035667181" lon="9.400169039145112">
        <ele>28.02</ele>
        <time>2017-06-17T09:21:14Z</time>
      </trkpt>
      <trkpt lat="54.718025978654623" lon="9.399392958730459">
        <ele>28.5</ele>
        <time>2017-06-17T09:21:26Z</time>
      </trkpt>
      <trkpt lat="54.721181010827422" lon="9.398290989920497">
        <ele>28.98</ele>
        <time>2017-06-17T09:21:36Z</time>
      </trkpt>
      <trkpt lat="54.725296022370458" lon="9.396154023706913">
        <ele>29.460000000000001</ele>
        <time>2017-06-17T09:21:49Z</time>
      </trkpt>
      <trkpt lat="54.729046002030373" lon="9.393439963459969">
        <ele>28.98</ele>
        <time>2017-06-17T09:22:01Z</time>
      </trkpt>
      <trkpt lat="54.73318800330162" lon="9.389837002381682">
        <ele>31.859999999999999</ele>
        <time>2017-06-17T09:22:15Z</time>
      </trkpt>
      <trkpt lat="54.737208969891071" lon="9.386262036859989">
        <ele>38.590000000000003</ele>
        <time>2017-06-17T09:22:29Z</time>
      </trkpt>
      <trkpt lat="54.740014979615808" lon="9.383820975199342">
        <ele>43.399999999999999</ele>
        <time>2017-06-17T09:22:39Z</time>
      </trkpt>
      <trkpt lat="54.744747988879681" lon="9.37960303388536">
        <ele>43.399999999999999</ele>
        <time>2017-06-17T09:22:55Z</time>
      </trkpt>
      <trkpt lat="54.749547969549894" lon="9.375370005145669">
        <ele>38.590000000000003</ele>
        <time>2017-06-17T09:23:11Z</time>
      </trkpt>
      <trkpt lat="54.753617970272899" lon="9.37150401994586">
        <ele>39.549999999999997</ele>
        <time>2017-06-17T09:23:25Z</time>
      </trkpt>
      <trkpt lat="54.756860006600618" lon="9.367500990629196">
        <ele>41.469999999999999</ele>
        <time>2017-06-17T09:23:37Z</time>
      </trkpt>
      <trkpt lat="54.760202039033175" lon="9.362340001389384">
        <ele>45.799999999999997</ele>
        <time>2017-06-17T09:23:51Z</time>
      </trkpt>
      <trkpt lat="54.764548977836967" lon="9.355363994836807">
        <ele>53.009999999999998</ele>
        <time>2017-06-17T09:24:10Z</time>
      </trkpt>
      <trkpt lat="54.767816998064518" lon="9.351214030757546">
        <ele>52.530000000000001</ele>
        <time>2017-06-17T09:24:23Z</time>
      </trkpt>
      <trkpt lat="54.771169004961848" lon="9.347839979454875">
        <ele>49.159999999999997</ele>
        <time>2017-06-17T09:24:35Z</time>
      </trkpt>
      <trkpt lat="54.775265995413065" lon="9.344643959775567">
        <ele>41.950000000000003</ele>
        <time>2017-06-17T09:24:49Z</time>
      </trkpt>
      <trkpt lat="54.778629988431931" lon="9.342433987185359">
        <ele>38.109999999999999</ele>
        <time>2017-06-17T09:25:00Z</time>
      </trkpt>
      <trkpt lat="54.78251600638032" lon="9.340303977951407">
        <ele>34.740000000000002</ele>
        <time>2017-06-17T09:25:13Z</time>
      </trkpt>
      <trkpt lat="54.78586801327765" lon="9.338570013642311">
        <ele>31.859999999999999</ele>
        <time>2017-06-17T09:25:26Z</time>
      </trkpt>
      <trkpt lat="54.78797497227788" lon="9.337481958791614">
        <ele>30.899999999999999</ele>
        <time>2017-06-17T09:25:35Z</time>
      </trkpt>
      <trkpt lat="54.791177026927471" lon="9.33581898920238">
        <ele>30.899999999999999</ele>
        <time>2017-06-17T09:25:49Z</time>
      </trkpt>
      <trkpt lat="54.794777976348996" lon="9.33399299159646">
        <ele>31.379999999999999</ele>
        <time>2017-06-17T09:26:07Z</time>
      </trkpt>
      <trkpt lat="54.797421041876078" lon="9.332644008100033">
        <ele>34.259999999999998</ele>
        <time>2017-06-17T09:26:21Z</time>
      </trkpt>
      <trkpt lat="54.800740024074912" lon="9.330976009368897">
        <ele>36.670000000000002</ele>
        <time>2017-06-17T09:26:40Z</time>
      </trkpt>
      <trkpt lat="54.802190009504557" lon="9.330218033865094">
        <ele>37.149999999999999</ele>
        <time>2017-06-17T09:26:50Z</time>
      </trkpt>
      <trkpt lat="54.803552990779281" lon="9.329571034759283">
        <ele>37.149999999999999</ele>
        <time>2017-06-17T09:27:01Z</time>
      </trkpt>
      <trkpt lat="54.804808013141155" lon="9.328952031210065">
        <ele>37.630000000000003</ele>
        <time>2017-06-17T09:27:15Z</time>
      </trkpt>
      <trkpt lat="54.806137969717383" lon="9.328293967992067">
        <ele>38.109999999999999</ele>
        <time>2017-06-17T09:27:33Z</time>
      </trkpt>
      <trkpt lat="54.807089986279607" lon="9.327745037153363">
        <ele>38.109999999999999</ele>
        <time>2017-06-17T09:27:43Z</time>
      </trkpt>
      <trkpt lat="54.808455985039473" lon="9.327101977542043">
        <ele>38.109999999999999</ele>
        <time>2017-06-17T09:27:53Z</time>
      </trkpt>
      <trkpt lat="54.810732007026672" lon="9.325972013175488">
        <ele>37.630000000000003</ele>
        <time>2017-06-17T09:28:06Z</time>
      </trkpt>
      <trkpt lat="54.813688974827528" lon="9.324899967759848">
        <ele>38.109999999999999</ele>
        <time>2017-06-17T09:28:21Z</time>
      </trkpt>
      <trkpt lat="54.816912990063429" lon="9.324380038306117">
        <ele>38.109999999999999</ele>
        <time>2017-06-17T09:28:36Z</time>
      </trkpt>
      <trkpt lat="54.819766022264957" lon="9.324498977512121">
        <ele>38.590000000000003</ele>
        <time>2017-06-17T09:28:48Z</time>
      </trkpt>
      <trkpt lat="54.822691977024078" lon="9.325410006567836">
        <ele>38.109999999999999</ele>
        <time>2017-06-17T09:29:00Z</time>
      </trkpt>
      <trkpt lat="54.82531500980258" lon="9.327011033892632">
        <ele>37.149999999999999</ele>
        <time>2017-06-17T09:29:11Z</time>
      </trkpt>
      <trkpt lat="54.827817007899284" lon="9.329362995922566">
        <ele>37.149999999999999</ele>
        <time>2017-06-17T09:29:22Z</time>
      </trkpt>
      <trkpt lat="54.83103197067976" lon="9.333440959453583">
        <ele>37.630000000000003</ele>
        <time>2017-06-17T09:29:37Z</time>
      </trkpt>
      <trkpt lat="54.834428988397121" lon="9.337237039580941">
        <ele>38.590000000000003</ele>
        <time>2017-06-17T09:29:52Z</time>
      </trkpt>
      <trkpt lat="54.839223017916083" lon="9.341593030840159">
        <ele>43.880000000000003</ele>
        <time>2017-06-17T09:30:12Z</time>
      </trkpt>
      <trkpt lat="54.844482997432351" lon="9.346821997314692">
        <ele>42.920000000000002</ele>
        <time>2017-06-17T09:30:34Z</time>
      </trkpt>
      <trkpt lat="54.848780985921621" lon="9.351607980206609">
        <ele>33.299999999999997</ele>
        <time>2017-06-17T09:30:53Z</time>
      </trkpt>
      <trkpt lat="54.853542996570468" lon="9.357057977467775">
        <ele>29.940000000000001</ele>
        <time>2017-06-17T09:31:14Z</time>
      </trkpt>
      <trkpt lat="54.858095040544868" lon="9.362272024154663">
        <ele>28.5</ele>
        <time>2017-06-17T09:31:35Z</time>
      </trkpt>
      <trkpt lat="54.86044499091804" lon="9.364918023347855">
        <ele>29.940000000000001</ele>
        <time>2017-06-17T09:31:45Z</time>
      </trkpt>
      <trkpt lat="54.863910991698503" lon="9.368930021300912">
        <ele>29.460000000000001</ele>
        <time>2017-06-17T09:32:00Z</time>
      </trkpt>
      <trkpt lat="54.868205040693283" lon="9.373411992564797">
        <ele>28.98</ele>
        <time>2017-06-17T09:32:18Z</time>
      </trkpt>
      <trkpt lat="54.871268039569259" lon="9.37567301094532">
        <ele>28.5</ele>
        <time>2017-06-17T09:32:30Z</time>
      </trkpt>
      <trkpt lat="54.874462969601154" lon="9.377369005233049">
        <ele>28.98</ele>
        <time>2017-06-17T09:32:42Z</time>
      </trkpt>
      <trkpt lat="54.878145977854729" lon="9.378357985988259">
        <ele>28.98</ele>
        <time>2017-06-17T09:32:55Z</time>
      </trkpt>
      <trkpt lat="54.881728990003467" lon="9.378730980679393">
        <ele>29.940000000000001</ele>
        <time>2017-06-17T09:33:08Z</time>
      </trkpt>
      <trkpt lat="54.88551702350378" lon="9.378643976524472">
        <ele>29.940000000000001</ele>
        <time>2017-06-17T09:33:22Z</time>
      </trkpt>
      <trkpt lat="54.8885259591043" lon="9.378314986824989">
        <ele>29.940000000000001</ele>
        <time>2017-06-17T09:33:33Z</time>
      </trkpt>
      <trkpt lat="54.89039302803576" lon="9.378028996288776">
        <ele>29.940000000000001</ele>
        <time>2017-06-17T09:33:40Z</time>
      </trkpt>
      <trkpt lat="54.893442029133439" lon="9.377571009099484">
        <ele>29.940000000000001</ele>
        <time>2017-06-17T09:33:52Z</time>
      </trkpt>
      <trkpt lat="54.896736033260822" lon="9.377326006069779">
        <ele>29.460000000000001</ele>
        <time>2017-06-17T09:34:04Z</time>
      </trkpt>
      <trkpt lat="54.900395991280675" lon="9.377572014927864">
        <ele>28.98</ele>
        <time>2017-06-17T09:34:17Z</time>
      </trkpt>
      <trkpt lat="54.904441013932228" lon="9.378612963482738">
        <ele>28.98</ele>
        <time>2017-06-17T09:34:31Z</time>
      </trkpt>
      <trkpt lat="54.908497016876936" lon="9.380236035212874">
        <ele>28.98</ele>
        <time>2017-06-17T09:34:46Z</time>
      </trkpt>
      <trkpt lat="54.91235101595521" lon="9.381563980132341">
        <ele>29.940000000000001</ele>
        <time>2017-06-17T09:35:00Z</time>
      </trkpt>
      <trkpt lat="54.915264984592795" lon="9.382321033626795">
        <ele>29.940000000000001</ele>
        <time>2017-06-17T09:35:10Z</time>
      </trkpt>
      <trkpt lat="54.918147018179297" lon="9.382771980017424">
        <ele>30.420000000000002</ele>
        <time>2017-06-17T09:35:20Z</time>
      </trkpt>
      <trkpt lat="54.922441989183426" lon="9.383352007716894">
        <ele>30.420000000000002</ele>
        <time>2017-06-17T09:35:35Z</time>
      </trkpt>
      <trkpt lat="54.927539024502039" lon="9.383685020729899">
        <ele>31.859999999999999</ele>
        <time>2017-06-17T09:35:53Z</time>
      </trkpt>
      <trkpt lat="54.933913964778185" lon="9.38379499129951">
        <ele>30.899999999999999</ele>
        <time>2017-06-17T09:36:15Z</time>
      </trkpt>
      <trkpt lat="54.937676014378667" lon="9.383586030453444">
        <ele>30.420000000000002</ele>
        <time>2017-06-17T09:36:28Z</time>
      </trkpt>
      <trkpt lat="54.942430984228849" lon="9.383612014353275">
        <ele>29.940000000000001</ele>
        <time>2017-06-17T09:36:44Z</time>
      </trkpt>
      <trkpt lat="54.946536021307111" lon="9.384104032069445">
        <ele>30.420000000000002</ele>
        <time>2017-06-17T09:36:58Z</time>
      </trkpt>
      <trkpt lat="54.948418010026217" lon="9.384531006217003">
        <ele>32.82</ele>
        <time>2017-06-17T09:37:05Z</time>
      </trkpt>
      <trkpt lat="54.951672032475471" lon="9.385126959532499">
        <ele>33.299999999999997</ele>
        <time>2017-06-17T09:37:17Z</time>
      </trkpt>
      <trkpt lat="54.955331990495324" lon="9.385137017816305">
        <ele>34.259999999999998</ele>
        <time>2017-06-17T09:37:30Z</time>
      </trkpt>
      <trkpt lat="54.959205016493797" lon="9.384549027308822">
        <ele>35.229999999999997</ele>
        <time>2017-06-17T09:37:43Z</time>
      </trkpt>
      <trkpt lat="54.96346402913332" lon="9.383199959993362">
        <ele>35.710000000000001</ele>
        <time>2017-06-17T09:37:57Z</time>
      </trkpt>
      <trkpt lat="54.966949978843331" lon="9.382304018363357">
        <ele>37.630000000000003</ele>
        <time>2017-06-17T09:38:08Z</time>
      </trkpt>
      <trkpt lat="54.971040012314916" lon="9.381870003417134">
        <ele>36.670000000000002</ele>
        <time>2017-06-17T09:38:21Z</time>
      </trkpt>
      <trkpt lat="54.975480996072292" lon="9.381672022864223">
        <ele>36.670000000000002</ele>
        <time>2017-06-17T09:38:35Z</time>
      </trkpt>
      <trkpt lat="54.979955004528165" lon="9.380770968273282">
        <ele>35.710000000000001</ele>
        <time>2017-06-17T09:38:49Z</time>
      </trkpt>
      <trkpt lat="54.982186015695333" lon="9.380088010802865">
        <ele>36.189999999999998</ele>
        <time>2017-06-17T09:38:57Z</time>
      </trkpt>
      <trkpt lat="54.984176969155669" lon="9.379342021420598">
        <ele>35.710000000000001</ele>
        <time>2017-06-17T09:39:04Z</time>
      </trkpt>
      <trkpt lat="54.987646993249655" lon="9.377704029902816">
        <ele>35.229999999999997</ele>
        <time>2017-06-17T09:39:15Z</time>
      </trkpt>
      <trkpt lat="54.991993010044098" lon="9.375042021274567">
        <ele>35.710000000000001</ele>
        <time>2017-06-17T09:39:30Z</time>
      </trkpt>
      <trkpt lat="54.995727986097336" lon="9.372265012934804">
        <ele>37.149999999999999</ele>
        <time>2017-06-17T09:39:43Z</time>
      </trkpt>
      <trkpt lat="54.999461034312844" lon="9.369457997381687">
        <ele>40.030000000000001</ele>
        <time>2017-06-17T09:39:56Z</time>
      </trkpt>
      <trkpt lat="55.001673018559813" lon="9.367768038064241">
        <ele>42.439999999999998</ele>
        <time>2017-06-17T09:40:06Z</time>
      </trkpt>
      <trkpt lat="55.006249034777284" lon="9.364448972046375">
        <ele>52.530000000000001</ele>
        <time>2017-06-17T09:40:27Z</time>
      </trkpt>
      <trkpt lat="55.008923029527068" lon="9.36310300603509">
        <ele>58.780000000000001</ele>
        <time>2017-06-17T09:40:39Z</time>
      </trkpt>
      <trkpt lat="55.011497028172016" lon="9.362542005255818">
        <ele>62.140000000000001</ele>
        <time>2017-06-17T09:40:50Z</time>
      </trkpt>
      <trkpt lat="55.014495989307761" lon="9.362605037167668">
        <ele>63.100000000000001</ele>
        <time>2017-06-17T09:41:02Z</time>
      </trkpt>
      <trkpt lat="55.019279960542917" lon="9.363035028800368">
        <ele>64.549999999999997</ele>
        <time>2017-06-17T09:41:21Z</time>
      </trkpt>
      <trkpt lat="55.021879021078348" lon="9.362591039389372">
        <ele>65.030000000000001</ele>
        <time>2017-06-17T09:41:31Z</time>
      </trkpt>
      <trkpt lat="55.024498030543327" lon="9.36146903783083">
        <ele>63.579999999999998</ele>
        <time>2017-06-17T09:41:41Z</time>
      </trkpt>
      <trkpt lat="55.027623977512121" lon="9.359398959204555">
        <ele>61.18</ele>
        <time>2017-06-17T09:41:53Z</time>
      </trkpt>
      <trkpt lat="55.032029002904892" lon="9.356643995270133">
        <ele>58.299999999999997</ele>
        <time>2017-06-17T09:42:09Z</time>
      </trkpt>
      <trkpt lat="55.033694989979267" lon="9.355779988691211">
        <ele>57.340000000000003</ele>
        <time>2017-06-17T09:42:16Z</time>
      </trkpt>
      <trkpt lat="55.037213964387774" lon="9.354303013533354">
        <ele>55.409999999999997</ele>
        <time>2017-06-17T09:42:31Z</time>
      </trkpt>
      <trkpt lat="55.041251024231315" lon="9.353131977841258">
        <ele>53.490000000000002</ele>
        <time>2017-06-17T09:42:46Z</time>
      </trkpt>
      <trkpt lat="55.044001964852214" lon="9.352643983438611">
        <ele>52.049999999999997</ele>
        <time>2017-06-17T09:42:56Z</time>
      </trkpt>
      <trkpt lat="55.048204986378551" lon="9.352481039240956">
        <ele>50.130000000000003</ele>
        <time>2017-06-17T09:43:11Z</time>
      </trkpt>
      <trkpt lat="55.051452973857522" lon="9.352967021986842">
        <ele>47.719999999999999</ele>
        <time>2017-06-17T09:43:23Z</time>
      </trkpt>
      <trkpt lat="55.054542040452361" lon="9.354135962203145">
        <ele>46.280000000000001</ele>
        <time>2017-06-17T09:43:34Z</time>
      </trkpt>
      <trkpt lat="55.058598965406418" lon="9.356784978881478">
        <ele>43.880000000000003</ele>
        <time>2017-06-17T09:43:48Z</time>
      </trkpt>
      <trkpt lat="55.062795029953122" lon="9.360058028250933">
        <ele>41.469999999999999</ele>
        <time>2017-06-17T09:44:03Z</time>
      </trkpt>
      <trkpt lat="55.066886991262436" lon="9.363262010738254">
        <ele>40.030000000000001</ele>
        <time>2017-06-17T09:44:18Z</time>
      </trkpt>
      <trkpt lat="55.071674985811114" lon="9.367105029523373">
        <ele>41.469999999999999</ele>
        <time>2017-06-17T09:44:35Z</time>
      </trkpt>
      <trkpt lat="55.075585981830955" lon="9.369985973462462">
        <ele>42.920000000000002</ele>
        <time>2017-06-17T09:44:49Z</time>
      </trkpt>
      <trkpt lat="55.079435035586357" lon="9.372033001855016">
        <ele>43.880000000000003</ele>
        <time>2017-06-17T09:45:02Z</time>
      </trkpt>
      <trkpt lat="55.082514965906739" lon="9.372758958488703">
        <ele>43.880000000000003</ele>
        <time>2017-06-17T09:45:12Z</time>
      </trkpt>
      <trkpt lat="55.085636973381042" lon="9.372557960450649">
        <ele>42.920000000000002</ele>
        <time>2017-06-17T09:45:22Z</time>
      </trkpt>
      <trkpt lat="55.088308034464717" lon="9.371635029092431">
        <ele>41.469999999999999</ele>
        <time>2017-06-17T09:45:31Z</time>
      </trkpt>
      <trkpt lat="55.091693988069892" lon="9.370089992880821">
        <ele>40.990000000000002</ele>
        <time>2017-06-17T09:45:42Z</time>
      </trkpt>
      <trkpt lat="55.096118040382862" lon="9.368358962237835">
        <ele>41.950000000000003</ele>
        <time>2017-06-17T09:45:56Z</time>
      </trkpt>
      <trkpt lat="55.10039197281003" lon="9.367269985377789">
        <ele>42.920000000000002</ele>
        <time>2017-06-17T09:46:09Z</time>
      </trkpt>
      <trkpt lat="55.104243960231543" lon="9.366914005950093">
        <ele>44.359999999999999</ele>
        <time>2017-06-17T09:46:21Z</time>
      </trkpt>
      <trkpt lat="55.107810962945223" lon="9.367446005344391">
        <ele>45.799999999999997</ele>
        <time>2017-06-17T09:46:32Z</time>
      </trkpt>
      <trkpt lat="55.110911009833217" lon="9.368641013279557">
        <ele>46.280000000000001</ele>
        <time>2017-06-17T09:46:42Z</time>
      </trkpt>
      <trkpt lat="55.116064958274364" lon="9.371148040518165">
        <ele>50.130000000000003</ele>
        <time>2017-06-17T09:46:59Z</time>
      </trkpt>
      <trkpt lat="55.120923025533557" lon="9.373264973983169">
        <ele>50.609999999999999</ele>
        <time>2017-06-17T09:47:15Z</time>
      </trkpt>
      <trkpt lat="55.126241007819772" lon="9.374802969396114">
        <ele>48.68</ele>
        <time>2017-06-17T09:47:32Z</time>
      </trkpt>
      <trkpt lat="55.13049297966063" lon="9.375503025949001">
        <ele>48.200000000000003</ele>
        <time>2017-06-17T09:47:46Z</time>
      </trkpt>
      <trkpt lat="55.134862968698144" lon="9.375765966251493">
        <ele>46.759999999999998</ele>
        <time>2017-06-17T09:48:00Z</time>
      </trkpt>
      <trkpt lat="55.139662027359009" lon="9.375451980158687">
        <ele>44.359999999999999</ele>
        <time>2017-06-17T09:48:15Z</time>
      </trkpt>
      <trkpt lat="55.143259037286043" lon="9.374944036826491">
        <ele>43.399999999999999</ele>
        <time>2017-06-17T09:48:26Z</time>
      </trkpt>
      <trkpt lat="55.147027038037777" lon="9.374059997498989">
        <ele>44.840000000000003</ele>
        <time>2017-06-17T09:48:38Z</time>
      </trkpt>
      <trkpt lat="55.150536959990859" lon="9.372969008982182">
        <ele>46.280000000000001</ele>
        <time>2017-06-17T09:48:49Z</time>
      </trkpt>
      <trkpt lat="55.15562997199595" lon="9.371920013800263">
        <ele>49.159999999999997</ele>
        <time>2017-06-17T09:49:05Z</time>
      </trkpt>
      <trkpt lat="55.159148024395108" lon="9.371939962729812">
        <ele>51.57</ele>
        <time>2017-06-17T09:49:16Z</time>
      </trkpt>
      <trkpt lat="55.161571986973286" lon="9.372307006269693">
        <ele>52.530000000000001</ele>
        <time>2017-06-17T09:49:25Z</time>
      </trkpt>
      <trkpt lat="55.164313958957791" lon="9.372962974011898">
        <ele>52.530000000000001</ele>
        <time>2017-06-17T09:49:37Z</time>
      </trkpt>
      <trkpt lat="55.16688896343112" lon="9.373505031690002">
        <ele>51.57</ele>
        <time>2017-06-17T09:49:48Z</time>
      </trkpt>
      <trkpt lat="55.169840985909104" lon="9.373790016397834">
        <ele>49.649999999999999</ele>
        <time>2017-06-17T09:50:01Z</time>
      </trkpt>
      <trkpt lat="55.172375002875924" lon="9.373781969770789">
        <ele>50.609999999999999</ele>
        <time>2017-06-17T09:50:11Z</time>
      </trkpt>
      <trkpt lat="55.175421992316842" lon="9.373237984254956">
        <ele>54.450000000000003</ele>
        <time>2017-06-17T09:50:22Z</time>
      </trkpt>
      <trkpt lat="55.178791014477611" lon="9.371875002980232">
        <ele>59.740000000000002</ele>
        <time>2017-06-17T09:50:34Z</time>
      </trkpt>
      <trkpt lat="55.181640023365617" lon="9.370780996978283">
        <ele>65.030000000000001</ele>
        <time>2017-06-17T09:50:44Z</time>
      </trkpt>
      <trkpt lat="55.184748033061624" lon="9.370208010077477">
        <ele>66.469999999999999</ele>
        <time>2017-06-17T09:50:54Z</time>
      </trkpt>
      <trkpt lat="55.187872974202037" lon="9.370484026148915">
        <ele>63.579999999999998</ele>
        <time>2017-06-17T09:51:04Z</time>
      </trkpt>
      <trkpt lat="55.191051978617907" lon="9.371563028544188">
        <ele>57.340000000000003</ele>
        <time>2017-06-17T09:51:14Z</time>
      </trkpt>
      <trkpt lat="55.195434959605336" lon="9.373541995882988">
        <ele>44.840000000000003</ele>
        <time>2017-06-17T09:51:28Z</time>
      </trkpt>
      <trkpt lat="55.198497958481312" lon="9.374154964461923">
        <ele>39.07</ele>
        <time>2017-06-17T09:51:38Z</time>
      </trkpt>
      <trkpt lat="55.201303968206048" lon="9.373926976695657">
        <ele>38.590000000000003</ele>
        <time>2017-06-17T09:51:48Z</time>
      </trkpt>
      <trkpt lat="55.204140990972519" lon="9.373167995363474">
        <ele>41.469999999999999</ele>
        <time>2017-06-17T09:51:58Z</time>
      </trkpt>
      <trkpt lat="55.207831040024757" lon="9.372131992131472">
        <ele>45.32</ele>
        <time>2017-06-17T09:52:11Z</time>
      </trkpt>
      <trkpt lat="55.210422975942492" lon="9.372026966884732">
        <ele>46.759999999999998</ele>
        <time>2017-06-17T09:52:21Z</time>
      </trkpt>
      <trkpt lat="55.213480023667216" lon="9.372652005404234">
        <ele>46.759999999999998</ele>
        <time>2017-06-17T09:52:33Z</time>
      </trkpt>
      <trkpt lat="55.21591798402369" lon="9.373677028343082">
        <ele>45.799999999999997</ele>
        <time>2017-06-17T09:52:42Z</time>
      </trkpt>
      <trkpt lat="55.218496005982161" lon="9.375332035124302">
        <ele>45.32</ele>
        <time>2017-06-17T09:52:51Z</time>
      </trkpt>
      <trkpt lat="55.220693992450833" lon="9.376949993893504">
        <ele>44.359999999999999</ele>
        <time>2017-06-17T09:53:00Z</time>
      </trkpt>
      <trkpt lat="55.224159993231297" lon="9.379062987864018">
        <ele>41.469999999999999</ele>
        <time>2017-06-17T09:53:13Z</time>
      </trkpt>
      <trkpt lat="55.227920031175017" lon="9.380710031837225">
        <ele>34.740000000000002</ele>
        <time>2017-06-17T09:53:27Z</time>
      </trkpt>
      <trkpt lat="55.230857972055674" lon="9.382338970899582">
        <ele>28.5</ele>
        <time>2017-06-17T09:53:38Z</time>
      </trkpt>
      <trkpt lat="55.233478993177414" lon="9.384784977883101">
        <ele>25.609999999999999</ele>
        <time>2017-06-17T09:53:48Z</time>
      </trkpt>
      <trkpt lat="55.235481010749936" lon="9.387413039803505">
        <ele>24.649999999999999</ele>
        <time>2017-06-17T09:53:56Z</time>
      </trkpt>
      <trkpt lat="55.237590987235308" lon="9.391248011961579">
        <ele>27.530000000000001</ele>
        <time>2017-06-17T09:54:06Z</time>
      </trkpt>
      <trkpt lat="55.239737005904317" lon="9.395250035449863">
        <ele>30.420000000000002</ele>
        <time>2017-06-17T09:54:16Z</time>
      </trkpt>
      <trkpt lat="55.242014033719897" lon="9.398222006857395">
        <ele>32.340000000000003</ele>
        <time>2017-06-17T09:54:25Z</time>
      </trkpt>
      <trkpt lat="55.244292989373207" lon="9.400319997221232">
        <ele>33.299999999999997</ele>
        <time>2017-06-17T09:54:34Z</time>
      </trkpt>
      <trkpt lat="55.246994979679585" lon="9.402244985103607">
        <ele>33.299999999999997</ele>
        <time>2017-06-17T09:54:45Z</time>
      </trkpt>
      <trkpt lat="55.251186015084386" lon="9.405370010063052">
        <ele>33.780000000000001</ele>
        <time>2017-06-17T09:55:02Z</time>
      </trkpt>
      <trkpt lat="55.255506969988346" lon="9.408971965312958">
        <ele>32.82</ele>
        <time>2017-06-17T09:55:19Z</time>
      </trkpt>
      <trkpt lat="55.259148990735412" lon="9.412206038832665">
        <ele>31.379999999999999</ele>
        <time>2017-06-17T09:55:33Z</time>
      </trkpt>
      <trkpt lat="55.262527987360954" lon="9.415279012173414">
        <ele>30.420000000000002</ele>
        <time>2017-06-17T09:55:46Z</time>
      </trkpt>
      <trkpt lat="55.26657803915441" lon="9.419077020138502">
        <ele>31.859999999999999</ele>
        <time>2017-06-17T09:56:03Z</time>
      </trkpt>
      <trkpt lat="55.270371017977595" lon="9.422370018437505">
        <ele>37.149999999999999</ele>
        <time>2017-06-17T09:56:18Z</time>
      </trkpt>
      <trkpt lat="55.274728015065193" lon="9.425384989008308">
        <ele>42.439999999999998</ele>
        <time>2017-06-17T09:56:34Z</time>
      </trkpt>
      <trkpt lat="55.279107978567481" lon="9.42766604013741">
        <ele>48.200000000000003</ele>
        <time>2017-06-17T09:56:49Z</time>
      </trkpt>
      <trkpt lat="55.282202996313572" lon="9.428877979516983">
        <ele>52.530000000000001</ele>
        <time>2017-06-17T09:57:00Z</time>
      </trkpt>
      <trkpt lat="55.284995008260012" lon="9.429691024124622">
        <ele>56.369999999999997</ele>
        <time>2017-06-17T09:57:12Z</time>
      </trkpt>
      <trkpt lat="55.287614017724991" lon="9.430199973285198">
        <ele>59.740000000000002</ele>
        <time>2017-06-17T09:57:24Z</time>
      </trkpt>
      <trkpt lat="55.289022009819746" lon="9.430382028222084">
        <ele>59.740000000000002</ele>
        <time>2017-06-17T09:57:30Z</time>
      </trkpt>
      <trkpt lat="55.291144978255033" lon="9.430570034310222">
        <ele>61.18</ele>
        <time>2017-06-17T09:57:40Z</time>
      </trkpt>
      <trkpt lat="55.29319703578949" lon="9.430626025423408">
        <ele>60.700000000000003</ele>
        <time>2017-06-17T09:57:50Z</time>
      </trkpt>
      <trkpt lat="55.295508010312915" lon="9.430654020980001">
        <ele>60.700000000000003</ele>
        <time>2017-06-17T09:58:02Z</time>
      </trkpt>
      <trkpt lat="55.298452991992235" lon="9.430688973516226">
        <ele>58.299999999999997</ele>
        <time>2017-06-17T09:58:15Z</time>
      </trkpt>
      <trkpt lat="55.302958013489842" lon="9.430943029001355">
        <ele>54.93</ele>
        <time>2017-06-17T09:58:34Z</time>
      </trkpt>
      <trkpt lat="55.307559007778764" lon="9.431577958166599">
        <ele>50.609999999999999</ele>
        <time>2017-06-17T09:58:52Z</time>
      </trkpt>
      <trkpt lat="55.31169799156487" lon="9.432540033012629">
        <ele>47.719999999999999</ele>
        <time>2017-06-17T09:59:09Z</time>
      </trkpt>
      <trkpt lat="55.313614010810852" lon="9.433131041005254">
        <ele>46.280000000000001</ele>
        <time>2017-06-17T09:59:18Z</time>
      </trkpt>
      <trkpt lat="55.316664017736912" lon="9.434310039505363">
        <ele>45.32</ele>
        <time>2017-06-17T09:59:33Z</time>
      </trkpt>
      <trkpt lat="55.320225991308689" lon="9.436135031282902">
        <ele>43.399999999999999</ele>
        <time>2017-06-17T09:59:49Z</time>
      </trkpt>
      <trkpt lat="55.322481980547309" lon="9.437516033649445">
        <ele>42.920000000000002</ele>
        <time>2017-06-17T10:00:00Z</time>
      </trkpt>
      <trkpt lat="55.325805991888046" lon="9.439631961286068">
        <ele>41.469999999999999</ele>
        <time>2017-06-17T10:00:18Z</time>
      </trkpt>
      <trkpt lat="55.32907996326685" lon="9.44139501079917">
        <ele>40.990000000000002</ele>
        <time>2017-06-17T10:00:35Z</time>
      </trkpt>
      <trkpt lat="55.3312480263412" lon="9.442271003499627">
        <ele>40.509999999999998</ele>
        <time>2017-06-17T10:00:47Z</time>
      </trkpt>
      <trkpt lat="55.333513990044594" lon="9.442980028688908">
        <ele>38.590000000000003</ele>
        <time>2017-06-17T10:01:01Z</time>
      </trkpt>
      <trkpt lat="55.335708037018776" lon="9.443556033074856">
        <ele>36.670000000000002</ele>
        <time>2017-06-17T10:01:14Z</time>
      </trkpt>
      <trkpt lat="55.339001035317779" lon="9.444075040519238">
        <ele>31.379999999999999</ele>
        <time>2017-06-17T10:01:30Z</time>
      </trkpt>
      <trkpt lat="55.341997984796762" lon="9.444405036047101">
        <ele>26.09</ele>
        <time>2017-06-17T10:01:43Z</time>
      </trkpt>
      <trkpt lat="55.344947995617986" lon="9.444779036566615">
        <ele>22.25</ele>
        <time>2017-06-17T10:01:56Z</time>
      </trkpt>
      <trkpt lat="55.348768969997764" lon="9.445486972108483">
        <ele>22.25</ele>
        <time>2017-06-17T10:02:15Z</time>
      </trkpt>
      <trkpt lat="55.352495983242989" lon="9.446392972022295">
        <ele>26.09</ele>
        <time>2017-06-17T10:02:32Z</time>
      </trkpt>
      <trkpt lat="55.355928959324956" lon="9.447441967204213">
        <ele>29.940000000000001</ele>
        <time>2017-06-17T10:02:48Z</time>
      </trkpt>
      <trkpt lat="55.358787020668387" lon="9.448408987373114">
        <ele>33.780000000000001</ele>
        <time>2017-06-17T10:03:02Z</time>
      </trkpt>
      <trkpt lat="55.361552964895964" lon="9.449379025027156">
        <ele>37.149999999999999</ele>
        <time>2017-06-17T10:03:15Z</time>
      </trkpt>
      <trkpt lat="55.364276999607682" lon="9.450262980535626">
        <ele>41.950000000000003</ele>
        <time>2017-06-17T10:03:29Z</time>
      </trkpt>
      <trkpt lat="55.367813995108008" lon="9.451025985181332">
        <ele>44.840000000000003</ele>
        <time>2017-06-17T10:03:47Z</time>
      </trkpt>
      <trkpt lat="55.370640037581325" lon="9.451329996809363">
        <ele>45.799999999999997</ele>
        <time>2017-06-17T10:04:02Z</time>
      </trkpt>
      <trkpt lat="55.373623995110393" lon="9.451452037319541">
        <ele>48.200000000000003</ele>
        <time>2017-06-17T10:04:18Z</time>
      </trkpt>
      <trkpt lat="55.377671029418707" lon="9.451239975169301">
        <ele>50.609999999999999</ele>
        <time>2017-06-17T10:04:38Z</time>
      </trkpt>
      <trkpt lat="55.380479972809553" lon="9.450836973264813">
        <ele>52.049999999999997</ele>
        <time>2017-06-17T10:04:52Z</time>
      </trkpt>
      <trkpt lat="55.383402993902564" lon="9.450178993865848">
        <ele>53.969999999999999</ele>
        <time>2017-06-17T10:05:06Z</time>
      </trkpt>
      <trkpt lat="55.387596962973475" lon="9.449170986190438">
        <ele>54.450000000000003</ele>
        <time>2017-06-17T10:05:25Z</time>
      </trkpt>
      <trkpt lat="55.390985012054443" lon="9.448694977909327">
        <ele>53.009999999999998</ele>
        <time>2017-06-17T10:05:40Z</time>
      </trkpt>
      <trkpt lat="55.393102029338479" lon="9.448712999001145">
        <ele>50.609999999999999</ele>
        <time>2017-06-17T10:05:48Z</time>
      </trkpt>
      <trkpt lat="55.395883983001113" lon="9.449275005608797">
        <ele>46.280000000000001</ele>
        <time>2017-06-17T10:05:57Z</time>
      </trkpt>
      <trkpt lat="55.397558016702533" lon="9.449896020814776">
        <ele>43.880000000000003</ele>
        <time>2017-06-17T10:06:03Z</time>
      </trkpt>
      <trkpt lat="55.40006403811276" lon="9.45128196850419">
        <ele>41.469999999999999</ele>
        <time>2017-06-17T10:06:13Z</time>
      </trkpt>
      <trkpt lat="55.402451036497951" lon="9.452788028866053">
        <ele>40.509999999999998</ele>
        <time>2017-06-17T10:06:23Z</time>
      </trkpt>
      <trkpt lat="55.404554978013039" lon="9.453866025432944">
        <ele>40.030000000000001</ele>
        <time>2017-06-17T10:06:31Z</time>
      </trkpt>
      <trkpt lat="55.40670401416719" lon="9.45467496290803">
        <ele>40.030000000000001</ele>
        <time>2017-06-17T10:06:39Z</time>
      </trkpt>
      <trkpt lat="55.409981003031135" lon="9.4552549906075">
        <ele>41.950000000000003</ele>
        <time>2017-06-17T10:06:50Z</time>
      </trkpt>
      <trkpt lat="55.415424965322018" lon="9.456270039081574">
        <ele>44.840000000000003</ele>
        <time>2017-06-17T10:07:08Z</time>
      </trkpt>
      <trkpt lat="55.419214004650712" lon="9.457905013114214">
        <ele>46.759999999999998</ele>
        <time>2017-06-17T10:07:21Z</time>
      </trkpt>
      <trkpt lat="55.42365700006485" lon="9.459832012653351">
        <ele>48.68</ele>
        <time>2017-06-17T10:07:37Z</time>
      </trkpt>
      <trkpt lat="55.427177986130118" lon="9.460523016750813">
        <ele>49.649999999999999</ele>
        <time>2017-06-17T10:07:50Z</time>
      </trkpt>
      <trkpt lat="55.430193962529302" lon="9.460424026474357">
        <ele>50.609999999999999</ele>
        <time>2017-06-17T10:08:02Z</time>
      </trkpt>
      <trkpt lat="55.433492995798588" lon="9.459795970469713">
        <ele>52.530000000000001</ele>
        <time>2017-06-17T10:08:15Z</time>
      </trkpt>
      <trkpt lat="55.437157982960343" lon="9.45847699418664">
        <ele>53.969999999999999</ele>
        <time>2017-06-17T10:08:31Z</time>
      </trkpt>
      <trkpt lat="55.441051041707397" lon="9.456556029617786">
        <ele>53.009999999999998</ele>
        <time>2017-06-17T10:08:47Z</time>
      </trkpt>
      <trkpt lat="55.445868037641048" lon="9.454084960743785">
        <ele>49.159999999999997</ele>
        <time>2017-06-17T10:09:04Z</time>
      </trkpt>
      <trkpt lat="55.451380982995033" lon="9.451095974072814">
        <ele>49.649999999999999</ele>
        <time>2017-06-17T10:09:23Z</time>
      </trkpt>
      <trkpt lat="55.455045970156789" lon="9.449079036712647">
        <ele>53.969999999999999</ele>
        <time>2017-06-17T10:09:36Z</time>
      </trkpt>
      <trkpt lat="55.458669969812036" lon="9.446591036394239">
        <ele>54.450000000000003</ele>
        <time>2017-06-17T10:09:49Z</time>
      </trkpt>
      <trkpt lat="55.462262034416199" lon="9.443297032266855">
        <ele>50.609999999999999</ele>
        <time>2017-06-17T10:10:02Z</time>
      </trkpt>
      <trkpt lat="55.464943991973996" lon="9.440289018675685">
        <ele>47.719999999999999</ele>
        <time>2017-06-17T10:10:13Z</time>
      </trkpt>
      <trkpt lat="55.466943997889757" lon="9.437515027821064">
        <ele>47.240000000000002</ele>
        <time>2017-06-17T10:10:22Z</time>
      </trkpt>
      <trkpt lat="55.46940098516643" lon="9.433453995734453">
        <ele>48.68</ele>
        <time>2017-06-17T10:10:34Z</time>
      </trkpt>
      <trkpt lat="55.472301039844751" lon="9.42887001670897">
        <ele>48.200000000000003</ele>
        <time>2017-06-17T10:10:48Z</time>
      </trkpt>
      <trkpt lat="55.474576978012919" lon="9.426246983930469">
        <ele>46.280000000000001</ele>
        <time>2017-06-17T10:10:58Z</time>
      </trkpt>
      <trkpt lat="55.477139996364713" lon="9.424231974408031">
        <ele>41.469999999999999</ele>
        <time>2017-06-17T10:11:08Z</time>
      </trkpt>
      <trkpt lat="55.479549039155245" lon="9.423088012263179">
        <ele>38.590000000000003</ele>
        <time>2017-06-17T10:11:17Z</time>
      </trkpt>
      <trkpt lat="55.482402993366122" lon="9.422384016215801">
        <ele>40.030000000000001</ele>
        <time>2017-06-17T10:11:28Z</time>
      </trkpt>
      <trkpt lat="55.485982988029718" lon="9.421713966876268">
        <ele>38.109999999999999</ele>
        <time>2017-06-17T10:11:41Z</time>
      </trkpt>
      <trkpt lat="55.490792021155357" lon="9.42100502550602">
        <ele>23.210000000000001</ele>
        <time>2017-06-17T10:11:57Z</time>
      </trkpt>
      <trkpt lat="55.494921030476689" lon="9.420587019994855">
        <ele>5.42</ele>
        <time>2017-06-17T10:12:11Z</time>
      </trkpt>
      <trkpt lat="55.49898499622941" lon="9.420541003346443">
        <ele>4.94</ele>
        <time>2017-06-17T10:12:25Z</time>
      </trkpt>
      <trkpt lat="55.501633007079363" lon="9.421493019908667">
        <ele>12.15</ele>
        <time>2017-06-17T10:12:35Z</time>
      </trkpt>
      <trkpt lat="55.504144979640841" lon="9.423235030844808">
        <ele>22.25</ele>
        <time>2017-06-17T10:12:45Z</time>
      </trkpt>
      <trkpt lat="55.506696011871099" lon="9.42601203918457">
        <ele>33.780000000000001</ele>
        <time>2017-06-17T10:12:56Z</time>
      </trkpt>
      <trkpt lat="55.510225966572762" lon="9.430317990481854">
        <ele>44.359999999999999</ele>
        <time>2017-06-17T10:13:11Z</time>
      </trkpt>
      <trkpt lat="55.513842003419995" lon="9.434683034196496">
        <ele>46.759999999999998</ele>
        <time>2017-06-17T10:13:26Z</time>
      </trkpt>
      <trkpt lat="55.51744001917541" lon="9.438957972452045">
        <ele>46.280000000000001</ele>
        <time>2017-06-17T10:13:41Z</time>
      </trkpt>
      <trkpt lat="55.520502012223005" lon="9.442751035094261">
        <ele>44.840000000000003</ele>
        <time>2017-06-17T10:13:54Z</time>
      </trkpt>
      <trkpt lat="55.523066958412528" lon="9.446246037259698">
        <ele>44.840000000000003</ele>
        <time>2017-06-17T10:14:05Z</time>
      </trkpt>
      <trkpt lat="55.525008039548993" lon="9.449859978631139">
        <ele>44.359999999999999</ele>
        <time>2017-06-17T10:14:15Z</time>
      </trkpt>
      <trkpt lat="55.526781985536218" lon="9.454389978200197">
        <ele>47.719999999999999</ele>
        <time>2017-06-17T10:14:26Z</time>
      </trkpt>
      <trkpt lat="55.528114959597588" lon="9.45931401103735">
        <ele>51.57</ele>
        <time>2017-06-17T10:14:37Z</time>
      </trkpt>
      <trkpt lat="55.529058007523417" lon="9.464764008298516">
        <ele>47.719999999999999</ele>
        <time>2017-06-17T10:14:48Z</time>
      </trkpt>
      <trkpt lat="55.529528986662626" lon="9.469716958701611">
        <ele>46.280000000000001</ele>
        <time>2017-06-17T10:14:58Z</time>
      </trkpt>
      <trkpt lat="55.530409002676606" lon="9.478181004524231">
        <ele>56.859999999999999</ele>
        <time>2017-06-17T10:15:16Z</time>
      </trkpt>
      <trkpt lat="55.531509965658188" lon="9.488739017397165">
        <ele>61.659999999999997</ele>
        <time>2017-06-17T10:15:38Z</time>
      </trkpt>
      <trkpt lat="55.532447984442115" lon="9.494440974667668">
        <ele>62.619999999999997</ele>
        <time>2017-06-17T10:15:50Z</time>
      </trkpt>
      <trkpt lat="55.533732008188963" lon="9.498898973688483">
        <ele>58.299999999999997</ele>
        <time>2017-06-17T10:16:00Z</time>
      </trkpt>
      <trkpt lat="55.535399001091719" lon="9.503048015758395">
        <ele>51.57</ele>
        <time>2017-06-17T10:16:10Z</time>
      </trkpt>
      <trkpt lat="55.537554994225502" lon="9.507079040631652">
        <ele>52.049999999999997</ele>
        <time>2017-06-17T10:16:21Z</time>
      </trkpt>
      <trkpt lat="55.540312975645065" lon="9.512037020176649">
        <ele>58.299999999999997</ele>
        <time>2017-06-17T10:16:36Z</time>
      </trkpt>
      <trkpt lat="55.542551027610898" lon="9.516460988670588">
        <ele>54.93</ele>
        <time>2017-06-17T10:16:48Z</time>
      </trkpt>
      <trkpt lat="55.544209973886609" lon="9.521072963252664">
        <ele>53.009999999999998</ele>
        <time>2017-06-17T10:16:59Z</time>
      </trkpt>
      <trkpt lat="55.545337004587054" lon="9.525901023298502">
        <ele>56.369999999999997</ele>
        <time>2017-06-17T10:17:10Z</time>
      </trkpt>
      <trkpt lat="55.54653100669384" lon="9.531114986166358">
        <ele>53.009999999999998</ele>
        <time>2017-06-17T10:17:22Z</time>
      </trkpt>
      <trkpt lat="55.54786398075521" lon="9.534872006624937">
        <ele>48.200000000000003</ele>
        <time>2017-06-17T10:17:31Z</time>
      </trkpt>
      <trkpt lat="55.549877984449267" lon="9.539062958210707">
        <ele>44.840000000000003</ele>
        <time>2017-06-17T10:17:42Z</time>
      </trkpt>
      <trkpt lat="55.552293984219432" lon="9.542614035308361">
        <ele>44.359999999999999</ele>
        <time>2017-06-17T10:17:53Z</time>
      </trkpt>
      <trkpt lat="55.555015001446009" lon="9.545331029221416">
        <ele>48.200000000000003</ele>
        <time>2017-06-17T10:18:04Z</time>
      </trkpt>
      <trkpt lat="55.558851985260844" lon="9.548896020278335">
        <ele>53.969999999999999</ele>
        <time>2017-06-17T10:18:19Z</time>
      </trkpt>
      <trkpt lat="55.56311602704227" lon="9.553416967391968">
        <ele>54.93</ele>
        <time>2017-06-17T10:18:36Z</time>
      </trkpt>
      <trkpt lat="55.565916001796722" lon="9.55679596401751">
        <ele>52.530000000000001</ele>
        <time>2017-06-17T10:18:48Z</time>
      </trkpt>
      <trkpt lat="55.569376973435283" lon="9.561158996075392">
        <ele>48.68</ele>
        <time>2017-06-17T10:19:03Z</time>
      </trkpt>
      <trkpt lat="55.573722990229726" lon="9.566431967541575">
        <ele>44.840000000000003</ele>
        <time>2017-06-17T10:19:22Z</time>
      </trkpt>
      <trkpt lat="55.578385004773736" lon="9.57166001200676">
        <ele>43.399999999999999</ele>
        <time>2017-06-17T10:19:42Z</time>
      </trkpt>
      <trkpt lat="55.583539037033916" lon="9.576959973201156">
        <ele>41.950000000000003</ele>
        <time>2017-06-17T10:20:03Z</time>
      </trkpt>
      <trkpt lat="55.587770976126194" lon="9.580869963392615">
        <ele>43.399999999999999</ele>
        <time>2017-06-17T10:20:20Z</time>
      </trkpt>
      <trkpt lat="55.591394975781441" lon="9.583813017234206">
        <ele>45.799999999999997</ele>
        <time>2017-06-17T10:20:35Z</time>
      </trkpt>
      <trkpt lat="55.594483036547899" lon="9.585768012329936">
        <ele>48.68</ele>
        <time>2017-06-17T10:20:47Z</time>
      </trkpt>
      <trkpt lat="55.597484009340405" lon="9.586883978918195">
        <ele>50.609999999999999</ele>
        <time>2017-06-17T10:20:58Z</time>
      </trkpt>
      <trkpt lat="55.600586989894509" lon="9.587119007483125">
        <ele>53.009999999999998</ele>
        <time>2017-06-17T10:21:09Z</time>
      </trkpt>
      <trkpt lat="55.603484027087688" lon="9.586420962586999">
        <ele>52.530000000000001</ele>
        <time>2017-06-17T10:21:19Z</time>
      </trkpt>
      <trkpt lat="55.607716972008348" lon="9.58438198082149">
        <ele>52.049999999999997</ele>
        <time>2017-06-17T10:21:34Z</time>
      </trkpt>
      <trkpt lat="55.61158798635006" lon="9.582179971039295">
        <ele>52.530000000000001</ele>
        <time>2017-06-17T10:21:49Z</time>
      </trkpt>
      <trkpt lat="55.615608030930161" lon="9.57948200404644">
        <ele>53.490000000000002</ele>
        <time>2017-06-17T10:22:06Z</time>
      </trkpt>
      <trkpt lat="55.619398998096585" lon="9.576102001592517">
        <ele>53.490000000000002</ele>
        <time>2017-06-17T10:22:22Z</time>
      </trkpt>
      <trkpt lat="55.623686006292701" lon="9.5714679826051">
        <ele>55.890000000000001</ele>
        <time>2017-06-17T10:22:41Z</time>
      </trkpt>
      <trkpt lat="55.627657016739249" lon="9.567414997145534">
        <ele>57.340000000000003</ele>
        <time>2017-06-17T10:22:58Z</time>
      </trkpt>
      <trkpt lat="55.631409008055925" lon="9.564518965780735">
        <ele>58.780000000000001</ele>
        <time>2017-06-17T10:23:13Z</time>
      </trkpt>
      <trkpt lat="55.635235011577606" lon="9.562481995671988">
        <ele>59.259999999999998</ele>
        <time>2017-06-17T10:23:27Z</time>
      </trkpt>
      <trkpt lat="55.639083981513977" lon="9.561235019937158">
        <ele>60.700000000000003</ele>
        <time>2017-06-17T10:23:41Z</time>
      </trkpt>
      <trkpt lat="55.642822980880737" lon="9.560749959200621">
        <ele>62.619999999999997</ele>
        <time>2017-06-17T10:23:54Z</time>
      </trkpt>
      <trkpt lat="55.646562986075878" lon="9.560965038836002">
        <ele>62.140000000000001</ele>
        <time>2017-06-17T10:24:07Z</time>
      </trkpt>
      <trkpt lat="55.651586009189487" lon="9.561399975791574">
        <ele>59.740000000000002</ele>
        <time>2017-06-17T10:24:25Z</time>
      </trkpt>
      <trkpt lat="55.654697958379984" lon="9.560838975012302">
        <ele>59.259999999999998</ele>
        <time>2017-06-17T10:24:36Z</time>
      </trkpt>
      <trkpt lat="55.657665990293026" lon="9.559551011770964">
        <ele>61.18</ele>
        <time>2017-06-17T10:24:47Z</time>
      </trkpt>
      <trkpt lat="55.661006011068821" lon="9.557231990620494">
        <ele>63.100000000000001</ele>
        <time>2017-06-17T10:25:00Z</time>
      </trkpt>
      <trkpt lat="55.664477963000536" lon="9.554922021925449">
        <ele>64.069999999999993</ele>
        <time>2017-06-17T10:25:13Z</time>
      </trkpt>
      <trkpt lat="55.667904987931252" lon="9.553752997890115">
        <ele>59.740000000000002</ele>
        <time>2017-06-17T10:25:25Z</time>
      </trkpt>
      <trkpt lat="55.671299993991852" lon="9.553559962660074">
        <ele>54.450000000000003</ele>
        <time>2017-06-17T10:25:37Z</time>
      </trkpt>
      <trkpt lat="55.674060992896557" lon="9.554295977577567">
        <ele>54.93</ele>
        <time>2017-06-17T10:25:47Z</time>
      </trkpt>
      <trkpt lat="55.676761977374554" lon="9.555919971317053">
        <ele>58.780000000000001</ele>
        <time>2017-06-17T10:25:57Z</time>
      </trkpt>
      <trkpt lat="55.679332036525011" lon="9.558521965518594">
        <ele>60.219999999999999</ele>
        <time>2017-06-17T10:26:07Z</time>
      </trkpt>
      <trkpt lat="55.681474031880498" lon="9.56158303655684">
        <ele>58.780000000000001</ele>
        <time>2017-06-17T10:26:16Z</time>
      </trkpt>
      <trkpt lat="55.683238003402948" lon="9.564111018553376">
        <ele>55.890000000000001</ele>
        <time>2017-06-17T10:26:24Z</time>
      </trkpt>
      <trkpt lat="55.68571200594306" lon="9.566684011369944">
        <ele>50.609999999999999</ele>
        <time>2017-06-17T10:26:34Z</time>
      </trkpt>
      <trkpt lat="55.688349958509207" lon="9.568420993164182">
        <ele>47.719999999999999</ele>
        <time>2017-06-17T10:26:44Z</time>
      </trkpt>
      <trkpt lat="55.690564960241318" lon="9.569339985027909">
        <ele>45.799999999999997</ele>
        <time>2017-06-17T10:26:53Z</time>
      </trkpt>
      <trkpt lat="55.693111969158053" lon="9.570325026288629">
        <ele>44.359999999999999</ele>
        <time>2017-06-17T10:27:03Z</time>
      </trkpt>
      <trkpt lat="55.697932988405228" lon="9.572315979748964">
        <ele>42.439999999999998</ele>
        <time>2017-06-17T10:27:22Z</time>
      </trkpt>
      <trkpt lat="55.701260017231107" lon="9.57365901209414">
        <ele>40.990000000000002</ele>
        <time>2017-06-17T10:27:35Z</time>
      </trkpt>
      <trkpt lat="55.704774968326092" lon="9.575108997523785">
        <ele>38.109999999999999</ele>
        <time>2017-06-17T10:27:49Z</time>
      </trkpt>
      <trkpt lat="55.708695016801357" lon="9.5767090190202">
        <ele>36.670000000000002</ele>
        <time>2017-06-17T10:28:04Z</time>
      </trkpt>
      <trkpt lat="55.711313020437956" lon="9.577112020924687">
        <ele>39.07</ele>
        <time>2017-06-17T10:28:13Z</time>
      </trkpt>
      <trkpt lat="55.71357998996973" lon="9.576706001535058">
        <ele>41.469999999999999</ele>
        <time>2017-06-17T10:28:21Z</time>
      </trkpt>
      <trkpt lat="55.716078970581293" lon="9.576009968295693">
        <ele>45.32</ele>
        <time>2017-06-17T10:28:31Z</time>
      </trkpt>
      <trkpt lat="55.719044990837574" lon="9.575834032148123">
        <ele>49.159999999999997</ele>
        <time>2017-06-17T10:28:42Z</time>
      </trkpt>
      <trkpt lat="55.722116036340594" lon="9.576091021299362">
        <ele>47.240000000000002</ele>
        <time>2017-06-17T10:28:53Z</time>
      </trkpt>
      <trkpt lat="55.72657504118979" lon="9.576287996023893">
        <ele>51.57</ele>
        <time>2017-06-17T10:29:09Z</time>
      </trkpt>
      <trkpt lat="55.732698021456599" lon="9.576659984886646">
        <ele>72.239999999999995</ele>
        <time>2017-06-17T10:29:31Z</time>
      </trkpt>
      <trkpt lat="55.735877025872469" lon="9.577232971787453">
        <ele>80.890000000000001</ele>
        <time>2017-06-17T10:29:43Z</time>
      </trkpt>
      <trkpt lat="55.739120990037918" lon="9.578531999140978">
        <ele>86.180000000000007</ele>
        <time>2017-06-17T10:29:55Z</time>
      </trkpt>
      <trkpt lat="55.742744989693165" lon="9.58090097643435">
        <ele>88.579999999999998</ele>
        <time>2017-06-17T10:30:09Z</time>
      </trkpt>
      <trkpt lat="55.745744034647942" lon="9.58371696062386">
        <ele>87.620000000000005</ele>
        <time>2017-06-17T10:30:21Z</time>
      </trkpt>
      <trkpt lat="55.749558974057436" lon="9.588189963251352">
        <ele>80.409999999999997</ele>
        <time>2017-06-17T10:30:37Z</time>
      </trkpt>
      <trkpt lat="55.752997985109687" lon="9.592869998887181">
        <ele>77.519999999999996</ele>
        <time>2017-06-17T10:30:52Z</time>
      </trkpt>
      <trkpt lat="55.756402965635061" lon="9.598189992830157">
        <ele>77.040000000000006</ele>
        <time>2017-06-17T10:31:08Z</time>
      </trkpt>
      <trkpt lat="55.758921978995204" lon="9.602724015712738">
        <ele>80.409999999999997</ele>
        <time>2017-06-17T10:31:21Z</time>
      </trkpt>
      <trkpt lat="55.761865032836795" lon="9.608846995979548">
        <ele>83.769999999999996</ele>
        <time>2017-06-17T10:31:37Z</time>
      </trkpt>
      <trkpt lat="55.764124039560556" lon="9.614840978756547">
        <ele>82.810000000000002</ele>
        <time>2017-06-17T10:31:51Z</time>
      </trkpt>
      <trkpt lat="55.765921035781503" lon="9.620959013700485">
        <ele>79.930000000000007</ele>
        <time>2017-06-17T10:32:04Z</time>
      </trkpt>
      <trkpt lat="55.767190977931023" lon="9.626683015376329">
        <ele>76.560000000000002</ele>
        <time>2017-06-17T10:32:15Z</time>
      </trkpt>
      <trkpt lat="55.768531998619437" lon="9.633990023285151">
        <ele>73.200000000000003</ele>
        <time>2017-06-17T10:32:29Z</time>
      </trkpt>
      <trkpt lat="55.770070999860764" lon="9.640795961022377">
        <ele>70.310000000000002</ele>
        <time>2017-06-17T10:32:42Z</time>
      </trkpt>
      <trkpt lat="55.77184502966702" lon="9.646197007969022">
        <ele>66.950000000000003</ele>
        <time>2017-06-17T10:32:53Z</time>
      </trkpt>
      <trkpt lat="55.773915024474263" lon="9.650980979204178">
        <ele>65.030000000000001</ele>
        <time>2017-06-17T10:33:04Z</time>
      </trkpt>
      <trkpt lat="55.776474019512534" lon="9.655607035383582">
        <ele>63.579999999999998</ele>
        <time>2017-06-17T10:33:16Z</time>
      </trkpt>
      <trkpt lat="55.779084982350469" lon="9.659161968156695">
        <ele>62.619999999999997</ele>
        <time>2017-06-17T10:33:27Z</time>
      </trkpt>
      <trkpt lat="55.781842041760683" lon="9.662132011726499">
        <ele>61.659999999999997</ele>
        <time>2017-06-17T10:33:38Z</time>
      </trkpt>
      <trkpt lat="55.786076998338103" lon="9.665839998051524">
        <ele>60.700000000000003</ele>
        <time>2017-06-17T10:33:54Z</time>
      </trkpt>
      <trkpt lat="55.790407005697489" lon="9.66901296749711">
        <ele>59.259999999999998</ele>
        <time>2017-06-17T10:34:10Z</time>
      </trkpt>
      <trkpt lat="55.795312011614442" lon="9.671820988878608">
        <ele>57.82</ele>
        <time>2017-06-17T10:34:27Z</time>
      </trkpt>
      <trkpt lat="55.800081985071301" lon="9.673848990350962">
        <ele>56.859999999999999</ele>
        <time>2017-06-17T10:34:43Z</time>
      </trkpt>
      <trkpt lat="55.805404996499419" lon="9.675898030400276">
        <ele>54.93</ele>
        <time>2017-06-17T10:35:01Z</time>
      </trkpt>
      <trkpt lat="55.807826025411487" lon="9.67719697393477">
        <ele>54.93</ele>
        <time>2017-06-17T10:35:10Z</time>
      </trkpt>
      <trkpt lat="55.811300994828343" lon="9.679749011993408">
        <ele>53.969999999999999</ele>
        <time>2017-06-17T10:35:22Z</time>
      </trkpt>
      <trkpt lat="55.814874032512307" lon="9.683222975581884">
        <ele>52.049999999999997</ele>
        <time>2017-06-17T10:35:35Z</time>
      </trkpt>
      <trkpt lat="55.817921021953225" lon="9.686978990212083">
        <ele>50.130000000000003</ele>
        <time>2017-06-17T10:35:47Z</time>
      </trkpt>
      <trkpt lat="55.821855990216136" lon="9.692583968862891">
        <ele>48.200000000000003</ele>
        <time>2017-06-17T10:36:03Z</time>
      </trkpt>
      <trkpt lat="55.825313022360206" lon="9.698449959978461">
        <ele>45.32</ele>
        <time>2017-06-17T10:36:18Z</time>
      </trkpt>
      <trkpt lat="55.82800998352468" lon="9.704014034941793">
        <ele>45.799999999999997</ele>
        <time>2017-06-17T10:36:31Z</time>
      </trkpt>
      <trkpt lat="55.830904003232718" lon="9.710807986557484">
        <ele>48.200000000000003</ele>
        <time>2017-06-17T10:36:46Z</time>
      </trkpt>
      <trkpt lat="55.833805985748768" lon="9.7180409822613">
        <ele>49.159999999999997</ele>
        <time>2017-06-17T10:37:02Z</time>
      </trkpt>
      <trkpt lat="55.837028995156288" lon="9.725144980475307">
        <ele>44.840000000000003</ele>
        <time>2017-06-17T10:37:18Z</time>
      </trkpt>
      <trkpt lat="55.840696999803185" lon="9.731771964579821">
        <ele>32.82</ele>
        <time>2017-06-17T10:37:34Z</time>
      </trkpt>
      <trkpt lat="55.844344971701503" lon="9.737273007631302">
        <ele>25.129999999999999</ele>
        <time>2017-06-17T10:37:49Z</time>
      </trkpt>
      <trkpt lat="55.847702007740736" lon="9.741551969200373">
        <ele>22.25</ele>
        <time>2017-06-17T10:38:02Z</time>
      </trkpt>
      <trkpt lat="55.851625995710492" lon="9.745885999873281">
        <ele>23.210000000000001</ele>
        <time>2017-06-17T10:38:17Z</time>
      </trkpt>
      <trkpt lat="55.855416962876916" lon="9.750077035278082">
        <ele>25.129999999999999</ele>
        <time>2017-06-17T10:38:31Z</time>
      </trkpt>
      <trkpt lat="55.859107011929154" lon="9.75456403568387">
        <ele>27.530000000000001</ele>
        <time>2017-06-17T10:38:45Z</time>
      </trkpt>
      <trkpt lat="55.860826978459954" lon="9.756923038512468">
        <ele>27.530000000000001</ele>
        <time>2017-06-17T10:38:53Z</time>
      </trkpt>
      <trkpt lat="55.863834992051125" lon="9.761447003111243">
        <ele>25.609999999999999</ele>
        <time>2017-06-17T10:39:08Z</time>
      </trkpt>
      <trkpt lat="55.865770038217306" lon="9.764508996158838">
        <ele>24.170000000000002</ele>
        <time>2017-06-17T10:39:20Z</time>
      </trkpt>
      <trkpt lat="55.868295002728701" lon="9.768168032169342">
        <ele>21.289999999999999</ele>
        <time>2017-06-17T10:39:35Z</time>
      </trkpt>
      <trkpt lat="55.871418016031384" lon="9.772103000432253">
        <ele>13.119999999999999</ele>
        <time>2017-06-17T10:39:51Z</time>
      </trkpt>
      <trkpt lat="55.87392101995647" lon="9.774998025968671">
        <ele>9.75</ele>
        <time>2017-06-17T10:40:02Z</time>
      </trkpt>
      <trkpt lat="55.87744502350688" lon="9.779193000867963">
        <ele>11.67</ele>
        <time>2017-06-17T10:40:15Z</time>
      </trkpt>
      <trkpt lat="55.879869991913438" lon="9.782469989731908">
        <ele>15.52</ele>
        <time>2017-06-17T10:40:24Z</time>
      </trkpt>
      <trkpt lat="55.882815979421139" lon="9.787038965150714">
        <ele>16.960000000000001</ele>
        <time>2017-06-17T10:40:36Z</time>
      </trkpt>
      <trkpt lat="55.886888997629285" lon="9.794584019109607">
        <ele>10.710000000000001</ele>
        <time>2017-06-17T10:40:54Z</time>
      </trkpt>
      <trkpt lat="55.890721036121249" lon="9.801812991499901">
        <ele>0.62</ele>
        <time>2017-06-17T10:41:11Z</time>
      </trkpt>
      <trkpt lat="55.893922001123428" lon="9.80658003129065">
        <ele>1.58</ele>
        <time>2017-06-17T10:41:24Z</time>
      </trkpt>
      <trkpt lat="55.897135036066175" lon="9.810380972921848">
        <ele>10.23</ele>
        <time>2017-06-17T10:41:36Z</time>
      </trkpt>
      <trkpt lat="55.899811964482069" lon="9.812888000160456">
        <ele>22.25</ele>
        <time>2017-06-17T10:41:46Z</time>
      </trkpt>
      <trkpt lat="55.902922991663218" lon="9.815248008817434">
        <ele>34.740000000000002</ele>
        <time>2017-06-17T10:41:58Z</time>
      </trkpt>
      <trkpt lat="55.906066037714481" lon="9.817028995603323">
        <ele>43.880000000000003</ele>
        <time>2017-06-17T10:42:10Z</time>
      </trkpt>
      <trkpt lat="55.909938979893923" lon="9.818617030978203">
        <ele>50.130000000000003</ele>
        <time>2017-06-17T10:42:23Z</time>
      </trkpt>
      <trkpt lat="55.914465039968491" lon="9.81992301531136">
        <ele>51.57</ele>
        <time>2017-06-17T10:42:38Z</time>
      </trkpt>
      <trkpt lat="55.918849026784301" lon="9.820722984150052">
        <ele>51.57</ele>
        <time>2017-06-17T10:42:52Z</time>
      </trkpt>
      <trkpt lat="55.922709982842207" lon="9.820785010233522">
        <ele>53.490000000000002</ele>
        <time>2017-06-17T10:43:04Z</time>
      </trkpt>
      <trkpt lat="55.926330965012312" lon="9.820182016119361">
        <ele>58.299999999999997</ele>
        <time>2017-06-17T10:43:16Z</time>
      </trkpt>
      <trkpt lat="55.930316979065537" lon="9.819107037037611">
        <ele>64.069999999999993</ele>
        <time>2017-06-17T10:43:29Z</time>
      </trkpt>
      <trkpt lat="55.933864032849669" lon="9.818668998777866">
        <ele>63.100000000000001</ele>
        <time>2017-06-17T10:43:40Z</time>
      </trkpt>
      <trkpt lat="55.938346004113555" lon="9.818993965163827">
        <ele>54.450000000000003</ele>
        <time>2017-06-17T10:43:54Z</time>
      </trkpt>
      <trkpt lat="55.941575970500708" lon="9.82011403888464">
        <ele>47.719999999999999</ele>
        <time>2017-06-17T10:44:04Z</time>
      </trkpt>
      <trkpt lat="55.944339986890554" lon="9.821980018168688">
        <ele>44.840000000000003</ele>
        <time>2017-06-17T10:44:13Z</time>
      </trkpt>
      <trkpt lat="55.946838967502117" lon="9.824601961299777">
        <ele>45.32</ele>
        <time>2017-06-17T10:44:22Z</time>
      </trkpt>
      <trkpt lat="55.949098980054259" lon="9.82793896459043">
        <ele>49.159999999999997</ele>
        <time>2017-06-17T10:44:31Z</time>
      </trkpt>
      <trkpt lat="55.951973972842097" lon="9.832666022703052">
        <ele>61.18</ele>
        <time>2017-06-17T10:44:43Z</time>
      </trkpt>
      <trkpt lat="55.954872015863657" lon="9.836307037621737">
        <ele>72.719999999999999</ele>
        <time>2017-06-17T10:44:54Z</time>
      </trkpt>
      <trkpt lat="55.957924034446478" lon="9.839329971000552">
        <ele>78</ele>
        <time>2017-06-17T10:45:05Z</time>
      </trkpt>
      <trkpt lat="55.961836036294699" lon="9.84329896979034">
        <ele>75.120000000000005</ele>
        <time>2017-06-17T10:45:19Z</time>
      </trkpt>
      <trkpt lat="55.964089008048177" lon="9.846722977235913">
        <ele>73.680000000000007</ele>
        <time>2017-06-17T10:45:28Z</time>
      </trkpt>
      <trkpt lat="55.965983988717198" lon="9.850784009322524">
        <ele>75.599999999999994</ele>
        <time>2017-06-17T10:45:37Z</time>
      </trkpt>
      <trkpt lat="55.967670008540154" lon="9.855751963332295">
        <ele>82.810000000000002</ele>
        <time>2017-06-17T10:45:47Z</time>
      </trkpt>
      <trkpt lat="55.969247985631227" lon="9.859489034861326">
        <ele>91.939999999999998</ele>
        <time>2017-06-17T10:45:55Z</time>
      </trkpt>
      <trkpt lat="55.971113964915276" lon="9.862633002921939">
        <ele>102.04000000000001</ele>
        <time>2017-06-17T10:46:03Z</time>
      </trkpt>
      <trkpt lat="55.973261995241046" lon="9.865141035988927">
        <ele>108.29000000000001</ele>
        <time>2017-06-17T10:46:11Z</time>
      </trkpt>
      <trkpt lat="55.975878993049264" lon="9.867056971415877">
        <ele>108.77</ele>
        <time>2017-06-17T10:46:20Z</time>
      </trkpt>
      <trkpt lat="55.978311002254486" lon="9.867975041270256">
        <ele>104.44</ele>
        <time>2017-06-17T10:46:28Z</time>
      </trkpt>
      <trkpt lat="55.981484977528453" lon="9.868127005174756">
        <ele>94.349999999999994</ele>
        <time>2017-06-17T10:46:38Z</time>
      </trkpt>
      <trkpt lat="55.986226033419371" lon="9.867745041847229">
        <ele>78.969999999999999</ele>
        <time>2017-06-17T10:46:53Z</time>
      </trkpt>
      <trkpt lat="55.99144502542913" lon="9.86766398884356">
        <ele>63.579999999999998</ele>
        <time>2017-06-17T10:47:09Z</time>
      </trkpt>
      <trkpt lat="55.995318973436952" lon="9.86839204095304">
        <ele>51.090000000000003</ele>
        <time>2017-06-17T10:47:21Z</time>
      </trkpt>
      <trkpt lat="55.998763013631105" lon="9.869964988902211">
        <ele>42.920000000000002</ele>
        <time>2017-06-17T10:47:32Z</time>
      </trkpt>
      <trkpt lat="56.00193003192544" lon="9.872183008119464">
        <ele>41.950000000000003</ele>
        <time>2017-06-17T10:47:43Z</time>
      </trkpt>
      <trkpt lat="56.005483958870173" lon="9.875299986451864">
        <ele>45.32</ele>
        <time>2017-06-17T10:47:56Z</time>
      </trkpt>
      <trkpt lat="56.007997021079063" lon="9.877965012565255">
        <ele>44.840000000000003</ele>
        <time>2017-06-17T10:48:06Z</time>
      </trkpt>
      <trkpt lat="56.010905038565397" lon="9.880720982328057">
        <ele>36.189999999999998</ele>
        <time>2017-06-17T10:48:18Z</time>
      </trkpt>
      <trkpt lat="56.013468978926539" lon="9.882275993004441">
        <ele>26.57</ele>
        <time>2017-06-17T10:48:28Z</time>
      </trkpt>
      <trkpt lat="56.016162000596523" lon="9.883060958236456">
        <ele>22.25</ele>
        <time>2017-06-17T10:48:38Z</time>
      </trkpt>
      <trkpt lat="56.01978600025177" lon="9.883230021223426">
        <ele>27.530000000000001</ele>
        <time>2017-06-17T10:48:51Z</time>
      </trkpt>
      <trkpt lat="56.022222032770514" lon="9.882864989340305">
        <ele>33.780000000000001</ele>
        <time>2017-06-17T10:49:01Z</time>
      </trkpt>
      <trkpt lat="56.026189019903541" lon="9.881954966112971">
        <ele>42.439999999999998</ele>
        <time>2017-06-17T10:49:19Z</time>
      </trkpt>
      <trkpt lat="56.029167026281357" lon="9.881893023848534">
        <ele>44.359999999999999</ele>
        <time>2017-06-17T10:49:32Z</time>
      </trkpt>
      <trkpt lat="56.031586965546012" lon="9.882558966055512">
        <ele>42.439999999999998</ele>
        <time>2017-06-17T10:49:41Z</time>
      </trkpt>
      <trkpt lat="56.034073960036039" lon="9.884187988936901">
        <ele>39.549999999999997</ele>
        <time>2017-06-17T10:49:50Z</time>
      </trkpt>
      <trkpt lat="56.036619963124394" lon="9.887006990611553">
        <ele>36.670000000000002</ele>
        <time>2017-06-17T10:50:00Z</time>
      </trkpt>
      <trkpt lat="56.038675960153341" lon="9.890322033315897">
        <ele>34.740000000000002</ele>
        <time>2017-06-17T10:50:09Z</time>
      </trkpt>
      <trkpt lat="56.041209977120161" lon="9.89548503421247">
        <ele>33.780000000000001</ele>
        <time>2017-06-17T10:50:21Z</time>
      </trkpt>
      <trkpt lat="56.043809959664941" lon="9.902037000283599">
        <ele>38.590000000000003</ele>
        <time>2017-06-17T10:50:35Z</time>
      </trkpt>
      <trkpt lat="56.045228010043502" lon="9.906307999044657">
        <ele>42.920000000000002</ele>
        <time>2017-06-17T10:50:44Z</time>
      </trkpt>
      <trkpt lat="56.047107987105846" lon="9.91282400675118">
        <ele>51.57</ele>
        <time>2017-06-17T10:50:57Z</time>
      </trkpt>
      <trkpt lat="56.04896399192512" lon="9.920769967138767">
        <ele>59.740000000000002</ele>
        <time>2017-06-17T10:51:12Z</time>
      </trkpt>
      <trkpt lat="56.05001600459218" lon="9.926742995157838">
        <ele>59.740000000000002</ele>
        <time>2017-06-17T10:51:23Z</time>
      </trkpt>
      <trkpt lat="56.051752986386418" lon="9.935914976522327">
        <ele>47.240000000000002</ele>
        <time>2017-06-17T10:51:40Z</time>
      </trkpt>
      <trkpt lat="56.053692977875471" lon="9.943930003792048">
        <ele>36.670000000000002</ele>
        <time>2017-06-17T10:51:55Z</time>
      </trkpt>
      <trkpt lat="56.055692983791232" lon="9.951128968968988">
        <ele>31.859999999999999</ele>
        <time>2017-06-17T10:52:09Z</time>
      </trkpt>
      <trkpt lat="56.057947967201471" lon="9.958269009366632">
        <ele>33.299999999999997</ele>
        <time>2017-06-17T10:52:24Z</time>
      </trkpt>
      <trkpt lat="56.060610981658101" lon="9.965080982074142">
        <ele>40.030000000000001</ele>
        <time>2017-06-17T10:52:39Z</time>
      </trkpt>
      <trkpt lat="56.063631987199187" lon="9.971525995060802">
        <ele>51.57</ele>
        <time>2017-06-17T10:52:54Z</time>
      </trkpt>
      <trkpt lat="56.067251963540912" lon="9.978767037391663">
        <ele>62.619999999999997</ele>
        <time>2017-06-17T10:53:11Z</time>
      </trkpt>
      <trkpt lat="56.069779023528099" lon="9.984899992123246">
        <ele>67.430000000000007</ele>
        <time>2017-06-17T10:53:24Z</time>
      </trkpt>
      <trkpt lat="56.07152103446424" lon="9.990111021324992">
        <ele>65.510000000000005</ele>
        <time>2017-06-17T10:53:35Z</time>
      </trkpt>
      <trkpt lat="56.073131030425429" lon="9.995082998648286">
        <ele>64.069999999999993</ele>
        <time>2017-06-17T10:53:46Z</time>
      </trkpt>
      <trkpt lat="56.075304960832" lon="10.000545987859368">
        <ele>64.069999999999993</ele>
        <time>2017-06-17T10:53:59Z</time>
      </trkpt>
      <trkpt lat="56.076643969863653" lon="10.003302963450551">
        <ele>65.030000000000001</ele>
        <time>2017-06-17T10:54:06Z</time>
      </trkpt>
      <trkpt lat="56.078962991014123" lon="10.007238015532494">
        <ele>66.469999999999999</ele>
        <time>2017-06-17T10:54:17Z</time>
      </trkpt>
      <trkpt lat="56.08202800154686" lon="10.011174995452166">
        <ele>66.469999999999999</ele>
        <time>2017-06-17T10:54:30Z</time>
      </trkpt>
      <trkpt lat="56.084750024601817" lon="10.013818982988596">
        <ele>65.510000000000005</ele>
        <time>2017-06-17T10:54:41Z</time>
      </trkpt>
      <trkpt lat="56.088629001751542" lon="10.016823979094625">
        <ele>62.619999999999997</ele>
        <time>2017-06-17T10:54:56Z</time>
      </trkpt>
      <trkpt lat="56.091769030317664" lon="10.019920002669096">
        <ele>60.219999999999999</ele>
        <time>2017-06-17T10:55:09Z</time>
      </trkpt>
      <trkpt lat="56.093441974371672" lon="10.0220110360533">
        <ele>58.299999999999997</ele>
        <time>2017-06-17T10:55:16Z</time>
      </trkpt>
      <trkpt lat="56.096473038196564" lon="10.026682019233704">
        <ele>53.969999999999999</ele>
        <time>2017-06-17T10:55:30Z</time>
      </trkpt>
      <trkpt lat="56.099134040996432" lon="10.032037971541286">
        <ele>49.159999999999997</ele>
        <time>2017-06-17T10:55:44Z</time>
      </trkpt>
      <trkpt lat="56.10078795813024" lon="10.034973984584212">
        <ele>46.280000000000001</ele>
        <time>2017-06-17T10:55:52Z</time>
      </trkpt>
      <trkpt lat="56.102994997054338" lon="10.037628030404449">
        <ele>43.880000000000003</ele>
        <time>2017-06-17T10:56:01Z</time>
      </trkpt>
      <trkpt lat="56.105407979339361" lon="10.039427038282156">
        <ele>43.880000000000003</ele>
        <time>2017-06-17T10:56:10Z</time>
      </trkpt>
      <trkpt lat="56.107914000749588" lon="10.040307976305485">
        <ele>45.32</ele>
        <time>2017-06-17T10:56:19Z</time>
      </trkpt>
      <trkpt lat="56.110741971060634" lon="10.04031996242702">
        <ele>47.240000000000002</ele>
        <time>2017-06-17T10:56:29Z</time>
      </trkpt>
      <trkpt lat="56.113515961915255" lon="10.039266021922231">
        <ele>48.68</ele>
        <time>2017-06-17T10:56:39Z</time>
      </trkpt>
      <trkpt lat="56.117183966562152" lon="10.037582013756037">
        <ele>45.799999999999997</ele>
        <time>2017-06-17T10:56:53Z</time>
      </trkpt>
      <trkpt lat="56.119039971381426" lon="10.036870976909995">
        <ele>42.439999999999998</ele>
        <time>2017-06-17T10:57:01Z</time>
      </trkpt>
      <trkpt lat="56.122344033792615" lon="10.035756016150117">
        <ele>33.780000000000001</ele>
        <time>2017-06-17T10:57:17Z</time>
      </trkpt>
      <trkpt lat="56.124324006959796" lon="10.035186968743801">
        <ele>27.530000000000001</ele>
        <time>2017-06-17T10:57:25Z</time>
      </trkpt>
      <trkpt lat="56.12824103794992" lon="10.034670978784561">
        <ele>12.15</ele>
        <time>2017-06-17T10:57:39Z</time>
      </trkpt>
      <trkpt lat="56.131882974877954" lon="10.034951018169522">
        <ele>4.46</ele>
        <time>2017-06-17T10:57:52Z</time>
      </trkpt>
      <trkpt lat="56.135217966511846" lon="10.03601904027164">
        <ele>3.02</ele>
        <time>2017-06-17T10:58:04Z</time>
      </trkpt>
      <trkpt lat="56.138653038069606" lon="10.038006976246834">
        <ele>7.35</ele>
        <time>2017-06-17T10:58:17Z</time>
      </trkpt>
      <trkpt lat="56.142258010804653" lon="10.040926979854703">
        <ele>12.15</ele>
        <time>2017-06-17T10:58:31Z</time>
      </trkpt>
      <trkpt lat="56.145443972200155" lon="10.043056989088655">
        <ele>14.56</ele>
        <time>2017-06-17T10:58:43Z</time>
      </trkpt>
      <trkpt lat="56.148676034063101" lon="10.044256020337343">
        <ele>17.440000000000001</ele>
        <time>2017-06-17T10:58:55Z</time>
      </trkpt>
      <trkpt lat="56.151757976040244" lon="10.044656004756689">
        <ele>17.920000000000002</ele>
        <time>2017-06-17T10:59:06Z</time>
      </trkpt>
      <trkpt lat="56.156228967010975" lon="10.04500100389123">
        <ele>20.809999999999999</ele>
        <time>2017-06-17T10:59:22Z</time>
      </trkpt>
      <trkpt lat="56.159577034413815" lon="10.045777000486851">
        <ele>24.649999999999999</ele>
        <time>2017-06-17T10:59:34Z</time>
      </trkpt>
      <trkpt lat="56.162155978381634" lon="10.047104023396969">
        <ele>29.940000000000001</ele>
        <time>2017-06-17T10:59:44Z</time>
      </trkpt>
      <trkpt lat="56.165233980864286" lon="10.049461014568806">
        <ele>34.740000000000002</ele>
        <time>2017-06-17T10:59:57Z</time>
      </trkpt>
      <trkpt lat="56.167362984269857" lon="10.051707029342651">
        <ele>38.590000000000003</ele>
        <time>2017-06-17T11:00:07Z</time>
      </trkpt>
      <trkpt lat="56.169707989320159" lon="10.054904976859689">
        <ele>43.880000000000003</ele>
        <time>2017-06-17T11:00:18Z</time>
      </trkpt>
      <trkpt lat="56.171974036842585" lon="10.058962991461158">
        <ele>49.649999999999999</ele>
        <time>2017-06-17T11:00:30Z</time>
      </trkpt>
      <trkpt lat="56.174462959170341" lon="10.063240025192499">
        <ele>55.890000000000001</ele>
        <time>2017-06-17T11:00:43Z</time>
      </trkpt>
      <trkpt lat="56.176860015839338" lon="10.066115017980337">
        <ele>58.299999999999997</ele>
        <time>2017-06-17T11:00:54Z</time>
      </trkpt>
      <trkpt lat="56.179286995902658" lon="10.068145031109452">
        <ele>59.259999999999998</ele>
        <time>2017-06-17T11:01:04Z</time>
      </trkpt>
      <trkpt lat="56.181852025911212" lon="10.069469958543777">
        <ele>57.340000000000003</ele>
        <time>2017-06-17T11:01:14Z</time>
      </trkpt>
      <trkpt lat="56.184355029836297" lon="10.070082005113363">
        <ele>52.530000000000001</ele>
        <time>2017-06-17T11:01:24Z</time>
      </trkpt>
      <trkpt lat="56.187463039532304" lon="10.07018300704658">
        <ele>48.200000000000003</ele>
        <time>2017-06-17T11:01:36Z</time>
      </trkpt>
      <trkpt lat="56.19057297706604" lon="10.070830006152391">
        <ele>48.68</ele>
        <time>2017-06-17T11:01:47Z</time>
      </trkpt>
      <trkpt lat="56.193862035870552" lon="10.072144037112594">
        <ele>49.649999999999999</ele>
        <time>2017-06-17T11:01:59Z</time>
      </trkpt>
      <trkpt lat="56.196593027561903" lon="10.073899962007999">
        <ele>49.159999999999997</ele>
        <time>2017-06-17T11:02:09Z</time>
      </trkpt>
      <trkpt lat="56.200766963884234" lon="10.077411979436874">
        <ele>50.130000000000003</ele>
        <time>2017-06-17T11:02:25Z</time>
      </trkpt>
      <trkpt lat="56.20447201654315" lon="10.081288022920489">
        <ele>51.090000000000003</ele>
        <time>2017-06-17T11:02:40Z</time>
      </trkpt>
      <trkpt lat="56.207964001223445" lon="10.085722971707582">
        <ele>51.57</ele>
        <time>2017-06-17T11:02:55Z</time>
      </trkpt>
      <trkpt lat="56.210716031491756" lon="10.090160015970469">
        <ele>51.090000000000003</ele>
        <time>2017-06-17T11:03:08Z</time>
      </trkpt>
      <trkpt lat="56.213017031550407" lon="10.094896964728832">
        <ele>47.719999999999999</ele>
        <time>2017-06-17T11:03:20Z</time>
      </trkpt>
      <trkpt lat="56.215003961697221" lon="10.100192986428738">
        <ele>39.549999999999997</ele>
        <time>2017-06-17T11:03:32Z</time>
      </trkpt>
      <trkpt lat="56.217551976442337" lon="10.107738962396979">
        <ele>30.420000000000002</ele>
        <time>2017-06-17T11:03:49Z</time>
      </trkpt>
      <trkpt lat="56.219703024253249" lon="10.112623013556004">
        <ele>30.899999999999999</ele>
        <time>2017-06-17T11:04:01Z</time>
      </trkpt>
      <trkpt lat="56.221978962421417" lon="10.116401994600892">
        <ele>37.149999999999999</ele>
        <time>2017-06-17T11:04:12Z</time>
      </trkpt>
      <trkpt lat="56.224807016551495" lon="10.119909988716245">
        <ele>48.200000000000003</ele>
        <time>2017-06-17T11:04:24Z</time>
      </trkpt>
      <trkpt lat="56.227889964357018" lon="10.122559005394578">
        <ele>61.659999999999997</ele>
        <time>2017-06-17T11:04:36Z</time>
      </trkpt>
      <trkpt lat="56.230831006541848" lon="10.124184004962444">
        <ele>70.790000000000006</ele>
        <time>2017-06-17T11:04:47Z</time>
      </trkpt>
      <trkpt lat="56.23401302844286" lon="10.1251620054245">
        <ele>75.599999999999994</ele>
        <time>2017-06-17T11:04:58Z</time>
      </trkpt>
      <trkpt lat="56.23728197067976" lon="10.125272981822491">
        <ele>75.599999999999994</ele>
        <time>2017-06-17T11:05:09Z</time>
      </trkpt>
      <trkpt lat="56.242124028503895" lon="10.124630006030202">
        <ele>65.510000000000005</ele>
        <time>2017-06-17T11:05:25Z</time>
      </trkpt>
      <trkpt lat="56.24701201915741" lon="10.124506959691644">
        <ele>58.299999999999997</ele>
        <time>2017-06-17T11:05:41Z</time>
      </trkpt>
      <trkpt lat="56.249066004529595" lon="10.124589018523693">
        <ele>56.369999999999997</ele>
        <time>2017-06-17T11:05:48Z</time>
      </trkpt>
      <trkpt lat="56.25416899099946" lon="10.125238029286265">
        <ele>54.450000000000003</ele>
        <time>2017-06-17T11:06:04Z</time>
      </trkpt>
      <trkpt lat="56.260884990915656" lon="10.126717016100883">
        <ele>56.369999999999997</ele>
        <time>2017-06-17T11:06:25Z</time>
      </trkpt>
      <trkpt lat="56.265481039881706" lon="10.128172030672431">
        <ele>59.740000000000002</ele>
        <time>2017-06-17T11:06:40Z</time>
      </trkpt>
      <trkpt lat="56.269627986475825" lon="10.129924016073346">
        <ele>58.299999999999997</ele>
        <time>2017-06-17T11:06:54Z</time>
      </trkpt>
      <trkpt lat="56.273985989391804" lon="10.132315037772059">
        <ele>56.369999999999997</ele>
        <time>2017-06-17T11:07:09Z</time>
      </trkpt>
      <trkpt lat="56.277232971042395" lon="10.134694995358586">
        <ele>57.82</ele>
        <time>2017-06-17T11:07:20Z</time>
      </trkpt>
      <trkpt lat="56.280998960137367" lon="10.137184001505375">
        <ele>60.219999999999999</ele>
        <time>2017-06-17T11:07:33Z</time>
      </trkpt>
      <trkpt lat="56.283983001485467" lon="10.138044990599155">
        <ele>61.18</ele>
        <time>2017-06-17T11:07:43Z</time>
      </trkpt>
      <trkpt lat="56.286964025348425" lon="10.138044990599155">
        <ele>62.140000000000001</ele>
        <time>2017-06-17T11:07:53Z</time>
      </trkpt>
      <trkpt lat="56.289614969864488" lon="10.137279974296689">
        <ele>61.659999999999997</ele>
        <time>2017-06-17T11:08:02Z</time>
      </trkpt>
      <trkpt lat="56.29223900847137" lon="10.135849015787244">
        <ele>58.299999999999997</ele>
        <time>2017-06-17T11:08:11Z</time>
      </trkpt>
      <trkpt lat="56.294724997133017" lon="10.133580034598708">
        <ele>54.450000000000003</ele>
        <time>2017-06-17T11:08:20Z</time>
      </trkpt>
      <trkpt lat="56.297730999067426" lon="10.129661997780204">
        <ele>50.609999999999999</ele>
        <time>2017-06-17T11:08:32Z</time>
      </trkpt>
      <trkpt lat="56.300947973504663" lon="10.125670032575727">
        <ele>50.609999999999999</ele>
        <time>2017-06-17T11:08:45Z</time>
      </trkpt>
      <trkpt lat="56.304080039262772" lon="10.122832003980875">
        <ele>54.93</ele>
        <time>2017-06-17T11:08:57Z</time>
      </trkpt>
      <trkpt lat="56.306996019557118" lon="10.121008018031716">
        <ele>56.369999999999997</ele>
        <time>2017-06-17T11:09:08Z</time>
      </trkpt>
      <trkpt lat="56.30846100859344" lon="10.120404018089175">
        <ele>55.890000000000001</ele>
        <time>2017-06-17T11:09:15Z</time>
      </trkpt>
      <trkpt lat="56.310229003429413" lon="10.120111992582679">
        <ele>54.93</ele>
        <time>2017-06-17T11:09:24Z</time>
      </trkpt>
      <trkpt lat="56.311449995264411" lon="10.120352972298861">
        <ele>57.82</ele>
        <time>2017-06-17T11:09:32Z</time>
      </trkpt>
      <trkpt lat="56.311873029917479" lon="10.1203060336411">
        <ele>59.259999999999998</ele>
        <time>2017-06-17T11:09:36Z</time>
      </trkpt>
      <trkpt lat="56.311934972181916" lon="10.120322965085506">
        <ele>59.259999999999998</ele>
        <time>2017-06-17T11:09:37Z</time>
      </trkpt>
      <trkpt lat="56.311979983001947" lon="10.120365964248776">
        <ele>58.780000000000001</ele>
        <time>2017-06-17T11:09:38Z</time>
      </trkpt>
      <trkpt lat="56.312013007700443" lon="10.120451962575316">
        <ele>58.780000000000001</ele>
        <time>2017-06-17T11:09:39Z</time>
      </trkpt>
      <trkpt lat="56.312024993821979" lon="10.120583977550268">
        <ele>59.259999999999998</ele>
        <time>2017-06-17T11:09:40Z</time>
      </trkpt>
      <trkpt lat="56.31202700547874" lon="10.120747005566955">
        <ele>59.740000000000002</ele>
        <time>2017-06-17T11:09:41Z</time>
      </trkpt>
      <trkpt lat="56.312022982165217" lon="10.120940040796995">
        <ele>59.259999999999998</ele>
        <time>2017-06-17T11:09:42Z</time>
      </trkpt>
      <trkpt lat="56.312143011018634" lon="10.123067032545805">
        <ele>57.82</ele>
        <time>2017-06-17T11:09:51Z</time>
      </trkpt>
      <trkpt lat="56.312453979626298" lon="10.126078985631466">
        <ele>53.490000000000002</ele>
        <time>2017-06-17T11:10:04Z</time>
      </trkpt>
      <trkpt lat="56.312311990186572" lon="10.12860101647675">
        <ele>53.009999999999998</ele>
        <time>2017-06-17T11:10:13Z</time>
      </trkpt>
      <trkpt lat="56.311940001323819" lon="10.130980974063277">
        <ele>51.090000000000003</ele>
        <time>2017-06-17T11:10:23Z</time>
      </trkpt>
      <trkpt lat="56.311542028561234" lon="10.133231012150645">
        <ele>48.68</ele>
        <time>2017-06-17T11:10:35Z</time>
      </trkpt>
      <trkpt lat="56.311428034678102" lon="10.134137012064457">
        <ele>48.200000000000003</ele>
        <time>2017-06-17T11:10:43Z</time>
      </trkpt>
      <trkpt lat="56.311348993331194" lon="10.134219992905855">
        <ele>48.200000000000003</ele>
        <time>2017-06-17T11:10:47Z</time>
      </trkpt>
      <trkpt lat="56.311311023309827" lon="10.134344967082143">
        <ele>48.68</ele>
        <time>2017-06-17T11:10:57Z</time>
      </trkpt>
      <trkpt lat="56.311289984732866" lon="10.134526016190648">
        <ele>48.200000000000003</ele>
        <time>2017-06-17T11:11:08Z</time>
      </trkpt>
      <trkpt lat="56.311328038573265" lon="10.134562980383635">
        <ele>49.649999999999999</ele>
        <time>2017-06-17T11:11:28Z</time>
      </trkpt>
      <trkpt lat="56.311330972239375" lon="10.13455300591886">
        <ele>49.649999999999999</ele>
        <time>2017-06-17T11:12:06Z</time>
      </trkpt>
      <trkpt lat="56.311332983896136" lon="10.134549988433719">
        <ele>48.68</ele>
        <time>2017-06-17T11:13:34Z</time>
      </trkpt>
      <trkpt lat="56.311370031908154" lon="10.134226027876139">
        <ele>8.789999999999999</ele>
        <time>2017-06-17T11:22:15Z</time>
      </trkpt>
      <trkpt lat="56.311446977779269" lon="10.134344967082143">
        <ele>51.57</ele>
        <time>2017-06-17T11:23:44Z</time>
      </trkpt>
      <trkpt lat="56.311453012749553" lon="10.134325018152595">
        <ele>52.049999999999997</ele>
        <time>2017-06-17T11:24:26Z</time>
      </trkpt>
      <trkpt lat="56.311417976394296" lon="10.134119996801019">
        <ele>53.490000000000002</ele>
        <time>2017-06-17T11:24:31Z</time>
      </trkpt>
      <trkpt lat="56.311414036899805" lon="10.134072974324226">
        <ele>53.009999999999998</ele>
        <time>2017-06-17T11:24:33Z</time>
      </trkpt>
      <trkpt lat="56.311453012749553" lon="10.134112033993006">
        <ele>53.969999999999999</ele>
        <time>2017-06-17T11:24:40Z</time>
      </trkpt>
      <trkpt lat="56.311539011076093" lon="10.13390801846981">
        <ele>53.969999999999999</ele>
        <time>2017-06-17T11:24:44Z</time>
      </trkpt>
      <trkpt lat="56.311553008854389" lon="10.133765023201704">
        <ele>53.969999999999999</ele>
        <time>2017-06-17T11:24:45Z</time>
      </trkpt>
      <trkpt lat="56.311764987185597" lon="10.132162990048528">
        <ele>56.859999999999999</ele>
        <time>2017-06-17T11:24:54Z</time>
      </trkpt>
      <trkpt lat="56.31207101047039" lon="10.130279995501041">
        <ele>55.409999999999997</ele>
        <time>2017-06-17T11:25:04Z</time>
      </trkpt>
      <trkpt lat="56.312464037910104" lon="10.127407014369965">
        <ele>57.340000000000003</ele>
        <time>2017-06-17T11:25:16Z</time>
      </trkpt>
      <trkpt lat="56.31241500377655" lon="10.125106014311314">
        <ele>57.340000000000003</ele>
        <time>2017-06-17T11:25:25Z</time>
      </trkpt>
      <trkpt lat="56.312025999650359" lon="10.121500035747886">
        <ele>61.18</ele>
        <time>2017-06-17T11:25:38Z</time>
      </trkpt>
      <trkpt lat="56.312015019357204" lon="10.120641980320215">
        <ele>60.700000000000003</ele>
        <time>2017-06-17T11:25:43Z</time>
      </trkpt>
      <trkpt lat="56.312010996043682" lon="10.120528992265463">
        <ele>61.18</ele>
        <time>2017-06-17T11:25:50Z</time>
      </trkpt>
      <trkpt lat="56.31200797855854" lon="10.120465960353613">
        <ele>61.18</ele>
        <time>2017-06-17T11:25:51Z</time>
      </trkpt>
      <trkpt lat="56.312019964680076" lon="10.120376022532582">
        <ele>61.18</ele>
        <time>2017-06-17T11:25:52Z</time>
      </trkpt>
      <trkpt lat="56.312060030177236" lon="10.12028600089252">
        <ele>60.700000000000003</ele>
        <time>2017-06-17T11:25:53Z</time>
      </trkpt>
      <trkpt lat="56.312125995755196" lon="10.120227998122573">
        <ele>60.219999999999999</ele>
        <time>2017-06-17T11:25:54Z</time>
      </trkpt>
      <trkpt lat="56.312220962718129" lon="10.120186004787683">
        <ele>59.740000000000002</ele>
        <time>2017-06-17T11:25:55Z</time>
      </trkpt>
      <trkpt lat="56.312323976308107" lon="10.120152980089188">
        <ele>59.259999999999998</ele>
        <time>2017-06-17T11:25:56Z</time>
      </trkpt>
      <trkpt lat="56.313346987590194" lon="10.119698010385036">
        <ele>52.049999999999997</ele>
        <time>2017-06-17T11:26:03Z</time>
      </trkpt>
      <trkpt lat="56.314738970249891" lon="10.119272964075208">
        <ele>47.719999999999999</ele>
        <time>2017-06-17T11:26:10Z</time>
      </trkpt>
      <trkpt lat="56.316894041374326" lon="10.119399027898908">
        <ele>44.359999999999999</ele>
        <time>2017-06-17T11:26:19Z</time>
      </trkpt>
      <trkpt lat="56.319750007241964" lon="10.120102018117905">
        <ele>44.359999999999999</ele>
        <time>2017-06-17T11:26:30Z</time>
      </trkpt>
      <trkpt lat="56.323311980813742" lon="10.121774962171912">
        <ele>51.090000000000003</ele>
        <time>2017-06-17T11:26:44Z</time>
      </trkpt>
      <trkpt lat="56.327641988173127" lon="10.123726017773151">
        <ele>60.219999999999999</ele>
        <time>2017-06-17T11:27:01Z</time>
      </trkpt>
      <trkpt lat="56.330952001735568" lon="10.124339992180467">
        <ele>62.140000000000001</ele>
        <time>2017-06-17T11:27:13Z</time>
      </trkpt>
      <trkpt lat="56.334628975018859" lon="10.124288024380803">
        <ele>59.740000000000002</ele>
        <time>2017-06-17T11:27:26Z</time>
      </trkpt>
      <trkpt lat="56.338040996342897" lon="10.123341958969831">
        <ele>54.450000000000003</ele>
        <time>2017-06-17T11:27:38Z</time>
      </trkpt>
      <trkpt lat="56.341686034575105" lon="10.121528031304479">
        <ele>48.68</ele>
        <time>2017-06-17T11:27:51Z</time>
      </trkpt>
      <trkpt lat="56.346648959442973" lon="10.11908202432096">
        <ele>44.359999999999999</ele>
        <time>2017-06-17T11:28:09Z</time>
      </trkpt>
      <trkpt lat="56.351678017526865" lon="10.117415031418204">
        <ele>45.32</ele>
        <time>2017-06-17T11:28:27Z</time>
      </trkpt>
      <trkpt lat="56.355033963918686" lon="10.116796027868986">
        <ele>48.68</ele>
        <time>2017-06-17T11:28:40Z</time>
      </trkpt>
      <trkpt lat="56.358689982444048" lon="10.116553036496043">
        <ele>53.009999999999998</ele>
        <time>2017-06-17T11:28:55Z</time>
      </trkpt>
      <trkpt lat="56.362533001229167" lon="10.116722015663981">
        <ele>56.859999999999999</ele>
        <time>2017-06-17T11:29:10Z</time>
      </trkpt>
      <trkpt lat="56.368262032046914" lon="10.117718037217855">
        <ele>59.259999999999998</ele>
        <time>2017-06-17T11:29:31Z</time>
      </trkpt>
      <trkpt lat="56.372666973620653" lon="10.11807200498879">
        <ele>53.490000000000002</ele>
        <time>2017-06-17T11:29:47Z</time>
      </trkpt>
      <trkpt lat="56.376017974689603" lon="10.117480996996164">
        <ele>44.840000000000003</ele>
        <time>2017-06-17T11:29:59Z</time>
      </trkpt>
      <trkpt lat="56.378810992464423" lon="10.116194039583206">
        <ele>38.109999999999999</ele>
        <time>2017-06-17T11:30:10Z</time>
      </trkpt>
      <trkpt lat="56.381666036322713" lon="10.114041985943913">
        <ele>33.780000000000001</ele>
        <time>2017-06-17T11:30:22Z</time>
      </trkpt>
      <trkpt lat="56.384083963930607" lon="10.111624980345368">
        <ele>30.420000000000002</ele>
        <time>2017-06-17T11:30:32Z</time>
      </trkpt>
      <trkpt lat="56.386525025591254" lon="10.10827599093318">
        <ele>28.02</ele>
        <time>2017-06-17T11:30:43Z</time>
      </trkpt>
      <trkpt lat="56.389285018667579" lon="10.103939026594162">
        <ele>23.690000000000001</ele>
        <time>2017-06-17T11:30:56Z</time>
      </trkpt>
      <trkpt lat="56.391757009550929" lon="10.101026985794306">
        <ele>20.809999999999999</ele>
        <time>2017-06-17T11:31:06Z</time>
      </trkpt>
      <trkpt lat="56.39448800124228" lon="10.098817013204098">
        <ele>20.809999999999999</ele>
        <time>2017-06-17T11:31:16Z</time>
      </trkpt>
      <trkpt lat="56.397627023980021" lon="10.097071984782815">
        <ele>21.77</ele>
        <time>2017-06-17T11:31:27Z</time>
      </trkpt>
      <trkpt lat="56.401158990338445" lon="10.094357002526522">
        <ele>21.77</ele>
        <time>2017-06-17T11:31:40Z</time>
      </trkpt>
      <trkpt lat="56.403583036735654" lon="10.091405985876918">
        <ele>23.690000000000001</ele>
        <time>2017-06-17T11:31:50Z</time>
      </trkpt>
      <trkpt lat="56.405879007652402" lon="10.087572019547224">
        <ele>26.09</ele>
        <time>2017-06-17T11:32:01Z</time>
      </trkpt>
      <trkpt lat="56.408734973520041" lon="10.082237021997571">
        <ele>26.57</ele>
        <time>2017-06-17T11:32:16Z</time>
      </trkpt>
      <trkpt lat="56.410819971933961" lon="10.079516004770994">
        <ele>27.050000000000001</ele>
        <time>2017-06-17T11:32:26Z</time>
      </trkpt>
      <trkpt lat="56.413435041904449" lon="10.077031021937728">
        <ele>25.609999999999999</ele>
        <time>2017-06-17T11:32:37Z</time>
      </trkpt>
      <trkpt lat="56.415861016139388" lon="10.074575040489435">
        <ele>24.170000000000002</ele>
        <time>2017-06-17T11:32:47Z</time>
      </trkpt>
      <trkpt lat="56.41829595901072" lon="10.071097975596786">
        <ele>21.77</ele>
        <time>2017-06-17T11:32:58Z</time>
      </trkpt>
      <trkpt lat="56.420352039858699" lon="10.066881962120533">
        <ele>17.920000000000002</ele>
        <time>2017-06-17T11:33:09Z</time>
      </trkpt>
      <trkpt lat="56.421961029991508" lon="10.062180971726775">
        <ele>16.960000000000001</ele>
        <time>2017-06-17T11:33:20Z</time>
      </trkpt>
      <trkpt lat="56.424420028924942" lon="10.053529003635049">
        <ele>23.210000000000001</ele>
        <time>2017-06-17T11:33:40Z</time>
      </trkpt>
      <trkpt lat="56.426089033484459" lon="10.04917100071907">
        <ele>27.530000000000001</ele>
        <time>2017-06-17T11:33:51Z</time>
      </trkpt>
      <trkpt lat="56.428399002179503" lon="10.043521011248231">
        <ele>34.259999999999998</ele>
        <time>2017-06-17T11:34:06Z</time>
      </trkpt>
      <trkpt lat="56.431028991937637" lon="10.036931997165084">
        <ele>43.880000000000003</ele>
        <time>2017-06-17T11:34:24Z</time>
      </trkpt>
      <trkpt lat="56.433721007779241" lon="10.030169980600476">
        <ele>47.719999999999999</ele>
        <time>2017-06-17T11:34:42Z</time>
      </trkpt>
      <trkpt lat="56.436515031382442" lon="10.023647015914321">
        <ele>45.799999999999997</ele>
        <time>2017-06-17T11:34:59Z</time>
      </trkpt>
      <trkpt lat="56.439588004723191" lon="10.017245002090931">
        <ele>40.509999999999998</ele>
        <time>2017-06-17T11:35:16Z</time>
      </trkpt>
      <trkpt lat="56.442796010524035" lon="10.010864026844501">
        <ele>24.170000000000002</ele>
        <time>2017-06-17T11:35:33Z</time>
      </trkpt>
      <trkpt lat="56.44549397751689" lon="10.005935970693827">
        <ele>9.75</ele>
        <time>2017-06-17T11:35:47Z</time>
      </trkpt>
      <trkpt lat="56.448023971170187" lon="10.002511963248253">
        <ele>0.14</ele>
        <time>2017-06-17T11:35:59Z</time>
      </trkpt>
      <trkpt lat="56.452678022906184" lon="9.996417984366417">
        <ele>-1.79</ele>
        <time>2017-06-17T11:36:22Z</time>
      </trkpt>
      <trkpt lat="56.457066033035517" lon="9.990683002397418">
        <ele>-1.3</ele>
        <time>2017-06-17T11:36:43Z</time>
      </trkpt>
      <trkpt lat="56.459350017830729" lon="9.988394994288683">
        <ele>-2.75</ele>
        <time>2017-06-17T11:36:53Z</time>
      </trkpt>
      <trkpt lat="56.461634002625942" lon="9.987018015235663">
        <ele>-1.3</ele>
        <time>2017-06-17T11:37:02Z</time>
      </trkpt>
      <trkpt lat="56.464477982372046" lon="9.98593901284039">
        <ele>6.87</ele>
        <time>2017-06-17T11:37:13Z</time>
      </trkpt>
      <trkpt lat="56.469526989385486" lon="9.984133969992399">
        <ele>9.75</ele>
        <time>2017-06-17T11:37:32Z</time>
      </trkpt>
      <trkpt lat="56.473250985145569" lon="9.98286503367126">
        <ele>12.630000000000001</ele>
        <time>2017-06-17T11:37:46Z</time>
      </trkpt>
      <trkpt lat="56.477416036650538" lon="9.981760969385505">
        <ele>12.630000000000001</ele>
        <time>2017-06-17T11:38:02Z</time>
      </trkpt>
      <trkpt lat="56.481715030968189" lon="9.981264006346464">
        <ele>10.710000000000001</ele>
        <time>2017-06-17T11:38:18Z</time>
      </trkpt>
      <trkpt lat="56.486582988873124" lon="9.98073703609407">
        <ele>26.57</ele>
        <time>2017-06-17T11:38:37Z</time>
      </trkpt>
      <trkpt lat="56.491785971447825" lon="9.980219034478068">
        <ele>32.340000000000003</ele>
        <time>2017-06-17T11:38:58Z</time>
      </trkpt>
      <trkpt lat="56.49611103348434" lon="9.979400038719177">
        <ele>36.189999999999998</ele>
        <time>2017-06-17T11:39:15Z</time>
      </trkpt>
      <trkpt lat="56.500287987291813" lon="9.977832958102226">
        <ele>35.710000000000001</ele>
        <time>2017-06-17T11:39:32Z</time>
      </trkpt>
      <trkpt lat="56.504123965278268" lon="9.975588032975793">
        <ele>31.379999999999999</ele>
        <time>2017-06-17T11:39:48Z</time>
      </trkpt>
      <trkpt lat="56.50812498293817" lon="9.972391007468104">
        <ele>26.09</ele>
        <time>2017-06-17T11:40:05Z</time>
      </trkpt>
      <trkpt lat="56.511626020073891" lon="9.968818975612521">
        <ele>23.210000000000001</ele>
        <time>2017-06-17T11:40:21Z</time>
      </trkpt>
      <trkpt lat="56.513197040185332" lon="9.966975040733814">
        <ele>22.25</ele>
        <time>2017-06-17T11:40:30Z</time>
      </trkpt>
      <trkpt lat="56.514905020594597" lon="9.964717961847782">
        <ele>22.25</ele>
        <time>2017-06-17T11:40:38Z</time>
      </trkpt>
      <trkpt lat="56.517178025096655" lon="9.961429992690682">
        <ele>22.73</ele>
        <time>2017-06-17T11:40:49Z</time>
      </trkpt>
      <trkpt lat="56.520373038947582" lon="9.955960968509316">
        <ele>26.09</ele>
        <time>2017-06-17T11:41:05Z</time>
      </trkpt>
      <trkpt lat="56.523264963179827" lon="9.949928009882569">
        <ele>29.940000000000001</ele>
        <time>2017-06-17T11:41:21Z</time>
      </trkpt>
      <trkpt lat="56.525819012895226" lon="9.943414013832808">
        <ele>37.149999999999999</ele>
        <time>2017-06-17T11:41:37Z</time>
      </trkpt>
      <trkpt lat="56.528934985399246" lon="9.935394963249564">
        <ele>46.280000000000001</ele>
        <time>2017-06-17T11:41:57Z</time>
      </trkpt>
      <trkpt lat="56.531831016764045" lon="9.929596027359366">
        <ele>45.799999999999997</ele>
        <time>2017-06-17T11:42:13Z</time>
      </trkpt>
      <trkpt lat="56.535600023344159" lon="9.922880027443171">
        <ele>39.549999999999997</ele>
        <time>2017-06-17T11:42:32Z</time>
      </trkpt>
      <trkpt lat="56.537658032029867" lon="9.917972004041076">
        <ele>35.710000000000001</ele>
        <time>2017-06-17T11:42:44Z</time>
      </trkpt>
      <trkpt lat="56.53934296220541" lon="9.912518989294767">
        <ele>31.859999999999999</ele>
        <time>2017-06-17T11:42:56Z</time>
      </trkpt>
      <trkpt lat="56.540633020922542" lon="9.906580997630954">
        <ele>28.98</ele>
        <time>2017-06-17T11:43:08Z</time>
      </trkpt>
      <trkpt lat="56.541474983096123" lon="9.902778966352344">
        <ele>27.050000000000001</ele>
        <time>2017-06-17T11:43:15Z</time>
      </trkpt>
      <trkpt lat="56.542463963851333" lon="9.898861013352871">
        <ele>25.609999999999999</ele>
        <time>2017-06-17T11:43:24Z</time>
      </trkpt>
      <trkpt lat="56.544190971180797" lon="9.89346600137651">
        <ele>26.09</ele>
        <time>2017-06-17T11:43:37Z</time>
      </trkpt>
      <trkpt lat="56.546642007306218" lon="9.887280995026231">
        <ele>30.899999999999999</ele>
        <time>2017-06-17T11:43:53Z</time>
      </trkpt>
      <trkpt lat="56.549610961228609" lon="9.881276031956077">
        <ele>35.710000000000001</ele>
        <time>2017-06-17T11:44:10Z</time>
      </trkpt>
      <trkpt lat="56.552971014752984" lon="9.875553958117962">
        <ele>40.030000000000001</ele>
        <time>2017-06-17T11:44:28Z</time>
      </trkpt>
      <trkpt lat="56.556714037433267" lon="9.870207980275154">
        <ele>38.109999999999999</ele>
        <time>2017-06-17T11:44:47Z</time>
      </trkpt>
      <trkpt lat="56.560873975977302" lon="9.865292999893427">
        <ele>35.229999999999997</ele>
        <time>2017-06-17T11:45:06Z</time>
      </trkpt>
      <trkpt lat="56.564929978922009" lon="9.860780015587807">
        <ele>33.780000000000001</ele>
        <time>2017-06-17T11:45:24Z</time>
      </trkpt>
      <trkpt lat="56.567973028868437" lon="9.856684030964971">
        <ele>34.259999999999998</ele>
        <time>2017-06-17T11:45:38Z</time>
      </trkpt>
      <trkpt lat="56.57088196836412" lon="9.85169998370111">
        <ele>36.189999999999998</ele>
        <time>2017-06-17T11:45:53Z</time>
      </trkpt>
      <trkpt lat="56.573385978117585" lon="9.846173040568829">
        <ele>39.07</ele>
        <time>2017-06-17T11:46:08Z</time>
      </trkpt>
      <trkpt lat="56.575462007895112" lon="9.84029003418982">
        <ele>41.950000000000003</ele>
        <time>2017-06-17T11:46:23Z</time>
      </trkpt>
      <trkpt lat="56.577109973877668" lon="9.834113996475935">
        <ele>45.32</ele>
        <time>2017-06-17T11:46:38Z</time>
      </trkpt>
      <trkpt lat="56.57837999984622" lon="9.827510984614492">
        <ele>45.32</ele>
        <time>2017-06-17T11:46:53Z</time>
      </trkpt>
      <trkpt lat="56.579310977831483" lon="9.820589041337371">
        <ele>43.399999999999999</ele>
        <time>2017-06-17T11:47:08Z</time>
      </trkpt>
      <trkpt lat="56.579941967502236" lon="9.81362703256309">
        <ele>38.109999999999999</ele>
        <time>2017-06-17T11:47:22Z</time>
      </trkpt>
      <trkpt lat="56.580301970243454" lon="9.806692013517022">
        <ele>31.859999999999999</ele>
        <time>2017-06-17T11:47:36Z</time>
      </trkpt>
      <trkpt lat="56.580902030691504" lon="9.800463002175093">
        <ele>28.5</ele>
        <time>2017-06-17T11:47:49Z</time>
      </trkpt>
      <trkpt lat="56.581910960376263" lon="9.795373007655144">
        <ele>28.5</ele>
        <time>2017-06-17T11:48:00Z</time>
      </trkpt>
      <trkpt lat="56.583593962714076" lon="9.789098985493183">
        <ele>30.899999999999999</ele>
        <time>2017-06-17T11:48:15Z</time>
      </trkpt>
      <trkpt lat="56.586149018257856" lon="9.781300965696573">
        <ele>36.189999999999998</ele>
        <time>2017-06-17T11:48:35Z</time>
      </trkpt>
      <trkpt lat="56.58843400888145" lon="9.775667991489172">
        <ele>40.030000000000001</ele>
        <time>2017-06-17T11:48:51Z</time>
      </trkpt>
      <trkpt lat="56.591018987819552" lon="9.770489986985922">
        <ele>42.439999999999998</ele>
        <time>2017-06-17T11:49:07Z</time>
      </trkpt>
      <trkpt lat="56.594082992523909" lon="9.765598978847265">
        <ele>40.030000000000001</ele>
        <time>2017-06-17T11:49:23Z</time>
      </trkpt>
      <trkpt lat="56.598069006577134" lon="9.760053008794785">
        <ele>35.229999999999997</ele>
        <time>2017-06-17T11:49:42Z</time>
      </trkpt>
      <trkpt lat="56.600503027439117" lon="9.755928022786975">
        <ele>34.740000000000002</ele>
        <time>2017-06-17T11:49:55Z</time>
      </trkpt>
      <trkpt lat="56.603200994431973" lon="9.750219024717808">
        <ele>35.229999999999997</ele>
        <time>2017-06-17T11:50:11Z</time>
      </trkpt>
      <trkpt lat="56.605610037222505" lon="9.745830008760095">
        <ele>32.340000000000003</ele>
        <time>2017-06-17T11:50:24Z</time>
      </trkpt>
      <trkpt lat="56.608224017545581" lon="9.742437014356256">
        <ele>25.609999999999999</ele>
        <time>2017-06-17T11:50:36Z</time>
      </trkpt>
      <trkpt lat="56.611965028569102" lon="9.738392997533083">
        <ele>17.440000000000001</ele>
        <time>2017-06-17T11:50:52Z</time>
      </trkpt>
      <trkpt lat="56.615081001073122" lon="9.735634010285139">
        <ele>14.08</ele>
        <time>2017-06-17T11:51:05Z</time>
      </trkpt>
      <trkpt lat="56.617816016077995" lon="9.734170027077198">
        <ele>16.960000000000001</ele>
        <time>2017-06-17T11:51:16Z</time>
      </trkpt>
      <trkpt lat="56.620717998594046" lon="9.733414985239506">
        <ele>26.09</ele>
        <time>2017-06-17T11:51:28Z</time>
      </trkpt>
      <trkpt lat="56.624494967982173" lon="9.733083983883262">
        <ele>38.109999999999999</ele>
        <time>2017-06-17T11:51:44Z</time>
      </trkpt>
      <trkpt lat="56.628058031201363" lon="9.733474999666214">
        <ele>44.359999999999999</ele>
        <time>2017-06-17T11:51:59Z</time>
      </trkpt>
      <trkpt lat="56.632026024162769" lon="9.734589960426092">
        <ele>46.759999999999998</ele>
        <time>2017-06-17T11:52:15Z</time>
      </trkpt>
      <trkpt lat="56.636659037321806" lon="9.736068025231361">
        <ele>49.649999999999999</ele>
        <time>2017-06-17T11:52:33Z</time>
      </trkpt>
      <trkpt lat="56.641746014356613" lon="9.737422037869692">
        <ele>49.649999999999999</ele>
        <time>2017-06-17T11:52:52Z</time>
      </trkpt>
      <trkpt lat="56.646373998373747" lon="9.73808404058218">
        <ele>47.240000000000002</ele>
        <time>2017-06-17T11:53:09Z</time>
      </trkpt>
      <trkpt lat="56.650881031528115" lon="9.738013967871666">
        <ele>42.920000000000002</ele>
        <time>2017-06-17T11:53:26Z</time>
      </trkpt>
      <trkpt lat="56.655067959800363" lon="9.737324975430965">
        <ele>39.07</ele>
        <time>2017-06-17T11:53:42Z</time>
      </trkpt>
      <trkpt lat="56.65884199552238" lon="9.736186964437366">
        <ele>38.109999999999999</ele>
        <time>2017-06-17T11:53:56Z</time>
      </trkpt>
      <trkpt lat="56.662779981270432" lon="9.734903024509549">
        <ele>38.109999999999999</ele>
        <time>2017-06-17T11:54:11Z</time>
      </trkpt>
      <trkpt lat="56.667339988052845" lon="9.733738023787737">
        <ele>38.590000000000003</ele>
        <time>2017-06-17T11:54:29Z</time>
      </trkpt>
      <trkpt lat="56.67014398612082" lon="9.733418002724648">
        <ele>38.590000000000003</ele>
        <time>2017-06-17T11:54:40Z</time>
      </trkpt>
      <trkpt lat="56.675123004242778" lon="9.733313983306289">
        <ele>39.07</ele>
        <time>2017-06-17T11:54:59Z</time>
      </trkpt>
      <trkpt lat="56.679012961685658" lon="9.732947023585439">
        <ele>38.109999999999999</ele>
        <time>2017-06-17T11:55:14Z</time>
      </trkpt>
      <trkpt lat="56.682996964082122" lon="9.731862992048264">
        <ele>36.670000000000002</ele>
        <time>2017-06-17T11:55:29Z</time>
      </trkpt>
      <trkpt lat="56.687068976461887" lon="9.73043798469007">
        <ele>32.340000000000003</ele>
        <time>2017-06-17T11:55:44Z</time>
      </trkpt>
      <trkpt lat="56.691509038209915" lon="9.729377003386617">
        <ele>28.5</ele>
        <time>2017-06-17T11:56:00Z</time>
      </trkpt>
      <trkpt lat="56.695545008406043" lon="9.729075003415346">
        <ele>28.02</ele>
        <time>2017-06-17T11:56:15Z</time>
      </trkpt>
      <trkpt lat="56.699585001915693" lon="9.729351019486785">
        <ele>29.460000000000001</ele>
        <time>2017-06-17T11:56:30Z</time>
      </trkpt>
      <trkpt lat="56.704959981143475" lon="9.729573978111148">
        <ele>34.259999999999998</ele>
        <time>2017-06-17T11:56:50Z</time>
      </trkpt>
      <trkpt lat="56.70716299675405" lon="9.729351019486785">
        <ele>36.189999999999998</ele>
        <time>2017-06-17T11:56:59Z</time>
      </trkpt>
      <trkpt lat="56.709313960745931" lon="9.728797981515527">
        <ele>37.149999999999999</ele>
        <time>2017-06-17T11:57:07Z</time>
      </trkpt>
      <trkpt lat="56.712475027889013" lon="9.727302985265851">
        <ele>38.109999999999999</ele>
        <time>2017-06-17T11:57:18Z</time>
      </trkpt>
      <trkpt lat="56.715409029275179" lon="9.725372968241572">
        <ele>40.509999999999998</ele>
        <time>2017-06-17T11:57:29Z</time>
      </trkpt>
      <trkpt lat="56.718531958758831" lon="9.72242396324873">
        <ele>44.359999999999999</ele>
        <time>2017-06-17T11:57:42Z</time>
      </trkpt>
      <trkpt lat="56.722470028325915" lon="9.717775024473667">
        <ele>49.649999999999999</ele>
        <time>2017-06-17T11:58:00Z</time>
      </trkpt>
      <trkpt lat="56.727184010669589" lon="9.711924036964774">
        <ele>53.969999999999999</ele>
        <time>2017-06-17T11:58:21Z</time>
      </trkpt>
      <trkpt lat="56.731157032772899" lon="9.707655971869826">
        <ele>57.82</ele>
        <time>2017-06-17T11:58:38Z</time>
      </trkpt>
      <trkpt lat="56.732682036235929" lon="9.706416958943009">
        <ele>59.740000000000002</ele>
        <time>2017-06-17T11:58:45Z</time>
      </trkpt>
      <trkpt lat="56.732887979596853" lon="9.706348981708288">
        <ele>59.740000000000002</ele>
        <time>2017-06-17T11:58:46Z</time>
      </trkpt>
      <trkpt lat="56.733081014826894" lon="9.706319980323315">
        <ele>60.219999999999999</ele>
        <time>2017-06-17T11:58:47Z</time>
      </trkpt>
      <trkpt lat="56.733258040621877" lon="9.706319980323315">
        <ele>60.700000000000003</ele>
        <time>2017-06-17T11:58:48Z</time>
      </trkpt>
      <trkpt lat="56.733420984819531" lon="9.706347975879908">
        <ele>60.219999999999999</ele>
        <time>2017-06-17T11:58:49Z</time>
      </trkpt>
      <trkpt lat="56.73356699757278" lon="9.706377983093262">
        <ele>61.18</ele>
        <time>2017-06-17T11:58:50Z</time>
      </trkpt>
      <trkpt lat="56.733896993100643" lon="9.706407990306616">
        <ele>64.069999999999993</ele>
        <time>2017-06-17T11:58:53Z</time>
      </trkpt>
      <trkpt lat="56.73397502861917" lon="9.706371026113629">
        <ele>64.549999999999997</ele>
        <time>2017-06-17T11:58:54Z</time>
      </trkpt>
      <trkpt lat="56.734037976711988" lon="9.706316962838173">
        <ele>65.030000000000001</ele>
        <time>2017-06-17T11:58:55Z</time>
      </trkpt>
      <trkpt lat="56.734090028330684" lon="9.706259965896606">
        <ele>64.549999999999997</ele>
        <time>2017-06-17T11:58:56Z</time>
      </trkpt>
      <trkpt lat="56.734136966988444" lon="9.706210009753704">
        <ele>64.549999999999997</ele>
        <time>2017-06-17T11:58:57Z</time>
      </trkpt>
      <trkpt lat="56.734349029138684" lon="9.705974981188774">
        <ele>65.510000000000005</ele>
        <time>2017-06-17T11:59:06Z</time>
      </trkpt>
      <trkpt lat="56.734511973336339" lon="9.705787980929017">
        <ele>68.390000000000001</ele>
        <time>2017-06-17T11:59:20Z</time>
      </trkpt>
      <trkpt lat="56.734509961679578" lon="9.705777000635862">
        <ele>68.870000000000005</ele>
        <time>2017-06-17T12:01:13Z</time>
      </trkpt>
      <trkpt lat="56.734471991658211" lon="9.705794015899301">
        <ele>76.079999999999998</ele>
        <time>2017-06-17T12:05:29Z</time>
      </trkpt>
      <trkpt lat="56.734446007758379" lon="9.705769037827849">
        <ele>73.200000000000003</ele>
        <time>2017-06-17T12:07:18Z</time>
      </trkpt>
      <trkpt lat="56.734713977202773" lon="9.705380033701658">
        <ele>72.719999999999999</ele>
        <time>2017-06-17T12:07:24Z</time>
      </trkpt>
      <trkpt lat="56.734752031043172" lon="9.705253969877958">
        <ele>72.239999999999995</ele>
        <time>2017-06-17T12:07:25Z</time>
      </trkpt>
      <trkpt lat="56.734777009114623" lon="9.705095971003175">
        <ele>71.760000000000005</ele>
        <time>2017-06-17T12:07:26Z</time>
      </trkpt>
      <trkpt lat="56.734953029081225" lon="9.704445032402873">
        <ele>72.719999999999999</ele>
        <time>2017-06-17T12:07:30Z</time>
      </trkpt>
      <trkpt lat="56.735052019357681" lon="9.704306982457638">
        <ele>72.719999999999999</ele>
        <time>2017-06-17T12:07:31Z</time>
      </trkpt>
      <trkpt lat="56.735170958563685" lon="9.704170022159815">
        <ele>72.719999999999999</ele>
        <time>2017-06-17T12:07:32Z</time>
      </trkpt>
      <trkpt lat="56.736324978992343" lon="9.70317198894918">
        <ele>72.239999999999995</ele>
        <time>2017-06-17T12:07:39Z</time>
      </trkpt>
      <trkpt lat="56.738099008798599" lon="9.701826022937894">
        <ele>71.760000000000005</ele>
        <time>2017-06-17T12:07:47Z</time>
      </trkpt>
      <trkpt lat="56.740750959143043" lon="9.700029026716948">
        <ele>71.269999999999996</ele>
        <time>2017-06-17T12:07:57Z</time>
      </trkpt>
      <trkpt lat="56.744184019044042" lon="9.698134968057275">
        <ele>68.870000000000005</ele>
        <time>2017-06-17T12:08:09Z</time>
      </trkpt>
      <trkpt lat="56.746476972475648" lon="9.697257969528437">
        <ele>66.950000000000003</ele>
        <time>2017-06-17T12:08:16Z</time>
      </trkpt>
      <trkpt lat="56.750517971813679" lon="9.695914015173912">
        <ele>66.469999999999999</ele>
        <time>2017-06-17T12:08:29Z</time>
      </trkpt>
      <trkpt lat="56.753531014546752" lon="9.695239020511508">
        <ele>65.510000000000005</ele>
        <time>2017-06-17T12:08:39Z</time>
      </trkpt>
      <trkpt lat="56.756081962957978" lon="9.694669973105192">
        <ele>65.030000000000001</ele>
        <time>2017-06-17T12:08:48Z</time>
      </trkpt>
      <trkpt lat="56.759162982925773" lon="9.694262025877833">
        <ele>63.100000000000001</ele>
        <time>2017-06-17T12:08:58Z</time>
      </trkpt>
      <trkpt lat="56.764104031026363" lon="9.693786017596722">
        <ele>59.259999999999998</ele>
        <time>2017-06-17T12:09:14Z</time>
      </trkpt>
      <trkpt lat="56.767821991816163" lon="9.693798003718257">
        <ele>54.450000000000003</ele>
        <time>2017-06-17T12:09:26Z</time>
      </trkpt>
      <trkpt lat="56.772629013285041" lon="9.694044012576342">
        <ele>48.68</ele>
        <time>2017-06-17T12:09:42Z</time>
      </trkpt>
      <trkpt lat="56.775978002697229" lon="9.694809028878808">
        <ele>45.32</ele>
        <time>2017-06-17T12:09:53Z</time>
      </trkpt>
      <trkpt lat="56.780367018654943" lon="9.696405027061701">
        <ele>40.990000000000002</ele>
        <time>2017-06-17T12:10:08Z</time>
      </trkpt>
      <trkpt lat="56.784955020993948" lon="9.698966033756733">
        <ele>38.590000000000003</ele>
        <time>2017-06-17T12:10:24Z</time>
      </trkpt>
      <trkpt lat="56.787819033488631" lon="9.701179023832083">
        <ele>37.630000000000003</ele>
        <time>2017-06-17T12:10:34Z</time>
      </trkpt>
      <trkpt lat="56.791699016466737" lon="9.704582998529077">
        <ele>36.189999999999998</ele>
        <time>2017-06-17T12:10:48Z</time>
      </trkpt>
      <trkpt lat="56.795200975611806" lon="9.707478024065495">
        <ele>34.740000000000002</ele>
        <time>2017-06-17T12:11:01Z</time>
      </trkpt>
      <trkpt lat="56.799380024895072" lon="9.710109019652009">
        <ele>33.299999999999997</ele>
        <time>2017-06-17T12:11:16Z</time>
      </trkpt>
      <trkpt lat="56.803743978962302" lon="9.711981033906341">
        <ele>32.340000000000003</ele>
        <time>2017-06-17T12:11:31Z</time>
      </trkpt>
      <trkpt lat="56.80848503485322" lon="9.713325994089246">
        <ele>31.859999999999999</ele>
        <time>2017-06-17T12:11:47Z</time>
      </trkpt>
      <trkpt lat="56.813308987766504" lon="9.715041015297175">
        <ele>32.340000000000003</ele>
        <time>2017-06-17T12:12:04Z</time>
      </trkpt>
      <trkpt lat="56.817559031769633" lon="9.717403035610914">
        <ele>34.259999999999998</ele>
        <time>2017-06-17T12:12:19Z</time>
      </trkpt>
      <trkpt lat="56.821833970025182" lon="9.720620010048151">
        <ele>36.189999999999998</ele>
        <time>2017-06-17T12:12:34Z</time>
      </trkpt>
      <trkpt lat="56.826321976259351" lon="9.72433696500957">
        <ele>38.590000000000003</ele>
        <time>2017-06-17T12:12:50Z</time>
      </trkpt>
      <trkpt lat="56.829830976203084" lon="9.727342966943979">
        <ele>42.920000000000002</ele>
        <time>2017-06-17T12:13:03Z</time>
      </trkpt>
      <trkpt lat="56.834176992997527" lon="9.731243988499045">
        <ele>50.130000000000003</ele>
        <time>2017-06-17T12:13:19Z</time>
      </trkpt>
      <trkpt lat="56.838215980678797" lon="9.735822016373277">
        <ele>56.369999999999997</ele>
        <time>2017-06-17T12:13:34Z</time>
      </trkpt>
      <trkpt lat="56.840886035934091" lon="9.7397839743644">
        <ele>60.700000000000003</ele>
        <time>2017-06-17T12:13:45Z</time>
      </trkpt>
      <trkpt lat="56.843979964032769" lon="9.745370009914041">
        <ele>61.18</ele>
        <time>2017-06-17T12:13:59Z</time>
      </trkpt>
      <trkpt lat="56.847555013373494" lon="9.752622032538056">
        <ele>60.219999999999999</ele>
        <time>2017-06-17T12:14:16Z</time>
      </trkpt>
      <trkpt lat="56.85049002058804" lon="9.757842030376196">
        <ele>69.349999999999994</ele>
        <time>2017-06-17T12:14:30Z</time>
      </trkpt>
      <trkpt lat="56.853251019492745" lon="9.762028036639094">
        <ele>72.239999999999995</ele>
        <time>2017-06-17T12:14:42Z</time>
      </trkpt>
      <trkpt lat="56.857495028525591" lon="9.768069041892886">
        <ele>62.140000000000001</ele>
        <time>2017-06-17T12:14:59Z</time>
      </trkpt>
      <trkpt lat="56.860471023246646" lon="9.772915961220861">
        <ele>53.969999999999999</ele>
        <time>2017-06-17T12:15:12Z</time>
      </trkpt>
      <trkpt lat="56.863373005762696" lon="9.778581960126758">
        <ele>47.719999999999999</ele>
        <time>2017-06-17T12:15:26Z</time>
      </trkpt>
      <trkpt lat="56.867431020364165" lon="9.78668600320816">
        <ele>43.880000000000003</ele>
        <time>2017-06-17T12:15:46Z</time>
      </trkpt>
      <trkpt lat="56.870718989521265" lon="9.792189979925752">
        <ele>42.920000000000002</ele>
        <time>2017-06-17T12:16:01Z</time>
      </trkpt>
      <trkpt lat="56.874667033553123" lon="9.7977289929986">
        <ele>41.469999999999999</ele>
        <time>2017-06-17T12:16:18Z</time>
      </trkpt>
      <trkpt lat="56.878631003201008" lon="9.802310038357973">
        <ele>40.509999999999998</ele>
        <time>2017-06-17T12:16:34Z</time>
      </trkpt>
      <trkpt lat="56.882598996162415" lon="9.806082984432578">
        <ele>40.030000000000001</ele>
        <time>2017-06-17T12:16:49Z</time>
      </trkpt>
      <trkpt lat="56.886553997173905" lon="9.809138020500541">
        <ele>40.509999999999998</ele>
        <time>2017-06-17T12:17:04Z</time>
      </trkpt>
      <trkpt lat="56.890267012640834" lon="9.812227003276348">
        <ele>40.990000000000002</ele>
        <time>2017-06-17T12:17:18Z</time>
      </trkpt>
      <trkpt lat="56.894039958715439" lon="9.816409992054105">
        <ele>42.920000000000002</ele>
        <time>2017-06-17T12:17:33Z</time>
      </trkpt>
      <trkpt lat="56.897409986704588" lon="9.821175020188093">
        <ele>43.399999999999999</ele>
        <time>2017-06-17T12:17:48Z</time>
      </trkpt>
      <trkpt lat="56.900126980617642" lon="9.825914986431599">
        <ele>43.399999999999999</ele>
        <time>2017-06-17T12:18:01Z</time>
      </trkpt>
      <trkpt lat="56.901891035959125" lon="9.829604029655457">
        <ele>38.590000000000003</ele>
        <time>2017-06-17T12:18:10Z</time>
      </trkpt>
      <trkpt lat="56.904123974964023" lon="9.833508990705013">
        <ele>33.299999999999997</ele>
        <time>2017-06-17T12:18:20Z</time>
      </trkpt>
      <trkpt lat="56.90661096945405" lon="9.836677014827728">
        <ele>32.82</ele>
        <time>2017-06-17T12:18:30Z</time>
      </trkpt>
      <trkpt lat="56.909093018621206" lon="9.838810041546822">
        <ele>34.740000000000002</ele>
        <time>2017-06-17T12:18:39Z</time>
      </trkpt>
      <trkpt lat="56.91180900670588" lon="9.840368991717696">
        <ele>37.630000000000003</ele>
        <time>2017-06-17T12:18:48Z</time>
      </trkpt>
      <trkpt lat="56.915756966918707" lon="9.84170800074935">
        <ele>40.990000000000002</ele>
        <time>2017-06-17T12:19:01Z</time>
      </trkpt>
      <trkpt lat="56.919301003217697" lon="9.843028988689184">
        <ele>44.840000000000003</ele>
        <time>2017-06-17T12:19:13Z</time>
      </trkpt>
      <trkpt lat="56.924686962738633" lon="9.845542972907424">
        <ele>48.68</ele>
        <time>2017-06-17T12:19:31Z</time>
      </trkpt>
      <trkpt lat="56.929070027545094" lon="9.84804698266089">
        <ele>50.609999999999999</ele>
        <time>2017-06-17T12:19:46Z</time>
      </trkpt>
      <trkpt lat="56.933622993528843" lon="9.851261023432016">
        <ele>51.090000000000003</ele>
        <time>2017-06-17T12:20:03Z</time>
      </trkpt>
      <trkpt lat="56.937689976766706" lon="9.8545360006392">
        <ele>49.649999999999999</ele>
        <time>2017-06-17T12:20:19Z</time>
      </trkpt>
      <trkpt lat="56.941772969439626" lon="9.858279023319483">
        <ele>46.280000000000001</ele>
        <time>2017-06-17T12:20:35Z</time>
      </trkpt>
      <trkpt lat="56.94784197025001" lon="9.863896993920207">
        <ele>35.710000000000001</ele>
        <time>2017-06-17T12:20:58Z</time>
      </trkpt>
      <trkpt lat="56.952745970338583" lon="9.867882002145052">
        <ele>19.84</ele>
        <time>2017-06-17T12:21:16Z</time>
      </trkpt>
      <trkpt lat="56.955240005627275" lon="9.869914026930928">
        <ele>10.710000000000001</ele>
        <time>2017-06-17T12:21:25Z</time>
      </trkpt>
      <trkpt lat="56.960292030125856" lon="9.87385000102222">
        <ele>3.5</ele>
        <time>2017-06-17T12:21:43Z</time>
      </trkpt>
      <trkpt lat="56.963950982317328" lon="9.875987973064184">
        <ele>2.54</ele>
        <time>2017-06-17T12:21:56Z</time>
      </trkpt>
      <trkpt lat="56.967786038294435" lon="9.877264034003019">
        <ele>2.54</ele>
        <time>2017-06-17T12:22:09Z</time>
      </trkpt>
      <trkpt lat="56.97310796007514" lon="9.878227030858398">
        <ele>2.54</ele>
        <time>2017-06-17T12:22:27Z</time>
      </trkpt>
      <trkpt lat="56.979518020525575" lon="9.87945799715817">
        <ele>3.5</ele>
        <time>2017-06-17T12:22:49Z</time>
      </trkpt>
      <trkpt lat="56.982116997241974" lon="9.880729028955102">
        <ele>3.02</ele>
        <time>2017-06-17T12:22:58Z</time>
      </trkpt>
      <trkpt lat="56.984543977305293" lon="9.882974959909916">
        <ele>3.5</ele>
        <time>2017-06-17T12:23:07Z</time>
      </trkpt>
      <trkpt lat="56.986365029588342" lon="9.8854969907552">
        <ele>3.5</ele>
        <time>2017-06-17T12:23:15Z</time>
      </trkpt>
      <trkpt lat="56.987949041649699" lon="9.888557977974415">
        <ele>6.39</ele>
        <time>2017-06-17T12:23:23Z</time>
      </trkpt>
      <trkpt lat="56.989530958235264" lon="9.892928972840309">
        <ele>9.27</ele>
        <time>2017-06-17T12:23:33Z</time>
      </trkpt>
      <trkpt lat="56.991556026041508" lon="9.898552978411317">
        <ele>6.87</ele>
        <time>2017-06-17T12:23:46Z</time>
      </trkpt>
      <trkpt lat="56.993309017270803" lon="9.901782022789121">
        <ele>4.94</ele>
        <time>2017-06-17T12:23:55Z</time>
      </trkpt>
      <trkpt lat="56.995338024571538" lon="9.904330037534237">
        <ele>2.54</ele>
        <time>2017-06-17T12:24:04Z</time>
      </trkpt>
      <trkpt lat="56.997762992978096" lon="9.906252007931471">
        <ele>-0.34</ele>
        <time>2017-06-17T12:24:14Z</time>
      </trkpt>
      <trkpt lat="57.002076990902424" lon="9.908728022128344">
        <ele>-3.71</ele>
        <time>2017-06-17T12:24:32Z</time>
      </trkpt>
      <trkpt lat="57.004998000338674" lon="9.910744959488511">
        <ele>-3.23</ele>
        <time>2017-06-17T12:24:44Z</time>
      </trkpt>
      <trkpt lat="57.007144019007683" lon="9.913166994228959">
        <ele>-3.23</ele>
        <time>2017-06-17T12:24:53Z</time>
      </trkpt>
      <trkpt lat="57.008720990270376" lon="9.915717020630837">
        <ele>-2.75</ele>
        <time>2017-06-17T12:25:01Z</time>
      </trkpt>
      <trkpt lat="57.009899988770485" lon="9.918428985401988">
        <ele>-0.82</ele>
        <time>2017-06-17T12:25:08Z</time>
      </trkpt>
      <trkpt lat="57.011362966150045" lon="9.923367016017437">
        <ele>9.27</ele>
        <time>2017-06-17T12:25:19Z</time>
      </trkpt>
      <trkpt lat="57.01221096329391" lon="9.928203960880637">
        <ele>18.879999999999999</ele>
        <time>2017-06-17T12:25:29Z</time>
      </trkpt>
      <trkpt lat="57.01343497261405" lon="9.937695963308215">
        <ele>40.990000000000002</ele>
        <time>2017-06-17T12:25:48Z</time>
      </trkpt>
      <trkpt lat="57.014137962833047" lon="9.943185020238161">
        <ele>50.130000000000003</ele>
        <time>2017-06-17T12:26:00Z</time>
      </trkpt>
      <trkpt lat="57.014724025502801" lon="9.94741402566433">
        <ele>49.159999999999997</ele>
        <time>2017-06-17T12:26:09Z</time>
      </trkpt>
      <trkpt lat="57.015575040131807" lon="9.951998004689813">
        <ele>42.920000000000002</ele>
        <time>2017-06-17T12:26:18Z</time>
      </trkpt>
      <trkpt lat="57.016792008653283" lon="9.955552015453577">
        <ele>37.149999999999999</ele>
        <time>2017-06-17T12:26:26Z</time>
      </trkpt>
      <trkpt lat="57.018361017107964" lon="9.958578972145915">
        <ele>32.82</ele>
        <time>2017-06-17T12:26:34Z</time>
      </trkpt>
      <trkpt lat="57.020421037450433" lon="9.96133997105062">
        <ele>28.98</ele>
        <time>2017-06-17T12:26:43Z</time>
      </trkpt>
      <trkpt lat="57.024937039241195" lon="9.966789968311787">
        <ele>25.129999999999999</ele>
        <time>2017-06-17T12:27:02Z</time>
      </trkpt>
      <trkpt lat="57.027653027325869" lon="9.969967966899276">
        <ele>23.210000000000001</ele>
        <time>2017-06-17T12:27:14Z</time>
      </trkpt>
      <trkpt lat="57.030012030154467" lon="9.971902007237077">
        <ele>24.649999999999999</ele>
        <time>2017-06-17T12:27:23Z</time>
      </trkpt>
      <trkpt lat="57.032239018008113" lon="9.972892999649048">
        <ele>28.5</ele>
        <time>2017-06-17T12:27:31Z</time>
      </trkpt>
      <trkpt lat="57.034405991435051" lon="9.973188964650035">
        <ele>33.780000000000001</ele>
        <time>2017-06-17T12:27:39Z</time>
      </trkpt>
      <trkpt lat="57.037251982837915" lon="9.972996013239026">
        <ele>36.670000000000002</ele>
        <time>2017-06-17T12:27:50Z</time>
      </trkpt>
      <trkpt lat="57.040497958660126" lon="9.972817981615663">
        <ele>40.990000000000002</ele>
        <time>2017-06-17T12:28:02Z</time>
      </trkpt>
      <trkpt lat="57.045117979869246" lon="9.97201600112021">
        <ele>35.710000000000001</ele>
        <time>2017-06-17T12:28:19Z</time>
      </trkpt>
      <trkpt lat="57.047814019024372" lon="9.971467992290855">
        <ele>29.460000000000001</ele>
        <time>2017-06-17T12:28:30Z</time>
      </trkpt>
      <trkpt lat="57.049471037462354" lon="9.970722002908588">
        <ele>22.25</ele>
        <time>2017-06-17T12:28:38Z</time>
      </trkpt>
      <trkpt lat="57.051124032586813" lon="9.969078982248902">
        <ele>13.6</ele>
        <time>2017-06-17T12:28:47Z</time>
      </trkpt>
      <trkpt lat="57.052366985008121" lon="9.966976968571544">
        <ele>4.94</ele>
        <time>2017-06-17T12:28:56Z</time>
      </trkpt>
      <trkpt lat="57.053972035646439" lon="9.963675001636148">
        <ele>-4.67</ele>
        <time>2017-06-17T12:29:09Z</time>
      </trkpt>
      <trkpt lat="57.054315023124218" lon="9.962870003655553">
        <ele>-7.55</ele>
        <time>2017-06-17T12:29:12Z</time>
      </trkpt>
      <trkpt lat="57.054380988702178" lon="9.962607985362411">
        <ele>-8.029999999999999</ele>
        <time>2017-06-17T12:29:13Z</time>
      </trkpt>
      <trkpt lat="57.059450028464198" lon="9.952890006825328">
        <ele>-6.11</ele>
        <time>2017-06-17T12:29:50Z</time>
      </trkpt>
      <trkpt lat="57.061189021915197" lon="9.950638962909579">
        <ele>-5.15</ele>
        <time>2017-06-17T12:30:01Z</time>
      </trkpt>
      <trkpt lat="57.062969002872705" lon="9.949420988559723">
        <ele>-2.75</ele>
        <time>2017-06-17T12:30:10Z</time>
      </trkpt>
      <trkpt lat="57.064606994390488" lon="9.949136003851891">
        <ele>-2.27</ele>
        <time>2017-06-17T12:30:17Z</time>
      </trkpt>
      <trkpt lat="57.066525025293231" lon="9.949658028781414">
        <ele>-0.82</ele>
        <time>2017-06-17T12:30:25Z</time>
      </trkpt>
      <trkpt lat="57.068445989862084" lon="9.951160987839103">
        <ele>-0.82</ele>
        <time>2017-06-17T12:30:34Z</time>
      </trkpt>
      <trkpt lat="57.071476969867945" lon="9.953756025061011">
        <ele>-0.34</ele>
        <time>2017-06-17T12:30:48Z</time>
      </trkpt>
      <trkpt lat="57.075344966724515" lon="9.957042988389731">
        <ele>0.14</ele>
        <time>2017-06-17T12:31:06Z</time>
      </trkpt>
      <trkpt lat="57.078692028298974" lon="9.9605000205338">
        <ele>0.62</ele>
        <time>2017-06-17T12:31:23Z</time>
      </trkpt>
      <trkpt lat="57.079980997368693" lon="9.962746035307646">
        <ele>1.1</ele>
        <time>2017-06-17T12:31:31Z</time>
      </trkpt>
      <trkpt lat="57.081418996676803" lon="9.966126037761569">
        <ele>3.98</ele>
        <time>2017-06-17T12:31:41Z</time>
      </trkpt>
      <trkpt lat="57.082657003775239" lon="9.967573005706072">
        <ele>5.42</ele>
        <time>2017-06-17T12:31:47Z</time>
      </trkpt>
      <trkpt lat="57.084100032225251" lon="9.968226039782167">
        <ele>6.87</ele>
        <time>2017-06-17T12:31:53Z</time>
      </trkpt>
      <trkpt lat="57.086404971778393" lon="9.96821497566998">
        <ele>7.83</ele>
        <time>2017-06-17T12:32:02Z</time>
      </trkpt>
      <trkpt lat="57.091453978791833" lon="9.968054965138435">
        <ele>7.35</ele>
        <time>2017-06-17T12:32:21Z</time>
      </trkpt>
      <trkpt lat="57.09535701200366" lon="9.967575017362833">
        <ele>3.5</ele>
        <time>2017-06-17T12:32:36Z</time>
      </trkpt>
      <trkpt lat="57.098669959232211" lon="9.966230979189277">
        <ele>2.06</ele>
        <time>2017-06-17T12:32:49Z</time>
      </trkpt>
      <trkpt lat="57.10165299475193" lon="9.964113039895892">
        <ele>2.06</ele>
        <time>2017-06-17T12:33:01Z</time>
      </trkpt>
      <trkpt lat="57.104652039706707" lon="9.961050041019917">
        <ele>1.58</ele>
        <time>2017-06-17T12:33:13Z</time>
      </trkpt>
      <trkpt lat="57.108329012989998" lon="9.956514006480575">
        <ele>1.1</ele>
        <time>2017-06-17T12:33:29Z</time>
      </trkpt>
      <trkpt lat="57.113539958372712" lon="9.950009984895587">
        <ele>0.14</ele>
        <time>2017-06-17T12:33:52Z</time>
      </trkpt>
      <trkpt lat="57.117038983851671" lon="9.94576396420598">
        <ele>0.14</ele>
        <time>2017-06-17T12:34:07Z</time>
      </trkpt>
      <trkpt lat="57.119901990517974" lon="9.943159958347678">
        <ele>0.62</ele>
        <time>2017-06-17T12:34:18Z</time>
      </trkpt>
      <trkpt lat="57.123124999925494" lon="9.941095998510718">
        <ele>2.06</ele>
        <time>2017-06-17T12:34:30Z</time>
      </trkpt>
      <trkpt lat="57.126474995166063" lon="9.939889004454017">
        <ele>2.06</ele>
        <time>2017-06-17T12:34:42Z</time>
      </trkpt>
      <trkpt lat="57.129897996783257" lon="9.939477033913136">
        <ele>2.06</ele>
        <time>2017-06-17T12:34:54Z</time>
      </trkpt>
      <trkpt lat="57.133141038939357" lon="9.940048009157181">
        <ele>2.54</ele>
        <time>2017-06-17T12:35:05Z</time>
      </trkpt>
      <trkpt lat="57.136586001142859" lon="9.941433034837246">
        <ele>3.02</ele>
        <time>2017-06-17T12:35:17Z</time>
      </trkpt>
      <trkpt lat="57.140276972204447" lon="9.943434968590736">
        <ele>4.94</ele>
        <time>2017-06-17T12:35:30Z</time>
      </trkpt>
      <trkpt lat="57.144286036491394" lon="9.945360962301493">
        <ele>6.39</ele>
        <time>2017-06-17T12:35:44Z</time>
      </trkpt>
      <trkpt lat="57.148255035281181" lon="9.946280037984252">
        <ele>6.39</ele>
        <time>2017-06-17T12:35:57Z</time>
      </trkpt>
      <trkpt lat="57.151810973882675" lon="9.946323959156871">
        <ele>5.91</ele>
        <time>2017-06-17T12:36:09Z</time>
      </trkpt>
      <trkpt lat="57.155814003199339" lon="9.94554796256125">
        <ele>5.91</ele>
        <time>2017-06-17T12:36:23Z</time>
      </trkpt>
      <trkpt lat="57.160078966990113" lon="9.943831013515592">
        <ele>4.94</ele>
        <time>2017-06-17T12:36:38Z</time>
      </trkpt>
      <trkpt lat="57.164735030382872" lon="9.942337023094297">
        <ele>4.46</ele>
        <time>2017-06-17T12:36:54Z</time>
      </trkpt>
      <trkpt lat="57.168303038924932" lon="9.942112974822521">
        <ele>5.91</ele>
        <time>2017-06-17T12:37:06Z</time>
      </trkpt>
      <trkpt lat="57.171941036358476" lon="9.942725021392107">
        <ele>7.35</ele>
        <time>2017-06-17T12:37:18Z</time>
      </trkpt>
      <trkpt lat="57.176443040370941" lon="9.943973002955318">
        <ele>8.789999999999999</ele>
        <time>2017-06-17T12:37:33Z</time>
      </trkpt>
      <trkpt lat="57.179691027849913" lon="9.944272991269827">
        <ele>8.789999999999999</ele>
        <time>2017-06-17T12:37:44Z</time>
      </trkpt>
      <trkpt lat="57.182963993400335" lon="9.94380796328187">
        <ele>7.83</ele>
        <time>2017-06-17T12:37:55Z</time>
      </trkpt>
      <trkpt lat="57.186481961980462" lon="9.942449005320668">
        <ele>7.35</ele>
        <time>2017-06-17T12:38:07Z</time>
      </trkpt>
      <trkpt lat="57.189435996115208" lon="9.94054296053946">
        <ele>7.35</ele>
        <time>2017-06-17T12:38:18Z</time>
      </trkpt>
      <trkpt lat="57.192646013572812" lon="9.937677020207048">
        <ele>6.87</ele>
        <time>2017-06-17T12:38:31Z</time>
      </trkpt>
      <trkpt lat="57.196571007370949" lon="9.934259969741106">
        <ele>8.310000000000001</ele>
        <time>2017-06-17T12:38:47Z</time>
      </trkpt>
      <trkpt lat="57.199814971536398" lon="9.93252701126039">
        <ele>8.310000000000001</ele>
        <time>2017-06-17T12:38:59Z</time>
      </trkpt>
      <trkpt lat="57.203265968710184" lon="9.931726958602667">
        <ele>8.310000000000001</ele>
        <time>2017-06-17T12:39:11Z</time>
      </trkpt>
      <trkpt lat="57.206427035853267" lon="9.93179501965642">
        <ele>7.83</ele>
        <time>2017-06-17T12:39:22Z</time>
      </trkpt>
      <trkpt lat="57.2106250282377" lon="9.932637987658382">
        <ele>6.87</ele>
        <time>2017-06-17T12:39:37Z</time>
      </trkpt>
      <trkpt lat="57.214176021516323" lon="9.934016978368163">
        <ele>6.87</ele>
        <time>2017-06-17T12:39:50Z</time>
      </trkpt>
      <trkpt lat="57.217750987038016" lon="9.936035005375743">
        <ele>6.39</ele>
        <time>2017-06-17T12:40:03Z</time>
      </trkpt>
      <trkpt lat="57.221709005534649" lon="9.939067997038364">
        <ele>5.91</ele>
        <time>2017-06-17T12:40:18Z</time>
      </trkpt>
      <trkpt lat="57.224760018289089" lon="9.942061007022858">
        <ele>5.91</ele>
        <time>2017-06-17T12:40:29Z</time>
      </trkpt>
      <trkpt lat="57.228169022127986" lon="9.946251036599279">
        <ele>5.42</ele>
        <time>2017-06-17T12:40:42Z</time>
      </trkpt>
      <trkpt lat="57.232963973656297" lon="9.952892018482089">
        <ele>6.39</ele>
        <time>2017-06-17T12:41:01Z</time>
      </trkpt>
      <trkpt lat="57.23743999376893" lon="9.959226977080107">
        <ele>6.87</ele>
        <time>2017-06-17T12:41:19Z</time>
      </trkpt>
      <trkpt lat="57.242128998041153" lon="9.965782966464758">
        <ele>7.83</ele>
        <time>2017-06-17T12:41:38Z</time>
      </trkpt>
      <trkpt lat="57.245906973257661" lon="9.971077982336283">
        <ele>6.39</ele>
        <time>2017-06-17T12:41:53Z</time>
      </trkpt>
      <trkpt lat="57.250421969220042" lon="9.976986972615123">
        <ele>9.75</ele>
        <time>2017-06-17T12:42:11Z</time>
      </trkpt>
      <trkpt lat="57.254303963854909" lon="9.980857986956835">
        <ele>13.119999999999999</ele>
        <time>2017-06-17T12:42:25Z</time>
      </trkpt>
      <trkpt lat="57.258074982091784" lon="9.983573975041509">
        <ele>16</ele>
        <time>2017-06-17T12:42:38Z</time>
      </trkpt>
      <trkpt lat="57.262544967234135" lon="9.98574597761035">
        <ele>19.359999999999999</ele>
        <time>2017-06-17T12:42:53Z</time>
      </trkpt>
      <trkpt lat="57.267720960080624" lon="9.987642969936132">
        <ele>22.25</ele>
        <time>2017-06-17T12:43:10Z</time>
      </trkpt>
      <trkpt lat="57.27327698841691" lon="9.990082019940019">
        <ele>24.649999999999999</ele>
        <time>2017-06-17T12:43:28Z</time>
      </trkpt>
      <trkpt lat="57.278091972693801" lon="9.992806976661086">
        <ele>23.690000000000001</ele>
        <time>2017-06-17T12:43:44Z</time>
      </trkpt>
      <trkpt lat="57.28300703689456" lon="9.996222015470266">
        <ele>21.289999999999999</ele>
        <time>2017-06-17T12:44:01Z</time>
      </trkpt>
      <trkpt lat="57.287378031760454" lon="9.999780971556902">
        <ele>18.879999999999999</ele>
        <time>2017-06-17T12:44:16Z</time>
      </trkpt>
      <trkpt lat="57.292782012373209" lon="10.004657981917262">
        <ele>16.960000000000001</ele>
        <time>2017-06-17T12:44:35Z</time>
      </trkpt>
      <trkpt lat="57.297938978299499" lon="10.009108018130064">
        <ele>18.879999999999999</ele>
        <time>2017-06-17T12:44:53Z</time>
      </trkpt>
      <trkpt lat="57.302192039787769" lon="10.012309988960624">
        <ele>21.77</ele>
        <time>2017-06-17T12:45:08Z</time>
      </trkpt>
      <trkpt lat="57.307203998789191" lon="10.015526963397861">
        <ele>25.609999999999999</ele>
        <time>2017-06-17T12:45:26Z</time>
      </trkpt>
      <trkpt lat="57.310806959867477" lon="10.017713969573379">
        <ele>28.5</ele>
        <time>2017-06-17T12:45:39Z</time>
      </trkpt>
      <trkpt lat="57.316253017634153" lon="10.020643025636673">
        <ele>29.940000000000001</ele>
        <time>2017-06-17T12:45:58Z</time>
      </trkpt>
      <trkpt lat="57.3224120400846" lon="10.023468984290957">
        <ele>29.940000000000001</ele>
        <time>2017-06-17T12:46:19Z</time>
      </trkpt>
      <trkpt lat="57.326788986101747" lon="10.025231027975678">
        <ele>28.98</ele>
        <time>2017-06-17T12:46:34Z</time>
      </trkpt>
      <trkpt lat="57.331486037001014" lon="10.026820991188288">
        <ele>27.530000000000001</ele>
        <time>2017-06-17T12:46:50Z</time>
      </trkpt>
      <trkpt lat="57.33693796209991" lon="10.028373990207911">
        <ele>25.129999999999999</ele>
        <time>2017-06-17T12:47:07Z</time>
      </trkpt>
      <trkpt lat="57.342343032360077" lon="10.029573021456599">
        <ele>24.170000000000002</ele>
        <time>2017-06-17T12:47:24Z</time>
      </trkpt>
      <trkpt lat="57.348315976560116" lon="10.03045798279345">
        <ele>26.09</ele>
        <time>2017-06-17T12:47:43Z</time>
      </trkpt>
      <trkpt lat="57.353401025757194" lon="10.030535012483597">
        <ele>30.420000000000002</ele>
        <time>2017-06-17T12:47:59Z</time>
      </trkpt>
      <trkpt lat="57.357424004003406" lon="10.029695983976126">
        <ele>33.780000000000001</ele>
        <time>2017-06-17T12:48:12Z</time>
      </trkpt>
      <trkpt lat="57.361453017219901" lon="10.028012981638312">
        <ele>32.340000000000003</ele>
        <time>2017-06-17T12:48:25Z</time>
      </trkpt>
      <trkpt lat="57.365397959947586" lon="10.025739977136254">
        <ele>28.02</ele>
        <time>2017-06-17T12:48:38Z</time>
      </trkpt>
      <trkpt lat="57.370048994198442" lon="10.023389020934701">
        <ele>24.649999999999999</ele>
        <time>2017-06-17T12:48:53Z</time>
      </trkpt>
      <trkpt lat="57.374452007934451" lon="10.022126035764813">
        <ele>22.73</ele>
        <time>2017-06-17T12:49:07Z</time>
      </trkpt>
      <trkpt lat="57.378820991143584" lon="10.021767038851976">
        <ele>21.289999999999999</ele>
        <time>2017-06-17T12:49:21Z</time>
      </trkpt>
      <trkpt lat="57.383255017921329" lon="10.022310018539429">
        <ele>20.809999999999999</ele>
        <time>2017-06-17T12:49:35Z</time>
      </trkpt>
      <trkpt lat="57.387938993051648" lon="10.023867962881923">
        <ele>20.809999999999999</ele>
        <time>2017-06-17T12:49:50Z</time>
      </trkpt>
      <trkpt lat="57.393414974212646" lon="10.026741027832031">
        <ele>22.73</ele>
        <time>2017-06-17T12:50:08Z</time>
      </trkpt>
      <trkpt lat="57.398043964058161" lon="10.028887968510389">
        <ele>23.210000000000001</ele>
        <time>2017-06-17T12:50:23Z</time>
      </trkpt>
      <trkpt lat="57.4024039786309" lon="10.029932018369436">
        <ele>21.77</ele>
        <time>2017-06-17T12:50:37Z</time>
      </trkpt>
      <trkpt lat="57.406945964321494" lon="10.029972000047565">
        <ele>21.289999999999999</ele>
        <time>2017-06-17T12:50:52Z</time>
      </trkpt>
      <trkpt lat="57.412548009306192" lon="10.029293987900019">
        <ele>20.32</ele>
        <time>2017-06-17T12:51:11Z</time>
      </trkpt>
      <trkpt lat="57.416677018627524" lon="10.029045967385173">
        <ele>20.32</ele>
        <time>2017-06-17T12:51:25Z</time>
      </trkpt>
      <trkpt lat="57.420532023534179" lon="10.029352996498346">
        <ele>20.32</ele>
        <time>2017-06-17T12:51:38Z</time>
      </trkpt>
      <trkpt lat="57.425553034991026" lon="10.030474998056889">
        <ele>21.77</ele>
        <time>2017-06-17T12:51:55Z</time>
      </trkpt>
      <trkpt lat="57.43020398542285" lon="10.032341983169317">
        <ele>22.25</ele>
        <time>2017-06-17T12:52:11Z</time>
      </trkpt>
      <trkpt lat="57.433698987588286" lon="10.034305024892092">
        <ele>22.73</ele>
        <time>2017-06-17T12:52:23Z</time>
      </trkpt>
      <trkpt lat="57.440652027726173" lon="10.038736034184694">
        <ele>21.77</ele>
        <time>2017-06-17T12:52:47Z</time>
      </trkpt>
      <trkpt lat="57.445940002799034" lon="10.041632987558842">
        <ele>20.809999999999999</ele>
        <time>2017-06-17T12:53:05Z</time>
      </trkpt>
      <trkpt lat="57.451037038117647" lon="10.043791998177767">
        <ele>19.359999999999999</ele>
        <time>2017-06-17T12:53:22Z</time>
      </trkpt>
      <trkpt lat="57.454185029491782" lon="10.044834036380053">
        <ele>18.879999999999999</ele>
        <time>2017-06-17T12:53:33Z</time>
      </trkpt>
      <trkpt lat="57.457400998100638" lon="10.045556975528598">
        <ele>14.08</ele>
        <time>2017-06-17T12:53:44Z</time>
      </trkpt>
      <trkpt lat="57.460727021098137" lon="10.046243034303188">
        <ele>16.48</ele>
        <time>2017-06-17T12:53:55Z</time>
      </trkpt>
      <trkpt lat="57.465490037575364" lon="10.046439003199339">
        <ele>18.879999999999999</ele>
        <time>2017-06-17T12:54:11Z</time>
      </trkpt>
      <trkpt lat="57.469275975599885" lon="10.045746993273497">
        <ele>21.289999999999999</ele>
        <time>2017-06-17T12:54:24Z</time>
      </trkpt>
      <trkpt lat="57.473515961319208" lon="10.043995007872581">
        <ele>22.25</ele>
        <time>2017-06-17T12:54:39Z</time>
      </trkpt>
      <trkpt lat="57.477068966254592" lon="10.041682021692395">
        <ele>23.210000000000001</ele>
        <time>2017-06-17T12:54:52Z</time>
      </trkpt>
      <trkpt lat="57.480649966746569" lon="10.038451971486211">
        <ele>23.690000000000001</ele>
        <time>2017-06-17T12:55:05Z</time>
      </trkpt>
      <trkpt lat="57.483780020847917" lon="10.034799976274371">
        <ele>23.690000000000001</ele>
        <time>2017-06-17T12:55:17Z</time>
      </trkpt>
      <trkpt lat="57.486933041363955" lon="10.03011398948729">
        <ele>24.170000000000002</ele>
        <time>2017-06-17T12:55:30Z</time>
      </trkpt>
      <trkpt lat="57.489766040816903" lon="10.024743033573031">
        <ele>23.210000000000001</ele>
        <time>2017-06-17T12:55:43Z</time>
      </trkpt>
      <trkpt lat="57.493161968886852" lon="10.017171995714307">
        <ele>22.25</ele>
        <time>2017-06-17T12:56:00Z</time>
      </trkpt>
      <trkpt lat="57.494674986228347" lon="10.014357017353177">
        <ele>21.77</ele>
        <time>2017-06-17T12:56:08Z</time>
      </trkpt>
      <trkpt lat="57.49713197350502" lon="10.010962011292577">
        <ele>21.289999999999999</ele>
        <time>2017-06-17T12:56:20Z</time>
      </trkpt>
      <trkpt lat="57.499673031270504" lon="10.008564032614231">
        <ele>21.289999999999999</ele>
        <time>2017-06-17T12:56:31Z</time>
      </trkpt>
      <trkpt lat="57.502468982711434" lon="10.006923023611307">
        <ele>20.809999999999999</ele>
        <time>2017-06-17T12:56:42Z</time>
      </trkpt>
      <trkpt lat="57.505388986319304" lon="10.006119031459093">
        <ele>20.809999999999999</ele>
        <time>2017-06-17T12:56:53Z</time>
      </trkpt>
      <trkpt lat="57.508577965199947" lon="10.006260015070438">
        <ele>19.84</ele>
        <time>2017-06-17T12:57:05Z</time>
      </trkpt>
      <trkpt lat="57.512854998931289" lon="10.006812969222665">
        <ele>19.84</ele>
        <time>2017-06-17T12:57:21Z</time>
      </trkpt>
      <trkpt lat="57.518127970397472" lon="10.007631964981556">
        <ele>17.440000000000001</ele>
        <time>2017-06-17T12:57:40Z</time>
      </trkpt>
      <trkpt lat="57.520539024844766" lon="10.008741980418563">
        <ele>17.440000000000001</ele>
        <time>2017-06-17T12:57:49Z</time>
      </trkpt>
      <trkpt lat="57.525180000811815" lon="10.011858036741614">
        <ele>22.73</ele>
        <time>2017-06-17T12:58:07Z</time>
      </trkpt>
      <trkpt lat="57.527363989502192" lon="10.012699998915195">
        <ele>26.09</ele>
        <time>2017-06-17T12:58:15Z</time>
      </trkpt>
      <trkpt lat="57.529653003439307" lon="10.012691030278802">
        <ele>25.609999999999999</ele>
        <time>2017-06-17T12:58:23Z</time>
      </trkpt>
      <trkpt lat="57.531863981857896" lon="10.0117879640311">
        <ele>23.690000000000001</ele>
        <time>2017-06-17T12:58:31Z</time>
      </trkpt>
      <trkpt lat="57.535800961777568" lon="10.009151017293334">
        <ele>21.77</ele>
        <time>2017-06-17T12:58:46Z</time>
      </trkpt>
      <trkpt lat="57.539276015013456" lon="10.007316973060369">
        <ele>20.809999999999999</ele>
        <time>2017-06-17T12:58:59Z</time>
      </trkpt>
      <trkpt lat="57.543335035443306" lon="10.006261020898819">
        <ele>20.32</ele>
        <time>2017-06-17T12:59:14Z</time>
      </trkpt>
      <trkpt lat="57.545807026326656" lon="10.006101010367274">
        <ele>20.809999999999999</ele>
        <time>2017-06-17T12:59:23Z</time>
      </trkpt>
      <trkpt lat="57.548266025260091" lon="10.006811041384935">
        <ele>20.32</ele>
        <time>2017-06-17T12:59:32Z</time>
      </trkpt>
      <trkpt lat="57.550618993118405" lon="10.008345013484359">
        <ele>20.32</ele>
        <time>2017-06-17T12:59:41Z</time>
      </trkpt>
      <trkpt lat="57.555387038737535" lon="10.012025004252791">
        <ele>19.84</ele>
        <time>2017-06-17T12:59:59Z</time>
      </trkpt>
      <trkpt lat="57.557834973558784" lon="10.013897018507123">
        <ele>21.77</ele>
        <time>2017-06-17T13:00:09Z</time>
      </trkpt>
      <trkpt lat="57.560023991391063" lon="10.015172995626926">
        <ele>24.170000000000002</ele>
        <time>2017-06-17T13:00:19Z</time>
      </trkpt>
      <trkpt lat="57.561701964586973" lon="10.015554036945105">
        <ele>25.609999999999999</ele>
        <time>2017-06-17T13:00:28Z</time>
      </trkpt>
      <trkpt lat="57.563474988564849" lon="10.015410035848618">
        <ele>24.649999999999999</ele>
        <time>2017-06-17T13:00:39Z</time>
      </trkpt>
      <trkpt lat="57.564957998692989" lon="10.014840988442302">
        <ele>22.73</ele>
        <time>2017-06-17T13:00:51Z</time>
      </trkpt>
      <trkpt lat="57.565019018948078" lon="10.014852974563837">
        <ele>22.25</ele>
        <time>2017-06-17T13:00:52Z</time>
      </trkpt>
      <trkpt lat="57.565086996182799" lon="10.014891028404236">
        <ele>22.73</ele>
        <time>2017-06-17T13:00:53Z</time>
      </trkpt>
      <trkpt lat="57.565155979245901" lon="10.014953976497054">
        <ele>22.25</ele>
        <time>2017-06-17T13:00:54Z</time>
      </trkpt>
      <trkpt lat="57.565228985622525" lon="10.015027988702059">
        <ele>22.25</ele>
        <time>2017-06-17T13:00:55Z</time>
      </trkpt>
      <trkpt lat="57.56536602973938" lon="10.015117004513741">
        <ele>22.25</ele>
        <time>2017-06-17T13:00:57Z</time>
      </trkpt>
      <trkpt lat="57.565436018630862" lon="10.015111975371838">
        <ele>21.77</ele>
        <time>2017-06-17T13:00:58Z</time>
      </trkpt>
      <trkpt lat="57.565501984208822" lon="10.015070987865329">
        <ele>21.77</ele>
        <time>2017-06-17T13:00:59Z</time>
      </trkpt>
      <trkpt lat="57.565558981150389" lon="10.015003010630608">
        <ele>21.77</ele>
        <time>2017-06-17T13:01:00Z</time>
      </trkpt>
      <trkpt lat="57.565611032769084" lon="10.014917012304068">
        <ele>21.77</ele>
        <time>2017-06-17T13:01:01Z</time>
      </trkpt>
      <trkpt lat="57.565656965598464" lon="10.014811987057328">
        <ele>21.289999999999999</ele>
        <time>2017-06-17T13:01:02Z</time>
      </trkpt>
      <trkpt lat="57.565702982246876" lon="10.014679972082376">
        <ele>21.289999999999999</ele>
        <time>2017-06-17T13:01:03Z</time>
      </trkpt>
      <trkpt lat="57.565760985016823" lon="10.014533037319779">
        <ele>20.809999999999999</ele>
        <time>2017-06-17T13:01:04Z</time>
      </trkpt>
      <trkpt lat="57.565942034125328" lon="10.014257021248341">
        <ele>20.809999999999999</ele>
        <time>2017-06-17T13:01:06Z</time>
      </trkpt>
      <trkpt lat="57.566062984988093" lon="10.014153001829982">
        <ele>20.809999999999999</ele>
        <time>2017-06-17T13:01:07Z</time>
      </trkpt>
      <trkpt lat="57.567305015400052" lon="10.013172989711165">
        <ele>19.84</ele>
        <time>2017-06-17T13:01:15Z</time>
      </trkpt>
      <trkpt lat="57.568862959742546" lon="10.011232998222113">
        <ele>18.879999999999999</ele>
        <time>2017-06-17T13:01:24Z</time>
      </trkpt>
      <trkpt lat="57.57045803591609" lon="10.008297991007566">
        <ele>16.48</ele>
        <time>2017-06-17T13:01:34Z</time>
      </trkpt>
      <trkpt lat="57.571902992203832" lon="10.00435103662312">
        <ele>15.039999999999999</ele>
        <time>2017-06-17T13:01:45Z</time>
      </trkpt>
      <trkpt lat="57.574404990300536" lon="9.996400969102979">
        <ele>12.15</ele>
        <time>2017-06-17T13:02:06Z</time>
      </trkpt>
      <trkpt lat="57.576396027579904" lon="9.990153014659882">
        <ele>12.15</ele>
        <time>2017-06-17T13:02:23Z</time>
      </trkpt>
      <trkpt lat="57.577079990878701" lon="9.988144040107727">
        <ele>11.67</ele>
        <time>2017-06-17T13:02:30Z</time>
      </trkpt>
      <trkpt lat="57.577678039669991" lon="9.9866499658674">
        <ele>11.19</ele>
        <time>2017-06-17T13:02:38Z</time>
      </trkpt>
      <trkpt lat="57.577739981934428" lon="9.986558016389608">
        <ele>11.19</ele>
        <time>2017-06-17T13:02:39Z</time>
      </trkpt>
      <trkpt lat="57.577803013846278" lon="9.986494984477758">
        <ele>11.19</ele>
        <time>2017-06-17T13:02:40Z</time>
      </trkpt>
      <trkpt lat="57.577864034101367" lon="9.98645500279963">
        <ele>11.19</ele>
        <time>2017-06-17T13:02:41Z</time>
      </trkpt>
      <trkpt lat="57.577917007729411" lon="9.986422983929515">
        <ele>11.19</ele>
        <time>2017-06-17T13:02:42Z</time>
      </trkpt>
      <trkpt lat="57.577963024377823" lon="9.98638903722167">
        <ele>11.19</ele>
        <time>2017-06-17T13:02:43Z</time>
      </trkpt>
      <trkpt lat="57.578005017712712" lon="9.986332962289453">
        <ele>11.67</ele>
        <time>2017-06-17T13:02:44Z</time>
      </trkpt>
      <trkpt lat="57.578039970248938" lon="9.98624000698328">
        <ele>11.67</ele>
        <time>2017-06-17T13:02:45Z</time>
      </trkpt>
      <trkpt lat="57.578066037967801" lon="9.986118972301483">
        <ele>11.67</ele>
        <time>2017-06-17T13:02:46Z</time>
      </trkpt>
      <trkpt lat="57.578087998554111" lon="9.985975977033377">
        <ele>11.67</ele>
        <time>2017-06-17T13:02:47Z</time>
      </trkpt>
      <trkpt lat="57.578114988282323" lon="9.985822001472116">
        <ele>11.67</ele>
        <time>2017-06-17T13:02:48Z</time>
      </trkpt>
      <trkpt lat="57.578152036294341" lon="9.985652016475797">
        <ele>11.67</ele>
        <time>2017-06-17T13:02:49Z</time>
      </trkpt>
      <trkpt lat="57.578209033235908" lon="9.985474990680814">
        <ele>11.19</ele>
        <time>2017-06-17T13:02:50Z</time>
      </trkpt>
      <trkpt lat="57.578284973278642" lon="9.98529695905745">
        <ele>11.19</ele>
        <time>2017-06-17T13:02:51Z</time>
      </trkpt>
      <trkpt lat="57.578373989090323" lon="9.98512202873826">
        <ele>11.19</ele>
        <time>2017-06-17T13:02:52Z</time>
      </trkpt>
      <trkpt lat="57.57847499102354" lon="9.984943997114897">
        <ele>10.710000000000001</ele>
        <time>2017-06-17T13:02:53Z</time>
      </trkpt>
      <trkpt lat="57.579499008134007" lon="9.983186982572079">
        <ele>9.27</ele>
        <time>2017-06-17T13:03:01Z</time>
      </trkpt>
      <trkpt lat="57.581197014078498" lon="9.981077006086707">
        <ele>7.83</ele>
        <time>2017-06-17T13:03:11Z</time>
      </trkpt>
      <trkpt lat="57.583603039383888" lon="9.97899703681469">
        <ele>5.42</ele>
        <time>2017-06-17T13:03:24Z</time>
      </trkpt>
      <trkpt lat="57.585249999538064" lon="9.977606981992722">
        <ele>3.98</ele>
        <time>2017-06-17T13:03:35Z</time>
      </trkpt>
      <trkpt lat="57.585987020283937" lon="9.977017985656858">
        <ele>3.02</ele>
        <time>2017-06-17T13:03:42Z</time>
      </trkpt>
      <trkpt lat="57.586051980033517" lon="9.977019997313619">
        <ele>3.02</ele>
        <time>2017-06-17T13:03:43Z</time>
      </trkpt>
      <trkpt lat="57.586104031652212" lon="9.977067019790411">
        <ele>3.02</ele>
        <time>2017-06-17T13:03:44Z</time>
      </trkpt>
      <trkpt lat="57.586146024987102" lon="9.977144971489906">
        <ele>3.02</ele>
        <time>2017-06-17T13:03:45Z</time>
      </trkpt>
      <trkpt lat="57.586193969473243" lon="9.977252008393407">
        <ele>3.02</ele>
        <time>2017-06-17T13:03:46Z</time>
      </trkpt>
      <trkpt lat="57.586245015263557" lon="9.977371031418443">
        <ele>3.02</ele>
        <time>2017-06-17T13:03:47Z</time>
      </trkpt>
      <trkpt lat="57.58689402602613" lon="9.978517005220056">
        <ele>3.5</ele>
        <time>2017-06-17T13:03:55Z</time>
      </trkpt>
      <trkpt lat="57.588257007300854" lon="9.980870978906751">
        <ele>0.62</ele>
        <time>2017-06-17T13:04:09Z</time>
      </trkpt>
      <trkpt lat="57.589567014947534" lon="9.983133003115654">
        <ele>-1.79</ele>
        <time>2017-06-17T13:04:22Z</time>
      </trkpt>
      <trkpt lat="57.590932007879019" lon="9.985471973195672">
        <ele>-3.23</ele>
        <time>2017-06-17T13:04:35Z</time>
      </trkpt>
      <trkpt lat="57.591638015583158" lon="9.986651977524161">
        <ele>-3.23</ele>
        <time>2017-06-17T13:04:43Z</time>
      </trkpt>
      <trkpt lat="57.59170800447464" lon="9.986880971118808">
        <ele>-3.23</ele>
        <time>2017-06-17T13:04:47Z</time>
      </trkpt>
      <trkpt lat="57.59168897755444" lon="9.986937968060374">
        <ele>-3.23</ele>
        <time>2017-06-17T13:04:48Z</time>
      </trkpt>
      <trkpt lat="57.591654025018215" lon="9.987002005800605">
        <ele>-3.23</ele>
        <time>2017-06-17T13:04:49Z</time>
      </trkpt>
      <trkpt lat="57.591239036992192" lon="9.987813038751483">
        <ele>-3.23</ele>
        <time>2017-06-17T13:04:55Z</time>
      </trkpt>
      <trkpt lat="57.590604024007916" lon="9.989049034193158">
        <ele>-3.23</ele>
        <time>2017-06-17T13:05:04Z</time>
      </trkpt>
      <trkpt lat="57.590581979602575" lon="9.989113993942738">
        <ele>-3.23</ele>
        <time>2017-06-17T13:05:05Z</time>
      </trkpt>
      <trkpt lat="57.590572005137801" lon="9.989187000319362">
        <ele>-3.23</ele>
        <time>2017-06-17T13:05:06Z</time>
      </trkpt>
      <trkpt lat="57.590582985430956" lon="9.989278027787805">
        <ele>-3.71</ele>
        <time>2017-06-17T13:05:07Z</time>
      </trkpt>
      <trkpt lat="57.590621961280704" lon="9.989366959780455">
        <ele>-3.71</ele>
        <time>2017-06-17T13:05:08Z</time>
      </trkpt>
      <trkpt lat="57.590776020660996" lon="9.989481959491968">
        <ele>-3.71</ele>
        <time>2017-06-17T13:05:10Z</time>
      </trkpt>
      <trkpt lat="57.590880040079355" lon="9.989506015554071">
        <ele>-3.71</ele>
        <time>2017-06-17T13:05:11Z</time>
      </trkpt>
      <trkpt lat="57.59198703803122" lon="9.989887978881598">
        <ele>-4.19</ele>
        <time>2017-06-17T13:05:19Z</time>
      </trkpt>
      <trkpt lat="57.592315021902323" lon="9.989980012178421">
        <ele>-4.67</ele>
        <time>2017-06-17T13:05:22Z</time>
      </trkpt>
      <trkpt lat="57.592747025191784" lon="9.990638997405767">
        <ele>-4.67</ele>
        <time>2017-06-17T13:05:28Z</time>
      </trkpt>
      <trkpt lat="57.593144997954369" lon="9.99034303240478">
        <ele>-4.67</ele>
        <time>2017-06-17T13:05:32Z</time>
      </trkpt>
      <trkpt lat="57.593238037079573" lon="9.990184027701616">
        <ele>-4.67</ele>
        <time>2017-06-17T13:05:33Z</time>
      </trkpt>
      <trkpt lat="57.594099026173353" lon="9.988239007070661">
        <ele>-5.63</ele>
        <time>2017-06-17T13:05:43Z</time>
      </trkpt>
      <trkpt lat="57.594518959522247" lon="9.987923009321094">
        <ele>-5.15</ele>
        <time>2017-06-17T13:05:47Z</time>
      </trkpt>
      <trkpt lat="57.595411967486143" lon="9.987988974899054">
        <ele>-4.19</ele>
        <time>2017-06-17T13:05:54Z</time>
      </trkpt>
      <trkpt lat="57.59583399631083" lon="9.987224964424968">
        <ele>-4.67</ele>
        <time>2017-06-17T13:06:00Z</time>
      </trkpt>
      <trkpt lat="57.59585302323103" lon="9.986987002193928">
        <ele>-4.67</ele>
        <time>2017-06-17T13:06:01Z</time>
      </trkpt>
      <trkpt lat="57.596046980470419" lon="9.983698027208448">
        <ele>-5.15</ele>
        <time>2017-06-17T13:06:12Z</time>
      </trkpt>
      <trkpt lat="57.596258958801627" lon="9.979875963181257">
        <ele>-4.19</ele>
        <time>2017-06-17T13:06:25Z</time>
      </trkpt>
      <trkpt lat="57.596399020403624" lon="9.977381005883217">
        <ele>-5.15</ele>
        <time>2017-06-17T13:06:35Z</time>
      </trkpt>
      <trkpt lat="57.596468003466725" lon="9.975661039352417">
        <ele>-5.15</ele>
        <time>2017-06-17T13:06:44Z</time>
      </trkpt>
      <trkpt lat="57.596522988751531" lon="9.974423032253981">
        <ele>-3.71</ele>
        <time>2017-06-17T13:06:54Z</time>
      </trkpt>
      <trkpt lat="57.596578979864717" lon="9.973844010382891">
        <ele>-4.67</ele>
        <time>2017-06-17T13:07:04Z</time>
      </trkpt>
      <trkpt lat="57.596500022336841" lon="9.973760023713112">
        <ele>-7.55</ele>
        <time>2017-06-17T13:07:14Z</time>
      </trkpt>
      <trkpt lat="57.59647898375988" lon="9.973815008997917">
        <ele>-9.48</ele>
        <time>2017-06-17T13:07:44Z</time>
      </trkpt>
      <trkpt lat="57.596702026203275" lon="9.973926991224289">
        <ele>15.52</ele>
        <time>2017-06-17T13:17:40Z</time>
      </trkpt>
      <trkpt lat="57.596684005111456" lon="9.973906958475709">
        <ele>12.15</ele>
        <time>2017-06-17T13:17:53Z</time>
      </trkpt>
      <trkpt lat="57.596643017604947" lon="9.97408096678555">
        <ele>8.310000000000001</ele>
        <time>2017-06-17T13:17:56Z</time>
      </trkpt>
      <trkpt lat="57.596495999023318" lon="9.97541100718081">
        <ele>-1.3</ele>
        <time>2017-06-17T13:18:04Z</time>
      </trkpt>
      <trkpt lat="57.596303969621658" lon="9.979055039584637">
        <ele>0.14</ele>
        <time>2017-06-17T13:18:21Z</time>
      </trkpt>
      <trkpt lat="57.596083022654057" lon="9.982334962114692">
        <ele>-0.34</ele>
        <time>2017-06-17T13:18:34Z</time>
      </trkpt>
      <trkpt lat="57.59579099714756" lon="9.987139971926808">
        <ele>-0.82</ele>
        <time>2017-06-17T13:18:50Z</time>
      </trkpt>
      <trkpt lat="57.595769036561251" lon="9.98742101714015">
        <ele>-0.82</ele>
        <time>2017-06-17T13:18:51Z</time>
      </trkpt>
      <trkpt lat="57.595411967486143" lon="9.988074973225594">
        <ele>-0.82</ele>
        <time>2017-06-17T13:18:56Z</time>
      </trkpt>
      <trkpt lat="57.595286993309855" lon="9.988072961568832">
        <ele>-0.82</ele>
        <time>2017-06-17T13:18:57Z</time>
      </trkpt>
      <trkpt lat="57.594343023374677" lon="9.987985035404563">
        <ele>-0.82</ele>
        <time>2017-06-17T13:19:04Z</time>
      </trkpt>
      <trkpt lat="57.593917977064848" lon="9.988450985401869">
        <ele>-0.82</ele>
        <time>2017-06-17T13:19:08Z</time>
      </trkpt>
      <trkpt lat="57.593154972419143" lon="9.990211017429829">
        <ele>-1.79</ele>
        <time>2017-06-17T13:19:16Z</time>
      </trkpt>
      <trkpt lat="57.59261098690331" lon="9.990498013794422">
        <ele>-3.23</ele>
        <time>2017-06-17T13:19:22Z</time>
      </trkpt>
      <trkpt lat="57.592497998848557" lon="9.990019993856549">
        <ele>-3.71</ele>
        <time>2017-06-17T13:19:27Z</time>
      </trkpt>
      <trkpt lat="57.592662032693624" lon="9.989811033010483">
        <ele>-4.19</ele>
        <time>2017-06-17T13:19:30Z</time>
      </trkpt>
      <trkpt lat="57.593345995992422" lon="9.989024978131056">
        <ele>-6.11</ele>
        <time>2017-06-17T13:19:39Z</time>
      </trkpt>
      <trkpt lat="57.59359703399241" lon="9.988445034250617">
        <ele>-7.55</ele>
        <time>2017-06-17T13:19:47Z</time>
      </trkpt>
      <trkpt lat="57.593808006495237" lon="9.987419005483389">
        <ele>-8.029999999999999</ele>
        <time>2017-06-17T13:19:56Z</time>
      </trkpt>
      <trkpt lat="57.594411000609398" lon="9.984707962721586">
        <ele>-7.55</ele>
        <time>2017-06-17T13:20:12Z</time>
      </trkpt>
      <trkpt lat="57.59456698782742" lon="9.983986029401422">
        <ele>-8.029999999999999</ele>
        <time>2017-06-17T13:20:20Z</time>
      </trkpt>
      <trkpt lat="57.594604035839438" lon="9.983801040798426">
        <ele>-8.029999999999999</ele>
        <time>2017-06-17T13:20:28Z</time>
      </trkpt>
      <trkpt lat="57.594602024182677" lon="9.983796011656523">
        <ele>-8.029999999999999</ele>
        <time>2017-06-17T13:21:43Z</time>
      </trkpt>
      <trkpt lat="57.594631025567651" lon="9.983627032488585">
        <ele>-7.55</ele>
        <time>2017-06-17T13:21:55Z</time>
      </trkpt>
      <trkpt lat="57.594637982547283" lon="9.983547991141677">
        <ele>-8.029999999999999</ele>
        <time>2017-06-17T13:22:24Z</time>
      </trkpt>
      <trkpt lat="57.594662038609385" lon="9.983413964509964">
        <ele>-7.07</ele>
        <time>2017-06-17T13:23:12Z</time>
      </trkpt>
      <trkpt lat="57.594659021124244" lon="9.983340036123991">
        <ele>-6.11</ele>
        <time>2017-06-17T13:23:26Z</time>
      </trkpt>
      <trkpt lat="57.594659021124244" lon="9.98333903029561">
        <ele>-5.63</ele>
        <time>2017-06-17T13:24:03Z</time>
      </trkpt>
      <trkpt lat="57.594686010852456" lon="9.983238028362393">
        <ele>-5.15</ele>
        <time>2017-06-17T13:24:27Z</time>
      </trkpt>
      <trkpt lat="57.594692967832088" lon="9.983254037797451">
        <ele>-3.71</ele>
        <time>2017-06-17T13:25:23Z</time>
      </trkpt>
      <trkpt lat="57.594708977267146" lon="9.983171978965402">
        <ele>-5.63</ele>
        <time>2017-06-17T13:25:33Z</time>
      </trkpt>
      <trkpt lat="57.594723980873823" lon="9.983094027265906">
        <ele>-5.63</ele>
        <time>2017-06-17T13:26:24Z</time>
      </trkpt>
      <trkpt lat="57.594766980037093" lon="9.982812982052565">
        <ele>-5.15</ele>
        <time>2017-06-17T13:27:13Z</time>
      </trkpt>
      <trkpt lat="57.594886003062129" lon="9.981204997748137">
        <ele>-4.67</ele>
        <time>2017-06-17T13:27:23Z</time>
      </trkpt>
      <trkpt lat="57.594940988346934" lon="9.980336967855692">
        <ele>-5.15</ele>
        <time>2017-06-17T13:27:33Z</time>
      </trkpt>
      <trkpt lat="57.594985999166965" lon="9.980251975357533">
        <ele>-4.19</ele>
        <time>2017-06-17T13:27:46Z</time>
      </trkpt>
      <trkpt lat="57.595073003321886" lon="9.980001021176577">
        <ele>-3.71</ele>
        <time>2017-06-17T13:27:51Z</time>
      </trkpt>
      <trkpt lat="57.595068980008364" lon="9.979953998699784">
        <ele>-3.71</ele>
        <time>2017-06-17T13:27:52Z</time>
      </trkpt>
      <trkpt lat="57.594994967803359" lon="9.979942012578249">
        <ele>-3.71</ele>
        <time>2017-06-17T13:28:02Z</time>
      </trkpt>
      <trkpt lat="57.594991028308868" lon="9.979937989264727">
        <ele>-4.19</ele>
        <time>2017-06-17T13:29:38Z</time>
      </trkpt>
      <trkpt lat="57.596863964572549" lon="9.960206989198923">
        <ele>49.649999999999999</ele>
        <time>2017-06-17T14:50:02Z</time>
      </trkpt>
      <trkpt lat="57.597435023635626" lon="9.959065960720182">
        <ele>14.56</ele>
        <time>2017-06-17T14:50:16Z</time>
      </trkpt>
      <trkpt lat="57.598490975797176" lon="9.958818024024367">
        <ele>-4.19</ele>
        <time>2017-06-17T14:50:29Z</time>
      </trkpt>
      <trkpt lat="57.599715990945697" lon="9.958620965480804">
        <ele>-21.969999999999999</ele>
        <time>2017-06-17T14:50:43Z</time>
      </trkpt>
      <trkpt lat="57.601232025772333" lon="9.957760982215405">
        <ele>-3.23</ele>
        <time>2017-06-17T14:50:58Z</time>
      </trkpt>
      <trkpt lat="57.602302981540561" lon="9.957270976155996">
        <ele>-7.55</ele>
        <time>2017-06-17T14:51:10Z</time>
      </trkpt>
      <trkpt lat="57.60356898419559" lon="9.956373022869229">
        <ele>-5.63</ele>
        <time>2017-06-17T14:51:24Z</time>
      </trkpt>
      <trkpt lat="57.604628037661314" lon="9.955142978578806">
        <ele>-9.48</ele>
        <time>2017-06-17T14:51:37Z</time>
      </trkpt>
      <trkpt lat="57.605620035901666" lon="9.953576987609267">
        <ele>-9.960000000000001</ele>
        <time>2017-06-17T14:51:50Z</time>
      </trkpt>
      <trkpt lat="57.606408018618822" lon="9.952093977481127">
        <ele>-13.800000000000001</ele>
        <time>2017-06-17T14:52:01Z</time>
      </trkpt>
      <trkpt lat="57.607270013540983" lon="9.950073016807437">
        <ele>-25.34</ele>
        <time>2017-06-17T14:52:14Z</time>
      </trkpt>
      <trkpt lat="57.608093032613397" lon="9.948030011728406">
        <ele>-29.18</ele>
        <time>2017-06-17T14:52:26Z</time>
      </trkpt>
      <trkpt lat="57.608786970376968" lon="9.945964962244034">
        <ele>-31.109999999999999</ele>
        <time>2017-06-17T14:52:37Z</time>
      </trkpt>
      <trkpt lat="57.609429024159908" lon="9.943752977997065">
        <ele>-34.469999999999999</ele>
        <time>2017-06-17T14:52:47Z</time>
      </trkpt>
      <trkpt lat="57.610055990517139" lon="9.941534036770463">
        <ele>-39.759999999999998</ele>
        <time>2017-06-17T14:52:57Z</time>
      </trkpt>
      <trkpt lat="57.610804997384548" lon="9.938850989565253">
        <ele>-39.759999999999998</ele>
        <time>2017-06-17T14:53:08Z</time>
      </trkpt>
      <trkpt lat="57.611651988700032" lon="9.936230974271894">
        <ele>-39.280000000000001</ele>
        <time>2017-06-17T14:53:19Z</time>
      </trkpt>
      <trkpt lat="57.612366965040565" lon="9.933825032785535">
        <ele>-45.039999999999999</ele>
        <time>2017-06-17T14:53:28Z</time>
      </trkpt>
      <trkpt lat="57.61312996968627" lon="9.931016005575657">
        <ele>-46.969999999999999</ele>
        <time>2017-06-17T14:53:38Z</time>
      </trkpt>
      <trkpt lat="57.613847963511944" lon="9.928476037457585">
        <ele>-44.560000000000002</ele>
        <time>2017-06-17T14:53:47Z</time>
      </trkpt>
      <trkpt lat="57.614775002002716" lon="9.925340032204986">
        <ele>-22.449999999999999</ele>
        <time>2017-06-17T14:53:59Z</time>
      </trkpt>
      <trkpt lat="57.616042010486126" lon="9.921222003176808">
        <ele>-2.75</ele>
        <time>2017-06-17T14:54:14Z</time>
      </trkpt>
      <trkpt lat="57.616873998194933" lon="9.918596958741546">
        <ele>6.39</ele>
        <time>2017-06-17T14:54:24Z</time>
      </trkpt>
      <trkpt lat="57.617882005870342" lon="9.915410997346044">
        <ele>8.789999999999999</ele>
        <time>2017-06-17T14:54:36Z</time>
      </trkpt>
    </trkseg>
  </trk>

  <trk>
    <name>Track vom: 17 JUN 2017 19:20</name>
    <extensions>
      <gpxx:TrackExtension>
        <gpxx:DisplayColor>DarkGray</gpxx:DisplayColor>
      </gpxx:TrackExtension>
    </extensions>
    <trkseg>
      <trkpt lat="58.14463198184967" lon="7.98601197078824">
        <ele>32.340000000000003</ele>
        <time>2017-06-17T17:20:49Z</time>
      </trkpt>
      <trkpt lat="58.144977986812592" lon="7.985684992745519">
        <ele>45.799999999999997</ele>
        <time>2017-06-17T17:21:00Z</time>
      </trkpt>
      <trkpt lat="58.145093992352486" lon="7.985650962218642">
        <ele>51.57</ele>
        <time>2017-06-17T17:21:10Z</time>
      </trkpt>
      <trkpt lat="58.145212009549141" lon="7.985661020502448">
        <ele>56.859999999999999</ele>
        <time>2017-06-17T17:21:15Z</time>
      </trkpt>
      <trkpt lat="58.145251991227269" lon="7.985552977770567">
        <ele>55.890000000000001</ele>
        <time>2017-06-17T17:21:27Z</time>
      </trkpt>
      <trkpt lat="58.145388029515743" lon="7.985239997506142">
        <ele>55.890000000000001</ele>
        <time>2017-06-17T17:22:03Z</time>
      </trkpt>
      <trkpt lat="58.145322985947132" lon="7.984321005642414">
        <ele>53.969999999999999</ele>
        <time>2017-06-17T17:22:15Z</time>
      </trkpt>
      <trkpt lat="58.14510497264564" lon="7.983593037351966">
        <ele>52.530000000000001</ele>
        <time>2017-06-17T17:22:26Z</time>
      </trkpt>
      <trkpt lat="58.144731977954507" lon="7.983911968767643">
        <ele>44.359999999999999</ele>
        <time>2017-06-17T17:22:36Z</time>
      </trkpt>
      <trkpt lat="58.144685961306095" lon="7.983928984031081">
        <ele>43.880000000000003</ele>
        <time>2017-06-17T17:22:37Z</time>
      </trkpt>
      <trkpt lat="58.144634999334812" lon="7.983932001516223">
        <ele>42.920000000000002</ele>
        <time>2017-06-17T17:22:38Z</time>
      </trkpt>
      <trkpt lat="58.144595017656684" lon="7.98392697237432">
        <ele>42.439999999999998</ele>
        <time>2017-06-17T17:22:39Z</time>
      </trkpt>
      <trkpt lat="58.14443601295352" lon="7.983855977654457">
        <ele>40.509999999999998</ele>
        <time>2017-06-17T17:22:44Z</time>
      </trkpt>
      <trkpt lat="58.144444981589913" lon="7.983656991273165">
        <ele>39.07</ele>
        <time>2017-06-17T17:22:48Z</time>
      </trkpt>
      <trkpt lat="58.144482029601932" lon="7.98360301181674">
        <ele>39.07</ele>
        <time>2017-06-17T17:22:49Z</time>
      </trkpt>
      <trkpt lat="58.144524022936821" lon="7.98356001265347">
        <ele>38.590000000000003</ele>
        <time>2017-06-17T17:22:50Z</time>
      </trkpt>
      <trkpt lat="58.144581019878387" lon="7.983507039025426">
        <ele>40.030000000000001</ele>
        <time>2017-06-17T17:22:51Z</time>
      </trkpt>
      <trkpt lat="58.144862987101078" lon="7.983277039602399">
        <ele>40.030000000000001</ele>
        <time>2017-06-17T17:22:56Z</time>
      </trkpt>
      <trkpt lat="58.144923001527786" lon="7.9832580126822">
        <ele>40.030000000000001</ele>
        <time>2017-06-17T17:22:57Z</time>
      </trkpt>
      <trkpt lat="58.144988967105746" lon="7.983265975490212">
        <ele>39.549999999999997</ele>
        <time>2017-06-17T17:22:58Z</time>
      </trkpt>
      <trkpt lat="58.145053004845977" lon="7.983310986310244">
        <ele>39.07</ele>
        <time>2017-06-17T17:22:59Z</time>
      </trkpt>
      <trkpt lat="58.14510497264564" lon="7.983393967151642">
        <ele>38.590000000000003</ele>
        <time>2017-06-17T17:23:00Z</time>
      </trkpt>
      <trkpt lat="58.145155012607574" lon="7.983501004055142">
        <ele>39.07</ele>
        <time>2017-06-17T17:23:01Z</time>
      </trkpt>
      <trkpt lat="58.145178984850645" lon="7.983628995716572">
        <ele>39.07</ele>
        <time>2017-06-17T17:23:02Z</time>
      </trkpt>
      <trkpt lat="58.14518703147769" lon="7.983769979327917">
        <ele>37.630000000000003</ele>
        <time>2017-06-17T17:23:03Z</time>
      </trkpt>
      <trkpt lat="58.145193988457322" lon="7.983906017616391">
        <ele>37.630000000000003</ele>
        <time>2017-06-17T17:23:04Z</time>
      </trkpt>
      <trkpt lat="58.145192982628942" lon="7.984041972085834">
        <ele>36.670000000000002</ele>
        <time>2017-06-17T17:23:05Z</time>
      </trkpt>
      <trkpt lat="58.145231958478689" lon="7.985306968912482">
        <ele>32.340000000000003</ele>
        <time>2017-06-17T17:23:17Z</time>
      </trkpt>
      <trkpt lat="58.145202035084367" lon="7.98568700440228">
        <ele>29.940000000000001</ele>
        <time>2017-06-17T17:23:28Z</time>
      </trkpt>
      <trkpt lat="58.145178984850645" lon="7.985845003277063">
        <ele>26.09</ele>
        <time>2017-06-17T17:24:05Z</time>
      </trkpt>
      <trkpt lat="58.145148977637291" lon="7.986259991303086">
        <ele>25.129999999999999</ele>
        <time>2017-06-17T17:24:17Z</time>
      </trkpt>
      <trkpt lat="58.14514696598053" lon="7.986363004893065">
        <ele>24.170000000000002</ele>
        <time>2017-06-17T17:24:45Z</time>
      </trkpt>
      <trkpt lat="58.145073959603906" lon="7.986681014299393">
        <ele>21.289999999999999</ele>
        <time>2017-06-17T17:24:56Z</time>
      </trkpt>
      <trkpt lat="58.144983015954494" lon="7.986961975693703">
        <ele>15.52</ele>
        <time>2017-06-17T17:25:09Z</time>
      </trkpt>
      <trkpt lat="58.144924007356167" lon="7.987162973731756">
        <ele>12.630000000000001</ele>
        <time>2017-06-17T17:25:23Z</time>
      </trkpt>
      <trkpt lat="58.144857035949826" lon="7.987294988706708">
        <ele>11.67</ele>
        <time>2017-06-17T17:25:34Z</time>
      </trkpt>
      <trkpt lat="58.144749999046326" lon="7.987478971481323">
        <ele>11.67</ele>
        <time>2017-06-17T17:25:56Z</time>
      </trkpt>
      <trkpt lat="58.14467498101294" lon="7.987476959824562">
        <ele>8.789999999999999</ele>
        <time>2017-06-17T17:26:01Z</time>
      </trkpt>
      <trkpt lat="58.144568027928472" lon="7.987348968163133">
        <ele>6.39</ele>
        <time>2017-06-17T17:26:11Z</time>
      </trkpt>
      <trkpt lat="58.144570961594582" lon="7.987390039488673">
        <ele>4.46</ele>
        <time>2017-06-17T17:26:58Z</time>
      </trkpt>
      <trkpt lat="58.144564004614949" lon="7.987404959276319">
        <ele>4.46</ele>
        <time>2017-06-17T17:26:59Z</time>
      </trkpt>
      <trkpt lat="58.144573979079723" lon="7.987484000623226">
        <ele>3.5</ele>
        <time>2017-06-17T17:27:02Z</time>
      </trkpt>
      <trkpt lat="58.144575990736485" lon="7.987719029188156">
        <ele>1.1</ele>
        <time>2017-06-17T17:27:19Z</time>
      </trkpt>
      <trkpt lat="58.144550006836653" lon="7.987776026129723">
        <ele>0.62</ele>
        <time>2017-06-17T17:27:28Z</time>
      </trkpt>
      <trkpt lat="58.144542966037989" lon="7.987960008904338">
        <ele>0.62</ele>
        <time>2017-06-17T17:27:31Z</time>
      </trkpt>
      <trkpt lat="58.144551012665033" lon="7.988045001402497">
        <ele>0.14</ele>
        <time>2017-06-17T17:27:32Z</time>
      </trkpt>
      <trkpt lat="58.144567022100091" lon="7.988124964758754">
        <ele>-0.34</ele>
        <time>2017-06-17T17:27:33Z</time>
      </trkpt>
      <trkpt lat="58.144590994343162" lon="7.988181039690971">
        <ele>-0.34</ele>
        <time>2017-06-17T17:27:34Z</time>
      </trkpt>
      <trkpt lat="58.144625024870038" lon="7.988224038854241">
        <ele>0.14</ele>
        <time>2017-06-17T17:27:35Z</time>
      </trkpt>
      <trkpt lat="58.144657965749502" lon="7.988253040239215">
        <ele>0.14</ele>
        <time>2017-06-17T17:27:36Z</time>
      </trkpt>
      <trkpt lat="58.144691996276379" lon="7.988277012482286">
        <ele>0.14</ele>
        <time>2017-06-17T17:27:37Z</time>
      </trkpt>
      <trkpt lat="58.14480397850275" lon="7.988256979733706">
        <ele>-0.34</ele>
        <time>2017-06-17T17:27:41Z</time>
      </trkpt>
      <trkpt lat="58.144831974059343" lon="7.988187996670604">
        <ele>-0.34</ele>
        <time>2017-06-17T17:27:42Z</time>
      </trkpt>
      <trkpt lat="58.144860975444317" lon="7.988101998344064">
        <ele>0.14</ele>
        <time>2017-06-17T17:27:43Z</time>
      </trkpt>
      <trkpt lat="58.145092986524105" lon="7.986683025956154">
        <ele>0.14</ele>
        <time>2017-06-17T17:27:53Z</time>
      </trkpt>
      <trkpt lat="58.14520999789238" lon="7.985252989456058">
        <ele>2.54</ele>
        <time>2017-06-17T17:28:05Z</time>
      </trkpt>
      <trkpt lat="58.145228018984199" lon="7.985143018886447">
        <ele>3.02</ele>
        <time>2017-06-17T17:28:06Z</time>
      </trkpt>
      <trkpt lat="58.145244028419256" lon="7.985023995861411">
        <ele>3.02</ele>
        <time>2017-06-17T17:28:07Z</time>
      </trkpt>
      <trkpt lat="58.145268000662327" lon="7.984890975058079">
        <ele>3.02</ele>
        <time>2017-06-17T17:28:08Z</time>
      </trkpt>
      <trkpt lat="58.145472016185522" lon="7.983239991590381">
        <ele>5.91</ele>
        <time>2017-06-17T17:28:18Z</time>
      </trkpt>
      <trkpt lat="58.145455000922084" lon="7.983078975230455">
        <ele>6.87</ele>
        <time>2017-06-17T17:28:19Z</time>
      </trkpt>
      <trkpt lat="58.145413007587194" lon="7.982943020761013">
        <ele>6.87</ele>
        <time>2017-06-17T17:28:20Z</time>
      </trkpt>
      <trkpt lat="58.14536196179688" lon="7.98282902687788">
        <ele>7.35</ele>
        <time>2017-06-17T17:28:21Z</time>
      </trkpt>
      <trkpt lat="58.145302031189203" lon="7.982760965824127">
        <ele>8.310000000000001</ele>
        <time>2017-06-17T17:28:22Z</time>
      </trkpt>
      <trkpt lat="58.145235981792212" lon="7.982726013287902">
        <ele>8.310000000000001</ele>
        <time>2017-06-17T17:28:23Z</time>
      </trkpt>
      <trkpt lat="58.145172027871013" lon="7.982707992196083">
        <ele>8.789999999999999</ele>
        <time>2017-06-17T17:28:24Z</time>
      </trkpt>
      <trkpt lat="58.14506096765399" lon="7.982630040496588">
        <ele>9.75</ele>
        <time>2017-06-17T17:28:26Z</time>
      </trkpt>
      <trkpt lat="58.145026015117764" lon="7.982558961957693">
        <ele>9.75</ele>
        <time>2017-06-17T17:28:27Z</time>
      </trkpt>
      <trkpt lat="58.145014028996229" lon="7.982482016086578">
        <ele>9.75</ele>
        <time>2017-06-17T17:28:28Z</time>
      </trkpt>
      <trkpt lat="58.14501503482461" lon="7.982414038851857">
        <ele>9.75</ele>
        <time>2017-06-17T17:28:29Z</time>
      </trkpt>
      <trkpt lat="58.145022997632623" lon="7.982368022203445">
        <ele>9.75</ele>
        <time>2017-06-17T17:28:30Z</time>
      </trkpt>
      <trkpt lat="58.145042024552822" lon="7.982331980019808">
        <ele>9.75</ele>
        <time>2017-06-17T17:28:31Z</time>
      </trkpt>
      <trkpt lat="58.145079994574189" lon="7.982309013605118">
        <ele>9.27</ele>
        <time>2017-06-17T17:28:32Z</time>
      </trkpt>
      <trkpt lat="58.145132968202233" lon="7.982309013605118">
        <ele>9.27</ele>
        <time>2017-06-17T17:28:33Z</time>
      </trkpt>
      <trkpt lat="58.145198011770844" lon="7.98235603608191">
        <ele>8.789999999999999</ele>
        <time>2017-06-17T17:28:34Z</time>
      </trkpt>
      <trkpt lat="58.145271018147469" lon="7.982426024973393">
        <ele>8.789999999999999</ele>
        <time>2017-06-17T17:28:35Z</time>
      </trkpt>
      <trkpt lat="58.145346036180854" lon="7.982513029128313">
        <ele>8.789999999999999</ele>
        <time>2017-06-17T17:28:36Z</time>
      </trkpt>
      <trkpt lat="58.146182969212532" lon="7.983611980453134">
        <ele>8.310000000000001</ele>
        <time>2017-06-17T17:28:45Z</time>
      </trkpt>
      <trkpt lat="58.147050999104977" lon="7.985342005267739">
        <ele>4.94</ele>
        <time>2017-06-17T17:28:55Z</time>
      </trkpt>
      <trkpt lat="58.147227019071579" lon="7.986134011298418">
        <ele>3.98</ele>
        <time>2017-06-17T17:29:00Z</time>
      </trkpt>
      <trkpt lat="58.147224001586437" lon="7.986244987696409">
        <ele>3.98</ele>
        <time>2017-06-17T17:29:01Z</time>
      </trkpt>
      <trkpt lat="58.14720799215138" lon="7.98633199185133">
        <ele>3.5</ele>
        <time>2017-06-17T17:29:02Z</time>
      </trkpt>
      <trkpt lat="58.147189971059561" lon="7.98639502376318">
        <ele>3.5</ele>
        <time>2017-06-17T17:29:03Z</time>
      </trkpt>
      <trkpt lat="58.14716499298811" lon="7.986444979906082">
        <ele>3.02</ele>
        <time>2017-06-17T17:29:04Z</time>
      </trkpt>
      <trkpt lat="58.1471430324018" lon="7.986473981291056">
        <ele>3.02</ele>
        <time>2017-06-17T17:29:05Z</time>
      </trkpt>
      <trkpt lat="58.14705996774137" lon="7.986513040959835">
        <ele>3.5</ele>
        <time>2017-06-17T17:29:16Z</time>
      </trkpt>
      <trkpt lat="58.1468650046736" lon="7.98691101372242">
        <ele>3.02</ele>
        <time>2017-06-17T17:29:27Z</time>
      </trkpt>
      <trkpt lat="58.146641040220857" lon="7.987352991476655">
        <ele>2.54</ele>
        <time>2017-06-17T17:29:33Z</time>
      </trkpt>
      <trkpt lat="58.146167965605855" lon="7.98835102468729">
        <ele>3.02</ele>
        <time>2017-06-17T17:29:45Z</time>
      </trkpt>
    </trkseg>
  </trk>

  <trk>
    <name>Track vom: 17 JUN 2017 19:29</name>
    <extensions>
      <gpxx:TrackExtension>
        <gpxx:DisplayColor>DarkGray</gpxx:DisplayColor>
      </gpxx:TrackExtension>
    </extensions>
    <trkseg>
      <trkpt lat="58.146089008077979" lon="7.988481028005481">
        <ele>3.98</ele>
        <time>2017-06-17T17:29:47Z</time>
      </trkpt>
      <trkpt lat="58.14581198617816" lon="7.989058960229158">
        <ele>7.35</ele>
        <time>2017-06-17T17:29:57Z</time>
      </trkpt>
      <trkpt lat="58.145792037248611" lon="7.989069018512964">
        <ele>7.35</ele>
        <time>2017-06-17T17:29:58Z</time>
      </trkpt>
      <trkpt lat="58.145774016156793" lon="7.989054014906287">
        <ele>6.87</ele>
        <time>2017-06-17T17:29:59Z</time>
      </trkpt>
      <trkpt lat="58.145739985629916" lon="7.988967010751367">
        <ele>5.91</ele>
        <time>2017-06-17T17:30:23Z</time>
      </trkpt>
      <trkpt lat="58.145734034478664" lon="7.988954018801451">
        <ele>5.91</ele>
        <time>2017-06-17T17:30:51Z</time>
      </trkpt>
      <trkpt lat="58.145714001730084" lon="7.988929962739348">
        <ele>5.91</ele>
        <time>2017-06-17T17:30:52Z</time>
      </trkpt>
      <trkpt lat="58.145433040335774" lon="7.988727036863565">
        <ele>4.94</ele>
        <time>2017-06-17T17:31:01Z</time>
      </trkpt>
      <trkpt lat="58.145418036729097" lon="7.988761989399791">
        <ele>4.46</ele>
        <time>2017-06-17T17:31:02Z</time>
      </trkpt>
      <trkpt lat="58.145418036729097" lon="7.988813035190105">
        <ele>4.46</ele>
        <time>2017-06-17T17:31:03Z</time>
      </trkpt>
      <trkpt lat="58.14542599953711" lon="7.988858968019486">
        <ele>4.46</ele>
        <time>2017-06-17T17:31:04Z</time>
      </trkpt>
      <trkpt lat="58.145437985658646" lon="7.988879000768066">
        <ele>3.98</ele>
        <time>2017-06-17T17:31:05Z</time>
      </trkpt>
      <trkpt lat="58.145462963730097" lon="7.988930968567729">
        <ele>4.46</ele>
        <time>2017-06-17T17:31:08Z</time>
      </trkpt>
      <trkpt lat="58.145480984821916" lon="7.988949995487928">
        <ele>5.42</ele>
        <time>2017-06-17T17:31:30Z</time>
      </trkpt>
      <trkpt lat="58.14564099535346" lon="7.989260964095593">
        <ele>5.91</ele>
        <time>2017-06-17T17:31:36Z</time>
      </trkpt>
      <trkpt lat="58.145642001181841" lon="7.989345034584403">
        <ele>5.42</ele>
        <time>2017-06-17T17:31:37Z</time>
      </trkpt>
      <trkpt lat="58.145624985918403" lon="7.989443019032478">
        <ele>5.42</ele>
        <time>2017-06-17T17:31:38Z</time>
      </trkpt>
      <trkpt lat="58.145594978705049" lon="7.98953396268189">
        <ele>4.94</ele>
        <time>2017-06-17T17:31:39Z</time>
      </trkpt>
      <trkpt lat="58.14555499702692" lon="7.989623984321952">
        <ele>6.39</ele>
        <time>2017-06-17T17:31:40Z</time>
      </trkpt>
      <trkpt lat="58.145509986206889" lon="7.989714005962014">
        <ele>5.42</ele>
        <time>2017-06-17T17:31:41Z</time>
      </trkpt>
      <trkpt lat="58.144928030669689" lon="7.990842964500189">
        <ele>4.46</ele>
        <time>2017-06-17T17:31:53Z</time>
      </trkpt>
      <trkpt lat="58.144840020686388" lon="7.990959975868464">
        <ele>2.06</ele>
        <time>2017-06-17T17:32:01Z</time>
      </trkpt>
      <trkpt lat="58.144672969356179" lon="7.991258036345244">
        <ele>2.06</ele>
        <time>2017-06-17T17:32:11Z</time>
      </trkpt>
      <trkpt lat="58.144380021840334" lon="7.991877039894462">
        <ele>1.58</ele>
        <time>2017-06-17T17:32:21Z</time>
      </trkpt>
      <trkpt lat="58.144355965778232" lon="7.991931019350886">
        <ele>1.1</ele>
        <time>2017-06-17T17:32:35Z</time>
      </trkpt>
      <trkpt lat="58.143980959430337" lon="7.9927350115031">
        <ele>3.5</ele>
        <time>2017-06-17T17:32:42Z</time>
      </trkpt>
      <trkpt lat="58.143463041633368" lon="7.993785012513399">
        <ele>7.83</ele>
        <time>2017-06-17T17:32:53Z</time>
      </trkpt>
      <trkpt lat="58.143434962257743" lon="7.993848966434598">
        <ele>7.83</ele>
        <time>2017-06-17T17:33:04Z</time>
      </trkpt>
      <trkpt lat="58.143377965316176" lon="7.994039990007877">
        <ele>9.27</ele>
        <time>2017-06-17T17:33:15Z</time>
      </trkpt>
      <trkpt lat="58.143391963094473" lon="7.994168987497687">
        <ele>9.27</ele>
        <time>2017-06-17T17:33:17Z</time>
      </trkpt>
      <trkpt lat="58.143422976136208" lon="7.994247023016214">
        <ele>9.27</ele>
        <time>2017-06-17T17:33:18Z</time>
      </trkpt>
      <trkpt lat="58.143464969471097" lon="7.994336038827896">
        <ele>9.75</ele>
        <time>2017-06-17T17:33:19Z</time>
      </trkpt>
      <trkpt lat="58.14351400360465" lon="7.994422959163785">
        <ele>10.23</ele>
        <time>2017-06-17T17:33:20Z</time>
      </trkpt>
      <trkpt lat="58.143560020253062" lon="7.994504012167454">
        <ele>10.23</ele>
        <time>2017-06-17T17:33:21Z</time>
      </trkpt>
      <trkpt lat="58.14375196583569" lon="7.99479603767395">
        <ele>10.710000000000001</ele>
        <time>2017-06-17T17:33:25Z</time>
      </trkpt>
      <trkpt lat="58.144294023513794" lon="7.995812008157373">
        <ele>12.630000000000001</ele>
        <time>2017-06-17T17:33:37Z</time>
      </trkpt>
      <trkpt lat="58.144913027063012" lon="7.99690299667418">
        <ele>15.039999999999999</ele>
        <time>2017-06-17T17:33:50Z</time>
      </trkpt>
      <trkpt lat="58.145603025332093" lon="7.998107979074121">
        <ele>15.52</ele>
        <time>2017-06-17T17:34:05Z</time>
      </trkpt>
      <trkpt lat="58.145936038345098" lon="7.998734023422003">
        <ele>15.52</ele>
        <time>2017-06-17T17:34:13Z</time>
      </trkpt>
      <trkpt lat="58.145977025851607" lon="7.998855980113149">
        <ele>17.440000000000001</ele>
        <time>2017-06-17T17:34:21Z</time>
      </trkpt>
      <trkpt lat="58.146168971434236" lon="7.999263005331159">
        <ele>18.399999999999999</ele>
        <time>2017-06-17T17:34:44Z</time>
      </trkpt>
      <trkpt lat="58.146894006058574" lon="8.00053303129971">
        <ele>21.289999999999999</ele>
        <time>2017-06-17T17:34:58Z</time>
      </trkpt>
      <trkpt lat="58.1477440148592" lon="8.002011012285948">
        <ele>19.359999999999999</ele>
        <time>2017-06-17T17:35:13Z</time>
      </trkpt>
      <trkpt lat="58.148626964539289" lon="8.003492010757327">
        <ele>26.09</ele>
        <time>2017-06-17T17:35:28Z</time>
      </trkpt>
      <trkpt lat="58.148761996999383" lon="8.003722010180354">
        <ele>25.129999999999999</ele>
        <time>2017-06-17T17:35:36Z</time>
      </trkpt>
      <trkpt lat="58.148946985602379" lon="8.004043037071824">
        <ele>26.09</ele>
        <time>2017-06-17T17:36:31Z</time>
      </trkpt>
      <trkpt lat="58.149575041607022" lon="8.005034029483795">
        <ele>24.649999999999999</ele>
        <time>2017-06-17T17:36:40Z</time>
      </trkpt>
      <trkpt lat="58.150782035663724" lon="8.006737986579537">
        <ele>17.920000000000002</ele>
        <time>2017-06-17T17:36:54Z</time>
      </trkpt>
      <trkpt lat="58.151223007589579" lon="8.007132019847632">
        <ele>20.809999999999999</ele>
        <time>2017-06-17T17:36:59Z</time>
      </trkpt>
      <trkpt lat="58.151292996481061" lon="8.00723503343761">
        <ele>21.289999999999999</ele>
        <time>2017-06-17T17:37:00Z</time>
      </trkpt>
      <trkpt lat="58.151353010907769" lon="8.007341986522079">
        <ele>21.77</ele>
        <time>2017-06-17T17:37:01Z</time>
      </trkpt>
      <trkpt lat="58.151409002020955" lon="8.007456986233592">
        <ele>22.25</ele>
        <time>2017-06-17T17:37:02Z</time>
      </trkpt>
      <trkpt lat="58.151457030326128" lon="8.007575003430247">
        <ele>22.73</ele>
        <time>2017-06-17T17:37:03Z</time>
      </trkpt>
      <trkpt lat="58.151583010330796" lon="8.007841967046261">
        <ele>23.210000000000001</ele>
        <time>2017-06-17T17:37:09Z</time>
      </trkpt>
      <trkpt lat="58.151694992557168" lon="8.00811898894608">
        <ele>22.73</ele>
        <time>2017-06-17T17:37:31Z</time>
      </trkpt>
      <trkpt lat="58.151749977841973" lon="8.008229965344071">
        <ele>22.25</ele>
        <time>2017-06-17T17:37:33Z</time>
      </trkpt>
      <trkpt lat="58.151792977005243" lon="8.008259972557426">
        <ele>22.25</ele>
        <time>2017-06-17T17:37:34Z</time>
      </trkpt>
      <trkpt lat="58.151837987825274" lon="8.008265001699328">
        <ele>21.77</ele>
        <time>2017-06-17T17:37:35Z</time>
      </trkpt>
      <trkpt lat="58.151886016130447" lon="8.008234994485974">
        <ele>21.77</ele>
        <time>2017-06-17T17:37:36Z</time>
      </trkpt>
      <trkpt lat="58.151925997808576" lon="8.008171962574124">
        <ele>21.289999999999999</ele>
        <time>2017-06-17T17:37:37Z</time>
      </trkpt>
      <trkpt lat="58.151962962001562" lon="8.008098034188151">
        <ele>21.289999999999999</ele>
        <time>2017-06-17T17:37:38Z</time>
      </trkpt>
      <trkpt lat="58.15200001001358" lon="8.008014969527721">
        <ele>20.809999999999999</ele>
        <time>2017-06-17T17:37:39Z</time>
      </trkpt>
      <trkpt lat="58.152591018006206" lon="8.006942002102733">
        <ele>16.48</ele>
        <time>2017-06-17T17:37:49Z</time>
      </trkpt>
      <trkpt lat="58.153892979025841" lon="8.004804030060768">
        <ele>14.08</ele>
        <time>2017-06-17T17:38:04Z</time>
      </trkpt>
      <trkpt lat="58.154812976717949" lon="8.003955027088523">
        <ele>16</ele>
        <time>2017-06-17T17:38:13Z</time>
      </trkpt>
      <trkpt lat="58.154905010014772" lon="8.003854025155306">
        <ele>16</ele>
        <time>2017-06-17T17:38:14Z</time>
      </trkpt>
      <trkpt lat="58.155218996107578" lon="8.003427973017097">
        <ele>15.52</ele>
        <time>2017-06-17T17:38:20Z</time>
      </trkpt>
      <trkpt lat="58.155294014140964" lon="8.003315990790725">
        <ele>15.52</ele>
        <time>2017-06-17T17:38:22Z</time>
      </trkpt>
      <trkpt lat="58.155337013304234" lon="8.003229992464185">
        <ele>15.52</ele>
        <time>2017-06-17T17:38:23Z</time>
      </trkpt>
      <trkpt lat="58.155374983325601" lon="8.003123039379716">
        <ele>15.039999999999999</ele>
        <time>2017-06-17T17:38:24Z</time>
      </trkpt>
      <trkpt lat="58.155688969418406" lon="8.001944962888956">
        <ele>16</ele>
        <time>2017-06-17T17:38:32Z</time>
      </trkpt>
      <trkpt lat="58.155753007158637" lon="8.00180196762085">
        <ele>16.48</ele>
        <time>2017-06-17T17:38:33Z</time>
      </trkpt>
      <trkpt lat="58.155822996050119" lon="8.00167397595942">
        <ele>16.48</ele>
        <time>2017-06-17T17:38:34Z</time>
      </trkpt>
      <trkpt lat="58.156593041494489" lon="8.000647025182843">
        <ele>15.039999999999999</ele>
        <time>2017-06-17T17:38:44Z</time>
      </trkpt>
      <trkpt lat="58.156874002888799" lon="8.000309988856316">
        <ele>15.039999999999999</ele>
        <time>2017-06-17T17:38:53Z</time>
      </trkpt>
      <trkpt lat="58.156982967630029" lon="8.000203035771847">
        <ele>15.039999999999999</ele>
        <time>2017-06-17T17:38:58Z</time>
      </trkpt>
      <trkpt lat="58.157024960964918" lon="8.000187026336789">
        <ele>15.52</ele>
        <time>2017-06-17T17:38:59Z</time>
      </trkpt>
      <trkpt lat="58.157067960128188" lon="8.000207981094718">
        <ele>15.52</ele>
        <time>2017-06-17T17:39:00Z</time>
      </trkpt>
      <trkpt lat="58.157105008140206" lon="8.000261038541794">
        <ele>15.52</ele>
        <time>2017-06-17T17:39:01Z</time>
      </trkpt>
      <trkpt lat="58.157128980383277" lon="8.000323986634612">
        <ele>16</ele>
        <time>2017-06-17T17:39:02Z</time>
      </trkpt>
      <trkpt lat="58.157148007303476" lon="8.000414008274674">
        <ele>15.52</ele>
        <time>2017-06-17T17:39:03Z</time>
      </trkpt>
      <trkpt lat="58.157164016738534" lon="8.000516016036272">
        <ele>15.039999999999999</ele>
        <time>2017-06-17T17:39:04Z</time>
      </trkpt>
      <trkpt lat="58.157252026721835" lon="8.000796977430582">
        <ele>15.52</ele>
        <time>2017-06-17T17:39:07Z</time>
      </trkpt>
      <trkpt lat="58.15728597342968" lon="8.000897979363799">
        <ele>15.039999999999999</ele>
        <time>2017-06-17T17:39:08Z</time>
      </trkpt>
      <trkpt lat="58.15762996673584" lon="8.001486975699663">
        <ele>16.48</ele>
        <time>2017-06-17T17:39:17Z</time>
      </trkpt>
      <trkpt lat="58.157670032233" lon="8.001504996791482">
        <ele>16.48</ele>
        <time>2017-06-17T17:39:18Z</time>
      </trkpt>
      <trkpt lat="58.157714959233999" lon="8.001509020105004">
        <ele>16</ele>
        <time>2017-06-17T17:39:19Z</time>
      </trkpt>
      <trkpt lat="58.157762987539172" lon="8.001466020941734">
        <ele>16</ele>
        <time>2017-06-17T17:39:20Z</time>
      </trkpt>
      <trkpt lat="58.157806992530823" lon="8.001396032050252">
        <ele>16</ele>
        <time>2017-06-17T17:39:21Z</time>
      </trkpt>
      <trkpt lat="58.157850997522473" lon="8.001305004581809">
        <ele>15.52</ele>
        <time>2017-06-17T17:39:22Z</time>
      </trkpt>
      <trkpt lat="58.15801503136754" lon="8.001052960753441">
        <ele>16.48</ele>
        <time>2017-06-17T17:39:25Z</time>
      </trkpt>
      <trkpt lat="58.158074039965868" lon="8.000971991568804">
        <ele>16.48</ele>
        <time>2017-06-17T17:39:26Z</time>
      </trkpt>
      <trkpt lat="58.158142017200589" lon="8.000897979363799">
        <ele>16.48</ele>
        <time>2017-06-17T17:39:27Z</time>
      </trkpt>
      <trkpt lat="58.158211000263691" lon="8.000837964937091">
        <ele>16.48</ele>
        <time>2017-06-17T17:39:28Z</time>
      </trkpt>
      <trkpt lat="58.158283000811934" lon="8.000792032107711">
        <ele>16.48</ele>
        <time>2017-06-17T17:39:29Z</time>
      </trkpt>
      <trkpt lat="58.159100990742445" lon="8.00001997500658">
        <ele>21.77</ele>
        <time>2017-06-17T17:39:41Z</time>
      </trkpt>
      <trkpt lat="58.159513967111707" lon="7.999423015862703">
        <ele>23.210000000000001</ele>
        <time>2017-06-17T17:39:47Z</time>
      </trkpt>
      <trkpt lat="58.159579010680318" lon="7.999344980344176">
        <ele>23.210000000000001</ele>
        <time>2017-06-17T17:39:48Z</time>
      </trkpt>
      <trkpt lat="58.160424996167421" lon="7.998670991510153">
        <ele>23.210000000000001</ele>
        <time>2017-06-17T17:39:59Z</time>
      </trkpt>
      <trkpt lat="58.160950960591435" lon="7.998248962685466">
        <ele>23.210000000000001</ele>
        <time>2017-06-17T17:40:07Z</time>
      </trkpt>
      <trkpt lat="58.161016004160047" lon="7.998152989894152">
        <ele>23.210000000000001</ele>
        <time>2017-06-17T17:40:08Z</time>
      </trkpt>
      <trkpt lat="58.161078030243516" lon="7.998036984354258">
        <ele>23.210000000000001</ele>
        <time>2017-06-17T17:40:09Z</time>
      </trkpt>
      <trkpt lat="58.161768028512597" lon="7.99658096395433">
        <ele>22.73</ele>
        <time>2017-06-17T17:40:20Z</time>
      </trkpt>
      <trkpt lat="58.161824019625783" lon="7.99651499837637">
        <ele>22.73</ele>
        <time>2017-06-17T17:40:21Z</time>
      </trkpt>
      <trkpt lat="58.161871964111924" lon="7.996501000598073">
        <ele>23.210000000000001</ele>
        <time>2017-06-17T17:40:22Z</time>
      </trkpt>
      <trkpt lat="58.161912029609084" lon="7.996528996154666">
        <ele>23.210000000000001</ele>
        <time>2017-06-17T17:40:23Z</time>
      </trkpt>
      <trkpt lat="58.161952011287212" lon="7.996551040560007">
        <ele>22.73</ele>
        <time>2017-06-17T17:40:24Z</time>
      </trkpt>
      <trkpt lat="58.161995010450482" lon="7.996545005589724">
        <ele>22.73</ele>
        <time>2017-06-17T17:40:25Z</time>
      </trkpt>
      <trkpt lat="58.162039015442133" lon="7.996507035568357">
        <ele>22.25</ele>
        <time>2017-06-17T17:40:26Z</time>
      </trkpt>
      <trkpt lat="58.162091989070177" lon="7.996426988393068">
        <ele>22.25</ele>
        <time>2017-06-17T17:40:27Z</time>
      </trkpt>
      <trkpt lat="58.162144962698221" lon="7.996321963146329">
        <ele>22.25</ele>
        <time>2017-06-17T17:40:28Z</time>
      </trkpt>
      <trkpt lat="58.162201959639788" lon="7.996206041425467">
        <ele>23.210000000000001</ele>
        <time>2017-06-17T17:40:29Z</time>
      </trkpt>
      <trkpt lat="58.16289103589952" lon="7.99509895965457">
        <ele>32.82</ele>
        <time>2017-06-17T17:40:38Z</time>
      </trkpt>
      <trkpt lat="58.163954028859735" lon="7.994222966954112">
        <ele>45.32</ele>
        <time>2017-06-17T17:40:51Z</time>
      </trkpt>
      <trkpt lat="58.164795991033316" lon="7.993620978668332">
        <ele>53.969999999999999</ele>
        <time>2017-06-17T17:41:03Z</time>
      </trkpt>
      <trkpt lat="58.16559998318553" lon="7.993046985939145">
        <ele>57.82</ele>
        <time>2017-06-17T17:41:14Z</time>
      </trkpt>
      <trkpt lat="58.165967026725411" lon="7.992745991796255">
        <ele>55.409999999999997</ele>
        <time>2017-06-17T17:41:19Z</time>
      </trkpt>
      <trkpt lat="58.166036009788513" lon="7.992664016783238">
        <ele>54.93</ele>
        <time>2017-06-17T17:41:20Z</time>
      </trkpt>
      <trkpt lat="58.166101975366473" lon="7.992572989314795">
        <ele>54.450000000000003</ele>
        <time>2017-06-17T17:41:21Z</time>
      </trkpt>
      <trkpt lat="58.166160983964801" lon="7.992471987381578">
        <ele>54.93</ele>
        <time>2017-06-17T17:41:22Z</time>
      </trkpt>
      <trkpt lat="58.166215969249606" lon="7.992366962134838">
        <ele>54.93</ele>
        <time>2017-06-17T17:41:23Z</time>
      </trkpt>
      <trkpt lat="58.166267015039921" lon="7.992251040413976">
        <ele>54.93</ele>
        <time>2017-06-17T17:41:24Z</time>
      </trkpt>
      <trkpt lat="58.166311020031571" lon="7.992126988247037">
        <ele>55.409999999999997</ele>
        <time>2017-06-17T17:41:25Z</time>
      </trkpt>
      <trkpt lat="58.166347984224558" lon="7.991998996585608">
        <ele>55.890000000000001</ele>
        <time>2017-06-17T17:41:26Z</time>
      </trkpt>
      <trkpt lat="58.166380003094673" lon="7.991867987439036">
        <ele>55.890000000000001</ele>
        <time>2017-06-17T17:41:27Z</time>
      </trkpt>
      <trkpt lat="58.166402969509363" lon="7.991733038797975">
        <ele>55.890000000000001</ele>
        <time>2017-06-17T17:41:28Z</time>
      </trkpt>
      <trkpt lat="58.166421996429563" lon="7.991618039086461">
        <ele>55.409999999999997</ele>
        <time>2017-06-17T17:41:29Z</time>
      </trkpt>
      <trkpt lat="58.166491985321045" lon="7.991135995835066">
        <ele>53.969999999999999</ele>
        <time>2017-06-17T17:41:37Z</time>
      </trkpt>
      <trkpt lat="58.166529033333063" lon="7.991029964759946">
        <ele>53.969999999999999</ele>
        <time>2017-06-17T17:41:45Z</time>
      </trkpt>
      <trkpt lat="58.166554011404514" lon="7.991028958931565">
        <ele>53.969999999999999</ele>
        <time>2017-06-17T17:41:46Z</time>
      </trkpt>
      <trkpt lat="58.16658896394074" lon="7.991031976416707">
        <ele>53.969999999999999</ele>
        <time>2017-06-17T17:41:47Z</time>
      </trkpt>
      <trkpt lat="58.166861962527037" lon="7.991176983341575">
        <ele>53.969999999999999</ele>
        <time>2017-06-17T17:42:00Z</time>
      </trkpt>
      <trkpt lat="58.166848970577121" lon="7.991207996383309">
        <ele>53.969999999999999</ele>
        <time>2017-06-17T17:42:11Z</time>
      </trkpt>
      <trkpt lat="58.166832039132714" lon="7.991334982216358">
        <ele>54.450000000000003</ele>
        <time>2017-06-17T17:42:23Z</time>
      </trkpt>
      <trkpt lat="58.166836984455585" lon="7.991331964731216">
        <ele>55.409999999999997</ele>
        <time>2017-06-17T17:43:18Z</time>
      </trkpt>
      <trkpt lat="58.166828015819192" lon="7.991348979994655">
        <ele>54.93</ele>
        <time>2017-06-17T17:45:25Z</time>
      </trkpt>
      <trkpt lat="58.166856011375785" lon="7.991408994421363">
        <ele>54.93</ele>
        <time>2017-06-17T17:45:28Z</time>
      </trkpt>
      <trkpt lat="58.166881995275617" lon="7.991349985823035">
        <ele>54.450000000000003</ele>
        <time>2017-06-17T17:45:34Z</time>
      </trkpt>
      <trkpt lat="58.166875960305333" lon="7.991332970559597">
        <ele>54.450000000000003</ele>
        <time>2017-06-17T17:45:35Z</time>
      </trkpt>
      <trkpt lat="58.166865985840559" lon="7.991296006366611">
        <ele>54.450000000000003</ele>
        <time>2017-06-17T17:45:36Z</time>
      </trkpt>
      <trkpt lat="58.166830027475953" lon="7.991086961701512">
        <ele>53.490000000000002</ele>
        <time>2017-06-17T17:45:41Z</time>
      </trkpt>
      <trkpt lat="58.166812006384134" lon="7.991066006943584">
        <ele>53.490000000000002</ele>
        <time>2017-06-17T17:45:42Z</time>
      </trkpt>
      <trkpt lat="58.166778981685638" lon="7.991045974195004">
        <ele>53.490000000000002</ele>
        <time>2017-06-17T17:45:43Z</time>
      </trkpt>
      <trkpt lat="58.166733970865607" lon="7.991043962538242">
        <ele>53.490000000000002</ele>
        <time>2017-06-17T17:45:44Z</time>
      </trkpt>
      <trkpt lat="58.166688960045576" lon="7.991043040528894">
        <ele>53.490000000000002</ele>
        <time>2017-06-17T17:45:45Z</time>
      </trkpt>
    </trkseg>
  </trk>

  <trk>
    <name>Track vom: 17 JUN 2017 19:45</name>
    <extensions>
      <gpxx:TrackExtension>
        <gpxx:DisplayColor>DarkGray</gpxx:DisplayColor>
      </gpxx:TrackExtension>
    </extensions>
    <trkseg>
      <trkpt lat="58.166573038324714" lon="7.991017978638411">
        <ele>53.490000000000002</ele>
        <time>2017-06-17T17:45:49Z</time>
      </trkpt>
      <trkpt lat="58.166493996977806" lon="7.991049997508526">
        <ele>53.009999999999998</ele>
        <time>2017-06-17T17:45:52Z</time>
      </trkpt>
      <trkpt lat="58.166467007249594" lon="7.991072963923216">
        <ele>52.530000000000001</ele>
        <time>2017-06-17T17:45:53Z</time>
      </trkpt>
      <trkpt lat="58.166445968672633" lon="7.991117974743247">
        <ele>52.530000000000001</ele>
        <time>2017-06-17T17:45:54Z</time>
      </trkpt>
      <trkpt lat="58.166429037228227" lon="7.991191986948252">
        <ele>53.490000000000002</ele>
        <time>2017-06-17T17:45:55Z</time>
      </trkpt>
      <trkpt lat="58.16641696728766" lon="7.991285026073456">
        <ele>53.490000000000002</ele>
        <time>2017-06-17T17:45:56Z</time>
      </trkpt>
      <trkpt lat="58.166401963680983" lon="7.991388961672783">
        <ele>53.969999999999999</ele>
        <time>2017-06-17T17:45:57Z</time>
      </trkpt>
      <trkpt lat="58.166286963969469" lon="7.991978963837028">
        <ele>54.93</ele>
        <time>2017-06-17T17:46:02Z</time>
      </trkpt>
      <trkpt lat="58.16624597646296" lon="7.992107039317489">
        <ele>54.450000000000003</ele>
        <time>2017-06-17T17:46:03Z</time>
      </trkpt>
      <trkpt lat="58.166196020320058" lon="7.992236958816648">
        <ele>54.450000000000003</ele>
        <time>2017-06-17T17:46:04Z</time>
      </trkpt>
      <trkpt lat="58.16613600589335" lon="7.992367967963219">
        <ele>53.969999999999999</ele>
        <time>2017-06-17T17:46:05Z</time>
      </trkpt>
      <trkpt lat="58.1660729739815" lon="7.992490008473396">
        <ele>53.969999999999999</ele>
        <time>2017-06-17T17:46:06Z</time>
      </trkpt>
      <trkpt lat="58.166004996746778" lon="7.992602996528149">
        <ele>54.450000000000003</ele>
        <time>2017-06-17T17:46:07Z</time>
      </trkpt>
      <trkpt lat="58.165932996198535" lon="7.992703998461366">
        <ele>54.93</ele>
        <time>2017-06-17T17:46:08Z</time>
      </trkpt>
      <trkpt lat="58.165859989821911" lon="7.992784967646003">
        <ele>55.409999999999997</ele>
        <time>2017-06-17T17:46:09Z</time>
      </trkpt>
      <trkpt lat="58.165782960131764" lon="7.992855040356517">
        <ele>55.890000000000001</ele>
        <time>2017-06-17T17:46:10Z</time>
      </trkpt>
      <trkpt lat="58.165700985118747" lon="7.992923017591238">
        <ele>56.369999999999997</ele>
        <time>2017-06-17T17:46:11Z</time>
      </trkpt>
      <trkpt lat="58.164747962728143" lon="7.99361796118319">
        <ele>53.490000000000002</ele>
        <time>2017-06-17T17:46:24Z</time>
      </trkpt>
      <trkpt lat="58.1637520249933" lon="7.994312988594174">
        <ele>40.990000000000002</ele>
        <time>2017-06-17T17:46:37Z</time>
      </trkpt>
      <trkpt lat="58.162637986242771" lon="7.995346980169416">
        <ele>28.02</ele>
        <time>2017-06-17T17:46:50Z</time>
      </trkpt>
      <trkpt lat="58.162089977413416" lon="7.996308971196413">
        <ele>19.84</ele>
        <time>2017-06-17T17:46:57Z</time>
      </trkpt>
      <trkpt lat="58.162039015442133" lon="7.996378960087895">
        <ele>19.359999999999999</ele>
        <time>2017-06-17T17:46:58Z</time>
      </trkpt>
      <trkpt lat="58.16199098713696" lon="7.996417013928294">
        <ele>18.399999999999999</ele>
        <time>2017-06-17T17:46:59Z</time>
      </trkpt>
      <trkpt lat="58.161944970488548" lon="7.996422965079546">
        <ele>18.399999999999999</ele>
        <time>2017-06-17T17:47:00Z</time>
      </trkpt>
      <trkpt lat="58.161895014345646" lon="7.996411984786391">
        <ele>17.920000000000002</ele>
        <time>2017-06-17T17:47:01Z</time>
      </trkpt>
      <trkpt lat="58.161781020462513" lon="7.996444003656507">
        <ele>17.440000000000001</ele>
        <time>2017-06-17T17:47:03Z</time>
      </trkpt>
      <trkpt lat="58.161720000207424" lon="7.996523967012763">
        <ele>17.440000000000001</ele>
        <time>2017-06-17T17:47:04Z</time>
      </trkpt>
      <trkpt lat="58.161655040457845" lon="7.996637960895896">
        <ele>17.440000000000001</ele>
        <time>2017-06-17T17:47:05Z</time>
      </trkpt>
      <trkpt lat="58.161094039678574" lon="7.997818971052766">
        <ele>17.920000000000002</ele>
        <time>2017-06-17T17:47:15Z</time>
      </trkpt>
      <trkpt lat="58.16082900390029" lon="7.998378966003656">
        <ele>18.399999999999999</ele>
        <time>2017-06-17T17:47:26Z</time>
      </trkpt>
      <trkpt lat="58.160835038870573" lon="7.998408973217011">
        <ele>18.879999999999999</ele>
        <time>2017-06-17T17:47:27Z</time>
      </trkpt>
      <trkpt lat="58.160847024992108" lon="7.998431017622352">
        <ele>18.879999999999999</ele>
        <time>2017-06-17T17:47:28Z</time>
      </trkpt>
      <trkpt lat="58.160899998620152" lon="7.998422970995307">
        <ele>17.440000000000001</ele>
        <time>2017-06-17T17:47:46Z</time>
      </trkpt>
      <trkpt lat="58.160903016105294" lon="7.998404027894139">
        <ele>18.399999999999999</ele>
        <time>2017-06-17T17:48:25Z</time>
      </trkpt>
      <trkpt lat="58.16085197031498" lon="7.998463958501816">
        <ele>18.879999999999999</ele>
        <time>2017-06-17T17:48:35Z</time>
      </trkpt>
      <trkpt lat="58.160848030820489" lon="7.998490026220679">
        <ele>18.879999999999999</ele>
        <time>2017-06-17T17:48:36Z</time>
      </trkpt>
      <trkpt lat="58.160853981971741" lon="7.998520033434033">
        <ele>19.359999999999999</ele>
        <time>2017-06-17T17:48:37Z</time>
      </trkpt>
      <trkpt lat="58.160848030820489" lon="7.998541994020343">
        <ele>19.359999999999999</ele>
        <time>2017-06-17T17:48:38Z</time>
      </trkpt>
      <trkpt lat="58.160838978365064" lon="7.998572001233697">
        <ele>19.359999999999999</ele>
        <time>2017-06-17T17:48:39Z</time>
      </trkpt>
      <trkpt lat="58.160912990570068" lon="7.99838500097394">
        <ele>8.789999999999999</ele>
        <time>2017-06-17T18:03:36Z</time>
      </trkpt>
      <trkpt lat="58.160964958369732" lon="7.998415008187294">
        <ele>17.920000000000002</ele>
        <time>2017-06-17T18:04:41Z</time>
      </trkpt>
      <trkpt lat="58.160968981683254" lon="7.998348958790302">
        <ele>17.920000000000002</ele>
        <time>2017-06-17T18:04:46Z</time>
      </trkpt>
      <trkpt lat="58.160875020548701" lon="7.998325992375612">
        <ele>17.440000000000001</ele>
        <time>2017-06-17T18:04:50Z</time>
      </trkpt>
      <trkpt lat="58.160833027213812" lon="7.998353987932205">
        <ele>17.920000000000002</ele>
        <time>2017-06-17T18:04:51Z</time>
      </trkpt>
      <trkpt lat="58.160061975941062" lon="7.998908031731844">
        <ele>19.359999999999999</ele>
        <time>2017-06-17T18:05:02Z</time>
      </trkpt>
      <trkpt lat="58.159510027617216" lon="7.999344980344176">
        <ele>18.399999999999999</ele>
        <time>2017-06-17T18:05:08Z</time>
      </trkpt>
      <trkpt lat="58.159439032897353" lon="7.999446988105774">
        <ele>17.920000000000002</ele>
        <time>2017-06-17T18:05:09Z</time>
      </trkpt>
      <trkpt lat="58.158812988549471" lon="8.000310994684696">
        <ele>14.56</ele>
        <time>2017-06-17T18:05:17Z</time>
      </trkpt>
      <trkpt lat="58.158721039071679" lon="8.000397998839617">
        <ele>13.6</ele>
        <time>2017-06-17T18:05:18Z</time>
      </trkpt>
      <trkpt lat="58.158623976632953" lon="8.000482991337776">
        <ele>12.630000000000001</ele>
        <time>2017-06-17T18:05:19Z</time>
      </trkpt>
      <trkpt lat="58.158089965581894" lon="8.00081399269402">
        <ele>10.23</ele>
        <time>2017-06-17T18:05:25Z</time>
      </trkpt>
      <trkpt lat="58.158004973083735" lon="8.000892028212547">
        <ele>10.23</ele>
        <time>2017-06-17T18:05:26Z</time>
      </trkpt>
      <trkpt lat="58.157927021384239" lon="8.000977020710707">
        <ele>10.710000000000001</ele>
        <time>2017-06-17T18:05:27Z</time>
      </trkpt>
      <trkpt lat="58.157660979777575" lon="8.001346997916699">
        <ele>8.789999999999999</ele>
        <time>2017-06-17T18:05:34Z</time>
      </trkpt>
      <trkpt lat="58.157647987827659" lon="8.001384967938066">
        <ele>8.310000000000001</ele>
        <time>2017-06-17T18:05:40Z</time>
      </trkpt>
      <trkpt lat="58.1576510053128" lon="8.001427967101336">
        <ele>8.310000000000001</ele>
        <time>2017-06-17T18:05:41Z</time>
      </trkpt>
      <trkpt lat="58.157659973949194" lon="8.001482030376792">
        <ele>8.310000000000001</ele>
        <time>2017-06-17T18:05:42Z</time>
      </trkpt>
      <trkpt lat="58.157667014747858" lon="8.001709012314677">
        <ele>9.27</ele>
        <time>2017-06-17T18:05:45Z</time>
      </trkpt>
      <trkpt lat="58.157654022797942" lon="8.001791993156076">
        <ele>9.27</ele>
        <time>2017-06-17T18:05:46Z</time>
      </trkpt>
      <trkpt lat="58.157515972852707" lon="8.002885999158025">
        <ele>9.75</ele>
        <time>2017-06-17T18:05:55Z</time>
      </trkpt>
      <trkpt lat="58.157355962321162" lon="8.004152001813054">
        <ele>8.789999999999999</ele>
        <time>2017-06-17T18:06:04Z</time>
      </trkpt>
      <trkpt lat="58.157336013391614" lon="8.004216961562634">
        <ele>8.310000000000001</ele>
        <time>2017-06-17T18:06:05Z</time>
      </trkpt>
      <trkpt lat="58.157299971207976" lon="8.004473028704524">
        <ele>8.789999999999999</ele>
        <time>2017-06-17T18:06:12Z</time>
      </trkpt>
      <trkpt lat="58.157317992299795" lon="8.004661034792662">
        <ele>10.23</ele>
        <time>2017-06-17T18:06:14Z</time>
      </trkpt>
      <trkpt lat="58.157289996743202" lon="8.004776034504175">
        <ele>10.23</ele>
        <time>2017-06-17T18:06:15Z</time>
      </trkpt>
      <trkpt lat="58.157240962609649" lon="8.004882987588644">
        <ele>10.710000000000001</ele>
        <time>2017-06-17T18:06:16Z</time>
      </trkpt>
      <trkpt lat="58.15717801451683" lon="8.004965968430042">
        <ele>10.23</ele>
        <time>2017-06-17T18:06:17Z</time>
      </trkpt>
      <trkpt lat="58.157121017575264" lon="8.005055990070105">
        <ele>10.23</ele>
        <time>2017-06-17T18:06:18Z</time>
      </trkpt>
      <trkpt lat="58.156688008457422" lon="8.005705000832677">
        <ele>10.710000000000001</ele>
        <time>2017-06-17T18:06:27Z</time>
      </trkpt>
      <trkpt lat="58.156472006812692" lon="8.006016975268722">
        <ele>10.710000000000001</ele>
        <time>2017-06-17T18:06:31Z</time>
      </trkpt>
      <trkpt lat="58.156423978507519" lon="8.00605502910912">
        <ele>11.19</ele>
        <time>2017-06-17T18:06:32Z</time>
      </trkpt>
      <trkpt lat="58.156380979344249" lon="8.006057040765882">
        <ele>10.710000000000001</ele>
        <time>2017-06-17T18:06:33Z</time>
      </trkpt>
      <trkpt lat="58.156346026808023" lon="8.006017981097102">
        <ele>10.23</ele>
        <time>2017-06-17T18:06:34Z</time>
      </trkpt>
      <trkpt lat="58.156314007937908" lon="8.005942041054368">
        <ele>9.75</ele>
        <time>2017-06-17T18:06:35Z</time>
      </trkpt>
      <trkpt lat="58.156279977411032" lon="8.005830980837345">
        <ele>9.27</ele>
        <time>2017-06-17T18:06:36Z</time>
      </trkpt>
      <trkpt lat="58.156243013218045" lon="8.005698965862393">
        <ele>8.789999999999999</ele>
        <time>2017-06-17T18:06:37Z</time>
      </trkpt>
      <trkpt lat="58.155822996050119" lon="8.004473028704524">
        <ele>6.87</ele>
        <time>2017-06-17T18:06:46Z</time>
      </trkpt>
      <trkpt lat="58.155417982488871" lon="8.003386985510588">
        <ele>5.42</ele>
        <time>2017-06-17T18:06:56Z</time>
      </trkpt>
      <trkpt lat="58.155361991375685" lon="8.003187999129295">
        <ele>4.94</ele>
        <time>2017-06-17T18:06:58Z</time>
      </trkpt>
      <trkpt lat="58.15520198084414" lon="8.00278902053833">
        <ele>3.98</ele>
        <time>2017-06-17T18:07:02Z</time>
      </trkpt>
      <trkpt lat="58.155146995559335" lon="8.002749038860202">
        <ele>3.98</ele>
        <time>2017-06-17T18:07:03Z</time>
      </trkpt>
      <trkpt lat="58.155084969475865" lon="8.002758007496595">
        <ele>3.5</ele>
        <time>2017-06-17T18:07:04Z</time>
      </trkpt>
      <trkpt lat="58.15502998419106" lon="8.002783991396427">
        <ele>3.98</ele>
        <time>2017-06-17T18:07:05Z</time>
      </trkpt>
      <trkpt lat="58.154976004734635" lon="8.00281198695302">
        <ele>3.98</ele>
        <time>2017-06-17T18:07:06Z</time>
      </trkpt>
      <trkpt lat="58.154847007244825" lon="8.002821961417794">
        <ele>4.46</ele>
        <time>2017-06-17T18:07:08Z</time>
      </trkpt>
      <trkpt lat="58.15477198921144" lon="8.002786003053188">
        <ele>4.94</ele>
        <time>2017-06-17T18:07:09Z</time>
      </trkpt>
      <trkpt lat="58.154702000319958" lon="8.002715008333325">
        <ele>4.94</ele>
        <time>2017-06-17T18:07:10Z</time>
      </trkpt>
      <trkpt lat="58.154411986470222" lon="8.00244402140379">
        <ele>3.5</ele>
        <time>2017-06-17T18:07:14Z</time>
      </trkpt>
      <trkpt lat="58.154323976486921" lon="8.002412002533674">
        <ele>3.5</ele>
        <time>2017-06-17T18:07:15Z</time>
      </trkpt>
      <trkpt lat="58.154237978160381" lon="8.002412002533674">
        <ele>3.02</ele>
        <time>2017-06-17T18:07:16Z</time>
      </trkpt>
      <trkpt lat="58.154160026460886" lon="8.002452990040183">
        <ele>3.02</ele>
        <time>2017-06-17T18:07:17Z</time>
      </trkpt>
      <trkpt lat="58.154088025912642" lon="8.002518033608794">
        <ele>3.02</ele>
        <time>2017-06-17T18:07:18Z</time>
      </trkpt>
      <trkpt lat="58.154027005657554" lon="8.002591039985418">
        <ele>3.02</ele>
        <time>2017-06-17T18:07:19Z</time>
      </trkpt>
      <trkpt lat="58.153971014544368" lon="8.002663040533662">
        <ele>3.5</ele>
        <time>2017-06-17T18:07:20Z</time>
      </trkpt>
      <trkpt lat="58.15380304120481" lon="8.002922963351011">
        <ele>3.5</ele>
        <time>2017-06-17T18:07:27Z</time>
      </trkpt>
      <trkpt lat="58.153561977669597" lon="8.002976020798087">
        <ele>1.58</ele>
        <time>2017-06-17T18:07:41Z</time>
      </trkpt>
      <trkpt lat="58.15352400764823" lon="8.002905026078224">
        <ele>1.58</ele>
        <time>2017-06-17T18:07:42Z</time>
      </trkpt>
      <trkpt lat="58.153108013793826" lon="8.001911016181111">
        <ele>1.1</ele>
        <time>2017-06-17T18:07:52Z</time>
      </trkpt>
      <trkpt lat="58.153010029345751" lon="8.001743964850903">
        <ele>2.54</ele>
        <time>2017-06-17T18:07:57Z</time>
      </trkpt>
      <trkpt lat="58.152979016304016" lon="8.001770032569766">
        <ele>2.54</ele>
        <time>2017-06-17T18:07:58Z</time>
      </trkpt>
      <trkpt lat="58.152930987998843" lon="8.001813031733036">
        <ele>1.1</ele>
        <time>2017-06-17T18:07:59Z</time>
      </trkpt>
      <trkpt lat="58.152882037684321" lon="8.00188503228128">
        <ele>1.1</ele>
        <time>2017-06-17T18:08:00Z</time>
      </trkpt>
      <trkpt lat="58.152825040742755" lon="8.001968013122678">
        <ele>1.1</ele>
        <time>2017-06-17T18:08:01Z</time>
      </trkpt>
      <trkpt lat="58.152466965839267" lon="8.002392975613475">
        <ele>-0.34</ele>
        <time>2017-06-17T18:08:06Z</time>
      </trkpt>
      <trkpt lat="58.15240703523159" lon="8.00250998698175">
        <ele>0.14</ele>
        <time>2017-06-17T18:08:07Z</time>
      </trkpt>
      <trkpt lat="58.151658028364182" lon="8.003595024347305">
        <ele>0.62</ele>
        <time>2017-06-17T18:08:19Z</time>
      </trkpt>
      <trkpt lat="58.151572030037642" lon="8.003703989088535">
        <ele>0.14</ele>
        <time>2017-06-17T18:08:21Z</time>
      </trkpt>
      <trkpt lat="58.151403972879052" lon="8.003943040966988">
        <ele>0.62</ele>
        <time>2017-06-17T18:08:29Z</time>
      </trkpt>
      <trkpt lat="58.151416964828968" lon="8.003994002938271">
        <ele>0.62</ele>
        <time>2017-06-17T18:08:47Z</time>
      </trkpt>
      <trkpt lat="58.151417970657349" lon="8.003961984068155">
        <ele>1.1</ele>
        <time>2017-06-17T18:08:53Z</time>
      </trkpt>
      <trkpt lat="58.151442026719451" lon="8.003946980461478">
        <ele>1.1</ele>
        <time>2017-06-17T18:08:54Z</time>
      </trkpt>
      <trkpt lat="58.151544034481049" lon="8.003940023481846">
        <ele>2.54</ele>
        <time>2017-06-17T18:09:09Z</time>
      </trkpt>
      <trkpt lat="58.151580998674035" lon="8.003939017653465">
        <ele>4.46</ele>
        <time>2017-06-17T18:09:34Z</time>
      </trkpt>
    </trkseg>
  </trk>

  <trk>
    <name>Track vom: 17 JUN 2017 20:09</name>
    <extensions>
      <gpxx:TrackExtension>
        <gpxx:DisplayColor>DarkGray</gpxx:DisplayColor>
      </gpxx:TrackExtension>
    </extensions>
    <trkseg>
      <trkpt lat="58.151580998674035" lon="8.003937005996704">
        <ele>4.46</ele>
        <time>2017-06-17T18:09:43Z</time>
      </trkpt>
      <trkpt lat="58.151636989787221" lon="8.003856036812067">
        <ele>5.42</ele>
        <time>2017-06-17T18:10:32Z</time>
      </trkpt>
      <trkpt lat="58.151688035577536" lon="8.00379803404212">
        <ele>5.91</ele>
        <time>2017-06-17T18:10:33Z</time>
      </trkpt>
      <trkpt lat="58.151798006147146" lon="8.003609022125602">
        <ele>6.87</ele>
        <time>2017-06-17T18:10:35Z</time>
      </trkpt>
      <trkpt lat="58.15185097977519" lon="8.003509026020765">
        <ele>5.91</ele>
        <time>2017-06-17T18:10:36Z</time>
      </trkpt>
      <trkpt lat="58.151917029172182" lon="8.003415986895561">
        <ele>5.91</ele>
        <time>2017-06-17T18:10:37Z</time>
      </trkpt>
      <trkpt lat="58.152433019131422" lon="8.002654993906617">
        <ele>3.5</ele>
        <time>2017-06-17T18:10:44Z</time>
      </trkpt>
      <trkpt lat="58.152662012726068" lon="8.00231502391398">
        <ele>3.02</ele>
        <time>2017-06-17T18:10:47Z</time>
      </trkpt>
      <trkpt lat="58.152864016592503" lon="8.002005983144045">
        <ele>1.1</ele>
        <time>2017-06-17T18:10:50Z</time>
      </trkpt>
      <trkpt lat="58.15292595885694" lon="8.00195200368762">
        <ele>0.14</ele>
        <time>2017-06-17T18:10:51Z</time>
      </trkpt>
      <trkpt lat="58.152982033789158" lon="8.001911016181111">
        <ele>0.14</ele>
        <time>2017-06-17T18:10:52Z</time>
      </trkpt>
      <trkpt lat="58.153039030730724" lon="8.001874973997474">
        <ele>0.14</ele>
        <time>2017-06-17T18:10:53Z</time>
      </trkpt>
      <trkpt lat="58.15309502184391" lon="8.001900035887957">
        <ele>0.14</ele>
        <time>2017-06-17T18:10:54Z</time>
      </trkpt>
      <trkpt lat="58.153161993250251" lon="8.001914033666253">
        <ele>0.62</ele>
        <time>2017-06-17T18:10:55Z</time>
      </trkpt>
      <trkpt lat="58.153222007676959" lon="8.002001959830523">
        <ele>0.62</ele>
        <time>2017-06-17T18:10:56Z</time>
      </trkpt>
      <trkpt lat="58.153291996568441" lon="8.0021240003407">
        <ele>2.06</ele>
        <time>2017-06-17T18:10:57Z</time>
      </trkpt>
      <trkpt lat="58.153366008773446" lon="8.002286022529006">
        <ele>2.54</ele>
        <time>2017-06-17T18:10:58Z</time>
      </trkpt>
      <trkpt lat="58.153433986008167" lon="8.002464976161718">
        <ele>3.98</ele>
        <time>2017-06-17T18:10:59Z</time>
      </trkpt>
      <trkpt lat="58.153643030673265" lon="8.003036035224795">
        <ele>3.5</ele>
        <time>2017-06-17T18:11:03Z</time>
      </trkpt>
      <trkpt lat="58.153758030384779" lon="8.003153968602419">
        <ele>3.5</ele>
        <time>2017-06-17T18:11:05Z</time>
      </trkpt>
      <trkpt lat="58.153831036761403" lon="8.003118010237813">
        <ele>3.98</ele>
        <time>2017-06-17T18:11:06Z</time>
      </trkpt>
      <trkpt lat="58.153903037309647" lon="8.003033017739654">
        <ele>3.98</ele>
        <time>2017-06-17T18:11:07Z</time>
      </trkpt>
      <trkpt lat="58.154151979833841" lon="8.002691958099604">
        <ele>4.94</ele>
        <time>2017-06-17T18:11:10Z</time>
      </trkpt>
      <trkpt lat="58.154249964281917" lon="8.002611994743347">
        <ele>4.94</ele>
        <time>2017-06-17T18:11:11Z</time>
      </trkpt>
      <trkpt lat="58.154346020892262" lon="8.002578970044851">
        <ele>4.46</ele>
        <time>2017-06-17T18:11:12Z</time>
      </trkpt>
      <trkpt lat="58.154441993683577" lon="8.002587016671896">
        <ele>4.46</ele>
        <time>2017-06-17T18:11:13Z</time>
      </trkpt>
      <trkpt lat="58.154527992010117" lon="8.002637978643179">
        <ele>3.98</ele>
        <time>2017-06-17T18:11:14Z</time>
      </trkpt>
      <trkpt lat="58.154612984508276" lon="8.002722971141338">
        <ele>3.5</ele>
        <time>2017-06-17T18:11:15Z</time>
      </trkpt>
      <trkpt lat="58.154689008370042" lon="8.002819027751684">
        <ele>3.02</ele>
        <time>2017-06-17T18:11:16Z</time>
      </trkpt>
      <trkpt lat="58.154758997261524" lon="8.002923969179392">
        <ele>3.02</ele>
        <time>2017-06-17T18:11:17Z</time>
      </trkpt>
      <trkpt lat="58.154823035001755" lon="8.00302597694099">
        <ele>3.02</ele>
        <time>2017-06-17T18:11:18Z</time>
      </trkpt>
      <trkpt lat="58.154925964772701" lon="8.003212977200747">
        <ele>3.02</ele>
        <time>2017-06-17T18:11:20Z</time>
      </trkpt>
      <trkpt lat="58.154959995299578" lon="8.003316996619105">
        <ele>2.54</ele>
        <time>2017-06-17T18:11:21Z</time>
      </trkpt>
      <trkpt lat="58.154967958107591" lon="8.003444988280535">
        <ele>2.54</ele>
        <time>2017-06-17T18:11:22Z</time>
      </trkpt>
      <trkpt lat="58.154951026663184" lon="8.003579014912248">
        <ele>1.58</ele>
        <time>2017-06-17T18:11:23Z</time>
      </trkpt>
      <trkpt lat="58.154904004186392" lon="8.003710024058819">
        <ele>1.1</ele>
        <time>2017-06-17T18:11:24Z</time>
      </trkpt>
      <trkpt lat="58.154832003638148" lon="8.003834998235107">
        <ele>1.1</ele>
        <time>2017-06-17T18:11:25Z</time>
      </trkpt>
      <trkpt lat="58.154746005311608" lon="8.003948992118239">
        <ele>1.1</ele>
        <time>2017-06-17T18:11:26Z</time>
      </trkpt>
      <trkpt lat="58.154646009206772" lon="8.004046976566315">
        <ele>1.58</ele>
        <time>2017-06-17T18:11:27Z</time>
      </trkpt>
      <trkpt lat="58.154539978131652" lon="8.004129035398364">
        <ele>1.58</ele>
        <time>2017-06-17T18:11:28Z</time>
      </trkpt>
      <trkpt lat="58.154436964541674" lon="8.004202963784337">
        <ele>0.62</ele>
        <time>2017-06-17T18:11:29Z</time>
      </trkpt>
      <trkpt lat="58.153423005715013" lon="8.005337035283446">
        <ele>-3.71</ele>
        <time>2017-06-17T18:11:39Z</time>
      </trkpt>
      <trkpt lat="58.152186004444957" lon="8.007393032312393">
        <ele>-0.34</ele>
        <time>2017-06-17T18:11:53Z</time>
      </trkpt>
      <trkpt lat="58.151783002540469" lon="8.007960990071297">
        <ele>2.54</ele>
        <time>2017-06-17T18:12:00Z</time>
      </trkpt>
      <trkpt lat="58.151791971176863" lon="8.007930982857943">
        <ele>2.06</ele>
        <time>2017-06-17T18:12:20Z</time>
      </trkpt>
      <trkpt lat="58.151729023084044" lon="8.007984962314367">
        <ele>2.06</ele>
        <time>2017-06-17T18:12:56Z</time>
      </trkpt>
      <trkpt lat="58.151675965636969" lon="8.007971970364451">
        <ele>2.06</ele>
        <time>2017-06-17T18:12:57Z</time>
      </trkpt>
      <trkpt lat="58.151621986180544" lon="8.007901981472969">
        <ele>2.54</ele>
        <time>2017-06-17T18:12:58Z</time>
      </trkpt>
      <trkpt lat="58.151572030037642" lon="8.007796034216881">
        <ele>2.54</ele>
        <time>2017-06-17T18:12:59Z</time>
      </trkpt>
      <trkpt lat="58.151529030874372" lon="8.007679022848606">
        <ele>2.54</ele>
        <time>2017-06-17T18:13:00Z</time>
      </trkpt>
      <trkpt lat="58.151177996769547" lon="8.006909983232617">
        <ele>1.1</ele>
        <time>2017-06-17T18:13:06Z</time>
      </trkpt>
      <trkpt lat="58.151094010099769" lon="8.006817027926445">
        <ele>0.62</ele>
        <time>2017-06-17T18:13:07Z</time>
      </trkpt>
      <trkpt lat="58.150998037308455" lon="8.006733041256666">
        <ele>0.14</ele>
        <time>2017-06-17T18:13:08Z</time>
      </trkpt>
      <trkpt lat="58.150376016274095" lon="8.006176985800266">
        <ele>-2.75</ele>
        <time>2017-06-17T18:13:14Z</time>
      </trkpt>
      <trkpt lat="58.150274008512497" lon="8.006065003573895">
        <ele>-2.27</ele>
        <time>2017-06-17T18:13:15Z</time>
      </trkpt>
      <trkpt lat="58.149054022505879" lon="8.004224002361298">
        <ele>-2.75</ele>
        <time>2017-06-17T18:13:29Z</time>
      </trkpt>
      <trkpt lat="58.148889988660812" lon="8.003938011825085">
        <ele>-1.79</ele>
        <time>2017-06-17T18:13:35Z</time>
      </trkpt>
      <trkpt lat="58.148712040856481" lon="8.003655960783362">
        <ele>0.14</ele>
        <time>2017-06-17T18:14:04Z</time>
      </trkpt>
      <trkpt lat="58.148578014224768" lon="8.003437025472522">
        <ele>1.1</ele>
        <time>2017-06-17T18:14:06Z</time>
      </trkpt>
      <trkpt lat="58.147759018465877" lon="8.001992991194129">
        <ele>4.46</ele>
        <time>2017-06-17T18:14:18Z</time>
      </trkpt>
      <trkpt lat="58.146318001672626" lon="7.999355960637331">
        <ele>5.91</ele>
        <time>2017-06-17T18:14:40Z</time>
      </trkpt>
      <trkpt lat="58.146127983927727" lon="7.998981960117817">
        <ele>6.39</ele>
        <time>2017-06-17T18:14:44Z</time>
      </trkpt>
      <trkpt lat="58.146109962835908" lon="7.998909959569573">
        <ele>6.39</ele>
        <time>2017-06-17T18:14:45Z</time>
      </trkpt>
      <trkpt lat="58.146107029169798" lon="7.998838964849711">
        <ele>6.39</ele>
        <time>2017-06-17T18:14:46Z</time>
      </trkpt>
      <trkpt lat="58.146123038604856" lon="7.998767970129848">
        <ele>5.91</ele>
        <time>2017-06-17T18:14:47Z</time>
      </trkpt>
      <trkpt lat="58.146158996969461" lon="7.998695969581604">
        <ele>5.91</ele>
        <time>2017-06-17T18:14:48Z</time>
      </trkpt>
      <trkpt lat="58.146208031103015" lon="7.998618017882109">
        <ele>5.42</ele>
        <time>2017-06-17T18:14:49Z</time>
      </trkpt>
      <trkpt lat="58.146540960296988" lon="7.998119965195656">
        <ele>4.94</ele>
        <time>2017-06-17T18:14:58Z</time>
      </trkpt>
      <trkpt lat="58.146974975243211" lon="7.99761101603508">
        <ele>3.98</ele>
        <time>2017-06-17T18:15:07Z</time>
      </trkpt>
      <trkpt lat="58.147327015176415" lon="7.996963011100888">
        <ele>1.58</ele>
        <time>2017-06-17T18:15:19Z</time>
      </trkpt>
      <trkpt lat="58.147584004327655" lon="7.996498988941312">
        <ele>4.94</ele>
        <time>2017-06-17T18:15:26Z</time>
      </trkpt>
      <trkpt lat="58.147705039009452" lon="7.996179973706603">
        <ele>9.27</ele>
        <time>2017-06-17T18:15:30Z</time>
      </trkpt>
      <trkpt lat="58.148036040365696" lon="7.995543032884598">
        <ele>9.75</ele>
        <time>2017-06-17T18:15:40Z</time>
      </trkpt>
      <trkpt lat="58.148064035922289" lon="7.995523000136018">
        <ele>12.15</ele>
        <time>2017-06-17T18:15:57Z</time>
      </trkpt>
      <trkpt lat="58.148114997893572" lon="7.99539702013135">
        <ele>11.67</ele>
        <time>2017-06-17T18:16:02Z</time>
      </trkpt>
      <trkpt lat="58.148114997893572" lon="7.995304986834526">
        <ele>10.710000000000001</ele>
        <time>2017-06-17T18:16:03Z</time>
      </trkpt>
      <trkpt lat="58.148105023428798" lon="7.995227035135031">
        <ele>9.75</ele>
        <time>2017-06-17T18:16:04Z</time>
      </trkpt>
      <trkpt lat="58.148090019822121" lon="7.995156040415168">
        <ele>8.789999999999999</ele>
        <time>2017-06-17T18:16:05Z</time>
      </trkpt>
      <trkpt lat="58.148077027872205" lon="7.995100971311331">
        <ele>8.310000000000001</ele>
        <time>2017-06-17T18:16:06Z</time>
      </trkpt>
      <trkpt lat="58.148061018437147" lon="7.99505696631968">
        <ele>7.83</ele>
        <time>2017-06-17T18:16:07Z</time>
      </trkpt>
      <trkpt lat="58.148044003173709" lon="7.995018996298313">
        <ele>7.35</ele>
        <time>2017-06-17T18:16:08Z</time>
      </trkpt>
      <trkpt lat="58.148028999567032" lon="7.994995024055243">
        <ele>7.35</ele>
        <time>2017-06-17T18:16:09Z</time>
      </trkpt>
      <trkpt lat="58.147994969040155" lon="7.9950110334903">
        <ele>5.42</ele>
        <time>2017-06-17T18:16:25Z</time>
      </trkpt>
      <trkpt lat="58.14787401817739" lon="7.995133996009827">
        <ele>7.83</ele>
        <time>2017-06-17T18:19:03Z</time>
      </trkpt>
      <trkpt lat="58.14783001318574" lon="7.995026959106326">
        <ele>5.91</ele>
        <time>2017-06-17T18:19:08Z</time>
      </trkpt>
      <trkpt lat="58.147898996248841" lon="7.995069958269596">
        <ele>3.98</ele>
        <time>2017-06-17T18:19:12Z</time>
      </trkpt>
      <trkpt lat="58.147992035374045" lon="7.995216976851225">
        <ele>5.42</ele>
        <time>2017-06-17T18:19:17Z</time>
      </trkpt>
      <trkpt lat="58.148079961538315" lon="7.995305992662907">
        <ele>7.83</ele>
        <time>2017-06-17T18:19:20Z</time>
      </trkpt>
      <trkpt lat="58.148126984015107" lon="7.995310015976429">
        <ele>8.310000000000001</ele>
        <time>2017-06-17T18:19:21Z</time>
      </trkpt>
      <trkpt lat="58.148168977349997" lon="7.995295012369752">
        <ele>7.83</ele>
        <time>2017-06-17T18:19:22Z</time>
      </trkpt>
      <trkpt lat="58.148212982341647" lon="7.995257964357734">
        <ele>8.789999999999999</ele>
        <time>2017-06-17T18:19:23Z</time>
      </trkpt>
      <trkpt lat="58.148242989555001" lon="7.995197027921677">
        <ele>9.75</ele>
        <time>2017-06-17T18:19:24Z</time>
      </trkpt>
      <trkpt lat="58.148266039788723" lon="7.995127961039543">
        <ele>9.75</ele>
        <time>2017-06-17T18:19:25Z</time>
      </trkpt>
      <trkpt lat="58.148301998153329" lon="7.995070964097977">
        <ele>9.75</ele>
        <time>2017-06-17T18:19:26Z</time>
      </trkpt>
      <trkpt lat="58.14841004088521" lon="7.99492696300149">
        <ele>10.710000000000001</ele>
        <time>2017-06-17T18:19:35Z</time>
      </trkpt>
      <trkpt lat="58.148550018668175" lon="7.99475496634841">
        <ele>11.67</ele>
        <time>2017-06-17T18:19:50Z</time>
      </trkpt>
      <trkpt lat="58.148658983409405" lon="7.9946259688586">
        <ele>9.27</ele>
        <time>2017-06-17T18:19:54Z</time>
      </trkpt>
      <trkpt lat="58.148693013936281" lon="7.994664022698999">
        <ele>8.310000000000001</ele>
        <time>2017-06-17T18:19:55Z</time>
      </trkpt>
      <trkpt lat="58.148727966472507" lon="7.994738034904003">
        <ele>7.83</ele>
        <time>2017-06-17T18:19:56Z</time>
      </trkpt>
      <trkpt lat="58.148870039731264" lon="7.995014972984791">
        <ele>8.789999999999999</ele>
        <time>2017-06-17T18:19:59Z</time>
      </trkpt>
      <trkpt lat="58.149449983611703" lon="7.996103027835488">
        <ele>8.789999999999999</ele>
        <time>2017-06-17T18:20:10Z</time>
      </trkpt>
      <trkpt lat="58.149989023804665" lon="7.997094020247459">
        <ele>9.75</ele>
        <time>2017-06-17T18:20:21Z</time>
      </trkpt>
      <trkpt lat="58.150247018784285" lon="7.99765401519835">
        <ele>8.789999999999999</ele>
        <time>2017-06-17T18:20:27Z</time>
      </trkpt>
      <trkpt lat="58.150250958278775" lon="7.997715035453439">
        <ele>7.35</ele>
        <time>2017-06-17T18:20:28Z</time>
      </trkpt>
      <trkpt lat="58.150250036269426" lon="7.997770020738244">
        <ele>7.35</ele>
        <time>2017-06-17T18:20:29Z</time>
      </trkpt>
      <trkpt lat="58.150235032662749" lon="7.997830035164952">
        <ele>7.35</ele>
        <time>2017-06-17T18:20:30Z</time>
      </trkpt>
      <trkpt lat="58.150212988257408" lon="7.997888037934899">
        <ele>6.87</ele>
        <time>2017-06-17T18:20:31Z</time>
      </trkpt>
      <trkpt lat="58.150189016014338" lon="7.997946962714195">
        <ele>6.87</ele>
        <time>2017-06-17T18:20:32Z</time>
      </trkpt>
      <trkpt lat="58.149918029084802" lon="7.998541994020343">
        <ele>4.94</ele>
        <time>2017-06-17T18:20:40Z</time>
      </trkpt>
      <trkpt lat="58.149922974407673" lon="7.998608965426683">
        <ele>4.46</ele>
        <time>2017-06-17T18:20:41Z</time>
      </trkpt>
      <trkpt lat="58.149940995499492" lon="7.998693035915494">
        <ele>4.46</ele>
        <time>2017-06-17T18:20:42Z</time>
      </trkpt>
      <trkpt lat="58.149979971349239" lon="7.998781967908144">
        <ele>3.98</ele>
        <time>2017-06-17T18:20:43Z</time>
      </trkpt>
      <trkpt lat="58.150027999654412" lon="7.998875007033348">
        <ele>3.98</ele>
        <time>2017-06-17T18:20:44Z</time>
      </trkpt>
      <trkpt lat="58.150082984939218" lon="7.998975003138185">
        <ele>3.98</ele>
        <time>2017-06-17T18:20:45Z</time>
      </trkpt>
      <trkpt lat="58.150141993537545" lon="7.999070975929499">
        <ele>3.98</ele>
        <time>2017-06-17T18:20:46Z</time>
      </trkpt>
      <trkpt lat="58.150524962693453" lon="7.999712023884058">
        <ele>5.42</ele>
        <time>2017-06-17T18:20:55Z</time>
      </trkpt>
      <trkpt lat="58.150569973513484" lon="7.99980103969574">
        <ele>5.42</ele>
        <time>2017-06-17T18:20:57Z</time>
      </trkpt>
      <trkpt lat="58.150811037048697" lon="8.000194989144802">
        <ele>0.14</ele>
        <time>2017-06-17T18:21:09Z</time>
      </trkpt>
      <trkpt lat="58.150821011513472" lon="8.00018903799355">
        <ele>0.14</ele>
        <time>2017-06-17T18:21:10Z</time>
      </trkpt>
      <trkpt lat="58.150832997635007" lon="8.00014796666801">
        <ele>0.62</ele>
        <time>2017-06-17T18:21:25Z</time>
      </trkpt>
      <trkpt lat="58.150814976543188" lon="8.000109996646643">
        <ele>0.62</ele>
        <time>2017-06-17T18:21:26Z</time>
      </trkpt>
      <trkpt lat="58.150781029835343" lon="8.000051993876696">
        <ele>1.1</ele>
        <time>2017-06-17T18:21:27Z</time>
      </trkpt>
      <trkpt lat="58.15053996630013" lon="7.999700959771872">
        <ele>3.5</ele>
        <time>2017-06-17T18:21:33Z</time>
      </trkpt>
      <trkpt lat="58.15049797296524" lon="7.999734990298748">
        <ele>3.02</ele>
        <time>2017-06-17T18:21:34Z</time>
      </trkpt>
      <trkpt lat="58.15045497380197" lon="7.999810008332133">
        <ele>2.06</ele>
        <time>2017-06-17T18:21:35Z</time>
      </trkpt>
      <trkpt lat="58.149988017976284" lon="8.000961011275649">
        <ele>1.1</ele>
        <time>2017-06-17T18:21:45Z</time>
      </trkpt>
      <trkpt lat="58.149334983900189" lon="8.002489032223821">
        <ele>-0.34</ele>
        <time>2017-06-17T18:21:58Z</time>
      </trkpt>
      <trkpt lat="58.149126023054123" lon="8.002996975556016">
        <ele>-0.82</ele>
        <time>2017-06-17T18:22:03Z</time>
      </trkpt>
      <trkpt lat="58.148944973945618" lon="8.003270979970694">
        <ele>-2.27</ele>
        <time>2017-06-17T18:22:12Z</time>
      </trkpt>
      <trkpt lat="58.14875696785748" lon="8.003548001870513">
        <ele>0.14</ele>
        <time>2017-06-17T18:22:46Z</time>
      </trkpt>
      <trkpt lat="58.14873400144279" lon="8.003636011853814">
        <ele>0.62</ele>
        <time>2017-06-17T18:22:47Z</time>
      </trkpt>
      <trkpt lat="58.148724026978016" lon="8.003713963553309">
        <ele>-0.34</ele>
        <time>2017-06-17T18:22:48Z</time>
      </trkpt>
      <trkpt lat="58.148726960644126" lon="8.003812031820417">
        <ele>-0.34</ele>
        <time>2017-06-17T18:22:49Z</time>
      </trkpt>
      <trkpt lat="58.148730983957648" lon="8.003888977691531">
        <ele>-0.34</ele>
        <time>2017-06-17T18:22:50Z</time>
      </trkpt>
      <trkpt lat="58.148737018927932" lon="8.003938011825085">
        <ele>-0.82</ele>
        <time>2017-06-17T18:22:51Z</time>
      </trkpt>
      <trkpt lat="58.148755962029099" lon="8.004149990156293">
        <ele>-1.3</ele>
        <time>2017-06-17T18:23:03Z</time>
      </trkpt>
      <trkpt lat="58.1487110350281" lon="8.004095004871488">
        <ele>-1.3</ele>
        <time>2017-06-17T18:23:31Z</time>
      </trkpt>
      <trkpt lat="58.148681027814746" lon="8.004048988223076">
        <ele>1.58</ele>
        <time>2017-06-17T18:24:16Z</time>
      </trkpt>
      <trkpt lat="58.148721009492874" lon="8.004016969352961">
        <ele>1.1</ele>
        <time>2017-06-17T18:25:17Z</time>
      </trkpt>
      <trkpt lat="58.148764008656144" lon="8.003971958532929">
        <ele>1.58</ele>
        <time>2017-06-17T18:25:52Z</time>
      </trkpt>
      <trkpt lat="58.148786975070834" lon="8.004005989059806">
        <ele>0.62</ele>
        <time>2017-06-17T18:25:53Z</time>
      </trkpt>
      <trkpt lat="58.149195006117225" lon="8.004636978730559">
        <ele>1.58</ele>
        <time>2017-06-17T18:26:00Z</time>
      </trkpt>
      <trkpt lat="58.150204019621015" lon="8.006172040477395">
        <ele>5.42</ele>
        <time>2017-06-17T18:26:15Z</time>
      </trkpt>
      <trkpt lat="58.151004994288087" lon="8.006985001266003">
        <ele>5.91</ele>
        <time>2017-06-17T18:26:25Z</time>
      </trkpt>
      <trkpt lat="58.151163998991251" lon="8.007182981818914">
        <ele>7.35</ele>
        <time>2017-06-17T18:26:27Z</time>
      </trkpt>
      <trkpt lat="58.151232982054353" lon="8.007306028157473">
        <ele>7.83</ele>
        <time>2017-06-17T18:26:28Z</time>
      </trkpt>
      <trkpt lat="58.151301965117455" lon="8.007433013990521">
        <ele>7.83</ele>
        <time>2017-06-17T18:26:29Z</time>
      </trkpt>
      <trkpt lat="58.151689041405916" lon="8.008240023627877">
        <ele>9.27</ele>
        <time>2017-06-17T18:26:36Z</time>
      </trkpt>
      <trkpt lat="58.151738997548819" lon="8.008272964507341">
        <ele>9.27</ele>
        <time>2017-06-17T18:26:37Z</time>
      </trkpt>
      <trkpt lat="58.151789959520102" lon="8.008260978385806">
        <ele>9.27</ele>
        <time>2017-06-17T18:26:38Z</time>
      </trkpt>
      <trkpt lat="58.151838993653655" lon="8.008209010586143">
        <ele>8.789999999999999</ele>
        <time>2017-06-17T18:26:39Z</time>
      </trkpt>
      <trkpt lat="58.15189297311008" lon="8.008134998381138">
        <ele>8.789999999999999</ele>
        <time>2017-06-17T18:26:40Z</time>
      </trkpt>
      <trkpt lat="58.151947036385536" lon="8.008027039468288">
        <ele>8.310000000000001</ele>
        <time>2017-06-17T18:26:41Z</time>
      </trkpt>
      <trkpt lat="58.152008978649974" lon="8.007901981472969">
        <ele>7.83</ele>
        <time>2017-06-17T18:26:42Z</time>
      </trkpt>
      <trkpt lat="58.152939034625888" lon="8.006300032138825">
        <ele>4.94</ele>
        <time>2017-06-17T18:26:53Z</time>
      </trkpt>
      <trkpt lat="58.15423202700913" lon="8.004350988194346">
        <ele>1.58</ele>
        <time>2017-06-17T18:27:08Z</time>
      </trkpt>
      <trkpt lat="58.155239028856158" lon="8.003293024376035">
        <ele>3.5</ele>
        <time>2017-06-17T18:27:19Z</time>
      </trkpt>
      <trkpt lat="58.155306000262499" lon="8.003148017451167">
        <ele>3.5</ele>
        <time>2017-06-17T18:27:20Z</time>
      </trkpt>
      <trkpt lat="58.155364003032446" lon="8.002987001091242">
        <ele>3.5</ele>
        <time>2017-06-17T18:27:21Z</time>
      </trkpt>
      <trkpt lat="58.15563197247684" lon="8.001929959282279">
        <ele>5.91</ele>
        <time>2017-06-17T18:27:27Z</time>
      </trkpt>
      <trkpt lat="58.155697016045451" lon="8.001772966235876">
        <ele>5.91</ele>
        <time>2017-06-17T18:27:28Z</time>
      </trkpt>
      <trkpt lat="58.155773039907217" lon="8.001631982624531">
        <ele>5.91</ele>
        <time>2017-06-17T18:27:29Z</time>
      </trkpt>
      <trkpt lat="58.156736036762595" lon="8.000397998839617">
        <ele>3.98</ele>
        <time>2017-06-17T18:27:40Z</time>
      </trkpt>
      <trkpt lat="58.156888000667095" lon="8.000232959166169">
        <ele>3.98</ele>
        <time>2017-06-17T18:27:46Z</time>
      </trkpt>
      <trkpt lat="58.156980033963919" lon="8.000198006629944">
        <ele>4.46</ele>
        <time>2017-06-17T18:27:54Z</time>
      </trkpt>
      <trkpt lat="58.157024960964918" lon="8.000207981094718">
        <ele>4.46</ele>
        <time>2017-06-17T18:27:55Z</time>
      </trkpt>
      <trkpt lat="58.157068965956569" lon="8.000265983864665">
        <ele>4.94</ele>
        <time>2017-06-17T18:27:56Z</time>
      </trkpt>
      <trkpt lat="58.157107019796968" lon="8.000366985797882">
        <ele>4.94</ele>
        <time>2017-06-17T18:27:57Z</time>
      </trkpt>
      <trkpt lat="58.157140966504812" lon="8.000478968024254">
        <ele>5.42</ele>
        <time>2017-06-17T18:27:58Z</time>
      </trkpt>
      <trkpt lat="58.157172985374928" lon="8.000602014362812">
        <ele>5.42</ele>
        <time>2017-06-17T18:27:59Z</time>
      </trkpt>
      <trkpt lat="58.157262001186609" lon="8.000857997685671">
        <ele>5.42</ele>
        <time>2017-06-17T18:28:01Z</time>
      </trkpt>
      <trkpt lat="58.157429974526167" lon="8.001228980720043">
        <ele>5.91</ele>
        <time>2017-06-17T18:28:04Z</time>
      </trkpt>
      <trkpt lat="58.157600965350866" lon="8.001482030376792">
        <ele>5.91</ele>
        <time>2017-06-17T18:28:07Z</time>
      </trkpt>
      <trkpt lat="58.157655028626323" lon="8.001515977084637">
        <ele>6.39</ele>
        <time>2017-06-17T18:28:08Z</time>
      </trkpt>
      <trkpt lat="58.157709008082747" lon="8.001508014276624">
        <ele>6.39</ele>
        <time>2017-06-17T18:28:09Z</time>
      </trkpt>
      <trkpt lat="58.157763993367553" lon="8.001451017335057">
        <ele>6.87</ele>
        <time>2017-06-17T18:28:10Z</time>
      </trkpt>
      <trkpt lat="58.157814033329487" lon="8.001365019008517">
        <ele>6.87</ele>
        <time>2017-06-17T18:28:11Z</time>
      </trkpt>
      <trkpt lat="58.157860971987247" lon="8.001262005418539">
        <ele>7.35</ele>
        <time>2017-06-17T18:28:12Z</time>
      </trkpt>
      <trkpt lat="58.157983012497425" lon="8.001055978238583">
        <ele>7.35</ele>
        <time>2017-06-17T18:28:14Z</time>
      </trkpt>
      <trkpt lat="58.15805995836854" lon="8.000957993790507">
        <ele>7.35</ele>
        <time>2017-06-17T18:28:15Z</time>
      </trkpt>
      <trkpt lat="58.15814696252346" lon="8.00087702460587">
        <ele>7.35</ele>
        <time>2017-06-17T18:28:16Z</time>
      </trkpt>
      <trkpt lat="58.158238995820284" lon="8.00081298686564">
        <ele>7.83</ele>
        <time>2017-06-17T18:28:17Z</time>
      </trkpt>
      <trkpt lat="58.158322982490063" lon="8.000755989924073">
        <ele>7.83</ele>
        <time>2017-06-17T18:28:18Z</time>
      </trkpt>
      <trkpt lat="58.158852970227599" lon="8.000365979969502">
        <ele>10.23</ele>
        <time>2017-06-17T18:28:24Z</time>
      </trkpt>
      <trkpt lat="58.158943997696042" lon="8.000246034935117">
        <ele>11.19</ele>
        <time>2017-06-17T18:28:25Z</time>
      </trkpt>
      <trkpt lat="58.159589990973473" lon="7.999306004494429">
        <ele>12.630000000000001</ele>
        <time>2017-06-17T18:28:34Z</time>
      </trkpt>
      <trkpt lat="58.160470006987453" lon="7.998595973476768">
        <ele>14.08</ele>
        <time>2017-06-17T18:28:45Z</time>
      </trkpt>
      <trkpt lat="58.160927994176745" lon="7.998210992664099">
        <ele>14.08</ele>
        <time>2017-06-17T18:28:52Z</time>
      </trkpt>
      <trkpt lat="58.160976022481918" lon="7.998137986287475">
        <ele>14.08</ele>
        <time>2017-06-17T18:28:53Z</time>
      </trkpt>
      <trkpt lat="58.16102497279644" lon="7.998042013496161">
        <ele>14.08</ele>
        <time>2017-06-17T18:28:54Z</time>
      </trkpt>
      <trkpt lat="58.161745984107256" lon="7.99653897061944">
        <ele>13.6</ele>
        <time>2017-06-17T18:29:07Z</time>
      </trkpt>
      <trkpt lat="58.161811027675867" lon="7.996483985334635">
        <ele>13.6</ele>
        <time>2017-06-17T18:29:08Z</time>
      </trkpt>
      <trkpt lat="58.161867018789053" lon="7.996485996991396">
        <ele>13.119999999999999</ele>
        <time>2017-06-17T18:29:09Z</time>
      </trkpt>
      <trkpt lat="58.161984030157328" lon="7.996505023911595">
        <ele>13.119999999999999</ele>
        <time>2017-06-17T18:29:11Z</time>
      </trkpt>
      <trkpt lat="58.162044966593385" lon="7.996434029191732">
        <ele>13.119999999999999</ele>
        <time>2017-06-17T18:29:12Z</time>
      </trkpt>
      <trkpt lat="58.162099029868841" lon="7.996327998116612">
        <ele>13.6</ele>
        <time>2017-06-17T18:29:13Z</time>
      </trkpt>
      <trkpt lat="58.16274200566113" lon="7.995202979072928">
        <ele>21.77</ele>
        <time>2017-06-17T18:29:22Z</time>
      </trkpt>
      <trkpt lat="58.163836011663079" lon="7.994234031066299">
        <ele>31.379999999999999</ele>
        <time>2017-06-17T18:29:33Z</time>
      </trkpt>
      <trkpt lat="58.164652995765209" lon="7.99368099309504">
        <ele>40.990000000000002</ele>
        <time>2017-06-17T18:29:42Z</time>
      </trkpt>
      <trkpt lat="58.165400996804237" lon="7.99314103089273">
        <ele>45.799999999999997</ele>
        <time>2017-06-17T18:29:51Z</time>
      </trkpt>
      <trkpt lat="58.165950011461973" lon="7.992703998461366">
        <ele>43.880000000000003</ele>
        <time>2017-06-17T18:29:58Z</time>
      </trkpt>
      <trkpt lat="58.16602704115212" lon="7.99258598126471">
        <ele>43.399999999999999</ele>
        <time>2017-06-17T18:29:59Z</time>
      </trkpt>
      <trkpt lat="58.166228961199522" lon="7.992208963260055">
        <ele>40.990000000000002</ele>
        <time>2017-06-17T18:30:02Z</time>
      </trkpt>
      <trkpt lat="58.166281012818217" lon="7.992077032104135">
        <ele>41.950000000000003</ele>
        <time>2017-06-17T18:30:03Z</time>
      </trkpt>
      <trkpt lat="58.166317977011204" lon="7.991952979937196">
        <ele>41.950000000000003</ele>
        <time>2017-06-17T18:30:04Z</time>
      </trkpt>
      <trkpt lat="58.166444040834904" lon="7.991312015801668">
        <ele>41.469999999999999</ele>
        <time>2017-06-17T18:30:11Z</time>
      </trkpt>
      <trkpt lat="58.166497014462948" lon="7.99108000472188">
        <ele>39.549999999999997</ele>
        <time>2017-06-17T18:30:15Z</time>
      </trkpt>
      <trkpt lat="58.166520986706018" lon="7.991060977801681">
        <ele>39.549999999999997</ele>
        <time>2017-06-17T18:30:16Z</time>
      </trkpt>
      <trkpt lat="58.166547976434231" lon="7.991045974195004">
        <ele>39.07</ele>
        <time>2017-06-17T18:30:17Z</time>
      </trkpt>
      <trkpt lat="58.166805971413851" lon="7.991045974195004">
        <ele>40.030000000000001</ele>
        <time>2017-06-17T18:30:26Z</time>
      </trkpt>
      <trkpt lat="58.16682399250567" lon="7.991087967529893">
        <ele>40.030000000000001</ele>
        <time>2017-06-17T18:30:27Z</time>
      </trkpt>
      <trkpt lat="58.166820975020528" lon="7.991140019148588">
        <ele>40.509999999999998</ele>
        <time>2017-06-17T18:30:28Z</time>
      </trkpt>
      <trkpt lat="58.166805971413851" lon="7.991183018311858">
        <ele>40.509999999999998</ele>
        <time>2017-06-17T18:30:29Z</time>
      </trkpt>
      <trkpt lat="58.166783004999161" lon="7.991227023303509">
        <ele>41.469999999999999</ele>
        <time>2017-06-17T18:30:30Z</time>
      </trkpt>
      <trkpt lat="58.166757021099329" lon="7.991261975839734">
        <ele>42.439999999999998</ele>
        <time>2017-06-17T18:30:31Z</time>
      </trkpt>
      <trkpt lat="58.166734976693988" lon="7.991285026073456">
        <ele>42.920000000000002</ele>
        <time>2017-06-17T18:30:32Z</time>
      </trkpt>
      <trkpt lat="58.166708992794156" lon="7.991347974166274">
        <ele>44.359999999999999</ele>
        <time>2017-06-17T18:30:47Z</time>
      </trkpt>
      <trkpt lat="58.166723996400833" lon="7.991343028843403">
        <ele>45.32</ele>
        <time>2017-06-17T18:31:30Z</time>
      </trkpt>
      <trkpt lat="58.16671796143055" lon="7.991354009136558">
        <ele>45.799999999999997</ele>
        <time>2017-06-17T18:32:06Z</time>
      </trkpt>
      <trkpt lat="58.166714021936059" lon="7.99135803245008">
        <ele>45.799999999999997</ele>
        <time>2017-06-17T18:32:53Z</time>
      </trkpt>
    </trkseg>
  </trk>

</gpx>